<?xml version="1.0" encoding="UTF-8" standalone="no" ?>
<gpx xmlns="http://www.topografix.com/GPX/1/1" xmlns:xsi="http://www.w3.org/2001/XMLSchema-instance" xsi:schemaLocation="http://www.topografix.com/GPX/1/1 http://www.topografix.com/GPX/1/1/gpx.xsd" version="1.1" creator="VisuGPX - https://www.visugpx.com">
  <metadata>
    <name>rando Guy du 8 août 2018</name>
    <desc><![CDATA[randonnée au Lac bleu du 8 août 2018]]></desc>
  </metadata>
  <trk>
    <name><![CDATA[coumette d'espagne]]></name>
    <trkseg>
      <trkpt lat="42.55976" lon="1.99871">
        <ele>2005.45</ele>
        <time>2018-08-08T05:05:28Z</time>
      </trkpt>
      <trkpt lat="42.55977" lon="1.9987">
        <ele>2005.93</ele>
        <time>2018-08-08T05:05:29Z</time>
      </trkpt>
      <trkpt lat="42.5598" lon="1.99864">
        <ele>2010.25</ele>
        <time>2018-08-08T05:05:37Z</time>
      </trkpt>
      <trkpt lat="42.55982" lon="1.99863">
        <ele>2011.22</ele>
        <time>2018-08-08T05:05:39Z</time>
      </trkpt>
      <trkpt lat="42.55992" lon="1.99857">
        <ele>2014.1</ele>
        <time>2018-08-08T05:05:49Z</time>
      </trkpt>
      <trkpt lat="42.56005" lon="1.99848">
        <ele>2017.46</ele>
        <time>2018-08-08T05:06:03Z</time>
      </trkpt>
      <trkpt lat="42.56016" lon="1.99831">
        <ele>2018.43</ele>
        <time>2018-08-08T05:06:21Z</time>
      </trkpt>
      <trkpt lat="42.56028" lon="1.9982">
        <ele>2018.43</ele>
        <time>2018-08-08T05:06:35Z</time>
      </trkpt>
      <trkpt lat="42.56041" lon="1.99802">
        <ele>2018.91</ele>
        <time>2018-08-08T05:06:52Z</time>
      </trkpt>
      <trkpt lat="42.56042" lon="1.99802">
        <ele>2018.91</ele>
        <time>2018-08-08T05:06:54Z</time>
      </trkpt>
      <trkpt lat="42.56062" lon="1.99793">
        <ele>2018.91</ele>
        <time>2018-08-08T05:07:12Z</time>
      </trkpt>
      <trkpt lat="42.56079" lon="1.99781">
        <ele>2018.91</ele>
        <time>2018-08-08T05:07:29Z</time>
      </trkpt>
      <trkpt lat="42.56079" lon="1.99779">
        <ele>2018.91</ele>
        <time>2018-08-08T05:07:30Z</time>
      </trkpt>
      <trkpt lat="42.5608" lon="1.99768">
        <ele>2019.87</ele>
        <time>2018-08-08T05:07:44Z</time>
      </trkpt>
      <trkpt lat="42.56089" lon="1.9976">
        <ele>2021.31</ele>
        <time>2018-08-08T05:07:58Z</time>
      </trkpt>
      <trkpt lat="42.56092" lon="1.9976">
        <ele>2021.79</ele>
        <time>2018-08-08T05:08:02Z</time>
      </trkpt>
      <trkpt lat="42.561" lon="1.99766">
        <ele>2022.27</ele>
        <time>2018-08-08T05:08:12Z</time>
      </trkpt>
      <trkpt lat="42.5611" lon="1.99759">
        <ele>2022.75</ele>
        <time>2018-08-08T05:08:27Z</time>
      </trkpt>
      <trkpt lat="42.56115" lon="1.99758">
        <ele>2020.35</ele>
        <time>2018-08-08T05:08:39Z</time>
      </trkpt>
      <trkpt lat="42.56128" lon="1.99753">
        <ele>2018.91</ele>
        <time>2018-08-08T05:08:54Z</time>
      </trkpt>
      <trkpt lat="42.56131" lon="1.99747">
        <ele>2018.91</ele>
        <time>2018-08-08T05:09:01Z</time>
      </trkpt>
      <trkpt lat="42.56143" lon="1.99739">
        <ele>2020.83</ele>
        <time>2018-08-08T05:09:15Z</time>
      </trkpt>
      <trkpt lat="42.56156" lon="1.99733">
        <ele>2020.83</ele>
        <time>2018-08-08T05:09:30Z</time>
      </trkpt>
      <trkpt lat="42.56168" lon="1.99723">
        <ele>2020.83</ele>
        <time>2018-08-08T05:09:43Z</time>
      </trkpt>
      <trkpt lat="42.56179" lon="1.99717">
        <ele>2020.83</ele>
        <time>2018-08-08T05:09:55Z</time>
      </trkpt>
      <trkpt lat="42.56183" lon="1.99709">
        <ele>2021.79</ele>
        <time>2018-08-08T05:10:09Z</time>
      </trkpt>
      <trkpt lat="42.5619" lon="1.99707">
        <ele>2024.19</ele>
        <time>2018-08-08T05:10:23Z</time>
      </trkpt>
      <trkpt lat="42.56204" lon="1.99692">
        <ele>2024.67</ele>
        <time>2018-08-08T05:10:39Z</time>
      </trkpt>
      <trkpt lat="42.56212" lon="1.99687">
        <ele>2023.23</ele>
        <time>2018-08-08T05:10:53Z</time>
      </trkpt>
      <trkpt lat="42.56212" lon="1.99687">
        <ele>2023.23</ele>
        <time>2018-08-08T05:10:54Z</time>
      </trkpt>
      <trkpt lat="42.56217" lon="1.99694">
        <ele>2021.31</ele>
        <time>2018-08-08T05:11:12Z</time>
      </trkpt>
      <trkpt lat="42.56228" lon="1.99696">
        <ele>2019.87</ele>
        <time>2018-08-08T05:11:26Z</time>
      </trkpt>
      <trkpt lat="42.56238" lon="1.99695">
        <ele>2018.91</ele>
        <time>2018-08-08T05:11:39Z</time>
      </trkpt>
      <trkpt lat="42.56243" lon="1.99692">
        <ele>2017.94</ele>
        <time>2018-08-08T05:11:48Z</time>
      </trkpt>
      <trkpt lat="42.56245" lon="1.99685">
        <ele>2017.94</ele>
        <time>2018-08-08T05:11:52Z</time>
      </trkpt>
      <trkpt lat="42.56248" lon="1.9968">
        <ele>2017.46</ele>
        <time>2018-08-08T05:11:57Z</time>
      </trkpt>
      <trkpt lat="42.56266" lon="1.99679">
        <ele>2016.98</ele>
        <time>2018-08-08T05:12:13Z</time>
      </trkpt>
      <trkpt lat="42.56269" lon="1.99675">
        <ele>2018.43</ele>
        <time>2018-08-08T05:12:20Z</time>
      </trkpt>
      <trkpt lat="42.56278" lon="1.99667">
        <ele>2020.83</ele>
        <time>2018-08-08T05:12:35Z</time>
      </trkpt>
      <trkpt lat="42.56286" lon="1.99661">
        <ele>2021.31</ele>
        <time>2018-08-08T05:12:49Z</time>
      </trkpt>
      <trkpt lat="42.56298" lon="1.99662">
        <ele>2021.31</ele>
        <time>2018-08-08T05:13:04Z</time>
      </trkpt>
      <trkpt lat="42.56304" lon="1.99657">
        <ele>2021.31</ele>
        <time>2018-08-08T05:13:16Z</time>
      </trkpt>
      <trkpt lat="42.56311" lon="1.99654">
        <ele>2021.79</ele>
        <time>2018-08-08T05:13:24Z</time>
      </trkpt>
      <trkpt lat="42.5633" lon="1.99643">
        <ele>2021.79</ele>
        <time>2018-08-08T05:13:39Z</time>
      </trkpt>
      <trkpt lat="42.56341" lon="1.99638">
        <ele>2021.79</ele>
        <time>2018-08-08T05:13:53Z</time>
      </trkpt>
      <trkpt lat="42.56353" lon="1.99635">
        <ele>2022.27</ele>
        <time>2018-08-08T05:14:08Z</time>
      </trkpt>
      <trkpt lat="42.56364" lon="1.99624">
        <ele>2023.23</ele>
        <time>2018-08-08T05:14:19Z</time>
      </trkpt>
      <trkpt lat="42.56369" lon="1.99616">
        <ele>2025.15</ele>
        <time>2018-08-08T05:14:32Z</time>
      </trkpt>
      <trkpt lat="42.56377" lon="1.99608">
        <ele>2026.6</ele>
        <time>2018-08-08T05:14:46Z</time>
      </trkpt>
      <trkpt lat="42.56387" lon="1.99598">
        <ele>2028.52</ele>
        <time>2018-08-08T05:15:04Z</time>
      </trkpt>
      <trkpt lat="42.56403" lon="1.99583">
        <ele>2029</ele>
        <time>2018-08-08T05:15:20Z</time>
      </trkpt>
      <trkpt lat="42.56408" lon="1.99569">
        <ele>2030.44</ele>
        <time>2018-08-08T05:15:37Z</time>
      </trkpt>
      <trkpt lat="42.56412" lon="1.99548">
        <ele>2030.44</ele>
        <time>2018-08-08T05:15:54Z</time>
      </trkpt>
      <trkpt lat="42.56409" lon="1.99542">
        <ele>2029</ele>
        <time>2018-08-08T05:16:08Z</time>
      </trkpt>
      <trkpt lat="42.56413" lon="1.99537">
        <ele>2026.6</ele>
        <time>2018-08-08T05:16:25Z</time>
      </trkpt>
      <trkpt lat="42.5642" lon="1.99531">
        <ele>2025.15</ele>
        <time>2018-08-08T05:16:39Z</time>
      </trkpt>
      <trkpt lat="42.56428" lon="1.99532">
        <ele>2022.75</ele>
        <time>2018-08-08T05:16:53Z</time>
      </trkpt>
      <trkpt lat="42.56432" lon="1.99537">
        <ele>2021.79</ele>
        <time>2018-08-08T05:17:02Z</time>
      </trkpt>
      <trkpt lat="42.56438" lon="1.99542">
        <ele>2020.35</ele>
        <time>2018-08-08T05:17:10Z</time>
      </trkpt>
      <trkpt lat="42.56445" lon="1.99554">
        <ele>2019.39</ele>
        <time>2018-08-08T05:17:25Z</time>
      </trkpt>
      <trkpt lat="42.56456" lon="1.99568">
        <ele>2020.35</ele>
        <time>2018-08-08T05:17:41Z</time>
      </trkpt>
      <trkpt lat="42.56467" lon="1.99566">
        <ele>2020.83</ele>
        <time>2018-08-08T05:17:51Z</time>
      </trkpt>
      <trkpt lat="42.56471" lon="1.99566">
        <ele>2020.83</ele>
        <time>2018-08-08T05:17:53Z</time>
      </trkpt>
      <trkpt lat="42.56488" lon="1.99566">
        <ele>2020.83</ele>
        <time>2018-08-08T05:18:07Z</time>
      </trkpt>
      <trkpt lat="42.56498" lon="1.99567">
        <ele>2019.39</ele>
        <time>2018-08-08T05:18:18Z</time>
      </trkpt>
      <trkpt lat="42.56512" lon="1.99563">
        <ele>2016.98</ele>
        <time>2018-08-08T05:18:33Z</time>
      </trkpt>
      <trkpt lat="42.56513" lon="1.99563">
        <ele>2016.5</ele>
        <time>2018-08-08T05:18:34Z</time>
      </trkpt>
      <trkpt lat="42.5652" lon="1.9956">
        <ele>2015.54</ele>
        <time>2018-08-08T05:18:45Z</time>
      </trkpt>
      <trkpt lat="42.5653" lon="1.99565">
        <ele>2015.54</ele>
        <time>2018-08-08T05:18:58Z</time>
      </trkpt>
      <trkpt lat="42.56534" lon="1.99566">
        <ele>2015.54</ele>
        <time>2018-08-08T05:19:03Z</time>
      </trkpt>
      <trkpt lat="42.56542" lon="1.99571">
        <ele>2016.5</ele>
        <time>2018-08-08T05:19:17Z</time>
      </trkpt>
      <trkpt lat="42.56556" lon="1.99571">
        <ele>2017.94</ele>
        <time>2018-08-08T05:19:31Z</time>
      </trkpt>
      <trkpt lat="42.56563" lon="1.99566">
        <ele>2019.39</ele>
        <time>2018-08-08T05:19:41Z</time>
      </trkpt>
      <trkpt lat="42.56574" lon="1.99563">
        <ele>2020.35</ele>
        <time>2018-08-08T05:19:55Z</time>
      </trkpt>
      <trkpt lat="42.56575" lon="1.99563">
        <ele>2020.35</ele>
        <time>2018-08-08T05:19:56Z</time>
      </trkpt>
      <trkpt lat="42.56596" lon="1.99555">
        <ele>2020.83</ele>
        <time>2018-08-08T05:20:14Z</time>
      </trkpt>
      <trkpt lat="42.56602" lon="1.99553">
        <ele>2020.83</ele>
        <time>2018-08-08T05:20:21Z</time>
      </trkpt>
      <trkpt lat="42.56604" lon="1.99554">
        <ele>2019.39</ele>
        <time>2018-08-08T05:20:23Z</time>
      </trkpt>
      <trkpt lat="42.56613" lon="1.99553">
        <ele>2019.39</ele>
        <time>2018-08-08T05:20:36Z</time>
      </trkpt>
      <trkpt lat="42.5663" lon="1.99548">
        <ele>2018.91</ele>
        <time>2018-08-08T05:20:52Z</time>
      </trkpt>
      <trkpt lat="42.56635" lon="1.99545">
        <ele>2018.43</ele>
        <time>2018-08-08T05:20:59Z</time>
      </trkpt>
      <trkpt lat="42.56646" lon="1.99534">
        <ele>2016.5</ele>
        <time>2018-08-08T05:21:13Z</time>
      </trkpt>
      <trkpt lat="42.56653" lon="1.99519">
        <ele>2016.5</ele>
        <time>2018-08-08T05:21:28Z</time>
      </trkpt>
      <trkpt lat="42.56653" lon="1.99515">
        <ele>2017.94</ele>
        <time>2018-08-08T05:21:31Z</time>
      </trkpt>
      <trkpt lat="42.56656" lon="1.995">
        <ele>2018.91</ele>
        <time>2018-08-08T05:21:46Z</time>
      </trkpt>
      <trkpt lat="42.56655" lon="1.99486">
        <ele>2019.87</ele>
        <time>2018-08-08T05:22:01Z</time>
      </trkpt>
      <trkpt lat="42.56666" lon="1.99477">
        <ele>2020.35</ele>
        <time>2018-08-08T05:22:15Z</time>
      </trkpt>
      <trkpt lat="42.56675" lon="1.99472">
        <ele>2020.35</ele>
        <time>2018-08-08T05:22:29Z</time>
      </trkpt>
      <trkpt lat="42.56678" lon="1.99468">
        <ele>2018.91</ele>
        <time>2018-08-08T05:22:33Z</time>
      </trkpt>
      <trkpt lat="42.56685" lon="1.99462">
        <ele>2018.91</ele>
        <time>2018-08-08T05:22:45Z</time>
      </trkpt>
      <trkpt lat="42.56689" lon="1.99464">
        <ele>2019.87</ele>
        <time>2018-08-08T05:22:58Z</time>
      </trkpt>
      <trkpt lat="42.5669" lon="1.99467">
        <ele>2020.35</ele>
        <time>2018-08-08T05:23:05Z</time>
      </trkpt>
      <trkpt lat="42.56696" lon="1.99477">
        <ele>2019.39</ele>
        <time>2018-08-08T05:23:22Z</time>
      </trkpt>
      <trkpt lat="42.56695" lon="1.99478">
        <ele>2019.39</ele>
        <time>2018-08-08T05:23:23Z</time>
      </trkpt>
      <trkpt lat="42.56716" lon="1.99474">
        <ele>2018.43</ele>
        <time>2018-08-08T05:23:37Z</time>
      </trkpt>
      <trkpt lat="42.56734" lon="1.99467">
        <ele>2016.98</ele>
        <time>2018-08-08T05:23:51Z</time>
      </trkpt>
      <trkpt lat="42.56745" lon="1.99455">
        <ele>2016.5</ele>
        <time>2018-08-08T05:24:05Z</time>
      </trkpt>
      <trkpt lat="42.5675" lon="1.99443">
        <ele>2016.02</ele>
        <time>2018-08-08T05:24:19Z</time>
      </trkpt>
      <trkpt lat="42.56758" lon="1.9943">
        <ele>2016.02</ele>
        <time>2018-08-08T05:24:34Z</time>
      </trkpt>
      <trkpt lat="42.56764" lon="1.99428">
        <ele>2016.02</ele>
        <time>2018-08-08T05:24:43Z</time>
      </trkpt>
      <trkpt lat="42.56785" lon="1.99428">
        <ele>2016.02</ele>
        <time>2018-08-08T05:24:59Z</time>
      </trkpt>
      <trkpt lat="42.56789" lon="1.99427">
        <ele>2016.02</ele>
        <time>2018-08-08T05:25:04Z</time>
      </trkpt>
      <trkpt lat="42.56806" lon="1.99429">
        <ele>2017.46</ele>
        <time>2018-08-08T05:25:21Z</time>
      </trkpt>
      <trkpt lat="42.56817" lon="1.99435">
        <ele>2018.91</ele>
        <time>2018-08-08T05:25:37Z</time>
      </trkpt>
      <trkpt lat="42.5683" lon="1.99447">
        <ele>2020.35</ele>
        <time>2018-08-08T05:25:53Z</time>
      </trkpt>
      <trkpt lat="42.56839" lon="1.99449">
        <ele>2022.75</ele>
        <time>2018-08-08T05:26:09Z</time>
      </trkpt>
      <trkpt lat="42.56852" lon="1.99455">
        <ele>2023.23</ele>
        <time>2018-08-08T05:26:23Z</time>
      </trkpt>
      <trkpt lat="42.56861" lon="1.99451">
        <ele>2025.15</ele>
        <time>2018-08-08T05:26:38Z</time>
      </trkpt>
      <trkpt lat="42.56869" lon="1.99444">
        <ele>2025.64</ele>
        <time>2018-08-08T05:26:50Z</time>
      </trkpt>
      <trkpt lat="42.56881" lon="1.9944">
        <ele>2024.19</ele>
        <time>2018-08-08T05:27:02Z</time>
      </trkpt>
      <trkpt lat="42.56882" lon="1.9944">
        <ele>2024.19</ele>
        <time>2018-08-08T05:27:03Z</time>
      </trkpt>
      <trkpt lat="42.56892" lon="1.99432">
        <ele>2023.71</ele>
        <time>2018-08-08T05:27:16Z</time>
      </trkpt>
      <trkpt lat="42.569" lon="1.99422">
        <ele>2022.75</ele>
        <time>2018-08-08T05:27:28Z</time>
      </trkpt>
      <trkpt lat="42.56907" lon="1.99413">
        <ele>2019.39</ele>
        <time>2018-08-08T05:27:41Z</time>
      </trkpt>
      <trkpt lat="42.56917" lon="1.99404">
        <ele>2017.46</ele>
        <time>2018-08-08T05:27:58Z</time>
      </trkpt>
      <trkpt lat="42.56925" lon="1.99405">
        <ele>2017.46</ele>
        <time>2018-08-08T05:28:07Z</time>
      </trkpt>
      <trkpt lat="42.56947" lon="1.99403">
        <ele>2017.46</ele>
        <time>2018-08-08T05:28:22Z</time>
      </trkpt>
      <trkpt lat="42.56952" lon="1.99399">
        <ele>2018.91</ele>
        <time>2018-08-08T05:28:29Z</time>
      </trkpt>
      <trkpt lat="42.56961" lon="1.99393">
        <ele>2020.35</ele>
        <time>2018-08-08T05:28:44Z</time>
      </trkpt>
      <trkpt lat="42.56965" lon="1.99388">
        <ele>2022.75</ele>
        <time>2018-08-08T05:28:57Z</time>
      </trkpt>
      <trkpt lat="42.5697" lon="1.99384">
        <ele>2022.75</ele>
        <time>2018-08-08T05:29:03Z</time>
      </trkpt>
      <trkpt lat="42.56978" lon="1.9937">
        <ele>2022.75</ele>
        <time>2018-08-08T05:29:19Z</time>
      </trkpt>
      <trkpt lat="42.56981" lon="1.99365">
        <ele>2020.83</ele>
        <time>2018-08-08T05:29:25Z</time>
      </trkpt>
      <trkpt lat="42.5699" lon="1.99355">
        <ele>2019.87</ele>
        <time>2018-08-08T05:29:36Z</time>
      </trkpt>
      <trkpt lat="42.56996" lon="1.99353">
        <ele>2018.91</ele>
        <time>2018-08-08T05:29:41Z</time>
      </trkpt>
      <trkpt lat="42.57012" lon="1.99346">
        <ele>2018.43</ele>
        <time>2018-08-08T05:29:57Z</time>
      </trkpt>
      <trkpt lat="42.57024" lon="1.99331">
        <ele>2017.94</ele>
        <time>2018-08-08T05:30:12Z</time>
      </trkpt>
      <trkpt lat="42.57027" lon="1.99327">
        <ele>2017.94</ele>
        <time>2018-08-08T05:30:17Z</time>
      </trkpt>
      <trkpt lat="42.57039" lon="1.9931">
        <ele>2017.46</ele>
        <time>2018-08-08T05:30:32Z</time>
      </trkpt>
      <trkpt lat="42.57051" lon="1.99301">
        <ele>2017.46</ele>
        <time>2018-08-08T05:30:47Z</time>
      </trkpt>
      <trkpt lat="42.57052" lon="1.99301">
        <ele>2017.46</ele>
        <time>2018-08-08T05:30:48Z</time>
      </trkpt>
      <trkpt lat="42.5706" lon="1.99297">
        <ele>2016.98</ele>
        <time>2018-08-08T05:30:56Z</time>
      </trkpt>
      <trkpt lat="42.57071" lon="1.99286">
        <ele>2016.98</ele>
        <time>2018-08-08T05:31:10Z</time>
      </trkpt>
      <trkpt lat="42.57074" lon="1.99281">
        <ele>2016.98</ele>
        <time>2018-08-08T05:31:14Z</time>
      </trkpt>
      <trkpt lat="42.57089" lon="1.99268">
        <ele>2016.98</ele>
        <time>2018-08-08T05:31:30Z</time>
      </trkpt>
      <trkpt lat="42.57097" lon="1.9926">
        <ele>2018.43</ele>
        <time>2018-08-08T05:31:41Z</time>
      </trkpt>
      <trkpt lat="42.57108" lon="1.99249">
        <ele>2020.35</ele>
        <time>2018-08-08T05:31:58Z</time>
      </trkpt>
      <trkpt lat="42.57116" lon="1.99246">
        <ele>2021.79</ele>
        <time>2018-08-08T05:32:11Z</time>
      </trkpt>
      <trkpt lat="42.57121" lon="1.99252">
        <ele>2022.27</ele>
        <time>2018-08-08T05:32:20Z</time>
      </trkpt>
      <trkpt lat="42.57135" lon="1.99259">
        <ele>2023.71</ele>
        <time>2018-08-08T05:32:35Z</time>
      </trkpt>
      <trkpt lat="42.57151" lon="1.99269">
        <ele>2025.15</ele>
        <time>2018-08-08T05:32:52Z</time>
      </trkpt>
      <trkpt lat="42.5716" lon="1.99275">
        <ele>2027.08</ele>
        <time>2018-08-08T05:33:07Z</time>
      </trkpt>
      <trkpt lat="42.57172" lon="1.99286">
        <ele>2028.52</ele>
        <time>2018-08-08T05:33:24Z</time>
      </trkpt>
      <trkpt lat="42.57184" lon="1.99301">
        <ele>2029.96</ele>
        <time>2018-08-08T05:33:42Z</time>
      </trkpt>
      <trkpt lat="42.5719" lon="1.99313">
        <ele>2030.92</ele>
        <time>2018-08-08T05:33:58Z</time>
      </trkpt>
      <trkpt lat="42.57196" lon="1.99324">
        <ele>2028.52</ele>
        <time>2018-08-08T05:34:10Z</time>
      </trkpt>
      <trkpt lat="42.57208" lon="1.99331">
        <ele>2028.04</ele>
        <time>2018-08-08T05:34:22Z</time>
      </trkpt>
      <trkpt lat="42.57217" lon="1.99332">
        <ele>2028.04</ele>
        <time>2018-08-08T05:34:30Z</time>
      </trkpt>
      <trkpt lat="42.57225" lon="1.99333">
        <ele>2029</ele>
        <time>2018-08-08T05:34:42Z</time>
      </trkpt>
      <trkpt lat="42.57231" lon="1.99326">
        <ele>2031.4</ele>
        <time>2018-08-08T05:34:56Z</time>
      </trkpt>
      <trkpt lat="42.57238" lon="1.99316">
        <ele>2032.84</ele>
        <time>2018-08-08T05:35:11Z</time>
      </trkpt>
      <trkpt lat="42.57245" lon="1.993">
        <ele>2033.81</ele>
        <time>2018-08-08T05:35:28Z</time>
      </trkpt>
      <trkpt lat="42.5725" lon="1.99295">
        <ele>2032.84</ele>
        <time>2018-08-08T05:35:33Z</time>
      </trkpt>
      <trkpt lat="42.57251" lon="1.99293">
        <ele>2032.84</ele>
        <time>2018-08-08T05:35:35Z</time>
      </trkpt>
      <trkpt lat="42.57254" lon="1.99285">
        <ele>2032.84</ele>
        <time>2018-08-08T05:35:42Z</time>
      </trkpt>
      <trkpt lat="42.57262" lon="1.99282">
        <ele>2032.84</ele>
        <time>2018-08-08T05:35:57Z</time>
      </trkpt>
      <trkpt lat="42.57267" lon="1.99283">
        <ele>2033.81</ele>
        <time>2018-08-08T05:36:18Z</time>
      </trkpt>
      <trkpt lat="42.57268" lon="1.99279">
        <ele>2032.84</ele>
        <time>2018-08-08T05:36:29Z</time>
      </trkpt>
      <trkpt lat="42.5727" lon="1.99278">
        <ele>2031.88</ele>
        <time>2018-08-08T05:36:44Z</time>
      </trkpt>
      <trkpt lat="42.57277" lon="1.9928">
        <ele>2031.4</ele>
        <time>2018-08-08T05:36:58Z</time>
      </trkpt>
      <trkpt lat="42.57282" lon="1.99275">
        <ele>2032.84</ele>
        <time>2018-08-08T05:37:05Z</time>
      </trkpt>
      <trkpt lat="42.57292" lon="1.99269">
        <ele>2032.84</ele>
        <time>2018-08-08T05:37:18Z</time>
      </trkpt>
      <trkpt lat="42.57308" lon="1.99268">
        <ele>2030.92</ele>
        <time>2018-08-08T05:37:34Z</time>
      </trkpt>
      <trkpt lat="42.57315" lon="1.99268">
        <ele>2030.92</ele>
        <time>2018-08-08T05:37:41Z</time>
      </trkpt>
      <trkpt lat="42.57328" lon="1.9927">
        <ele>2032.84</ele>
        <time>2018-08-08T05:37:59Z</time>
      </trkpt>
      <trkpt lat="42.57343" lon="1.99279">
        <ele>2032.84</ele>
        <time>2018-08-08T05:38:18Z</time>
      </trkpt>
      <trkpt lat="42.57355" lon="1.99288">
        <ele>2029.96</ele>
        <time>2018-08-08T05:38:34Z</time>
      </trkpt>
      <trkpt lat="42.57371" lon="1.99289">
        <ele>2028.52</ele>
        <time>2018-08-08T05:38:48Z</time>
      </trkpt>
      <trkpt lat="42.57382" lon="1.99287">
        <ele>2028.52</ele>
        <time>2018-08-08T05:38:58Z</time>
      </trkpt>
      <trkpt lat="42.574" lon="1.99295">
        <ele>2028.52</ele>
        <time>2018-08-08T05:39:16Z</time>
      </trkpt>
      <trkpt lat="42.57413" lon="1.99299">
        <ele>2027.56</ele>
        <time>2018-08-08T05:39:32Z</time>
      </trkpt>
      <trkpt lat="42.57422" lon="1.99308">
        <ele>2026.6</ele>
        <time>2018-08-08T05:39:46Z</time>
      </trkpt>
      <trkpt lat="42.57428" lon="1.99316">
        <ele>2025.15</ele>
        <time>2018-08-08T05:40:01Z</time>
      </trkpt>
      <trkpt lat="42.57438" lon="1.99319">
        <ele>2023.71</ele>
        <time>2018-08-08T05:40:16Z</time>
      </trkpt>
      <trkpt lat="42.57445" lon="1.99324">
        <ele>2023.23</ele>
        <time>2018-08-08T05:40:28Z</time>
      </trkpt>
      <trkpt lat="42.57456" lon="1.99339">
        <ele>2024.67</ele>
        <time>2018-08-08T05:40:44Z</time>
      </trkpt>
      <trkpt lat="42.57464" lon="1.99345">
        <ele>2023.23</ele>
        <time>2018-08-08T05:40:52Z</time>
      </trkpt>
      <trkpt lat="42.57476" lon="1.99354">
        <ele>2022.27</ele>
        <time>2018-08-08T05:41:06Z</time>
      </trkpt>
      <trkpt lat="42.57479" lon="1.99356">
        <ele>2022.27</ele>
        <time>2018-08-08T05:41:09Z</time>
      </trkpt>
      <trkpt lat="42.57499" lon="1.99364">
        <ele>2021.31</ele>
        <time>2018-08-08T05:41:28Z</time>
      </trkpt>
      <trkpt lat="42.57511" lon="1.99369">
        <ele>2020.83</ele>
        <time>2018-08-08T05:41:42Z</time>
      </trkpt>
      <trkpt lat="42.57526" lon="1.99375">
        <ele>2020.83</ele>
        <time>2018-08-08T05:41:57Z</time>
      </trkpt>
      <trkpt lat="42.57533" lon="1.99378">
        <ele>2020.83</ele>
        <time>2018-08-08T05:42:05Z</time>
      </trkpt>
      <trkpt lat="42.57553" lon="1.99391">
        <ele>2022.75</ele>
        <time>2018-08-08T05:42:25Z</time>
      </trkpt>
      <trkpt lat="42.57571" lon="1.99401">
        <ele>2022.75</ele>
        <time>2018-08-08T05:42:42Z</time>
      </trkpt>
      <trkpt lat="42.57578" lon="1.99404">
        <ele>2021.31</ele>
        <time>2018-08-08T05:42:52Z</time>
      </trkpt>
      <trkpt lat="42.57591" lon="1.99409">
        <ele>2020.35</ele>
        <time>2018-08-08T05:43:08Z</time>
      </trkpt>
      <trkpt lat="42.57593" lon="1.99409">
        <ele>2020.35</ele>
        <time>2018-08-08T05:43:10Z</time>
      </trkpt>
      <trkpt lat="42.57612" lon="1.99409">
        <ele>2020.35</ele>
        <time>2018-08-08T05:43:29Z</time>
      </trkpt>
      <trkpt lat="42.57621" lon="1.99407">
        <ele>2020.35</ele>
        <time>2018-08-08T05:43:39Z</time>
      </trkpt>
      <trkpt lat="42.57635" lon="1.99405">
        <ele>2019.87</ele>
        <time>2018-08-08T05:43:53Z</time>
      </trkpt>
      <trkpt lat="42.57636" lon="1.99406">
        <ele>2019.87</ele>
        <time>2018-08-08T05:43:54Z</time>
      </trkpt>
      <trkpt lat="42.57649" lon="1.99416">
        <ele>2021.79</ele>
        <time>2018-08-08T05:44:12Z</time>
      </trkpt>
      <trkpt lat="42.57659" lon="1.99414">
        <ele>2023.23</ele>
        <time>2018-08-08T05:44:24Z</time>
      </trkpt>
      <trkpt lat="42.57661" lon="1.99413">
        <ele>2023.71</ele>
        <time>2018-08-08T05:44:27Z</time>
      </trkpt>
      <trkpt lat="42.57675" lon="1.99403">
        <ele>2023.23</ele>
        <time>2018-08-08T05:44:43Z</time>
      </trkpt>
      <trkpt lat="42.57676" lon="1.99401">
        <ele>2022.27</ele>
        <time>2018-08-08T05:44:45Z</time>
      </trkpt>
      <trkpt lat="42.57692" lon="1.9939">
        <ele>2021.31</ele>
        <time>2018-08-08T05:45:04Z</time>
      </trkpt>
      <trkpt lat="42.57693" lon="1.9939">
        <ele>2021.31</ele>
        <time>2018-08-08T05:45:05Z</time>
      </trkpt>
      <trkpt lat="42.5771" lon="1.99392">
        <ele>2021.31</ele>
        <time>2018-08-08T05:45:22Z</time>
      </trkpt>
      <trkpt lat="42.57717" lon="1.99389">
        <ele>2021.31</ele>
        <time>2018-08-08T05:45:30Z</time>
      </trkpt>
      <trkpt lat="42.57725" lon="1.99388">
        <ele>2021.31</ele>
        <time>2018-08-08T05:45:38Z</time>
      </trkpt>
      <trkpt lat="42.5773" lon="1.99386">
        <ele>2021.31</ele>
        <time>2018-08-08T05:45:44Z</time>
      </trkpt>
      <trkpt lat="42.57742" lon="1.99387">
        <ele>2022.75</ele>
        <time>2018-08-08T05:46:00Z</time>
      </trkpt>
      <trkpt lat="42.57752" lon="1.99385">
        <ele>2023.23</ele>
        <time>2018-08-08T05:46:18Z</time>
      </trkpt>
      <trkpt lat="42.57762" lon="1.99384">
        <ele>2023.71</ele>
        <time>2018-08-08T05:46:28Z</time>
      </trkpt>
      <trkpt lat="42.57775" lon="1.99387">
        <ele>2025.15</ele>
        <time>2018-08-08T05:46:45Z</time>
      </trkpt>
      <trkpt lat="42.57791" lon="1.9939">
        <ele>2025.64</ele>
        <time>2018-08-08T05:47:01Z</time>
      </trkpt>
      <trkpt lat="42.57797" lon="1.99392">
        <ele>2025.64</ele>
        <time>2018-08-08T05:47:08Z</time>
      </trkpt>
      <trkpt lat="42.57799" lon="1.99394">
        <ele>2025.64</ele>
        <time>2018-08-08T05:47:10Z</time>
      </trkpt>
      <trkpt lat="42.57817" lon="1.994">
        <ele>2025.64</ele>
        <time>2018-08-08T05:47:26Z</time>
      </trkpt>
      <trkpt lat="42.57819" lon="1.994">
        <ele>2025.64</ele>
        <time>2018-08-08T05:47:28Z</time>
      </trkpt>
      <trkpt lat="42.57823" lon="1.99401">
        <ele>2025.64</ele>
        <time>2018-08-08T05:47:32Z</time>
      </trkpt>
      <trkpt lat="42.57838" lon="1.99405">
        <ele>2026.6</ele>
        <time>2018-08-08T05:47:50Z</time>
      </trkpt>
      <trkpt lat="42.57845" lon="1.99405">
        <ele>2029</ele>
        <time>2018-08-08T05:48:05Z</time>
      </trkpt>
      <trkpt lat="42.57849" lon="1.99407">
        <ele>2029.48</ele>
        <time>2018-08-08T05:48:11Z</time>
      </trkpt>
      <trkpt lat="42.57857" lon="1.99415">
        <ele>2029.96</ele>
        <time>2018-08-08T05:48:20Z</time>
      </trkpt>
      <trkpt lat="42.57859" lon="1.99419">
        <ele>2029.96</ele>
        <time>2018-08-08T05:48:24Z</time>
      </trkpt>
      <trkpt lat="42.57871" lon="1.99431">
        <ele>2030.92</ele>
        <time>2018-08-08T05:48:39Z</time>
      </trkpt>
      <trkpt lat="42.57872" lon="1.99435">
        <ele>2030.92</ele>
        <time>2018-08-08T05:48:43Z</time>
      </trkpt>
      <trkpt lat="42.57876" lon="1.99446">
        <ele>2031.4</ele>
        <time>2018-08-08T05:48:52Z</time>
      </trkpt>
      <trkpt lat="42.57892" lon="1.99459">
        <ele>2031.4</ele>
        <time>2018-08-08T05:49:09Z</time>
      </trkpt>
      <trkpt lat="42.57909" lon="1.99468">
        <ele>2031.88</ele>
        <time>2018-08-08T05:49:27Z</time>
      </trkpt>
      <trkpt lat="42.57918" lon="1.99481">
        <ele>2033.33</ele>
        <time>2018-08-08T05:49:44Z</time>
      </trkpt>
      <trkpt lat="42.57924" lon="1.99489">
        <ele>2035.73</ele>
        <time>2018-08-08T05:49:57Z</time>
      </trkpt>
      <trkpt lat="42.57928" lon="1.99499">
        <ele>2038.61</ele>
        <time>2018-08-08T05:50:13Z</time>
      </trkpt>
      <trkpt lat="42.57935" lon="1.99505">
        <ele>2040.54</ele>
        <time>2018-08-08T05:50:28Z</time>
      </trkpt>
      <trkpt lat="42.57942" lon="1.99512">
        <ele>2041.5</ele>
        <time>2018-08-08T05:50:41Z</time>
      </trkpt>
      <trkpt lat="42.57959" lon="1.99522">
        <ele>2041.5</ele>
        <time>2018-08-08T05:50:58Z</time>
      </trkpt>
      <trkpt lat="42.57961" lon="1.99525">
        <ele>2040.05</ele>
        <time>2018-08-08T05:51:01Z</time>
      </trkpt>
      <trkpt lat="42.57977" lon="1.99535">
        <ele>2040.05</ele>
        <time>2018-08-08T05:51:18Z</time>
      </trkpt>
      <trkpt lat="42.57989" lon="1.99543">
        <ele>2041.5</ele>
        <time>2018-08-08T05:51:33Z</time>
      </trkpt>
      <trkpt lat="42.57997" lon="1.99551">
        <ele>2041.5</ele>
        <time>2018-08-08T05:51:45Z</time>
      </trkpt>
      <trkpt lat="42.58008" lon="1.99555">
        <ele>2042.94</ele>
        <time>2018-08-08T05:51:59Z</time>
      </trkpt>
      <trkpt lat="42.58019" lon="1.99562">
        <ele>2042.94</ele>
        <time>2018-08-08T05:52:15Z</time>
      </trkpt>
      <trkpt lat="42.58022" lon="1.99563">
        <ele>2042.94</ele>
        <time>2018-08-08T05:52:18Z</time>
      </trkpt>
      <trkpt lat="42.58025" lon="1.99562">
        <ele>2042.94</ele>
        <time>2018-08-08T05:52:22Z</time>
      </trkpt>
      <trkpt lat="42.58031" lon="1.99561">
        <ele>2042.94</ele>
        <time>2018-08-08T05:52:28Z</time>
      </trkpt>
      <trkpt lat="42.5804" lon="1.99559">
        <ele>2042.94</ele>
        <time>2018-08-08T05:52:37Z</time>
      </trkpt>
      <trkpt lat="42.58048" lon="1.99558">
        <ele>2041.5</ele>
        <time>2018-08-08T05:52:46Z</time>
      </trkpt>
      <trkpt lat="42.58052" lon="1.99558">
        <ele>2041.02</ele>
        <time>2018-08-08T05:52:50Z</time>
      </trkpt>
      <trkpt lat="42.5806" lon="1.99555">
        <ele>2040.05</ele>
        <time>2018-08-08T05:52:59Z</time>
      </trkpt>
      <trkpt lat="42.58073" lon="1.99556">
        <ele>2036.69</ele>
        <time>2018-08-08T05:53:15Z</time>
      </trkpt>
      <trkpt lat="42.58074" lon="1.99557">
        <ele>2036.69</ele>
        <time>2018-08-08T05:53:17Z</time>
      </trkpt>
      <trkpt lat="42.58085" lon="1.99548">
        <ele>2037.65</ele>
        <time>2018-08-08T05:53:31Z</time>
      </trkpt>
      <trkpt lat="42.58087" lon="1.99539">
        <ele>2038.61</ele>
        <time>2018-08-08T05:53:44Z</time>
      </trkpt>
      <trkpt lat="42.5809" lon="1.99536">
        <ele>2040.05</ele>
        <time>2018-08-08T05:53:58Z</time>
      </trkpt>
      <trkpt lat="42.5809" lon="1.99534">
        <ele>2040.54</ele>
        <time>2018-08-08T05:54:15Z</time>
      </trkpt>
      <trkpt lat="42.58096" lon="1.99531">
        <ele>2041.5</ele>
        <time>2018-08-08T05:54:27Z</time>
      </trkpt>
      <trkpt lat="42.58103" lon="1.99528">
        <ele>2042.94</ele>
        <time>2018-08-08T05:54:40Z</time>
      </trkpt>
      <trkpt lat="42.58114" lon="1.99524">
        <ele>2043.9</ele>
        <time>2018-08-08T05:54:54Z</time>
      </trkpt>
      <trkpt lat="42.58128" lon="1.99521">
        <ele>2043.9</ele>
        <time>2018-08-08T05:55:09Z</time>
      </trkpt>
      <trkpt lat="42.58133" lon="1.99519">
        <ele>2043.9</ele>
        <time>2018-08-08T05:55:22Z</time>
      </trkpt>
      <trkpt lat="42.58134" lon="1.9952">
        <ele>2043.9</ele>
        <time>2018-08-08T05:55:41Z</time>
      </trkpt>
      <trkpt lat="42.58134" lon="1.99521">
        <ele>2043.9</ele>
        <time>2018-08-08T05:55:55Z</time>
      </trkpt>
      <trkpt lat="42.58134" lon="1.99521">
        <ele>2040.54</ele>
        <time>2018-08-08T05:56:04Z</time>
      </trkpt>
      <trkpt lat="42.58135" lon="1.99521">
        <ele>2043.9</ele>
        <time>2018-08-08T05:56:09Z</time>
      </trkpt>
      <trkpt lat="42.58134" lon="1.9952">
        <ele>2043.9</ele>
        <time>2018-08-08T05:56:26Z</time>
      </trkpt>
      <trkpt lat="42.58135" lon="1.99521">
        <ele>2044.38</ele>
        <time>2018-08-08T05:56:41Z</time>
      </trkpt>
      <trkpt lat="42.58134" lon="1.99519">
        <ele>2044.38</ele>
        <time>2018-08-08T05:57:02Z</time>
      </trkpt>
      <trkpt lat="42.58134" lon="1.9952">
        <ele>2044.38</ele>
        <time>2018-08-08T05:57:24Z</time>
      </trkpt>
      <trkpt lat="42.58137" lon="1.99521">
        <ele>2044.38</ele>
        <time>2018-08-08T05:57:43Z</time>
      </trkpt>
      <trkpt lat="42.58135" lon="1.99518">
        <ele>2044.38</ele>
        <time>2018-08-08T05:58:13Z</time>
      </trkpt>
      <trkpt lat="42.58135" lon="1.99519">
        <ele>2044.38</ele>
        <time>2018-08-08T05:58:42Z</time>
      </trkpt>
      <trkpt lat="42.5814" lon="1.99522">
        <ele>2044.38</ele>
        <time>2018-08-08T05:59:06Z</time>
      </trkpt>
      <trkpt lat="42.58148" lon="1.99533">
        <ele>2044.38</ele>
        <time>2018-08-08T05:59:19Z</time>
      </trkpt>
      <trkpt lat="42.58156" lon="1.99539">
        <ele>2044.38</ele>
        <time>2018-08-08T05:59:35Z</time>
      </trkpt>
      <trkpt lat="42.58167" lon="1.99547">
        <ele>2042.94</ele>
        <time>2018-08-08T05:59:51Z</time>
      </trkpt>
      <trkpt lat="42.58168" lon="1.99551">
        <ele>2042.46</ele>
        <time>2018-08-08T05:59:54Z</time>
      </trkpt>
      <trkpt lat="42.58178" lon="1.9957">
        <ele>2041.98</ele>
        <time>2018-08-08T06:00:09Z</time>
      </trkpt>
      <trkpt lat="42.5818" lon="1.99573">
        <ele>2041.98</ele>
        <time>2018-08-08T06:00:12Z</time>
      </trkpt>
      <trkpt lat="42.58182" lon="1.99578">
        <ele>2041.5</ele>
        <time>2018-08-08T06:00:16Z</time>
      </trkpt>
      <trkpt lat="42.5819" lon="1.99594">
        <ele>2040.54</ele>
        <time>2018-08-08T06:00:31Z</time>
      </trkpt>
      <trkpt lat="42.58197" lon="1.99614">
        <ele>2039.09</ele>
        <time>2018-08-08T06:00:48Z</time>
      </trkpt>
      <trkpt lat="42.58197" lon="1.99616">
        <ele>2039.09</ele>
        <time>2018-08-08T06:00:50Z</time>
      </trkpt>
      <trkpt lat="42.58199" lon="1.99629">
        <ele>2039.09</ele>
        <time>2018-08-08T06:01:03Z</time>
      </trkpt>
      <trkpt lat="42.58206" lon="1.99649">
        <ele>2040.54</ele>
        <time>2018-08-08T06:01:20Z</time>
      </trkpt>
      <trkpt lat="42.58212" lon="1.99665">
        <ele>2041.02</ele>
        <time>2018-08-08T06:01:36Z</time>
      </trkpt>
      <trkpt lat="42.58219" lon="1.99676">
        <ele>2039.57</ele>
        <time>2018-08-08T06:01:49Z</time>
      </trkpt>
      <trkpt lat="42.58221" lon="1.99697">
        <ele>2039.09</ele>
        <time>2018-08-08T06:02:05Z</time>
      </trkpt>
      <trkpt lat="42.5822" lon="1.99707">
        <ele>2038.61</ele>
        <time>2018-08-08T06:02:12Z</time>
      </trkpt>
      <trkpt lat="42.58221" lon="1.99724">
        <ele>2038.61</ele>
        <time>2018-08-08T06:02:28Z</time>
      </trkpt>
      <trkpt lat="42.58218" lon="1.9974">
        <ele>2038.13</ele>
        <time>2018-08-08T06:02:43Z</time>
      </trkpt>
      <trkpt lat="42.58217" lon="1.99749">
        <ele>2037.65</ele>
        <time>2018-08-08T06:02:50Z</time>
      </trkpt>
      <trkpt lat="42.58215" lon="1.99752">
        <ele>2037.65</ele>
        <time>2018-08-08T06:02:53Z</time>
      </trkpt>
      <trkpt lat="42.58214" lon="1.99777">
        <ele>2037.17</ele>
        <time>2018-08-08T06:03:09Z</time>
      </trkpt>
      <trkpt lat="42.58215" lon="1.99792">
        <ele>2037.17</ele>
        <time>2018-08-08T06:03:22Z</time>
      </trkpt>
      <trkpt lat="42.58219" lon="1.99802">
        <ele>2035.73</ele>
        <time>2018-08-08T06:03:38Z</time>
      </trkpt>
      <trkpt lat="42.58219" lon="1.99808">
        <ele>2033.81</ele>
        <time>2018-08-08T06:03:51Z</time>
      </trkpt>
      <trkpt lat="42.5822" lon="1.99816">
        <ele>2031.88</ele>
        <time>2018-08-08T06:04:03Z</time>
      </trkpt>
      <trkpt lat="42.58216" lon="1.9983">
        <ele>2030.92</ele>
        <time>2018-08-08T06:04:20Z</time>
      </trkpt>
      <trkpt lat="42.58213" lon="1.99842">
        <ele>2030.92</ele>
        <time>2018-08-08T06:04:33Z</time>
      </trkpt>
      <trkpt lat="42.58215" lon="1.99849">
        <ele>2029.96</ele>
        <time>2018-08-08T06:04:43Z</time>
      </trkpt>
      <trkpt lat="42.58203" lon="1.99873">
        <ele>2028.52</ele>
        <time>2018-08-08T06:05:03Z</time>
      </trkpt>
      <trkpt lat="42.58197" lon="1.9989">
        <ele>2027.56</ele>
        <time>2018-08-08T06:05:18Z</time>
      </trkpt>
      <trkpt lat="42.58193" lon="1.99901">
        <ele>2026.12</ele>
        <time>2018-08-08T06:05:33Z</time>
      </trkpt>
      <trkpt lat="42.58193" lon="1.99914">
        <ele>2025.64</ele>
        <time>2018-08-08T06:05:48Z</time>
      </trkpt>
      <trkpt lat="42.58197" lon="1.99922">
        <ele>2025.64</ele>
        <time>2018-08-08T06:06:04Z</time>
      </trkpt>
      <trkpt lat="42.58209" lon="1.99928">
        <ele>2026.6</ele>
        <time>2018-08-08T06:06:20Z</time>
      </trkpt>
      <trkpt lat="42.58221" lon="1.99928">
        <ele>2028.04</ele>
        <time>2018-08-08T06:06:37Z</time>
      </trkpt>
      <trkpt lat="42.5823" lon="1.99924">
        <ele>2029</ele>
        <time>2018-08-08T06:06:51Z</time>
      </trkpt>
      <trkpt lat="42.58239" lon="1.99927">
        <ele>2031.4</ele>
        <time>2018-08-08T06:07:05Z</time>
      </trkpt>
      <trkpt lat="42.58241" lon="1.99927">
        <ele>2031.4</ele>
        <time>2018-08-08T06:07:08Z</time>
      </trkpt>
      <trkpt lat="42.58255" lon="1.99924">
        <ele>2032.36</ele>
        <time>2018-08-08T06:07:24Z</time>
      </trkpt>
      <trkpt lat="42.58259" lon="1.9992">
        <ele>2033.33</ele>
        <time>2018-08-08T06:07:30Z</time>
      </trkpt>
      <trkpt lat="42.58269" lon="1.99911">
        <ele>2034.29</ele>
        <time>2018-08-08T06:07:45Z</time>
      </trkpt>
      <trkpt lat="42.58279" lon="1.99907">
        <ele>2036.21</ele>
        <time>2018-08-08T06:08:03Z</time>
      </trkpt>
      <trkpt lat="42.58292" lon="1.99902">
        <ele>2037.17</ele>
        <time>2018-08-08T06:08:19Z</time>
      </trkpt>
      <trkpt lat="42.58304" lon="1.99895">
        <ele>2039.57</ele>
        <time>2018-08-08T06:08:36Z</time>
      </trkpt>
      <trkpt lat="42.58316" lon="1.99888">
        <ele>2041.02</ele>
        <time>2018-08-08T06:08:53Z</time>
      </trkpt>
      <trkpt lat="42.58323" lon="1.99885">
        <ele>2041.02</ele>
        <time>2018-08-08T06:09:01Z</time>
      </trkpt>
      <trkpt lat="42.58335" lon="1.99882">
        <ele>2042.46</ele>
        <time>2018-08-08T06:09:18Z</time>
      </trkpt>
      <trkpt lat="42.58344" lon="1.99882">
        <ele>2044.86</ele>
        <time>2018-08-08T06:09:35Z</time>
      </trkpt>
      <trkpt lat="42.58356" lon="1.99879">
        <ele>2048.23</ele>
        <time>2018-08-08T06:09:53Z</time>
      </trkpt>
      <trkpt lat="42.58366" lon="1.99876">
        <ele>2050.15</ele>
        <time>2018-08-08T06:10:09Z</time>
      </trkpt>
      <trkpt lat="42.58377" lon="1.99874">
        <ele>2052.55</ele>
        <time>2018-08-08T06:10:27Z</time>
      </trkpt>
      <trkpt lat="42.58388" lon="1.9987">
        <ele>2053.99</ele>
        <time>2018-08-08T06:10:43Z</time>
      </trkpt>
      <trkpt lat="42.58396" lon="1.99866">
        <ele>2057.36</ele>
        <time>2018-08-08T06:11:00Z</time>
      </trkpt>
      <trkpt lat="42.58405" lon="1.99866">
        <ele>2059.28</ele>
        <time>2018-08-08T06:11:15Z</time>
      </trkpt>
      <trkpt lat="42.58415" lon="1.99862">
        <ele>2059.76</ele>
        <time>2018-08-08T06:11:31Z</time>
      </trkpt>
      <trkpt lat="42.58418" lon="1.99857">
        <ele>2061.2</ele>
        <time>2018-08-08T06:11:48Z</time>
      </trkpt>
      <trkpt lat="42.58427" lon="1.99852">
        <ele>2061.68</ele>
        <time>2018-08-08T06:12:05Z</time>
      </trkpt>
      <trkpt lat="42.58437" lon="1.99845">
        <ele>2063.61</ele>
        <time>2018-08-08T06:12:21Z</time>
      </trkpt>
      <trkpt lat="42.58447" lon="1.9984">
        <ele>2066.01</ele>
        <time>2018-08-08T06:12:38Z</time>
      </trkpt>
      <trkpt lat="42.58455" lon="1.99841">
        <ele>2067.93</ele>
        <time>2018-08-08T06:12:53Z</time>
      </trkpt>
      <trkpt lat="42.58464" lon="1.99839">
        <ele>2070.34</ele>
        <time>2018-08-08T06:13:11Z</time>
      </trkpt>
      <trkpt lat="42.58473" lon="1.99835">
        <ele>2071.78</ele>
        <time>2018-08-08T06:13:27Z</time>
      </trkpt>
      <trkpt lat="42.58481" lon="1.99829">
        <ele>2073.7</ele>
        <time>2018-08-08T06:13:43Z</time>
      </trkpt>
      <trkpt lat="42.5849" lon="1.99824">
        <ele>2075.62</ele>
        <time>2018-08-08T06:14:00Z</time>
      </trkpt>
      <trkpt lat="42.58498" lon="1.99821">
        <ele>2078.03</ele>
        <time>2018-08-08T06:14:17Z</time>
      </trkpt>
      <trkpt lat="42.58504" lon="1.99817">
        <ele>2080.43</ele>
        <time>2018-08-08T06:14:32Z</time>
      </trkpt>
      <trkpt lat="42.58509" lon="1.99812">
        <ele>2083.31</ele>
        <time>2018-08-08T06:14:47Z</time>
      </trkpt>
      <trkpt lat="42.58511" lon="1.99804">
        <ele>2084.76</ele>
        <time>2018-08-08T06:15:01Z</time>
      </trkpt>
      <trkpt lat="42.58514" lon="1.99799">
        <ele>2086.2</ele>
        <time>2018-08-08T06:15:15Z</time>
      </trkpt>
      <trkpt lat="42.5852" lon="1.99794">
        <ele>2087.64</ele>
        <time>2018-08-08T06:15:30Z</time>
      </trkpt>
      <trkpt lat="42.58524" lon="1.99788">
        <ele>2089.56</ele>
        <time>2018-08-08T06:15:45Z</time>
      </trkpt>
      <trkpt lat="42.58528" lon="1.99782">
        <ele>2090.52</ele>
        <time>2018-08-08T06:16:05Z</time>
      </trkpt>
      <trkpt lat="42.58532" lon="1.99769">
        <ele>2092.45</ele>
        <time>2018-08-08T06:16:22Z</time>
      </trkpt>
      <trkpt lat="42.58539" lon="1.99757">
        <ele>2094.85</ele>
        <time>2018-08-08T06:16:39Z</time>
      </trkpt>
      <trkpt lat="42.58548" lon="1.99747">
        <ele>2096.77</ele>
        <time>2018-08-08T06:16:56Z</time>
      </trkpt>
      <trkpt lat="42.58559" lon="1.9974">
        <ele>2099.18</ele>
        <time>2018-08-08T06:17:14Z</time>
      </trkpt>
      <trkpt lat="42.58565" lon="1.99733">
        <ele>2102.54</ele>
        <time>2018-08-08T06:17:31Z</time>
      </trkpt>
      <trkpt lat="42.58573" lon="1.99724">
        <ele>2103.98</ele>
        <time>2018-08-08T06:17:47Z</time>
      </trkpt>
      <trkpt lat="42.58578" lon="1.99716">
        <ele>2106.39</ele>
        <time>2018-08-08T06:18:03Z</time>
      </trkpt>
      <trkpt lat="42.58585" lon="1.99709">
        <ele>2107.83</ele>
        <time>2018-08-08T06:18:19Z</time>
      </trkpt>
      <trkpt lat="42.5859" lon="1.997">
        <ele>2109.75</ele>
        <time>2018-08-08T06:18:34Z</time>
      </trkpt>
      <trkpt lat="42.58596" lon="1.99691">
        <ele>2111.67</ele>
        <time>2018-08-08T06:18:51Z</time>
      </trkpt>
      <trkpt lat="42.58604" lon="1.99682">
        <ele>2112.63</ele>
        <time>2018-08-08T06:19:06Z</time>
      </trkpt>
      <trkpt lat="42.58605" lon="1.99671">
        <ele>2114.56</ele>
        <time>2018-08-08T06:19:22Z</time>
      </trkpt>
      <trkpt lat="42.58605" lon="1.99666">
        <ele>2115.04</ele>
        <time>2018-08-08T06:19:40Z</time>
      </trkpt>
      <trkpt lat="42.58606" lon="1.99661">
        <ele>2115.04</ele>
        <time>2018-08-08T06:20:08Z</time>
      </trkpt>
      <trkpt lat="42.58606" lon="1.99659">
        <ele>2115.52</ele>
        <time>2018-08-08T06:20:30Z</time>
      </trkpt>
      <trkpt lat="42.58608" lon="1.99647">
        <ele>2115.52</ele>
        <time>2018-08-08T06:20:43Z</time>
      </trkpt>
      <trkpt lat="42.58613" lon="1.99632">
        <ele>2115.52</ele>
        <time>2018-08-08T06:20:58Z</time>
      </trkpt>
      <trkpt lat="42.58622" lon="1.99623">
        <ele>2116.96</ele>
        <time>2018-08-08T06:21:13Z</time>
      </trkpt>
      <trkpt lat="42.5863" lon="1.99609">
        <ele>2118.4</ele>
        <time>2018-08-08T06:21:30Z</time>
      </trkpt>
      <trkpt lat="42.58636" lon="1.99596">
        <ele>2120.32</ele>
        <time>2018-08-08T06:21:46Z</time>
      </trkpt>
      <trkpt lat="42.58644" lon="1.99583">
        <ele>2121.77</ele>
        <time>2018-08-08T06:22:04Z</time>
      </trkpt>
      <trkpt lat="42.58651" lon="1.99572">
        <ele>2123.21</ele>
        <time>2018-08-08T06:22:21Z</time>
      </trkpt>
      <trkpt lat="42.58658" lon="1.99565">
        <ele>2124.17</ele>
        <time>2018-08-08T06:22:35Z</time>
      </trkpt>
      <trkpt lat="42.58669" lon="1.99555">
        <ele>2125.13</ele>
        <time>2018-08-08T06:22:53Z</time>
      </trkpt>
      <trkpt lat="42.58677" lon="1.99544">
        <ele>2125.61</ele>
        <time>2018-08-08T06:23:08Z</time>
      </trkpt>
      <trkpt lat="42.58687" lon="1.99536">
        <ele>2128.02</ele>
        <time>2018-08-08T06:23:25Z</time>
      </trkpt>
      <trkpt lat="42.58696" lon="1.99528">
        <ele>2130.9</ele>
        <time>2018-08-08T06:23:43Z</time>
      </trkpt>
      <trkpt lat="42.58705" lon="1.99519">
        <ele>2133.3</ele>
        <time>2018-08-08T06:24:01Z</time>
      </trkpt>
      <trkpt lat="42.58713" lon="1.99514">
        <ele>2135.71</ele>
        <time>2018-08-08T06:24:18Z</time>
      </trkpt>
      <trkpt lat="42.58719" lon="1.99515">
        <ele>2138.11</ele>
        <time>2018-08-08T06:24:33Z</time>
      </trkpt>
      <trkpt lat="42.58726" lon="1.99511">
        <ele>2140.51</ele>
        <time>2018-08-08T06:24:47Z</time>
      </trkpt>
      <trkpt lat="42.58733" lon="1.99507">
        <ele>2142.92</ele>
        <time>2018-08-08T06:25:03Z</time>
      </trkpt>
      <trkpt lat="42.58741" lon="1.99501">
        <ele>2145.32</ele>
        <time>2018-08-08T06:25:21Z</time>
      </trkpt>
      <trkpt lat="42.58748" lon="1.99494">
        <ele>2147.24</ele>
        <time>2018-08-08T06:25:36Z</time>
      </trkpt>
      <trkpt lat="42.58753" lon="1.99486">
        <ele>2148.2</ele>
        <time>2018-08-08T06:25:50Z</time>
      </trkpt>
      <trkpt lat="42.58762" lon="1.9948">
        <ele>2150.13</ele>
        <time>2018-08-08T06:26:07Z</time>
      </trkpt>
      <trkpt lat="42.58771" lon="1.99473">
        <ele>2151.57</ele>
        <time>2018-08-08T06:26:24Z</time>
      </trkpt>
      <trkpt lat="42.58778" lon="1.9947">
        <ele>2153.49</ele>
        <time>2018-08-08T06:26:38Z</time>
      </trkpt>
      <trkpt lat="42.58789" lon="1.99467">
        <ele>2155.41</ele>
        <time>2018-08-08T06:26:55Z</time>
      </trkpt>
      <trkpt lat="42.58797" lon="1.99472">
        <ele>2157.82</ele>
        <time>2018-08-08T06:27:12Z</time>
      </trkpt>
      <trkpt lat="42.58809" lon="1.99474">
        <ele>2160.22</ele>
        <time>2018-08-08T06:27:29Z</time>
      </trkpt>
      <trkpt lat="42.58819" lon="1.99475">
        <ele>2162.14</ele>
        <time>2018-08-08T06:27:43Z</time>
      </trkpt>
      <trkpt lat="42.58832" lon="1.99472">
        <ele>2164.06</ele>
        <time>2018-08-08T06:28:00Z</time>
      </trkpt>
      <trkpt lat="42.58845" lon="1.99466">
        <ele>2165.03</ele>
        <time>2018-08-08T06:28:16Z</time>
      </trkpt>
      <trkpt lat="42.58858" lon="1.99457">
        <ele>2166.95</ele>
        <time>2018-08-08T06:28:33Z</time>
      </trkpt>
      <trkpt lat="42.58869" lon="1.99451">
        <ele>2168.39</ele>
        <time>2018-08-08T06:28:50Z</time>
      </trkpt>
      <trkpt lat="42.58882" lon="1.99445">
        <ele>2168.39</ele>
        <time>2018-08-08T06:29:06Z</time>
      </trkpt>
      <trkpt lat="42.58895" lon="1.99437">
        <ele>2169.35</ele>
        <time>2018-08-08T06:29:24Z</time>
      </trkpt>
      <trkpt lat="42.58906" lon="1.99428">
        <ele>2171.27</ele>
        <time>2018-08-08T06:29:41Z</time>
      </trkpt>
      <trkpt lat="42.58909" lon="1.99421">
        <ele>2173.2</ele>
        <time>2018-08-08T06:29:56Z</time>
      </trkpt>
      <trkpt lat="42.58915" lon="1.9941">
        <ele>2174.64</ele>
        <time>2018-08-08T06:30:12Z</time>
      </trkpt>
      <trkpt lat="42.58922" lon="1.99401">
        <ele>2176.56</ele>
        <time>2018-08-08T06:30:26Z</time>
      </trkpt>
      <trkpt lat="42.58923" lon="1.99391">
        <ele>2177.52</ele>
        <time>2018-08-08T06:30:39Z</time>
      </trkpt>
      <trkpt lat="42.58925" lon="1.99385">
        <ele>2178.97</ele>
        <time>2018-08-08T06:30:56Z</time>
      </trkpt>
      <trkpt lat="42.58927" lon="1.99366">
        <ele>2178.97</ele>
        <time>2018-08-08T06:31:11Z</time>
      </trkpt>
      <trkpt lat="42.58932" lon="1.99347">
        <ele>2178</ele>
        <time>2018-08-08T06:31:28Z</time>
      </trkpt>
      <trkpt lat="42.58934" lon="1.99342">
        <ele>2179.45</ele>
        <time>2018-08-08T06:31:33Z</time>
      </trkpt>
      <trkpt lat="42.58938" lon="1.99324">
        <ele>2179.45</ele>
        <time>2018-08-08T06:31:48Z</time>
      </trkpt>
      <trkpt lat="42.58939" lon="1.99315">
        <ele>2178</ele>
        <time>2018-08-08T06:31:55Z</time>
      </trkpt>
      <trkpt lat="42.58943" lon="1.993">
        <ele>2178</ele>
        <time>2018-08-08T06:32:10Z</time>
      </trkpt>
      <trkpt lat="42.5895" lon="1.99281">
        <ele>2178.48</ele>
        <time>2018-08-08T06:32:29Z</time>
      </trkpt>
      <trkpt lat="42.58955" lon="1.99267">
        <ele>2178.48</ele>
        <time>2018-08-08T06:32:46Z</time>
      </trkpt>
      <trkpt lat="42.58963" lon="1.99255">
        <ele>2178</ele>
        <time>2018-08-08T06:33:00Z</time>
      </trkpt>
      <trkpt lat="42.58974" lon="1.99238">
        <ele>2178.97</ele>
        <time>2018-08-08T06:33:18Z</time>
      </trkpt>
      <trkpt lat="42.58984" lon="1.9923">
        <ele>2179.93</ele>
        <time>2018-08-08T06:33:34Z</time>
      </trkpt>
      <trkpt lat="42.58995" lon="1.99221">
        <ele>2181.85</ele>
        <time>2018-08-08T06:33:50Z</time>
      </trkpt>
      <trkpt lat="42.59004" lon="1.99211">
        <ele>2182.81</ele>
        <time>2018-08-08T06:34:07Z</time>
      </trkpt>
      <trkpt lat="42.59012" lon="1.99206">
        <ele>2184.25</ele>
        <time>2018-08-08T06:34:19Z</time>
      </trkpt>
      <trkpt lat="42.5902" lon="1.99199">
        <ele>2185.69</ele>
        <time>2018-08-08T06:34:33Z</time>
      </trkpt>
      <trkpt lat="42.59028" lon="1.99195">
        <ele>2188.1</ele>
        <time>2018-08-08T06:34:50Z</time>
      </trkpt>
      <trkpt lat="42.59039" lon="1.99197">
        <ele>2190.5</ele>
        <time>2018-08-08T06:35:06Z</time>
      </trkpt>
      <trkpt lat="42.59049" lon="1.99191">
        <ele>2191.94</ele>
        <time>2018-08-08T06:35:21Z</time>
      </trkpt>
      <trkpt lat="42.59063" lon="1.99184">
        <ele>2194.83</ele>
        <time>2018-08-08T06:35:40Z</time>
      </trkpt>
      <trkpt lat="42.59074" lon="1.9918">
        <ele>2196.27</ele>
        <time>2018-08-08T06:35:57Z</time>
      </trkpt>
      <trkpt lat="42.59084" lon="1.99178">
        <ele>2197.71</ele>
        <time>2018-08-08T06:36:12Z</time>
      </trkpt>
      <trkpt lat="42.59095" lon="1.99177">
        <ele>2199.63</ele>
        <time>2018-08-08T06:36:26Z</time>
      </trkpt>
      <trkpt lat="42.59105" lon="1.99174">
        <ele>2200.11</ele>
        <time>2018-08-08T06:36:42Z</time>
      </trkpt>
      <trkpt lat="42.59116" lon="1.99172">
        <ele>2199.63</ele>
        <time>2018-08-08T06:36:58Z</time>
      </trkpt>
      <trkpt lat="42.5913" lon="1.99169">
        <ele>2197.71</ele>
        <time>2018-08-08T06:37:14Z</time>
      </trkpt>
      <trkpt lat="42.59145" lon="1.99169">
        <ele>2197.71</ele>
        <time>2018-08-08T06:37:31Z</time>
      </trkpt>
      <trkpt lat="42.5916" lon="1.99169">
        <ele>2199.15</ele>
        <time>2018-08-08T06:37:47Z</time>
      </trkpt>
      <trkpt lat="42.59172" lon="1.9917">
        <ele>2201.08</ele>
        <time>2018-08-08T06:38:03Z</time>
      </trkpt>
      <trkpt lat="42.59183" lon="1.99173">
        <ele>2203.96</ele>
        <time>2018-08-08T06:38:20Z</time>
      </trkpt>
      <trkpt lat="42.59196" lon="1.99171">
        <ele>2203.48</ele>
        <time>2018-08-08T06:38:39Z</time>
      </trkpt>
      <trkpt lat="42.59205" lon="1.99167">
        <ele>2203.96</ele>
        <time>2018-08-08T06:38:53Z</time>
      </trkpt>
      <trkpt lat="42.59215" lon="1.99168">
        <ele>2205.88</ele>
        <time>2018-08-08T06:39:07Z</time>
      </trkpt>
      <trkpt lat="42.59222" lon="1.99168">
        <ele>2206.36</ele>
        <time>2018-08-08T06:39:22Z</time>
      </trkpt>
      <trkpt lat="42.59229" lon="1.99168">
        <ele>2208.77</ele>
        <time>2018-08-08T06:39:38Z</time>
      </trkpt>
      <trkpt lat="42.59235" lon="1.99172">
        <ele>2210.69</ele>
        <time>2018-08-08T06:39:54Z</time>
      </trkpt>
      <trkpt lat="42.59244" lon="1.9917">
        <ele>2211.65</ele>
        <time>2018-08-08T06:40:10Z</time>
      </trkpt>
      <trkpt lat="42.59251" lon="1.9917">
        <ele>2214.05</ele>
        <time>2018-08-08T06:40:25Z</time>
      </trkpt>
      <trkpt lat="42.59258" lon="1.99167">
        <ele>2216.94</ele>
        <time>2018-08-08T06:40:40Z</time>
      </trkpt>
      <trkpt lat="42.59264" lon="1.99165">
        <ele>2218.38</ele>
        <time>2018-08-08T06:40:53Z</time>
      </trkpt>
      <trkpt lat="42.59268" lon="1.99168">
        <ele>2220.3</ele>
        <time>2018-08-08T06:41:09Z</time>
      </trkpt>
      <trkpt lat="42.59272" lon="1.99162">
        <ele>2221.26</ele>
        <time>2018-08-08T06:41:24Z</time>
      </trkpt>
      <trkpt lat="42.59277" lon="1.99154">
        <ele>2221.26</ele>
        <time>2018-08-08T06:41:38Z</time>
      </trkpt>
      <trkpt lat="42.59285" lon="1.99149">
        <ele>2222.71</ele>
        <time>2018-08-08T06:41:51Z</time>
      </trkpt>
      <trkpt lat="42.59292" lon="1.9914">
        <ele>2224.15</ele>
        <time>2018-08-08T06:42:06Z</time>
      </trkpt>
      <trkpt lat="42.59299" lon="1.9913">
        <ele>2225.59</ele>
        <time>2018-08-08T06:42:21Z</time>
      </trkpt>
      <trkpt lat="42.59304" lon="1.99125">
        <ele>2228.47</ele>
        <time>2018-08-08T06:42:36Z</time>
      </trkpt>
      <trkpt lat="42.5931" lon="1.99125">
        <ele>2229.92</ele>
        <time>2018-08-08T06:42:50Z</time>
      </trkpt>
      <trkpt lat="42.59314" lon="1.99123">
        <ele>2232.32</ele>
        <time>2018-08-08T06:43:05Z</time>
      </trkpt>
      <trkpt lat="42.59322" lon="1.99122">
        <ele>2232.32</ele>
        <time>2018-08-08T06:43:20Z</time>
      </trkpt>
      <trkpt lat="42.59328" lon="1.99117">
        <ele>2235.2</ele>
        <time>2018-08-08T06:43:37Z</time>
      </trkpt>
      <trkpt lat="42.59335" lon="1.99115">
        <ele>2237.13</ele>
        <time>2018-08-08T06:43:51Z</time>
      </trkpt>
      <trkpt lat="42.59341" lon="1.99112">
        <ele>2238.57</ele>
        <time>2018-08-08T06:44:07Z</time>
      </trkpt>
      <trkpt lat="42.59341" lon="1.99111">
        <ele>2239.53</ele>
        <time>2018-08-08T06:44:31Z</time>
      </trkpt>
      <trkpt lat="42.5934" lon="1.99111">
        <ele>2239.53</ele>
        <time>2018-08-08T06:44:52Z</time>
      </trkpt>
      <trkpt lat="42.5934" lon="1.99111">
        <ele>2240.49</ele>
        <time>2018-08-08T06:45:11Z</time>
      </trkpt>
      <trkpt lat="42.59341" lon="1.99112">
        <ele>2239.05</ele>
        <time>2018-08-08T06:45:31Z</time>
      </trkpt>
      <trkpt lat="42.59344" lon="1.99111">
        <ele>2239.53</ele>
        <time>2018-08-08T06:46:05Z</time>
      </trkpt>
      <trkpt lat="42.59348" lon="1.99109">
        <ele>2240.49</ele>
        <time>2018-08-08T06:46:12Z</time>
      </trkpt>
      <trkpt lat="42.5936" lon="1.991">
        <ele>2240.01</ele>
        <time>2018-08-08T06:46:29Z</time>
      </trkpt>
      <trkpt lat="42.59374" lon="1.99087">
        <ele>2239.53</ele>
        <time>2018-08-08T06:46:46Z</time>
      </trkpt>
      <trkpt lat="42.59389" lon="1.99077">
        <ele>2239.53</ele>
        <time>2018-08-08T06:47:03Z</time>
      </trkpt>
      <trkpt lat="42.59402" lon="1.99065">
        <ele>2239.53</ele>
        <time>2018-08-08T06:47:19Z</time>
      </trkpt>
      <trkpt lat="42.59404" lon="1.99061">
        <ele>2240.97</ele>
        <time>2018-08-08T06:47:23Z</time>
      </trkpt>
      <trkpt lat="42.59405" lon="1.99059">
        <ele>2239.53</ele>
        <time>2018-08-08T06:47:25Z</time>
      </trkpt>
      <trkpt lat="42.5941" lon="1.99048">
        <ele>2240.97</ele>
        <time>2018-08-08T06:47:35Z</time>
      </trkpt>
      <trkpt lat="42.59419" lon="1.99035">
        <ele>2242.41</ele>
        <time>2018-08-08T06:47:52Z</time>
      </trkpt>
      <trkpt lat="42.59428" lon="1.99028">
        <ele>2242.89</ele>
        <time>2018-08-08T06:48:03Z</time>
      </trkpt>
      <trkpt lat="42.59432" lon="1.99026">
        <ele>2242.89</ele>
        <time>2018-08-08T06:48:08Z</time>
      </trkpt>
      <trkpt lat="42.59443" lon="1.9902">
        <ele>2242.89</ele>
        <time>2018-08-08T06:48:23Z</time>
      </trkpt>
      <trkpt lat="42.59453" lon="1.99015">
        <ele>2243.37</ele>
        <time>2018-08-08T06:48:36Z</time>
      </trkpt>
      <trkpt lat="42.5947" lon="1.99011">
        <ele>2243.37</ele>
        <time>2018-08-08T06:48:53Z</time>
      </trkpt>
      <trkpt lat="42.59486" lon="1.99005">
        <ele>2241.93</ele>
        <time>2018-08-08T06:49:10Z</time>
      </trkpt>
      <trkpt lat="42.59488" lon="1.99004">
        <ele>2241.93</ele>
        <time>2018-08-08T06:49:13Z</time>
      </trkpt>
      <trkpt lat="42.595" lon="1.99001">
        <ele>2241.93</ele>
        <time>2018-08-08T06:49:30Z</time>
      </trkpt>
      <trkpt lat="42.59516" lon="1.98998">
        <ele>2241.45</ele>
        <time>2018-08-08T06:49:46Z</time>
      </trkpt>
      <trkpt lat="42.59531" lon="1.98997">
        <ele>2241.45</ele>
        <time>2018-08-08T06:50:04Z</time>
      </trkpt>
      <trkpt lat="42.59538" lon="1.98995">
        <ele>2241.45</ele>
        <time>2018-08-08T06:50:13Z</time>
      </trkpt>
      <trkpt lat="42.59553" lon="1.98981">
        <ele>2241.45</ele>
        <time>2018-08-08T06:50:32Z</time>
      </trkpt>
      <trkpt lat="42.59561" lon="1.98963">
        <ele>2241.45</ele>
        <time>2018-08-08T06:50:47Z</time>
      </trkpt>
      <trkpt lat="42.59567" lon="1.98946">
        <ele>2241.93</ele>
        <time>2018-08-08T06:51:02Z</time>
      </trkpt>
      <trkpt lat="42.59568" lon="1.98942">
        <ele>2242.89</ele>
        <time>2018-08-08T06:51:06Z</time>
      </trkpt>
      <trkpt lat="42.59574" lon="1.98934">
        <ele>2244.33</ele>
        <time>2018-08-08T06:51:15Z</time>
      </trkpt>
      <trkpt lat="42.59587" lon="1.98929">
        <ele>2244.33</ele>
        <time>2018-08-08T06:51:31Z</time>
      </trkpt>
      <trkpt lat="42.59588" lon="1.98929">
        <ele>2244.33</ele>
        <time>2018-08-08T06:51:32Z</time>
      </trkpt>
      <trkpt lat="42.59606" lon="1.98922">
        <ele>2244.33</ele>
        <time>2018-08-08T06:51:49Z</time>
      </trkpt>
      <trkpt lat="42.59618" lon="1.98916">
        <ele>2245.3</ele>
        <time>2018-08-08T06:52:05Z</time>
      </trkpt>
      <trkpt lat="42.59629" lon="1.98909">
        <ele>2245.78</ele>
        <time>2018-08-08T06:52:19Z</time>
      </trkpt>
      <trkpt lat="42.59641" lon="1.989">
        <ele>2246.74</ele>
        <time>2018-08-08T06:52:34Z</time>
      </trkpt>
      <trkpt lat="42.59649" lon="1.98891">
        <ele>2248.18</ele>
        <time>2018-08-08T06:52:50Z</time>
      </trkpt>
      <trkpt lat="42.59661" lon="1.98892">
        <ele>2249.62</ele>
        <time>2018-08-08T06:53:07Z</time>
      </trkpt>
      <trkpt lat="42.59673" lon="1.98899">
        <ele>2252.51</ele>
        <time>2018-08-08T06:53:24Z</time>
      </trkpt>
      <trkpt lat="42.59681" lon="1.98898">
        <ele>2253.95</ele>
        <time>2018-08-08T06:53:37Z</time>
      </trkpt>
      <trkpt lat="42.59686" lon="1.98892">
        <ele>2253.95</ele>
        <time>2018-08-08T06:53:46Z</time>
      </trkpt>
      <trkpt lat="42.59696" lon="1.98882">
        <ele>2253.95</ele>
        <time>2018-08-08T06:54:01Z</time>
      </trkpt>
      <trkpt lat="42.59707" lon="1.98877">
        <ele>2255.39</ele>
        <time>2018-08-08T06:54:16Z</time>
      </trkpt>
      <trkpt lat="42.5972" lon="1.98875">
        <ele>2255.87</ele>
        <time>2018-08-08T06:54:35Z</time>
      </trkpt>
      <trkpt lat="42.59721" lon="1.98875">
        <ele>2254.43</ele>
        <time>2018-08-08T06:54:37Z</time>
      </trkpt>
      <trkpt lat="42.59737" lon="1.9888">
        <ele>2252.99</ele>
        <time>2018-08-08T06:54:52Z</time>
      </trkpt>
      <trkpt lat="42.59752" lon="1.98881">
        <ele>2251.54</ele>
        <time>2018-08-08T06:55:08Z</time>
      </trkpt>
      <trkpt lat="42.59764" lon="1.98882">
        <ele>2250.58</ele>
        <time>2018-08-08T06:55:23Z</time>
      </trkpt>
      <trkpt lat="42.59774" lon="1.98885">
        <ele>2250.58</ele>
        <time>2018-08-08T06:55:37Z</time>
      </trkpt>
      <trkpt lat="42.59784" lon="1.98884">
        <ele>2252.99</ele>
        <time>2018-08-08T06:55:51Z</time>
      </trkpt>
      <trkpt lat="42.59796" lon="1.98883">
        <ele>2254.43</ele>
        <time>2018-08-08T06:56:06Z</time>
      </trkpt>
      <trkpt lat="42.5981" lon="1.98881">
        <ele>2255.87</ele>
        <time>2018-08-08T06:56:22Z</time>
      </trkpt>
      <trkpt lat="42.59825" lon="1.98878">
        <ele>2257.79</ele>
        <time>2018-08-08T06:56:40Z</time>
      </trkpt>
      <trkpt lat="42.59839" lon="1.98873">
        <ele>2258.27</ele>
        <time>2018-08-08T06:56:56Z</time>
      </trkpt>
      <trkpt lat="42.59847" lon="1.98871">
        <ele>2258.75</ele>
        <time>2018-08-08T06:57:04Z</time>
      </trkpt>
      <trkpt lat="42.59862" lon="1.98866">
        <ele>2258.75</ele>
        <time>2018-08-08T06:57:21Z</time>
      </trkpt>
      <trkpt lat="42.59864" lon="1.98865">
        <ele>2259.24</ele>
        <time>2018-08-08T06:57:24Z</time>
      </trkpt>
      <trkpt lat="42.59875" lon="1.98852">
        <ele>2259.72</ele>
        <time>2018-08-08T06:57:41Z</time>
      </trkpt>
      <trkpt lat="42.59882" lon="1.98844">
        <ele>2260.2</ele>
        <time>2018-08-08T06:57:53Z</time>
      </trkpt>
      <trkpt lat="42.59891" lon="1.98833">
        <ele>2260.2</ele>
        <time>2018-08-08T06:58:08Z</time>
      </trkpt>
      <trkpt lat="42.59898" lon="1.98817">
        <ele>2260.2</ele>
        <time>2018-08-08T06:58:25Z</time>
      </trkpt>
      <trkpt lat="42.59907" lon="1.98809">
        <ele>2260.68</ele>
        <time>2018-08-08T06:58:40Z</time>
      </trkpt>
      <trkpt lat="42.59918" lon="1.98802">
        <ele>2260.68</ele>
        <time>2018-08-08T06:58:55Z</time>
      </trkpt>
      <trkpt lat="42.5993" lon="1.988">
        <ele>2259.24</ele>
        <time>2018-08-08T06:59:11Z</time>
      </trkpt>
      <trkpt lat="42.59936" lon="1.98799">
        <ele>2259.24</ele>
        <time>2018-08-08T06:59:17Z</time>
      </trkpt>
      <trkpt lat="42.5995" lon="1.98794">
        <ele>2259.72</ele>
        <time>2018-08-08T06:59:33Z</time>
      </trkpt>
      <trkpt lat="42.59962" lon="1.98783">
        <ele>2259.72</ele>
        <time>2018-08-08T06:59:48Z</time>
      </trkpt>
      <trkpt lat="42.59964" lon="1.98782">
        <ele>2259.72</ele>
        <time>2018-08-08T06:59:50Z</time>
      </trkpt>
      <trkpt lat="42.59966" lon="1.9878">
        <ele>2260.68</ele>
        <time>2018-08-08T06:59:54Z</time>
      </trkpt>
      <trkpt lat="42.59976" lon="1.98772">
        <ele>2260.68</ele>
        <time>2018-08-08T07:00:09Z</time>
      </trkpt>
      <trkpt lat="42.59987" lon="1.98766">
        <ele>2261.16</ele>
        <time>2018-08-08T07:00:24Z</time>
      </trkpt>
      <trkpt lat="42.59987" lon="1.98766">
        <ele>2261.16</ele>
        <time>2018-08-08T07:00:25Z</time>
      </trkpt>
      <trkpt lat="42.60003" lon="1.9877">
        <ele>2261.64</ele>
        <time>2018-08-08T07:00:41Z</time>
      </trkpt>
      <trkpt lat="42.60017" lon="1.98776">
        <ele>2262.12</ele>
        <time>2018-08-08T07:00:55Z</time>
      </trkpt>
      <trkpt lat="42.60032" lon="1.98776">
        <ele>2262.6</ele>
        <time>2018-08-08T07:01:12Z</time>
      </trkpt>
      <trkpt lat="42.60045" lon="1.98777">
        <ele>2261.16</ele>
        <time>2018-08-08T07:01:28Z</time>
      </trkpt>
      <trkpt lat="42.60054" lon="1.98778">
        <ele>2262.6</ele>
        <time>2018-08-08T07:01:37Z</time>
      </trkpt>
      <trkpt lat="42.60066" lon="1.98775">
        <ele>2262.6</ele>
        <time>2018-08-08T07:01:53Z</time>
      </trkpt>
      <trkpt lat="42.60073" lon="1.98771">
        <ele>2262.6</ele>
        <time>2018-08-08T07:02:02Z</time>
      </trkpt>
      <trkpt lat="42.60086" lon="1.98763">
        <ele>2264.04</ele>
        <time>2018-08-08T07:02:17Z</time>
      </trkpt>
      <trkpt lat="42.60103" lon="1.98756">
        <ele>2264.04</ele>
        <time>2018-08-08T07:02:33Z</time>
      </trkpt>
      <trkpt lat="42.60116" lon="1.98752">
        <ele>2264.52</ele>
        <time>2018-08-08T07:02:47Z</time>
      </trkpt>
      <trkpt lat="42.60133" lon="1.98749">
        <ele>2264.52</ele>
        <time>2018-08-08T07:03:05Z</time>
      </trkpt>
      <trkpt lat="42.60146" lon="1.98742">
        <ele>2265.48</ele>
        <time>2018-08-08T07:03:21Z</time>
      </trkpt>
      <trkpt lat="42.60157" lon="1.98741">
        <ele>2266.93</ele>
        <time>2018-08-08T07:03:36Z</time>
      </trkpt>
      <trkpt lat="42.60168" lon="1.9874">
        <ele>2268.37</ele>
        <time>2018-08-08T07:03:50Z</time>
      </trkpt>
      <trkpt lat="42.60181" lon="1.98736">
        <ele>2270.29</ele>
        <time>2018-08-08T07:04:06Z</time>
      </trkpt>
      <trkpt lat="42.60194" lon="1.98741">
        <ele>2270.77</ele>
        <time>2018-08-08T07:04:21Z</time>
      </trkpt>
      <trkpt lat="42.60207" lon="1.9874">
        <ele>2271.25</ele>
        <time>2018-08-08T07:04:35Z</time>
      </trkpt>
      <trkpt lat="42.60219" lon="1.98733">
        <ele>2271.25</ele>
        <time>2018-08-08T07:04:49Z</time>
      </trkpt>
      <trkpt lat="42.60234" lon="1.98728">
        <ele>2272.21</ele>
        <time>2018-08-08T07:05:05Z</time>
      </trkpt>
      <trkpt lat="42.6025" lon="1.98723">
        <ele>2272.69</ele>
        <time>2018-08-08T07:05:23Z</time>
      </trkpt>
      <trkpt lat="42.60265" lon="1.98719">
        <ele>2273.17</ele>
        <time>2018-08-08T07:05:40Z</time>
      </trkpt>
      <trkpt lat="42.6028" lon="1.98713">
        <ele>2273.66</ele>
        <time>2018-08-08T07:05:57Z</time>
      </trkpt>
      <trkpt lat="42.6028" lon="1.98712">
        <ele>2273.66</ele>
        <time>2018-08-08T07:06:14Z</time>
      </trkpt>
      <trkpt lat="42.6028" lon="1.98711">
        <ele>2273.66</ele>
        <time>2018-08-08T07:06:36Z</time>
      </trkpt>
      <trkpt lat="42.60284" lon="1.98708">
        <ele>2274.62</ele>
        <time>2018-08-08T07:07:03Z</time>
      </trkpt>
      <trkpt lat="42.60283" lon="1.9871">
        <ele>2274.62</ele>
        <time>2018-08-08T07:07:28Z</time>
      </trkpt>
      <trkpt lat="42.60282" lon="1.98711">
        <ele>2274.62</ele>
        <time>2018-08-08T07:07:56Z</time>
      </trkpt>
      <trkpt lat="42.60279" lon="1.98712">
        <ele>2273.66</ele>
        <time>2018-08-08T07:08:22Z</time>
      </trkpt>
      <trkpt lat="42.60283" lon="1.98711">
        <ele>2273.66</ele>
        <time>2018-08-08T07:08:41Z</time>
      </trkpt>
      <trkpt lat="42.60295" lon="1.98708">
        <ele>2273.66</ele>
        <time>2018-08-08T07:08:55Z</time>
      </trkpt>
      <trkpt lat="42.603" lon="1.98706">
        <ele>2275.1</ele>
        <time>2018-08-08T07:09:10Z</time>
      </trkpt>
      <trkpt lat="42.6031" lon="1.98703">
        <ele>2275.58</ele>
        <time>2018-08-08T07:09:26Z</time>
      </trkpt>
      <trkpt lat="42.60316" lon="1.987">
        <ele>2276.54</ele>
        <time>2018-08-08T07:09:39Z</time>
      </trkpt>
      <trkpt lat="42.60325" lon="1.98697">
        <ele>2276.54</ele>
        <time>2018-08-08T07:10:00Z</time>
      </trkpt>
      <trkpt lat="42.60333" lon="1.98702">
        <ele>2278.46</ele>
        <time>2018-08-08T07:10:16Z</time>
      </trkpt>
      <trkpt lat="42.60342" lon="1.98709">
        <ele>2279.9</ele>
        <time>2018-08-08T07:10:32Z</time>
      </trkpt>
      <trkpt lat="42.60347" lon="1.98713">
        <ele>2280.87</ele>
        <time>2018-08-08T07:10:46Z</time>
      </trkpt>
      <trkpt lat="42.60353" lon="1.98715">
        <ele>2281.83</ele>
        <time>2018-08-08T07:11:01Z</time>
      </trkpt>
      <trkpt lat="42.60359" lon="1.98719">
        <ele>2283.27</ele>
        <time>2018-08-08T07:11:16Z</time>
      </trkpt>
      <trkpt lat="42.60366" lon="1.98721">
        <ele>2285.19</ele>
        <time>2018-08-08T07:11:29Z</time>
      </trkpt>
      <trkpt lat="42.60372" lon="1.98716">
        <ele>2285.67</ele>
        <time>2018-08-08T07:11:42Z</time>
      </trkpt>
      <trkpt lat="42.6038" lon="1.9871">
        <ele>2285.67</ele>
        <time>2018-08-08T07:11:56Z</time>
      </trkpt>
      <trkpt lat="42.60387" lon="1.98706">
        <ele>2285.67</ele>
        <time>2018-08-08T07:12:11Z</time>
      </trkpt>
      <trkpt lat="42.60396" lon="1.98709">
        <ele>2287.11</ele>
        <time>2018-08-08T07:12:26Z</time>
      </trkpt>
      <trkpt lat="42.60398" lon="1.9871">
        <ele>2287.11</ele>
        <time>2018-08-08T07:12:45Z</time>
      </trkpt>
      <trkpt lat="42.60404" lon="1.98713">
        <ele>2288.08</ele>
        <time>2018-08-08T07:12:59Z</time>
      </trkpt>
      <trkpt lat="42.60416" lon="1.98711">
        <ele>2289.52</ele>
        <time>2018-08-08T07:13:14Z</time>
      </trkpt>
      <trkpt lat="42.60427" lon="1.98712">
        <ele>2289.52</ele>
        <time>2018-08-08T07:13:28Z</time>
      </trkpt>
      <trkpt lat="42.60437" lon="1.98709">
        <ele>2290</ele>
        <time>2018-08-08T07:13:43Z</time>
      </trkpt>
      <trkpt lat="42.60439" lon="1.9871">
        <ele>2290.96</ele>
        <time>2018-08-08T07:14:00Z</time>
      </trkpt>
      <trkpt lat="42.60448" lon="1.9871">
        <ele>2291.44</ele>
        <time>2018-08-08T07:14:17Z</time>
      </trkpt>
      <trkpt lat="42.6045" lon="1.9871">
        <ele>2291.44</ele>
        <time>2018-08-08T07:14:19Z</time>
      </trkpt>
      <trkpt lat="42.60465" lon="1.98708">
        <ele>2291.92</ele>
        <time>2018-08-08T07:14:35Z</time>
      </trkpt>
      <trkpt lat="42.60476" lon="1.98705">
        <ele>2292.4</ele>
        <time>2018-08-08T07:14:48Z</time>
      </trkpt>
      <trkpt lat="42.60485" lon="1.98702">
        <ele>2293.84</ele>
        <time>2018-08-08T07:15:02Z</time>
      </trkpt>
      <trkpt lat="42.60495" lon="1.98695">
        <ele>2294.8</ele>
        <time>2018-08-08T07:15:17Z</time>
      </trkpt>
      <trkpt lat="42.60502" lon="1.98688">
        <ele>2296.73</ele>
        <time>2018-08-08T07:15:33Z</time>
      </trkpt>
      <trkpt lat="42.6051" lon="1.98681">
        <ele>2298.65</ele>
        <time>2018-08-08T07:15:48Z</time>
      </trkpt>
      <trkpt lat="42.60519" lon="1.98677">
        <ele>2299.61</ele>
        <time>2018-08-08T07:16:03Z</time>
      </trkpt>
      <trkpt lat="42.60529" lon="1.98664">
        <ele>2300.57</ele>
        <time>2018-08-08T07:16:19Z</time>
      </trkpt>
      <trkpt lat="42.60536" lon="1.98654">
        <ele>2301.53</ele>
        <time>2018-08-08T07:16:35Z</time>
      </trkpt>
      <trkpt lat="42.60543" lon="1.98646">
        <ele>2302.98</ele>
        <time>2018-08-08T07:16:51Z</time>
      </trkpt>
      <trkpt lat="42.6055" lon="1.98634">
        <ele>2305.38</ele>
        <time>2018-08-08T07:17:09Z</time>
      </trkpt>
      <trkpt lat="42.60554" lon="1.98624">
        <ele>2306.82</ele>
        <time>2018-08-08T07:17:24Z</time>
      </trkpt>
      <trkpt lat="42.60558" lon="1.98613">
        <ele>2308.74</ele>
        <time>2018-08-08T07:17:40Z</time>
      </trkpt>
      <trkpt lat="42.60567" lon="1.98603">
        <ele>2310.19</ele>
        <time>2018-08-08T07:17:56Z</time>
      </trkpt>
      <trkpt lat="42.6057" lon="1.98595">
        <ele>2311.15</ele>
        <time>2018-08-08T07:18:09Z</time>
      </trkpt>
      <trkpt lat="42.60571" lon="1.98591">
        <ele>2312.11</ele>
        <time>2018-08-08T07:18:46Z</time>
      </trkpt>
      <trkpt lat="42.60576" lon="1.98579">
        <ele>2312.59</ele>
        <time>2018-08-08T07:19:02Z</time>
      </trkpt>
      <trkpt lat="42.60584" lon="1.9857">
        <ele>2313.07</ele>
        <time>2018-08-08T07:19:20Z</time>
      </trkpt>
      <trkpt lat="42.60592" lon="1.98564">
        <ele>2314.51</ele>
        <time>2018-08-08T07:19:35Z</time>
      </trkpt>
      <trkpt lat="42.60597" lon="1.98555">
        <ele>2316.43</ele>
        <time>2018-08-08T07:19:49Z</time>
      </trkpt>
      <trkpt lat="42.60602" lon="1.98545">
        <ele>2319.32</ele>
        <time>2018-08-08T07:20:05Z</time>
      </trkpt>
      <trkpt lat="42.60608" lon="1.98537">
        <ele>2321.24</ele>
        <time>2018-08-08T07:20:22Z</time>
      </trkpt>
      <trkpt lat="42.60613" lon="1.9853">
        <ele>2323.64</ele>
        <time>2018-08-08T07:20:38Z</time>
      </trkpt>
      <trkpt lat="42.60621" lon="1.98518">
        <ele>2325.09</ele>
        <time>2018-08-08T07:20:56Z</time>
      </trkpt>
      <trkpt lat="42.60624" lon="1.9851">
        <ele>2327.49</ele>
        <time>2018-08-08T07:21:10Z</time>
      </trkpt>
      <trkpt lat="42.60627" lon="1.98501">
        <ele>2328.93</ele>
        <time>2018-08-08T07:21:26Z</time>
      </trkpt>
      <trkpt lat="42.60628" lon="1.98482">
        <ele>2329.41</ele>
        <time>2018-08-08T07:21:45Z</time>
      </trkpt>
      <trkpt lat="42.60627" lon="1.9847">
        <ele>2330.85</ele>
        <time>2018-08-08T07:22:00Z</time>
      </trkpt>
      <trkpt lat="42.60628" lon="1.98456">
        <ele>2331.81</ele>
        <time>2018-08-08T07:22:15Z</time>
      </trkpt>
      <trkpt lat="42.60634" lon="1.9844">
        <ele>2333.26</ele>
        <time>2018-08-08T07:22:32Z</time>
      </trkpt>
      <trkpt lat="42.6064" lon="1.98433">
        <ele>2334.7</ele>
        <time>2018-08-08T07:22:48Z</time>
      </trkpt>
      <trkpt lat="42.60646" lon="1.98424">
        <ele>2334.7</ele>
        <time>2018-08-08T07:23:05Z</time>
      </trkpt>
      <trkpt lat="42.60649" lon="1.9842">
        <ele>2335.18</ele>
        <time>2018-08-08T07:23:22Z</time>
      </trkpt>
      <trkpt lat="42.6065" lon="1.98421">
        <ele>2335.18</ele>
        <time>2018-08-08T07:23:37Z</time>
      </trkpt>
      <trkpt lat="42.60651" lon="1.98423">
        <ele>2335.66</ele>
        <time>2018-08-08T07:23:56Z</time>
      </trkpt>
      <trkpt lat="42.6065" lon="1.98422">
        <ele>2334.7</ele>
        <time>2018-08-08T07:24:16Z</time>
      </trkpt>
      <trkpt lat="42.6065" lon="1.98421">
        <ele>2334.7</ele>
        <time>2018-08-08T07:24:42Z</time>
      </trkpt>
      <trkpt lat="42.60651" lon="1.9842">
        <ele>2334.7</ele>
        <time>2018-08-08T07:25:28Z</time>
      </trkpt>
      <trkpt lat="42.60651" lon="1.98421">
        <ele>2334.22</ele>
        <time>2018-08-08T07:26:12Z</time>
      </trkpt>
      <trkpt lat="42.60652" lon="1.9842">
        <ele>2333.74</ele>
        <time>2018-08-08T07:27:02Z</time>
      </trkpt>
      <trkpt lat="42.60652" lon="1.98422">
        <ele>2333.74</ele>
        <time>2018-08-08T07:27:44Z</time>
      </trkpt>
      <trkpt lat="42.60652" lon="1.98422">
        <ele>2333.74</ele>
        <time>2018-08-08T07:28:31Z</time>
      </trkpt>
      <trkpt lat="42.60652" lon="1.98423">
        <ele>2333.26</ele>
        <time>2018-08-08T07:29:18Z</time>
      </trkpt>
      <trkpt lat="42.60651" lon="1.98421">
        <ele>2333.26</ele>
        <time>2018-08-08T07:30:03Z</time>
      </trkpt>
      <trkpt lat="42.60652" lon="1.98423">
        <ele>2333.26</ele>
        <time>2018-08-08T07:30:46Z</time>
      </trkpt>
      <trkpt lat="42.60652" lon="1.98422">
        <ele>2333.26</ele>
        <time>2018-08-08T07:31:35Z</time>
      </trkpt>
      <trkpt lat="42.60652" lon="1.98422">
        <ele>2332.78</ele>
        <time>2018-08-08T07:32:19Z</time>
      </trkpt>
      <trkpt lat="42.60652" lon="1.98421">
        <ele>2332.78</ele>
        <time>2018-08-08T07:32:58Z</time>
      </trkpt>
      <trkpt lat="42.60652" lon="1.98424">
        <ele>2332.78</ele>
        <time>2018-08-08T07:33:43Z</time>
      </trkpt>
      <trkpt lat="42.60652" lon="1.98424">
        <ele>2332.78</ele>
        <time>2018-08-08T07:34:28Z</time>
      </trkpt>
      <trkpt lat="42.60655" lon="1.98425">
        <ele>2334.22</ele>
        <time>2018-08-08T07:34:38Z</time>
      </trkpt>
      <trkpt lat="42.60652" lon="1.98424">
        <ele>2334.7</ele>
        <time>2018-08-08T07:34:58Z</time>
      </trkpt>
      <trkpt lat="42.60649" lon="1.98422">
        <ele>2334.7</ele>
        <time>2018-08-08T07:35:18Z</time>
      </trkpt>
      <trkpt lat="42.60648" lon="1.98423">
        <ele>2333.26</ele>
        <time>2018-08-08T07:35:30Z</time>
      </trkpt>
      <trkpt lat="42.60649" lon="1.98419">
        <ele>2333.26</ele>
        <time>2018-08-08T07:35:48Z</time>
      </trkpt>
      <trkpt lat="42.60658" lon="1.9841">
        <ele>2333.26</ele>
        <time>2018-08-08T07:36:03Z</time>
      </trkpt>
      <trkpt lat="42.60659" lon="1.98409">
        <ele>2334.7</ele>
        <time>2018-08-08T07:36:05Z</time>
      </trkpt>
      <trkpt lat="42.60664" lon="1.98405">
        <ele>2335.66</ele>
        <time>2018-08-08T07:36:24Z</time>
      </trkpt>
      <trkpt lat="42.6067" lon="1.984">
        <ele>2335.66</ele>
        <time>2018-08-08T07:36:41Z</time>
      </trkpt>
      <trkpt lat="42.60683" lon="1.98394">
        <ele>2335.66</ele>
        <time>2018-08-08T07:36:57Z</time>
      </trkpt>
      <trkpt lat="42.60687" lon="1.98391">
        <ele>2337.1</ele>
        <time>2018-08-08T07:37:13Z</time>
      </trkpt>
      <trkpt lat="42.60685" lon="1.9839">
        <ele>2337.1</ele>
        <time>2018-08-08T07:37:39Z</time>
      </trkpt>
      <trkpt lat="42.60692" lon="1.9839">
        <ele>2337.1</ele>
        <time>2018-08-08T07:37:58Z</time>
      </trkpt>
      <trkpt lat="42.60707" lon="1.98387">
        <ele>2338.54</ele>
        <time>2018-08-08T07:38:15Z</time>
      </trkpt>
      <trkpt lat="42.60712" lon="1.98374">
        <ele>2339.51</ele>
        <time>2018-08-08T07:38:30Z</time>
      </trkpt>
      <trkpt lat="42.60718" lon="1.9836">
        <ele>2339.99</ele>
        <time>2018-08-08T07:38:47Z</time>
      </trkpt>
      <trkpt lat="42.60724" lon="1.98348">
        <ele>2341.91</ele>
        <time>2018-08-08T07:39:04Z</time>
      </trkpt>
      <trkpt lat="42.60729" lon="1.98343">
        <ele>2344.31</ele>
        <time>2018-08-08T07:39:19Z</time>
      </trkpt>
      <trkpt lat="42.60731" lon="1.98336">
        <ele>2345.27</ele>
        <time>2018-08-08T07:39:35Z</time>
      </trkpt>
      <trkpt lat="42.60732" lon="1.98325">
        <ele>2346.72</ele>
        <time>2018-08-08T07:39:53Z</time>
      </trkpt>
      <trkpt lat="42.60731" lon="1.98317">
        <ele>2348.64</ele>
        <time>2018-08-08T07:40:08Z</time>
      </trkpt>
      <trkpt lat="42.60736" lon="1.98312">
        <ele>2350.08</ele>
        <time>2018-08-08T07:40:22Z</time>
      </trkpt>
      <trkpt lat="42.60744" lon="1.98312">
        <ele>2350.56</ele>
        <time>2018-08-08T07:40:38Z</time>
      </trkpt>
      <trkpt lat="42.60753" lon="1.98303">
        <ele>2353.44</ele>
        <time>2018-08-08T07:40:55Z</time>
      </trkpt>
      <trkpt lat="42.60755" lon="1.9829">
        <ele>2355.37</ele>
        <time>2018-08-08T07:41:16Z</time>
      </trkpt>
      <trkpt lat="42.60765" lon="1.98277">
        <ele>2356.81</ele>
        <time>2018-08-08T07:41:34Z</time>
      </trkpt>
      <trkpt lat="42.60774" lon="1.98269">
        <ele>2358.25</ele>
        <time>2018-08-08T07:41:51Z</time>
      </trkpt>
      <trkpt lat="42.60779" lon="1.98255">
        <ele>2359.69</ele>
        <time>2018-08-08T07:42:08Z</time>
      </trkpt>
      <trkpt lat="42.60783" lon="1.98246">
        <ele>2362.58</ele>
        <time>2018-08-08T07:42:27Z</time>
      </trkpt>
      <trkpt lat="42.60788" lon="1.98238">
        <ele>2364.98</ele>
        <time>2018-08-08T07:42:46Z</time>
      </trkpt>
      <trkpt lat="42.60789" lon="1.98236">
        <ele>2364.98</ele>
        <time>2018-08-08T07:42:49Z</time>
      </trkpt>
      <trkpt lat="42.60793" lon="1.98227">
        <ele>2366.9</ele>
        <time>2018-08-08T07:43:04Z</time>
      </trkpt>
      <trkpt lat="42.60798" lon="1.98216">
        <ele>2369.31</ele>
        <time>2018-08-08T07:43:24Z</time>
      </trkpt>
      <trkpt lat="42.60798" lon="1.98206">
        <ele>2370.75</ele>
        <time>2018-08-08T07:43:40Z</time>
      </trkpt>
      <trkpt lat="42.60803" lon="1.98194">
        <ele>2373.15</ele>
        <time>2018-08-08T07:43:59Z</time>
      </trkpt>
      <trkpt lat="42.60805" lon="1.98183">
        <ele>2375.55</ele>
        <time>2018-08-08T07:44:17Z</time>
      </trkpt>
      <trkpt lat="42.6081" lon="1.98177">
        <ele>2378.44</ele>
        <time>2018-08-08T07:44:37Z</time>
      </trkpt>
      <trkpt lat="42.60823" lon="1.98162">
        <ele>2380.84</ele>
        <time>2018-08-08T07:44:58Z</time>
      </trkpt>
      <trkpt lat="42.60838" lon="1.98157">
        <ele>2382.76</ele>
        <time>2018-08-08T07:45:21Z</time>
      </trkpt>
      <trkpt lat="42.60844" lon="1.98147">
        <ele>2385.17</ele>
        <time>2018-08-08T07:45:39Z</time>
      </trkpt>
      <trkpt lat="42.60844" lon="1.98133">
        <ele>2386.61</ele>
        <time>2018-08-08T07:45:56Z</time>
      </trkpt>
      <trkpt lat="42.6085" lon="1.98123">
        <ele>2387.57</ele>
        <time>2018-08-08T07:46:11Z</time>
      </trkpt>
      <trkpt lat="42.6085" lon="1.98106">
        <ele>2389.01</ele>
        <time>2018-08-08T07:46:28Z</time>
      </trkpt>
      <trkpt lat="42.60851" lon="1.98094">
        <ele>2389.01</ele>
        <time>2018-08-08T07:46:40Z</time>
      </trkpt>
      <trkpt lat="42.60853" lon="1.98076">
        <ele>2389.49</ele>
        <time>2018-08-08T07:46:56Z</time>
      </trkpt>
      <trkpt lat="42.6086" lon="1.98063">
        <ele>2390.94</ele>
        <time>2018-08-08T07:47:12Z</time>
      </trkpt>
      <trkpt lat="42.60869" lon="1.9805">
        <ele>2391.42</ele>
        <time>2018-08-08T07:47:30Z</time>
      </trkpt>
      <trkpt lat="42.60874" lon="1.98036">
        <ele>2391.9</ele>
        <time>2018-08-08T07:47:47Z</time>
      </trkpt>
      <trkpt lat="42.60868" lon="1.98036">
        <ele>2391.9</ele>
        <time>2018-08-08T07:48:00Z</time>
      </trkpt>
      <trkpt lat="42.60865" lon="1.98025">
        <ele>2393.34</ele>
        <time>2018-08-08T07:48:16Z</time>
      </trkpt>
      <trkpt lat="42.60862" lon="1.98012">
        <ele>2394.78</ele>
        <time>2018-08-08T07:48:31Z</time>
      </trkpt>
      <trkpt lat="42.60856" lon="1.98">
        <ele>2395.74</ele>
        <time>2018-08-08T07:48:48Z</time>
      </trkpt>
      <trkpt lat="42.60853" lon="1.97989">
        <ele>2394.3</ele>
        <time>2018-08-08T07:48:59Z</time>
      </trkpt>
      <trkpt lat="42.60851" lon="1.97976">
        <ele>2394.78</ele>
        <time>2018-08-08T07:49:09Z</time>
      </trkpt>
      <trkpt lat="42.60848" lon="1.97957">
        <ele>2392.86</ele>
        <time>2018-08-08T07:49:27Z</time>
      </trkpt>
      <trkpt lat="42.60847" lon="1.97948">
        <ele>2392.38</ele>
        <time>2018-08-08T07:49:35Z</time>
      </trkpt>
      <trkpt lat="42.60846" lon="1.97944">
        <ele>2392.38</ele>
        <time>2018-08-08T07:49:38Z</time>
      </trkpt>
      <trkpt lat="42.60839" lon="1.97933">
        <ele>2392.38</ele>
        <time>2018-08-08T07:49:54Z</time>
      </trkpt>
      <trkpt lat="42.60835" lon="1.97915">
        <ele>2392.86</ele>
        <time>2018-08-08T07:50:10Z</time>
      </trkpt>
      <trkpt lat="42.60836" lon="1.97895">
        <ele>2392.86</ele>
        <time>2018-08-08T07:50:26Z</time>
      </trkpt>
      <trkpt lat="42.6084" lon="1.97881">
        <ele>2394.3</ele>
        <time>2018-08-08T07:50:42Z</time>
      </trkpt>
      <trkpt lat="42.60842" lon="1.97869">
        <ele>2394.78</ele>
        <time>2018-08-08T07:50:57Z</time>
      </trkpt>
      <trkpt lat="42.60845" lon="1.97859">
        <ele>2395.26</ele>
        <time>2018-08-08T07:51:08Z</time>
      </trkpt>
      <trkpt lat="42.60848" lon="1.97841">
        <ele>2398.15</ele>
        <time>2018-08-08T07:51:25Z</time>
      </trkpt>
      <trkpt lat="42.60847" lon="1.97833">
        <ele>2399.11</ele>
        <time>2018-08-08T07:51:32Z</time>
      </trkpt>
      <trkpt lat="42.60844" lon="1.9782">
        <ele>2400.07</ele>
        <time>2018-08-08T07:51:48Z</time>
      </trkpt>
      <trkpt lat="42.60844" lon="1.97812">
        <ele>2398.63</ele>
        <time>2018-08-08T07:52:01Z</time>
      </trkpt>
      <trkpt lat="42.60841" lon="1.97805">
        <ele>2398.15</ele>
        <time>2018-08-08T07:52:26Z</time>
      </trkpt>
      <trkpt lat="42.60843" lon="1.97787">
        <ele>2395.74</ele>
        <time>2018-08-08T07:52:44Z</time>
      </trkpt>
      <trkpt lat="42.60847" lon="1.97765">
        <ele>2394.78</ele>
        <time>2018-08-08T07:53:01Z</time>
      </trkpt>
      <trkpt lat="42.60852" lon="1.97748">
        <ele>2394.78</ele>
        <time>2018-08-08T07:53:16Z</time>
      </trkpt>
      <trkpt lat="42.60855" lon="1.97735">
        <ele>2394.3</ele>
        <time>2018-08-08T07:53:27Z</time>
      </trkpt>
      <trkpt lat="42.60858" lon="1.97717">
        <ele>2394.3</ele>
        <time>2018-08-08T07:53:44Z</time>
      </trkpt>
      <trkpt lat="42.60862" lon="1.97711">
        <ele>2395.26</ele>
        <time>2018-08-08T07:53:53Z</time>
      </trkpt>
      <trkpt lat="42.60869" lon="1.97696">
        <ele>2395.74</ele>
        <time>2018-08-08T07:54:08Z</time>
      </trkpt>
      <trkpt lat="42.60875" lon="1.97684">
        <ele>2394.3</ele>
        <time>2018-08-08T07:54:23Z</time>
      </trkpt>
      <trkpt lat="42.6088" lon="1.97675">
        <ele>2395.74</ele>
        <time>2018-08-08T07:54:32Z</time>
      </trkpt>
      <trkpt lat="42.60883" lon="1.97669">
        <ele>2396.22</ele>
        <time>2018-08-08T07:54:37Z</time>
      </trkpt>
      <trkpt lat="42.6089" lon="1.97657">
        <ele>2397.18</ele>
        <time>2018-08-08T07:54:52Z</time>
      </trkpt>
      <trkpt lat="42.60893" lon="1.97647">
        <ele>2397.18</ele>
        <time>2018-08-08T07:55:09Z</time>
      </trkpt>
      <trkpt lat="42.6089" lon="1.97639">
        <ele>2398.63</ele>
        <time>2018-08-08T07:55:25Z</time>
      </trkpt>
      <trkpt lat="42.60888" lon="1.97632">
        <ele>2397.18</ele>
        <time>2018-08-08T07:55:40Z</time>
      </trkpt>
      <trkpt lat="42.60896" lon="1.97627">
        <ele>2396.22</ele>
        <time>2018-08-08T07:55:55Z</time>
      </trkpt>
      <trkpt lat="42.609" lon="1.97624">
        <ele>2396.7</ele>
        <time>2018-08-08T07:56:10Z</time>
      </trkpt>
      <trkpt lat="42.60901" lon="1.97622">
        <ele>2397.67</ele>
        <time>2018-08-08T07:56:22Z</time>
      </trkpt>
      <trkpt lat="42.60898" lon="1.97612">
        <ele>2399.11</ele>
        <time>2018-08-08T07:56:38Z</time>
      </trkpt>
      <trkpt lat="42.60901" lon="1.97607">
        <ele>2401.51</ele>
        <time>2018-08-08T07:56:55Z</time>
      </trkpt>
      <trkpt lat="42.6091" lon="1.97599">
        <ele>2401.51</ele>
        <time>2018-08-08T07:57:09Z</time>
      </trkpt>
      <trkpt lat="42.60916" lon="1.97588">
        <ele>2400.55</ele>
        <time>2018-08-08T07:57:26Z</time>
      </trkpt>
      <trkpt lat="42.60919" lon="1.97577">
        <ele>2400.07</ele>
        <time>2018-08-08T07:57:40Z</time>
      </trkpt>
      <trkpt lat="42.60925" lon="1.97567">
        <ele>2399.59</ele>
        <time>2018-08-08T07:57:54Z</time>
      </trkpt>
      <trkpt lat="42.60936" lon="1.97555">
        <ele>2399.59</ele>
        <time>2018-08-08T07:58:10Z</time>
      </trkpt>
      <trkpt lat="42.60947" lon="1.97544">
        <ele>2399.59</ele>
        <time>2018-08-08T07:58:25Z</time>
      </trkpt>
      <trkpt lat="42.60954" lon="1.97531">
        <ele>2401.03</ele>
        <time>2018-08-08T07:58:40Z</time>
      </trkpt>
      <trkpt lat="42.60962" lon="1.97517">
        <ele>2401.99</ele>
        <time>2018-08-08T07:58:57Z</time>
      </trkpt>
      <trkpt lat="42.60974" lon="1.97504">
        <ele>2401.99</ele>
        <time>2018-08-08T07:59:13Z</time>
      </trkpt>
      <trkpt lat="42.60987" lon="1.97496">
        <ele>2401.99</ele>
        <time>2018-08-08T07:59:28Z</time>
      </trkpt>
      <trkpt lat="42.60997" lon="1.97489">
        <ele>2403.91</ele>
        <time>2018-08-08T07:59:44Z</time>
      </trkpt>
      <trkpt lat="42.61003" lon="1.97484">
        <ele>2407.28</ele>
        <time>2018-08-08T07:59:59Z</time>
      </trkpt>
      <trkpt lat="42.6101" lon="1.97478">
        <ele>2410.16</ele>
        <time>2018-08-08T08:00:14Z</time>
      </trkpt>
      <trkpt lat="42.61016" lon="1.97469">
        <ele>2411.6</ele>
        <time>2018-08-08T08:00:30Z</time>
      </trkpt>
      <trkpt lat="42.61029" lon="1.97464">
        <ele>2412.57</ele>
        <time>2018-08-08T08:00:47Z</time>
      </trkpt>
      <trkpt lat="42.6104" lon="1.97455">
        <ele>2414.01</ele>
        <time>2018-08-08T08:01:04Z</time>
      </trkpt>
      <trkpt lat="42.61053" lon="1.97445">
        <ele>2414.97</ele>
        <time>2018-08-08T08:01:20Z</time>
      </trkpt>
      <trkpt lat="42.61059" lon="1.97433">
        <ele>2415.45</ele>
        <time>2018-08-08T08:01:35Z</time>
      </trkpt>
      <trkpt lat="42.61067" lon="1.97422">
        <ele>2416.89</ele>
        <time>2018-08-08T08:01:53Z</time>
      </trkpt>
      <trkpt lat="42.6107" lon="1.97418">
        <ele>2417.37</ele>
        <time>2018-08-08T08:01:59Z</time>
      </trkpt>
      <trkpt lat="42.61076" lon="1.97407">
        <ele>2419.3</ele>
        <time>2018-08-08T08:02:15Z</time>
      </trkpt>
      <trkpt lat="42.61084" lon="1.974">
        <ele>2422.18</ele>
        <time>2018-08-08T08:02:32Z</time>
      </trkpt>
      <trkpt lat="42.61093" lon="1.9739">
        <ele>2424.1</ele>
        <time>2018-08-08T08:02:50Z</time>
      </trkpt>
      <trkpt lat="42.61102" lon="1.97381">
        <ele>2425.06</ele>
        <time>2018-08-08T08:03:07Z</time>
      </trkpt>
      <trkpt lat="42.6111" lon="1.97374">
        <ele>2426.02</ele>
        <time>2018-08-08T08:03:21Z</time>
      </trkpt>
      <trkpt lat="42.61115" lon="1.97365">
        <ele>2427.47</ele>
        <time>2018-08-08T08:03:35Z</time>
      </trkpt>
      <trkpt lat="42.6112" lon="1.97355">
        <ele>2430.83</ele>
        <time>2018-08-08T08:03:54Z</time>
      </trkpt>
      <trkpt lat="42.61119" lon="1.97344">
        <ele>2432.75</ele>
        <time>2018-08-08T08:04:10Z</time>
      </trkpt>
      <trkpt lat="42.61123" lon="1.97338">
        <ele>2434.2</ele>
        <time>2018-08-08T08:04:25Z</time>
      </trkpt>
      <trkpt lat="42.6113" lon="1.97337">
        <ele>2435.64</ele>
        <time>2018-08-08T08:04:42Z</time>
      </trkpt>
      <trkpt lat="42.61135" lon="1.97331">
        <ele>2437.08</ele>
        <time>2018-08-08T08:04:57Z</time>
      </trkpt>
      <trkpt lat="42.6114" lon="1.97324">
        <ele>2439</ele>
        <time>2018-08-08T08:05:12Z</time>
      </trkpt>
      <trkpt lat="42.61142" lon="1.97311">
        <ele>2439.96</ele>
        <time>2018-08-08T08:05:26Z</time>
      </trkpt>
      <trkpt lat="42.61143" lon="1.97307">
        <ele>2441.89</ele>
        <time>2018-08-08T08:05:30Z</time>
      </trkpt>
      <trkpt lat="42.61147" lon="1.97298">
        <ele>2441.89</ele>
        <time>2018-08-08T08:05:44Z</time>
      </trkpt>
      <trkpt lat="42.61153" lon="1.97288">
        <ele>2443.81</ele>
        <time>2018-08-08T08:06:01Z</time>
      </trkpt>
      <trkpt lat="42.61156" lon="1.97282">
        <ele>2444.29</ele>
        <time>2018-08-08T08:06:12Z</time>
      </trkpt>
      <trkpt lat="42.61158" lon="1.97272">
        <ele>2445.73</ele>
        <time>2018-08-08T08:06:26Z</time>
      </trkpt>
      <trkpt lat="42.61162" lon="1.9726">
        <ele>2446.69</ele>
        <time>2018-08-08T08:06:43Z</time>
      </trkpt>
      <trkpt lat="42.61163" lon="1.97249">
        <ele>2447.65</ele>
        <time>2018-08-08T08:06:57Z</time>
      </trkpt>
      <trkpt lat="42.61164" lon="1.97237">
        <ele>2449.1</ele>
        <time>2018-08-08T08:07:13Z</time>
      </trkpt>
      <trkpt lat="42.61164" lon="1.97222">
        <ele>2450.54</ele>
        <time>2018-08-08T08:07:31Z</time>
      </trkpt>
      <trkpt lat="42.61162" lon="1.97222">
        <ele>2450.54</ele>
        <time>2018-08-08T08:07:44Z</time>
      </trkpt>
      <trkpt lat="42.61162" lon="1.97219">
        <ele>2450.06</ele>
        <time>2018-08-08T08:07:54Z</time>
      </trkpt>
      <trkpt lat="42.61162" lon="1.97207">
        <ele>2450.06</ele>
        <time>2018-08-08T08:08:08Z</time>
      </trkpt>
      <trkpt lat="42.61162" lon="1.97196">
        <ele>2450.06</ele>
        <time>2018-08-08T08:08:22Z</time>
      </trkpt>
      <trkpt lat="42.6116" lon="1.97181">
        <ele>2451.98</ele>
        <time>2018-08-08T08:08:38Z</time>
      </trkpt>
      <trkpt lat="42.61157" lon="1.97166">
        <ele>2452.94</ele>
        <time>2018-08-08T08:08:54Z</time>
      </trkpt>
      <trkpt lat="42.61152" lon="1.97154">
        <ele>2454.38</ele>
        <time>2018-08-08T08:09:09Z</time>
      </trkpt>
      <trkpt lat="42.61153" lon="1.97141">
        <ele>2456.31</ele>
        <time>2018-08-08T08:09:24Z</time>
      </trkpt>
      <trkpt lat="42.61154" lon="1.97129">
        <ele>2456.79</ele>
        <time>2018-08-08T08:09:38Z</time>
      </trkpt>
      <trkpt lat="42.61152" lon="1.9712">
        <ele>2457.75</ele>
        <time>2018-08-08T08:09:54Z</time>
      </trkpt>
      <trkpt lat="42.61153" lon="1.9711">
        <ele>2458.71</ele>
        <time>2018-08-08T08:10:10Z</time>
      </trkpt>
      <trkpt lat="42.61156" lon="1.971">
        <ele>2460.63</ele>
        <time>2018-08-08T08:10:26Z</time>
      </trkpt>
      <trkpt lat="42.61162" lon="1.97094">
        <ele>2462.55</ele>
        <time>2018-08-08T08:10:41Z</time>
      </trkpt>
      <trkpt lat="42.61168" lon="1.97091">
        <ele>2464.48</ele>
        <time>2018-08-08T08:10:57Z</time>
      </trkpt>
      <trkpt lat="42.61174" lon="1.97084">
        <ele>2467.36</ele>
        <time>2018-08-08T08:11:13Z</time>
      </trkpt>
      <trkpt lat="42.61179" lon="1.97074">
        <ele>2467.84</ele>
        <time>2018-08-08T08:11:26Z</time>
      </trkpt>
      <trkpt lat="42.61187" lon="1.97071">
        <ele>2469.28</ele>
        <time>2018-08-08T08:11:41Z</time>
      </trkpt>
      <trkpt lat="42.61192" lon="1.97068">
        <ele>2470.73</ele>
        <time>2018-08-08T08:11:55Z</time>
      </trkpt>
      <trkpt lat="42.61197" lon="1.97068">
        <ele>2472.17</ele>
        <time>2018-08-08T08:12:10Z</time>
      </trkpt>
      <trkpt lat="42.61203" lon="1.97066">
        <ele>2474.09</ele>
        <time>2018-08-08T08:12:26Z</time>
      </trkpt>
      <trkpt lat="42.61207" lon="1.97058">
        <ele>2476.49</ele>
        <time>2018-08-08T08:12:42Z</time>
      </trkpt>
      <trkpt lat="42.61211" lon="1.97056">
        <ele>2477.94</ele>
        <time>2018-08-08T08:12:57Z</time>
      </trkpt>
      <trkpt lat="42.61213" lon="1.97054">
        <ele>2479.38</ele>
        <time>2018-08-08T08:13:13Z</time>
      </trkpt>
      <trkpt lat="42.61215" lon="1.97049">
        <ele>2481.3</ele>
        <time>2018-08-08T08:13:29Z</time>
      </trkpt>
      <trkpt lat="42.61218" lon="1.97042">
        <ele>2482.74</ele>
        <time>2018-08-08T08:13:44Z</time>
      </trkpt>
      <trkpt lat="42.61221" lon="1.97035">
        <ele>2484.18</ele>
        <time>2018-08-08T08:13:59Z</time>
      </trkpt>
      <trkpt lat="42.61228" lon="1.97035">
        <ele>2486.59</ele>
        <time>2018-08-08T08:14:16Z</time>
      </trkpt>
      <trkpt lat="42.61233" lon="1.97031">
        <ele>2488.99</ele>
        <time>2018-08-08T08:14:31Z</time>
      </trkpt>
      <trkpt lat="42.61238" lon="1.97031">
        <ele>2490.91</ele>
        <time>2018-08-08T08:14:47Z</time>
      </trkpt>
      <trkpt lat="42.61242" lon="1.97031">
        <ele>2492.84</ele>
        <time>2018-08-08T08:15:02Z</time>
      </trkpt>
      <trkpt lat="42.61248" lon="1.97029">
        <ele>2494.76</ele>
        <time>2018-08-08T08:15:21Z</time>
      </trkpt>
      <trkpt lat="42.61252" lon="1.97029">
        <ele>2495.72</ele>
        <time>2018-08-08T08:15:35Z</time>
      </trkpt>
      <trkpt lat="42.61256" lon="1.97031">
        <ele>2499.08</ele>
        <time>2018-08-08T08:15:48Z</time>
      </trkpt>
      <trkpt lat="42.61261" lon="1.97034">
        <ele>2500.05</ele>
        <time>2018-08-08T08:16:03Z</time>
      </trkpt>
      <trkpt lat="42.61269" lon="1.97034">
        <ele>2501.49</ele>
        <time>2018-08-08T08:16:20Z</time>
      </trkpt>
      <trkpt lat="42.6127" lon="1.97032">
        <ele>2501.01</ele>
        <time>2018-08-08T08:16:41Z</time>
      </trkpt>
      <trkpt lat="42.61278" lon="1.97028">
        <ele>2503.41</ele>
        <time>2018-08-08T08:16:57Z</time>
      </trkpt>
      <trkpt lat="42.61283" lon="1.97018">
        <ele>2504.85</ele>
        <time>2018-08-08T08:17:13Z</time>
      </trkpt>
      <trkpt lat="42.61285" lon="1.97018">
        <ele>2506.77</ele>
        <time>2018-08-08T08:17:36Z</time>
      </trkpt>
      <trkpt lat="42.61285" lon="1.97018">
        <ele>2504.85</ele>
        <time>2018-08-08T08:17:38Z</time>
      </trkpt>
      <trkpt lat="42.61286" lon="1.97019">
        <ele>2505.81</ele>
        <time>2018-08-08T08:17:50Z</time>
      </trkpt>
      <trkpt lat="42.61289" lon="1.9702">
        <ele>2506.29</ele>
        <time>2018-08-08T08:18:23Z</time>
      </trkpt>
      <trkpt lat="42.61285" lon="1.97019">
        <ele>2505.81</ele>
        <time>2018-08-08T08:18:50Z</time>
      </trkpt>
      <trkpt lat="42.61285" lon="1.97018">
        <ele>2505.81</ele>
        <time>2018-08-08T08:19:20Z</time>
      </trkpt>
      <trkpt lat="42.61282" lon="1.97016">
        <ele>2505.81</ele>
        <time>2018-08-08T08:19:42Z</time>
      </trkpt>
      <trkpt lat="42.61282" lon="1.97016">
        <ele>2505.81</ele>
        <time>2018-08-08T08:19:45Z</time>
      </trkpt>
      <trkpt lat="42.61289" lon="1.97014">
        <ele>2505.81</ele>
        <time>2018-08-08T08:19:58Z</time>
      </trkpt>
      <trkpt lat="42.61294" lon="1.97015">
        <ele>2507.26</ele>
        <time>2018-08-08T08:20:04Z</time>
      </trkpt>
      <trkpt lat="42.61304" lon="1.9701">
        <ele>2508.22</ele>
        <time>2018-08-08T08:20:19Z</time>
      </trkpt>
      <trkpt lat="42.61308" lon="1.97005">
        <ele>2508.7</ele>
        <time>2018-08-08T08:20:25Z</time>
      </trkpt>
      <trkpt lat="42.61321" lon="1.96998">
        <ele>2510.14</ele>
        <time>2018-08-08T08:20:41Z</time>
      </trkpt>
      <trkpt lat="42.61327" lon="1.96987">
        <ele>2510.14</ele>
        <time>2018-08-08T08:20:56Z</time>
      </trkpt>
      <trkpt lat="42.61332" lon="1.96984">
        <ele>2510.62</ele>
        <time>2018-08-08T08:21:04Z</time>
      </trkpt>
      <trkpt lat="42.61334" lon="1.96983">
        <ele>2509.66</ele>
        <time>2018-08-08T08:21:07Z</time>
      </trkpt>
      <trkpt lat="42.61342" lon="1.96978">
        <ele>2512.06</ele>
        <time>2018-08-08T08:21:20Z</time>
      </trkpt>
      <trkpt lat="42.61348" lon="1.96968">
        <ele>2512.06</ele>
        <time>2018-08-08T08:21:35Z</time>
      </trkpt>
      <trkpt lat="42.61348" lon="1.96966">
        <ele>2510.62</ele>
        <time>2018-08-08T08:21:37Z</time>
      </trkpt>
      <trkpt lat="42.61355" lon="1.96952">
        <ele>2510.14</ele>
        <time>2018-08-08T08:21:54Z</time>
      </trkpt>
      <trkpt lat="42.61359" lon="1.96944">
        <ele>2508.7</ele>
        <time>2018-08-08T08:22:04Z</time>
      </trkpt>
      <trkpt lat="42.61365" lon="1.96939">
        <ele>2510.62</ele>
        <time>2018-08-08T08:22:13Z</time>
      </trkpt>
      <trkpt lat="42.61374" lon="1.96928">
        <ele>2511.58</ele>
        <time>2018-08-08T08:22:28Z</time>
      </trkpt>
      <trkpt lat="42.61381" lon="1.96918">
        <ele>2511.58</ele>
        <time>2018-08-08T08:22:43Z</time>
      </trkpt>
      <trkpt lat="42.61388" lon="1.96912">
        <ele>2512.06</ele>
        <time>2018-08-08T08:22:58Z</time>
      </trkpt>
      <trkpt lat="42.61391" lon="1.96907">
        <ele>2511.1</ele>
        <time>2018-08-08T08:23:04Z</time>
      </trkpt>
      <trkpt lat="42.61401" lon="1.969">
        <ele>2514.47</ele>
        <time>2018-08-08T08:23:18Z</time>
      </trkpt>
      <trkpt lat="42.61402" lon="1.969">
        <ele>2514.47</ele>
        <time>2018-08-08T08:23:19Z</time>
      </trkpt>
      <trkpt lat="42.61405" lon="1.96898">
        <ele>2513.5</ele>
        <time>2018-08-08T08:23:24Z</time>
      </trkpt>
      <trkpt lat="42.61409" lon="1.96891">
        <ele>2510.62</ele>
        <time>2018-08-08T08:23:34Z</time>
      </trkpt>
      <trkpt lat="42.61419" lon="1.9688">
        <ele>2511.1</ele>
        <time>2018-08-08T08:23:50Z</time>
      </trkpt>
      <trkpt lat="42.61428" lon="1.96866">
        <ele>2513.02</ele>
        <time>2018-08-08T08:24:07Z</time>
      </trkpt>
      <trkpt lat="42.61429" lon="1.96863">
        <ele>2510.62</ele>
        <time>2018-08-08T08:24:11Z</time>
      </trkpt>
      <trkpt lat="42.6143" lon="1.96861">
        <ele>2509.18</ele>
        <time>2018-08-08T08:24:13Z</time>
      </trkpt>
      <trkpt lat="42.61431" lon="1.9686">
        <ele>2511.1</ele>
        <time>2018-08-08T08:24:15Z</time>
      </trkpt>
      <trkpt lat="42.61433" lon="1.96856">
        <ele>2513.02</ele>
        <time>2018-08-08T08:24:19Z</time>
      </trkpt>
      <trkpt lat="42.61442" lon="1.9684">
        <ele>2511.1</ele>
        <time>2018-08-08T08:24:37Z</time>
      </trkpt>
      <trkpt lat="42.61446" lon="1.96826">
        <ele>2510.62</ele>
        <time>2018-08-08T08:24:52Z</time>
      </trkpt>
      <trkpt lat="42.61448" lon="1.96817">
        <ele>2509.66</ele>
        <time>2018-08-08T08:25:06Z</time>
      </trkpt>
      <trkpt lat="42.61449" lon="1.96811">
        <ele>2511.1</ele>
        <time>2018-08-08T08:25:13Z</time>
      </trkpt>
      <trkpt lat="42.61449" lon="1.96811">
        <ele>2514.47</ele>
        <time>2018-08-08T08:25:14Z</time>
      </trkpt>
      <trkpt lat="42.61449" lon="1.9681">
        <ele>2514.47</ele>
        <time>2018-08-08T08:25:15Z</time>
      </trkpt>
      <trkpt lat="42.61448" lon="1.96808">
        <ele>2513.02</ele>
        <time>2018-08-08T08:25:21Z</time>
      </trkpt>
      <trkpt lat="42.61448" lon="1.96807">
        <ele>2515.91</ele>
        <time>2018-08-08T08:25:42Z</time>
      </trkpt>
      <trkpt lat="42.61448" lon="1.96807">
        <ele>2513.5</ele>
        <time>2018-08-08T08:25:46Z</time>
      </trkpt>
      <trkpt lat="42.61448" lon="1.96808">
        <ele>2513.98</ele>
        <time>2018-08-08T08:26:02Z</time>
      </trkpt>
      <trkpt lat="42.61447" lon="1.96807">
        <ele>2512.54</ele>
        <time>2018-08-08T08:26:08Z</time>
      </trkpt>
      <trkpt lat="42.61446" lon="1.96806">
        <ele>2512.54</ele>
        <time>2018-08-08T08:26:36Z</time>
      </trkpt>
      <trkpt lat="42.61446" lon="1.96806">
        <ele>2512.06</ele>
        <time>2018-08-08T08:26:52Z</time>
      </trkpt>
      <trkpt lat="42.61447" lon="1.96807">
        <ele>2510.14</ele>
        <time>2018-08-08T08:27:04Z</time>
      </trkpt>
      <trkpt lat="42.61447" lon="1.96807">
        <ele>2508.7</ele>
        <time>2018-08-08T08:27:06Z</time>
      </trkpt>
      <trkpt lat="42.61447" lon="1.96808">
        <ele>2511.1</ele>
        <time>2018-08-08T08:27:11Z</time>
      </trkpt>
      <trkpt lat="42.61448" lon="1.96807">
        <ele>2513.02</ele>
        <time>2018-08-08T08:27:39Z</time>
      </trkpt>
      <trkpt lat="42.61449" lon="1.96812">
        <ele>2511.1</ele>
        <time>2018-08-08T08:28:02Z</time>
      </trkpt>
      <trkpt lat="42.61449" lon="1.96812">
        <ele>2512.54</ele>
        <time>2018-08-08T08:28:13Z</time>
      </trkpt>
      <trkpt lat="42.6145" lon="1.96807">
        <ele>2513.5</ele>
        <time>2018-08-08T08:28:37Z</time>
      </trkpt>
      <trkpt lat="42.6145" lon="1.96806">
        <ele>2515.43</ele>
        <time>2018-08-08T08:28:42Z</time>
      </trkpt>
      <trkpt lat="42.61451" lon="1.96804">
        <ele>2512.06</ele>
        <time>2018-08-08T08:28:55Z</time>
      </trkpt>
      <trkpt lat="42.61451" lon="1.96804">
        <ele>2511.58</ele>
        <time>2018-08-08T08:28:57Z</time>
      </trkpt>
      <trkpt lat="42.61453" lon="1.96802">
        <ele>2514.47</ele>
        <time>2018-08-08T08:29:04Z</time>
      </trkpt>
      <trkpt lat="42.61457" lon="1.96801">
        <ele>2513.02</ele>
        <time>2018-08-08T08:29:09Z</time>
      </trkpt>
      <trkpt lat="42.6146" lon="1.96795">
        <ele>2511.58</ele>
        <time>2018-08-08T08:29:17Z</time>
      </trkpt>
      <trkpt lat="42.61461" lon="1.96793">
        <ele>2513.02</ele>
        <time>2018-08-08T08:29:19Z</time>
      </trkpt>
      <trkpt lat="42.61463" lon="1.96793">
        <ele>2513.98</ele>
        <time>2018-08-08T08:29:32Z</time>
      </trkpt>
      <trkpt lat="42.61462" lon="1.96792">
        <ele>2512.54</ele>
        <time>2018-08-08T08:29:40Z</time>
      </trkpt>
      <trkpt lat="42.61465" lon="1.96782">
        <ele>2513.98</ele>
        <time>2018-08-08T08:29:56Z</time>
      </trkpt>
      <trkpt lat="42.61469" lon="1.96772">
        <ele>2511.1</ele>
        <time>2018-08-08T08:30:12Z</time>
      </trkpt>
      <trkpt lat="42.61471" lon="1.96766">
        <ele>2514.47</ele>
        <time>2018-08-08T08:30:19Z</time>
      </trkpt>
      <trkpt lat="42.61476" lon="1.96753">
        <ele>2513.98</ele>
        <time>2018-08-08T08:30:34Z</time>
      </trkpt>
      <trkpt lat="42.61481" lon="1.96745">
        <ele>2516.87</ele>
        <time>2018-08-08T08:30:49Z</time>
      </trkpt>
      <trkpt lat="42.61482" lon="1.96744">
        <ele>2515.43</ele>
        <time>2018-08-08T08:30:51Z</time>
      </trkpt>
      <trkpt lat="42.61482" lon="1.96739">
        <ele>2516.39</ele>
        <time>2018-08-08T08:30:56Z</time>
      </trkpt>
      <trkpt lat="42.61487" lon="1.96726">
        <ele>2517.83</ele>
        <time>2018-08-08T08:31:12Z</time>
      </trkpt>
      <trkpt lat="42.61487" lon="1.96724">
        <ele>2514.95</ele>
        <time>2018-08-08T08:31:14Z</time>
      </trkpt>
      <trkpt lat="42.61487" lon="1.96723">
        <ele>2514.95</ele>
        <time>2018-08-08T08:31:15Z</time>
      </trkpt>
      <trkpt lat="42.61488" lon="1.96721">
        <ele>2518.79</ele>
        <time>2018-08-08T08:31:19Z</time>
      </trkpt>
      <trkpt lat="42.61489" lon="1.9672">
        <ele>2518.79</ele>
        <time>2018-08-08T08:31:20Z</time>
      </trkpt>
      <trkpt lat="42.61495" lon="1.96716">
        <ele>2522.64</ele>
        <time>2018-08-08T08:31:31Z</time>
      </trkpt>
      <trkpt lat="42.61501" lon="1.96716">
        <ele>2522.16</ele>
        <time>2018-08-08T08:31:40Z</time>
      </trkpt>
      <trkpt lat="42.61508" lon="1.96705">
        <ele>2520.71</ele>
        <time>2018-08-08T08:31:56Z</time>
      </trkpt>
      <trkpt lat="42.61512" lon="1.96693">
        <ele>2520.71</ele>
        <time>2018-08-08T08:32:13Z</time>
      </trkpt>
      <trkpt lat="42.61519" lon="1.96687">
        <ele>2524.08</ele>
        <time>2018-08-08T08:32:29Z</time>
      </trkpt>
      <trkpt lat="42.61521" lon="1.96684">
        <ele>2519.27</ele>
        <time>2018-08-08T08:32:34Z</time>
      </trkpt>
      <trkpt lat="42.61521" lon="1.96683">
        <ele>2522.64</ele>
        <time>2018-08-08T08:32:36Z</time>
      </trkpt>
      <trkpt lat="42.61523" lon="1.9668">
        <ele>2523.12</ele>
        <time>2018-08-08T08:32:40Z</time>
      </trkpt>
      <trkpt lat="42.61525" lon="1.96668">
        <ele>2526.96</ele>
        <time>2018-08-08T08:32:52Z</time>
      </trkpt>
      <trkpt lat="42.61527" lon="1.96665">
        <ele>2527.92</ele>
        <time>2018-08-08T08:33:00Z</time>
      </trkpt>
      <trkpt lat="42.61528" lon="1.96664">
        <ele>2526.48</ele>
        <time>2018-08-08T08:33:02Z</time>
      </trkpt>
      <trkpt lat="42.61535" lon="1.96659">
        <ele>2526.48</ele>
        <time>2018-08-08T08:33:19Z</time>
      </trkpt>
      <trkpt lat="42.61541" lon="1.96653">
        <ele>2529.37</ele>
        <time>2018-08-08T08:33:36Z</time>
      </trkpt>
      <trkpt lat="42.61546" lon="1.9665">
        <ele>2532.73</ele>
        <time>2018-08-08T08:33:51Z</time>
      </trkpt>
      <trkpt lat="42.6155" lon="1.96648">
        <ele>2534.17</ele>
        <time>2018-08-08T08:34:06Z</time>
      </trkpt>
      <trkpt lat="42.61556" lon="1.96639">
        <ele>2536.1</ele>
        <time>2018-08-08T08:34:22Z</time>
      </trkpt>
      <trkpt lat="42.61558" lon="1.96636">
        <ele>2539.46</ele>
        <time>2018-08-08T08:34:35Z</time>
      </trkpt>
      <trkpt lat="42.61561" lon="1.96634">
        <ele>2537.06</ele>
        <time>2018-08-08T08:34:42Z</time>
      </trkpt>
      <trkpt lat="42.61561" lon="1.96633">
        <ele>2538.98</ele>
        <time>2018-08-08T08:34:44Z</time>
      </trkpt>
      <trkpt lat="42.61564" lon="1.96624">
        <ele>2539.94</ele>
        <time>2018-08-08T08:35:01Z</time>
      </trkpt>
      <trkpt lat="42.61568" lon="1.9662">
        <ele>2540.9</ele>
        <time>2018-08-08T08:35:16Z</time>
      </trkpt>
      <trkpt lat="42.61568" lon="1.9662">
        <ele>2540.9</ele>
        <time>2018-08-08T08:35:17Z</time>
      </trkpt>
      <trkpt lat="42.61569" lon="1.96617">
        <ele>2543.79</ele>
        <time>2018-08-08T08:35:25Z</time>
      </trkpt>
      <trkpt lat="42.61571" lon="1.96617">
        <ele>2540.9</ele>
        <time>2018-08-08T08:35:28Z</time>
      </trkpt>
      <trkpt lat="42.61572" lon="1.96615">
        <ele>2542.82</ele>
        <time>2018-08-08T08:35:31Z</time>
      </trkpt>
      <trkpt lat="42.61575" lon="1.96606">
        <ele>2545.71</ele>
        <time>2018-08-08T08:35:46Z</time>
      </trkpt>
      <trkpt lat="42.61579" lon="1.96601">
        <ele>2546.67</ele>
        <time>2018-08-08T08:35:59Z</time>
      </trkpt>
      <trkpt lat="42.61579" lon="1.96599">
        <ele>2548.59</ele>
        <time>2018-08-08T08:36:04Z</time>
      </trkpt>
      <trkpt lat="42.6158" lon="1.96597">
        <ele>2550.03</ele>
        <time>2018-08-08T08:36:09Z</time>
      </trkpt>
      <trkpt lat="42.6158" lon="1.96593">
        <ele>2549.55</ele>
        <time>2018-08-08T08:36:23Z</time>
      </trkpt>
      <trkpt lat="42.61581" lon="1.96593">
        <ele>2550.51</ele>
        <time>2018-08-08T08:36:29Z</time>
      </trkpt>
      <trkpt lat="42.61584" lon="1.96586">
        <ele>2553.88</ele>
        <time>2018-08-08T08:36:42Z</time>
      </trkpt>
      <trkpt lat="42.61587" lon="1.96582">
        <ele>2555.8</ele>
        <time>2018-08-08T08:37:00Z</time>
      </trkpt>
      <trkpt lat="42.61588" lon="1.96577">
        <ele>2558.21</ele>
        <time>2018-08-08T08:37:15Z</time>
      </trkpt>
      <trkpt lat="42.61591" lon="1.96571">
        <ele>2560.61</ele>
        <time>2018-08-08T08:37:30Z</time>
      </trkpt>
      <trkpt lat="42.61592" lon="1.96562">
        <ele>2562.53</ele>
        <time>2018-08-08T08:37:47Z</time>
      </trkpt>
      <trkpt lat="42.61592" lon="1.96559">
        <ele>2561.09</ele>
        <time>2018-08-08T08:37:51Z</time>
      </trkpt>
      <trkpt lat="42.61592" lon="1.96558">
        <ele>2562.53</ele>
        <time>2018-08-08T08:37:53Z</time>
      </trkpt>
      <trkpt lat="42.61594" lon="1.96549">
        <ele>2565.9</ele>
        <time>2018-08-08T08:38:07Z</time>
      </trkpt>
      <trkpt lat="42.61595" lon="1.96546">
        <ele>2563.49</ele>
        <time>2018-08-08T08:38:10Z</time>
      </trkpt>
      <trkpt lat="42.61595" lon="1.96544">
        <ele>2564.93</ele>
        <time>2018-08-08T08:38:14Z</time>
      </trkpt>
      <trkpt lat="42.61595" lon="1.96532">
        <ele>2565.42</ele>
        <time>2018-08-08T08:38:31Z</time>
      </trkpt>
      <trkpt lat="42.61598" lon="1.96524">
        <ele>2569.26</ele>
        <time>2018-08-08T08:38:44Z</time>
      </trkpt>
      <trkpt lat="42.61598" lon="1.96523">
        <ele>2569.26</ele>
        <time>2018-08-08T08:38:45Z</time>
      </trkpt>
      <trkpt lat="42.61602" lon="1.96518">
        <ele>2571.66</ele>
        <time>2018-08-08T08:39:00Z</time>
      </trkpt>
      <trkpt lat="42.61601" lon="1.96515">
        <ele>2571.18</ele>
        <time>2018-08-08T08:39:16Z</time>
      </trkpt>
      <trkpt lat="42.61601" lon="1.96514">
        <ele>2571.66</ele>
        <time>2018-08-08T08:39:18Z</time>
      </trkpt>
      <trkpt lat="42.61602" lon="1.96511">
        <ele>2574.07</ele>
        <time>2018-08-08T08:39:33Z</time>
      </trkpt>
      <trkpt lat="42.61605" lon="1.96511">
        <ele>2571.18</ele>
        <time>2018-08-08T08:39:42Z</time>
      </trkpt>
      <trkpt lat="42.61607" lon="1.96513">
        <ele>2574.07</ele>
        <time>2018-08-08T08:39:46Z</time>
      </trkpt>
      <trkpt lat="42.61608" lon="1.96513">
        <ele>2574.07</ele>
        <time>2018-08-08T08:39:47Z</time>
      </trkpt>
      <trkpt lat="42.61609" lon="1.96514">
        <ele>2576.95</ele>
        <time>2018-08-08T08:39:53Z</time>
      </trkpt>
      <trkpt lat="42.61609" lon="1.96515">
        <ele>2575.51</ele>
        <time>2018-08-08T08:39:58Z</time>
      </trkpt>
      <trkpt lat="42.61609" lon="1.96516">
        <ele>2576.95</ele>
        <time>2018-08-08T08:40:00Z</time>
      </trkpt>
      <trkpt lat="42.61611" lon="1.96515">
        <ele>2579.84</ele>
        <time>2018-08-08T08:40:06Z</time>
      </trkpt>
      <trkpt lat="42.61611" lon="1.96515">
        <ele>2578.39</ele>
        <time>2018-08-08T08:40:08Z</time>
      </trkpt>
      <trkpt lat="42.6161" lon="1.96513">
        <ele>2575.99</ele>
        <time>2018-08-08T08:40:13Z</time>
      </trkpt>
      <trkpt lat="42.6161" lon="1.96512">
        <ele>2578.39</ele>
        <time>2018-08-08T08:40:15Z</time>
      </trkpt>
      <trkpt lat="42.61611" lon="1.96511">
        <ele>2577.91</ele>
        <time>2018-08-08T08:40:25Z</time>
      </trkpt>
      <trkpt lat="42.61611" lon="1.9651">
        <ele>2579.35</ele>
        <time>2018-08-08T08:40:27Z</time>
      </trkpt>
      <trkpt lat="42.61613" lon="1.96507">
        <ele>2582.24</ele>
        <time>2018-08-08T08:40:37Z</time>
      </trkpt>
      <trkpt lat="42.61616" lon="1.96506">
        <ele>2583.68</ele>
        <time>2018-08-08T08:40:50Z</time>
      </trkpt>
      <trkpt lat="42.61617" lon="1.96507">
        <ele>2582.24</ele>
        <time>2018-08-08T08:41:04Z</time>
      </trkpt>
      <trkpt lat="42.61618" lon="1.96506">
        <ele>2579.84</ele>
        <time>2018-08-08T08:41:15Z</time>
      </trkpt>
      <trkpt lat="42.61618" lon="1.96506">
        <ele>2581.76</ele>
        <time>2018-08-08T08:41:22Z</time>
      </trkpt>
      <trkpt lat="42.61617" lon="1.96504">
        <ele>2584.16</ele>
        <time>2018-08-08T08:41:27Z</time>
      </trkpt>
      <trkpt lat="42.61618" lon="1.96502">
        <ele>2586.08</ele>
        <time>2018-08-08T08:41:37Z</time>
      </trkpt>
      <trkpt lat="42.61617" lon="1.96498">
        <ele>2585.6</ele>
        <time>2018-08-08T08:41:52Z</time>
      </trkpt>
      <trkpt lat="42.61617" lon="1.96498">
        <ele>2586.56</ele>
        <time>2018-08-08T08:42:02Z</time>
      </trkpt>
      <trkpt lat="42.61618" lon="1.96498">
        <ele>2588.01</ele>
        <time>2018-08-08T08:42:07Z</time>
      </trkpt>
      <trkpt lat="42.61617" lon="1.96498">
        <ele>2587.04</ele>
        <time>2018-08-08T08:42:09Z</time>
      </trkpt>
      <trkpt lat="42.61618" lon="1.96502">
        <ele>2585.6</ele>
        <time>2018-08-08T08:42:16Z</time>
      </trkpt>
      <trkpt lat="42.61618" lon="1.96501">
        <ele>2587.04</ele>
        <time>2018-08-08T08:42:24Z</time>
      </trkpt>
      <trkpt lat="42.61619" lon="1.965">
        <ele>2583.68</ele>
        <time>2018-08-08T08:42:39Z</time>
      </trkpt>
      <trkpt lat="42.61619" lon="1.96497">
        <ele>2585.6</ele>
        <time>2018-08-08T08:42:44Z</time>
      </trkpt>
      <trkpt lat="42.61619" lon="1.96493">
        <ele>2583.68</ele>
        <time>2018-08-08T08:42:47Z</time>
      </trkpt>
      <trkpt lat="42.61619" lon="1.96493">
        <ele>2585.6</ele>
        <time>2018-08-08T08:42:49Z</time>
      </trkpt>
      <trkpt lat="42.61617" lon="1.96493">
        <ele>2588.01</ele>
        <time>2018-08-08T08:42:58Z</time>
      </trkpt>
      <trkpt lat="42.61619" lon="1.96498">
        <ele>2588.49</ele>
        <time>2018-08-08T08:43:10Z</time>
      </trkpt>
      <trkpt lat="42.6162" lon="1.96499">
        <ele>2589.93</ele>
        <time>2018-08-08T08:43:13Z</time>
      </trkpt>
      <trkpt lat="42.61619" lon="1.96499">
        <ele>2589.45</ele>
        <time>2018-08-08T08:43:19Z</time>
      </trkpt>
      <trkpt lat="42.61619" lon="1.96498">
        <ele>2586.56</ele>
        <time>2018-08-08T08:43:23Z</time>
      </trkpt>
      <trkpt lat="42.6162" lon="1.96498">
        <ele>2589.93</ele>
        <time>2018-08-08T08:43:28Z</time>
      </trkpt>
      <trkpt lat="42.61619" lon="1.96493">
        <ele>2593.29</ele>
        <time>2018-08-08T08:43:40Z</time>
      </trkpt>
      <trkpt lat="42.61619" lon="1.96491">
        <ele>2592.33</ele>
        <time>2018-08-08T08:43:48Z</time>
      </trkpt>
      <trkpt lat="42.6162" lon="1.9649">
        <ele>2594.25</ele>
        <time>2018-08-08T08:43:50Z</time>
      </trkpt>
      <trkpt lat="42.61621" lon="1.9649">
        <ele>2590.89</ele>
        <time>2018-08-08T08:43:52Z</time>
      </trkpt>
      <trkpt lat="42.61622" lon="1.9649">
        <ele>2589.93</ele>
        <time>2018-08-08T08:43:54Z</time>
      </trkpt>
      <trkpt lat="42.61622" lon="1.9649">
        <ele>2593.77</ele>
        <time>2018-08-08T08:43:56Z</time>
      </trkpt>
      <trkpt lat="42.61623" lon="1.96489">
        <ele>2595.22</ele>
        <time>2018-08-08T08:43:58Z</time>
      </trkpt>
      <trkpt lat="42.61623" lon="1.96488">
        <ele>2596.66</ele>
        <time>2018-08-08T08:44:03Z</time>
      </trkpt>
      <trkpt lat="42.61625" lon="1.96487">
        <ele>2598.58</ele>
        <time>2018-08-08T08:44:10Z</time>
      </trkpt>
      <trkpt lat="42.61626" lon="1.96488">
        <ele>2597.62</ele>
        <time>2018-08-08T08:44:15Z</time>
      </trkpt>
      <trkpt lat="42.61626" lon="1.9649">
        <ele>2601.46</ele>
        <time>2018-08-08T08:44:23Z</time>
      </trkpt>
      <trkpt lat="42.61627" lon="1.96493">
        <ele>2603.39</ele>
        <time>2018-08-08T08:44:33Z</time>
      </trkpt>
      <trkpt lat="42.61628" lon="1.96493">
        <ele>2600.02</ele>
        <time>2018-08-08T08:44:36Z</time>
      </trkpt>
      <trkpt lat="42.61628" lon="1.96493">
        <ele>2600.02</ele>
        <time>2018-08-08T08:44:37Z</time>
      </trkpt>
      <trkpt lat="42.61629" lon="1.96494">
        <ele>2597.14</ele>
        <time>2018-08-08T08:44:52Z</time>
      </trkpt>
      <trkpt lat="42.61629" lon="1.96494">
        <ele>2600.5</ele>
        <time>2018-08-08T08:44:54Z</time>
      </trkpt>
      <trkpt lat="42.61629" lon="1.96494">
        <ele>2600.5</ele>
        <time>2018-08-08T08:44:55Z</time>
      </trkpt>
      <trkpt lat="42.61628" lon="1.96493">
        <ele>2596.66</ele>
        <time>2018-08-08T08:45:03Z</time>
      </trkpt>
      <trkpt lat="42.61626" lon="1.96494">
        <ele>2600.5</ele>
        <time>2018-08-08T08:45:10Z</time>
      </trkpt>
      <trkpt lat="42.61626" lon="1.96493">
        <ele>2598.58</ele>
        <time>2018-08-08T08:45:14Z</time>
      </trkpt>
      <trkpt lat="42.61626" lon="1.96493">
        <ele>2599.54</ele>
        <time>2018-08-08T08:45:16Z</time>
      </trkpt>
      <trkpt lat="42.61626" lon="1.96493">
        <ele>2598.58</ele>
        <time>2018-08-08T08:45:21Z</time>
      </trkpt>
      <trkpt lat="42.61626" lon="1.96493">
        <ele>2600.02</ele>
        <time>2018-08-08T08:45:24Z</time>
      </trkpt>
      <trkpt lat="42.61626" lon="1.96493">
        <ele>2597.62</ele>
        <time>2018-08-08T08:45:30Z</time>
      </trkpt>
      <trkpt lat="42.61625" lon="1.96492">
        <ele>2597.14</ele>
        <time>2018-08-08T08:45:43Z</time>
      </trkpt>
      <trkpt lat="42.61625" lon="1.96492">
        <ele>2595.7</ele>
        <time>2018-08-08T08:45:50Z</time>
      </trkpt>
      <trkpt lat="42.61625" lon="1.96492">
        <ele>2595.7</ele>
        <time>2018-08-08T08:46:08Z</time>
      </trkpt>
      <trkpt lat="42.61625" lon="1.96492">
        <ele>2596.18</ele>
        <time>2018-08-08T08:46:23Z</time>
      </trkpt>
      <trkpt lat="42.61624" lon="1.96493">
        <ele>2594.74</ele>
        <time>2018-08-08T08:46:32Z</time>
      </trkpt>
      <trkpt lat="42.61626" lon="1.96492">
        <ele>2593.77</ele>
        <time>2018-08-08T08:47:10Z</time>
      </trkpt>
      <trkpt lat="42.61626" lon="1.96492">
        <ele>2595.22</ele>
        <time>2018-08-08T08:47:12Z</time>
      </trkpt>
      <trkpt lat="42.61626" lon="1.96491">
        <ele>2593.77</ele>
        <time>2018-08-08T08:47:20Z</time>
      </trkpt>
      <trkpt lat="42.61626" lon="1.96491">
        <ele>2594.74</ele>
        <time>2018-08-08T08:47:40Z</time>
      </trkpt>
      <trkpt lat="42.61625" lon="1.96493">
        <ele>2596.18</ele>
        <time>2018-08-08T08:47:51Z</time>
      </trkpt>
      <trkpt lat="42.61625" lon="1.96493">
        <ele>2598.58</ele>
        <time>2018-08-08T08:48:25Z</time>
      </trkpt>
      <trkpt lat="42.61624" lon="1.96493">
        <ele>2597.62</ele>
        <time>2018-08-08T08:48:28Z</time>
      </trkpt>
      <trkpt lat="42.61625" lon="1.96494">
        <ele>2599.54</ele>
        <time>2018-08-08T08:48:31Z</time>
      </trkpt>
      <trkpt lat="42.61627" lon="1.96493">
        <ele>2596.66</ele>
        <time>2018-08-08T08:48:38Z</time>
      </trkpt>
      <trkpt lat="42.61629" lon="1.96492">
        <ele>2598.58</ele>
        <time>2018-08-08T08:48:57Z</time>
      </trkpt>
      <trkpt lat="42.6163" lon="1.96493">
        <ele>2597.62</ele>
        <time>2018-08-08T08:49:00Z</time>
      </trkpt>
      <trkpt lat="42.6163" lon="1.96493">
        <ele>2599.06</ele>
        <time>2018-08-08T08:49:02Z</time>
      </trkpt>
      <trkpt lat="42.6163" lon="1.96493">
        <ele>2597.62</ele>
        <time>2018-08-08T08:49:05Z</time>
      </trkpt>
      <trkpt lat="42.61629" lon="1.96492">
        <ele>2598.58</ele>
        <time>2018-08-08T08:49:14Z</time>
      </trkpt>
      <trkpt lat="42.61629" lon="1.96492">
        <ele>2597.14</ele>
        <time>2018-08-08T08:49:17Z</time>
      </trkpt>
      <trkpt lat="42.61629" lon="1.96492">
        <ele>2598.58</ele>
        <time>2018-08-08T08:49:19Z</time>
      </trkpt>
      <trkpt lat="42.61629" lon="1.96492">
        <ele>2597.14</ele>
        <time>2018-08-08T08:49:23Z</time>
      </trkpt>
      <trkpt lat="42.61629" lon="1.96491">
        <ele>2597.62</ele>
        <time>2018-08-08T08:49:50Z</time>
      </trkpt>
      <trkpt lat="42.61631" lon="1.96489">
        <ele>2601.95</ele>
        <time>2018-08-08T08:50:07Z</time>
      </trkpt>
      <trkpt lat="42.61632" lon="1.9649">
        <ele>2601.46</ele>
        <time>2018-08-08T08:50:18Z</time>
      </trkpt>
      <trkpt lat="42.61632" lon="1.9649">
        <ele>2604.83</ele>
        <time>2018-08-08T08:50:25Z</time>
      </trkpt>
      <trkpt lat="42.61632" lon="1.9649">
        <ele>2605.31</ele>
        <time>2018-08-08T08:50:27Z</time>
      </trkpt>
      <trkpt lat="42.61633" lon="1.9649">
        <ele>2602.43</ele>
        <time>2018-08-08T08:50:31Z</time>
      </trkpt>
      <trkpt lat="42.61633" lon="1.96486">
        <ele>2604.83</ele>
        <time>2018-08-08T08:50:44Z</time>
      </trkpt>
      <trkpt lat="42.61633" lon="1.96483">
        <ele>2601.95</ele>
        <time>2018-08-08T08:50:51Z</time>
      </trkpt>
      <trkpt lat="42.61634" lon="1.9648">
        <ele>2605.31</ele>
        <time>2018-08-08T08:50:59Z</time>
      </trkpt>
      <trkpt lat="42.61634" lon="1.9648">
        <ele>2605.31</ele>
        <time>2018-08-08T08:51:00Z</time>
      </trkpt>
      <trkpt lat="42.61634" lon="1.96479">
        <ele>2607.71</ele>
        <time>2018-08-08T08:51:05Z</time>
      </trkpt>
      <trkpt lat="42.61635" lon="1.96477">
        <ele>2606.27</ele>
        <time>2018-08-08T08:51:09Z</time>
      </trkpt>
      <trkpt lat="42.61635" lon="1.96476">
        <ele>2607.23</ele>
        <time>2018-08-08T08:51:13Z</time>
      </trkpt>
      <trkpt lat="42.61636" lon="1.96476">
        <ele>2604.83</ele>
        <time>2018-08-08T08:51:16Z</time>
      </trkpt>
      <trkpt lat="42.61637" lon="1.96475">
        <ele>2606.27</ele>
        <time>2018-08-08T08:51:18Z</time>
      </trkpt>
      <trkpt lat="42.61638" lon="1.96475">
        <ele>2608.67</ele>
        <time>2018-08-08T08:51:21Z</time>
      </trkpt>
      <trkpt lat="42.61638" lon="1.96474">
        <ele>2606.75</ele>
        <time>2018-08-08T08:51:24Z</time>
      </trkpt>
      <trkpt lat="42.61638" lon="1.96474">
        <ele>2608.19</ele>
        <time>2018-08-08T08:51:26Z</time>
      </trkpt>
      <trkpt lat="42.61639" lon="1.96471">
        <ele>2607.23</ele>
        <time>2018-08-08T08:51:32Z</time>
      </trkpt>
      <trkpt lat="42.6164" lon="1.96468">
        <ele>2608.19</ele>
        <time>2018-08-08T08:51:42Z</time>
      </trkpt>
      <trkpt lat="42.61641" lon="1.96465">
        <ele>2610.12</ele>
        <time>2018-08-08T08:51:48Z</time>
      </trkpt>
      <trkpt lat="42.61641" lon="1.96464">
        <ele>2609.16</ele>
        <time>2018-08-08T08:51:53Z</time>
      </trkpt>
      <trkpt lat="42.61643" lon="1.9646">
        <ele>2611.56</ele>
        <time>2018-08-08T08:52:04Z</time>
      </trkpt>
      <trkpt lat="42.61646" lon="1.96452">
        <ele>2612.04</ele>
        <time>2018-08-08T08:52:19Z</time>
      </trkpt>
      <trkpt lat="42.6165" lon="1.9645">
        <ele>2614.92</ele>
        <time>2018-08-08T08:52:32Z</time>
      </trkpt>
      <trkpt lat="42.61652" lon="1.96447">
        <ele>2616.85</ele>
        <time>2018-08-08T08:52:38Z</time>
      </trkpt>
      <trkpt lat="42.61652" lon="1.96446">
        <ele>2615.4</ele>
        <time>2018-08-08T08:52:42Z</time>
      </trkpt>
      <trkpt lat="42.61652" lon="1.96442">
        <ele>2617.81</ele>
        <time>2018-08-08T08:52:47Z</time>
      </trkpt>
      <trkpt lat="42.61656" lon="1.96437">
        <ele>2615.88</ele>
        <time>2018-08-08T08:52:56Z</time>
      </trkpt>
      <trkpt lat="42.61656" lon="1.96434">
        <ele>2618.29</ele>
        <time>2018-08-08T08:53:01Z</time>
      </trkpt>
      <trkpt lat="42.61657" lon="1.96433">
        <ele>2619.73</ele>
        <time>2018-08-08T08:53:04Z</time>
      </trkpt>
      <trkpt lat="42.61657" lon="1.96432">
        <ele>2617.81</ele>
        <time>2018-08-08T08:53:06Z</time>
      </trkpt>
      <trkpt lat="42.6166" lon="1.96425">
        <ele>2620.69</ele>
        <time>2018-08-08T08:53:19Z</time>
      </trkpt>
      <trkpt lat="42.61662" lon="1.96422">
        <ele>2622.13</ele>
        <time>2018-08-08T08:53:24Z</time>
      </trkpt>
      <trkpt lat="42.61667" lon="1.9641">
        <ele>2623.09</ele>
        <time>2018-08-08T08:53:40Z</time>
      </trkpt>
      <trkpt lat="42.61672" lon="1.96404">
        <ele>2625.02</ele>
        <time>2018-08-08T08:53:54Z</time>
      </trkpt>
      <trkpt lat="42.61676" lon="1.96398">
        <ele>2626.46</ele>
        <time>2018-08-08T08:54:05Z</time>
      </trkpt>
      <trkpt lat="42.6168" lon="1.96391">
        <ele>2628.86</ele>
        <time>2018-08-08T08:54:19Z</time>
      </trkpt>
      <trkpt lat="42.61682" lon="1.96382">
        <ele>2629.82</ele>
        <time>2018-08-08T08:54:34Z</time>
      </trkpt>
      <trkpt lat="42.61683" lon="1.96381">
        <ele>2631.27</ele>
        <time>2018-08-08T08:54:36Z</time>
      </trkpt>
      <trkpt lat="42.61684" lon="1.9638">
        <ele>2629.34</ele>
        <time>2018-08-08T08:54:40Z</time>
      </trkpt>
      <trkpt lat="42.61686" lon="1.96376">
        <ele>2630.79</ele>
        <time>2018-08-08T08:54:50Z</time>
      </trkpt>
      <trkpt lat="42.61688" lon="1.96366">
        <ele>2633.67</ele>
        <time>2018-08-08T08:55:07Z</time>
      </trkpt>
      <trkpt lat="42.6169" lon="1.96361">
        <ele>2635.59</ele>
        <time>2018-08-08T08:55:18Z</time>
      </trkpt>
      <trkpt lat="42.61693" lon="1.96356">
        <ele>2636.55</ele>
        <time>2018-08-08T08:55:32Z</time>
      </trkpt>
      <trkpt lat="42.61696" lon="1.96351">
        <ele>2639.44</ele>
        <time>2018-08-08T08:55:43Z</time>
      </trkpt>
      <trkpt lat="42.61697" lon="1.9635">
        <ele>2637.99</ele>
        <time>2018-08-08T08:55:46Z</time>
      </trkpt>
      <trkpt lat="42.61698" lon="1.96345">
        <ele>2639.44</ele>
        <time>2018-08-08T08:55:53Z</time>
      </trkpt>
      <trkpt lat="42.61699" lon="1.96335">
        <ele>2638.96</ele>
        <time>2018-08-08T08:56:09Z</time>
      </trkpt>
      <trkpt lat="42.61699" lon="1.96334">
        <ele>2640.4</ele>
        <time>2018-08-08T08:56:11Z</time>
      </trkpt>
      <trkpt lat="42.61701" lon="1.96326">
        <ele>2643.28</ele>
        <time>2018-08-08T08:56:24Z</time>
      </trkpt>
      <trkpt lat="42.61701" lon="1.96324">
        <ele>2644.72</ele>
        <time>2018-08-08T08:56:27Z</time>
      </trkpt>
      <trkpt lat="42.61701" lon="1.96322">
        <ele>2642.32</ele>
        <time>2018-08-08T08:56:30Z</time>
      </trkpt>
      <trkpt lat="42.61701" lon="1.9632">
        <ele>2645.69</ele>
        <time>2018-08-08T08:56:33Z</time>
      </trkpt>
      <trkpt lat="42.61701" lon="1.9632">
        <ele>2645.69</ele>
        <time>2018-08-08T08:56:34Z</time>
      </trkpt>
      <trkpt lat="42.61702" lon="1.96319">
        <ele>2646.65</ele>
        <time>2018-08-08T08:56:36Z</time>
      </trkpt>
      <trkpt lat="42.61702" lon="1.96318">
        <ele>2645.21</ele>
        <time>2018-08-08T08:56:38Z</time>
      </trkpt>
      <trkpt lat="42.61702" lon="1.96317">
        <ele>2644.24</ele>
        <time>2018-08-08T08:56:40Z</time>
      </trkpt>
      <trkpt lat="42.61705" lon="1.96312">
        <ele>2643.76</ele>
        <time>2018-08-08T08:57:00Z</time>
      </trkpt>
      <trkpt lat="42.61707" lon="1.96309">
        <ele>2643.76</ele>
        <time>2018-08-08T08:57:18Z</time>
      </trkpt>
      <trkpt lat="42.61707" lon="1.96309">
        <ele>2642.8</ele>
        <time>2018-08-08T08:57:23Z</time>
      </trkpt>
      <trkpt lat="42.61704" lon="1.96309">
        <ele>2642.8</ele>
        <time>2018-08-08T08:57:35Z</time>
      </trkpt>
      <trkpt lat="42.61704" lon="1.96309">
        <ele>2646.17</ele>
        <time>2018-08-08T08:57:44Z</time>
      </trkpt>
      <trkpt lat="42.61704" lon="1.96306">
        <ele>2645.69</ele>
        <time>2018-08-08T08:57:58Z</time>
      </trkpt>
      <trkpt lat="42.61704" lon="1.96305">
        <ele>2644.24</ele>
        <time>2018-08-08T08:58:00Z</time>
      </trkpt>
      <trkpt lat="42.61705" lon="1.96305">
        <ele>2647.13</ele>
        <time>2018-08-08T08:58:17Z</time>
      </trkpt>
      <trkpt lat="42.6171" lon="1.96309">
        <ele>2650.97</ele>
        <time>2018-08-08T08:58:30Z</time>
      </trkpt>
      <trkpt lat="42.61712" lon="1.96307">
        <ele>2654.82</ele>
        <time>2018-08-08T08:58:36Z</time>
      </trkpt>
      <trkpt lat="42.61713" lon="1.96306">
        <ele>2651.45</ele>
        <time>2018-08-08T08:58:39Z</time>
      </trkpt>
      <trkpt lat="42.61713" lon="1.96305">
        <ele>2651.45</ele>
        <time>2018-08-08T08:58:40Z</time>
      </trkpt>
      <trkpt lat="42.61714" lon="1.96304">
        <ele>2653.38</ele>
        <time>2018-08-08T08:58:43Z</time>
      </trkpt>
      <trkpt lat="42.61714" lon="1.96303">
        <ele>2652.9</ele>
        <time>2018-08-08T08:58:49Z</time>
      </trkpt>
      <trkpt lat="42.61716" lon="1.96301">
        <ele>2655.78</ele>
        <time>2018-08-08T08:58:55Z</time>
      </trkpt>
      <trkpt lat="42.61716" lon="1.96299">
        <ele>2654.34</ele>
        <time>2018-08-08T08:58:58Z</time>
      </trkpt>
      <trkpt lat="42.6172" lon="1.96293">
        <ele>2655.78</ele>
        <time>2018-08-08T08:59:14Z</time>
      </trkpt>
      <trkpt lat="42.61721" lon="1.96291">
        <ele>2657.22</ele>
        <time>2018-08-08T08:59:20Z</time>
      </trkpt>
      <trkpt lat="42.61724" lon="1.96287">
        <ele>2658.66</ele>
        <time>2018-08-08T08:59:32Z</time>
      </trkpt>
      <trkpt lat="42.61726" lon="1.96284">
        <ele>2657.7</ele>
        <time>2018-08-08T08:59:38Z</time>
      </trkpt>
      <trkpt lat="42.61726" lon="1.96277">
        <ele>2659.62</ele>
        <time>2018-08-08T08:59:52Z</time>
      </trkpt>
      <trkpt lat="42.61725" lon="1.96273">
        <ele>2659.14</ele>
        <time>2018-08-08T08:59:59Z</time>
      </trkpt>
      <trkpt lat="42.61725" lon="1.96273">
        <ele>2662.51</ele>
        <time>2018-08-08T09:00:01Z</time>
      </trkpt>
      <trkpt lat="42.61726" lon="1.96272">
        <ele>2662.51</ele>
        <time>2018-08-08T09:00:02Z</time>
      </trkpt>
      <trkpt lat="42.61727" lon="1.96269">
        <ele>2660.59</ele>
        <time>2018-08-08T09:00:07Z</time>
      </trkpt>
      <trkpt lat="42.61726" lon="1.96266">
        <ele>2661.55</ele>
        <time>2018-08-08T09:00:19Z</time>
      </trkpt>
      <trkpt lat="42.61725" lon="1.96262">
        <ele>2662.03</ele>
        <time>2018-08-08T09:00:25Z</time>
      </trkpt>
      <trkpt lat="42.61722" lon="1.96255">
        <ele>2660.59</ele>
        <time>2018-08-08T09:00:35Z</time>
      </trkpt>
      <trkpt lat="42.61722" lon="1.96254">
        <ele>2662.99</ele>
        <time>2018-08-08T09:00:38Z</time>
      </trkpt>
      <trkpt lat="42.61722" lon="1.96252">
        <ele>2662.03</ele>
        <time>2018-08-08T09:00:44Z</time>
      </trkpt>
      <trkpt lat="42.61722" lon="1.96249">
        <ele>2662.99</ele>
        <time>2018-08-08T09:00:47Z</time>
      </trkpt>
      <trkpt lat="42.61721" lon="1.96236">
        <ele>2665.87</ele>
        <time>2018-08-08T09:01:01Z</time>
      </trkpt>
      <trkpt lat="42.61721" lon="1.96232">
        <ele>2663.47</ele>
        <time>2018-08-08T09:01:05Z</time>
      </trkpt>
      <trkpt lat="42.6172" lon="1.96225">
        <ele>2665.39</ele>
        <time>2018-08-08T09:01:13Z</time>
      </trkpt>
      <trkpt lat="42.6172" lon="1.96217">
        <ele>2664.91</ele>
        <time>2018-08-08T09:01:23Z</time>
      </trkpt>
      <trkpt lat="42.6172" lon="1.96209">
        <ele>2668.28</ele>
        <time>2018-08-08T09:01:33Z</time>
      </trkpt>
      <trkpt lat="42.6172" lon="1.96207">
        <ele>2664.91</ele>
        <time>2018-08-08T09:01:35Z</time>
      </trkpt>
      <trkpt lat="42.6172" lon="1.96207">
        <ele>2664.91</ele>
        <time>2018-08-08T09:01:36Z</time>
      </trkpt>
      <trkpt lat="42.61719" lon="1.96205">
        <ele>2663.47</ele>
        <time>2018-08-08T09:01:38Z</time>
      </trkpt>
      <trkpt lat="42.61719" lon="1.96203">
        <ele>2664.91</ele>
        <time>2018-08-08T09:01:40Z</time>
      </trkpt>
      <trkpt lat="42.61719" lon="1.96195">
        <ele>2667.8</ele>
        <time>2018-08-08T09:01:53Z</time>
      </trkpt>
      <trkpt lat="42.61718" lon="1.96192">
        <ele>2669.72</ele>
        <time>2018-08-08T09:02:07Z</time>
      </trkpt>
      <trkpt lat="42.61718" lon="1.96188">
        <ele>2669.24</ele>
        <time>2018-08-08T09:02:12Z</time>
      </trkpt>
      <trkpt lat="42.61718" lon="1.96183">
        <ele>2665.39</ele>
        <time>2018-08-08T09:02:23Z</time>
      </trkpt>
      <trkpt lat="42.61719" lon="1.96183">
        <ele>2666.83</ele>
        <time>2018-08-08T09:02:24Z</time>
      </trkpt>
      <trkpt lat="42.61718" lon="1.96182">
        <ele>2667.8</ele>
        <time>2018-08-08T09:02:33Z</time>
      </trkpt>
      <trkpt lat="42.61718" lon="1.96181">
        <ele>2670.68</ele>
        <time>2018-08-08T09:02:37Z</time>
      </trkpt>
      <trkpt lat="42.61718" lon="1.9618">
        <ele>2671.16</ele>
        <time>2018-08-08T09:02:38Z</time>
      </trkpt>
      <trkpt lat="42.61718" lon="1.96178">
        <ele>2673.08</ele>
        <time>2018-08-08T09:02:43Z</time>
      </trkpt>
      <trkpt lat="42.61717" lon="1.96167">
        <ele>2672.12</ele>
        <time>2018-08-08T09:02:59Z</time>
      </trkpt>
      <trkpt lat="42.61717" lon="1.96166">
        <ele>2676.45</ele>
        <time>2018-08-08T09:03:02Z</time>
      </trkpt>
      <trkpt lat="42.61716" lon="1.96165">
        <ele>2676.45</ele>
        <time>2018-08-08T09:03:03Z</time>
      </trkpt>
      <trkpt lat="42.61716" lon="1.96162">
        <ele>2682.7</ele>
        <time>2018-08-08T09:03:07Z</time>
      </trkpt>
      <trkpt lat="42.61716" lon="1.96162">
        <ele>2682.7</ele>
        <time>2018-08-08T09:03:08Z</time>
      </trkpt>
      <trkpt lat="42.61716" lon="1.96161">
        <ele>2679.33</ele>
        <time>2018-08-08T09:03:10Z</time>
      </trkpt>
      <trkpt lat="42.61716" lon="1.96157">
        <ele>2678.37</ele>
        <time>2018-08-08T09:03:14Z</time>
      </trkpt>
      <trkpt lat="42.61715" lon="1.96153">
        <ele>2679.33</ele>
        <time>2018-08-08T09:03:21Z</time>
      </trkpt>
      <trkpt lat="42.61714" lon="1.96148">
        <ele>2678.37</ele>
        <time>2018-08-08T09:03:28Z</time>
      </trkpt>
      <trkpt lat="42.61714" lon="1.96146">
        <ele>2680.77</ele>
        <time>2018-08-08T09:03:30Z</time>
      </trkpt>
      <trkpt lat="42.61713" lon="1.96141">
        <ele>2677.41</ele>
        <time>2018-08-08T09:03:37Z</time>
      </trkpt>
      <trkpt lat="42.61712" lon="1.9614">
        <ele>2677.41</ele>
        <time>2018-08-08T09:03:38Z</time>
      </trkpt>
      <trkpt lat="42.61711" lon="1.96135">
        <ele>2676.93</ele>
        <time>2018-08-08T09:03:47Z</time>
      </trkpt>
      <trkpt lat="42.61712" lon="1.96135">
        <ele>2679.33</ele>
        <time>2018-08-08T09:03:50Z</time>
      </trkpt>
      <trkpt lat="42.61711" lon="1.96133">
        <ele>2681.73</ele>
        <time>2018-08-08T09:03:54Z</time>
      </trkpt>
      <trkpt lat="42.61711" lon="1.96131">
        <ele>2679.81</ele>
        <time>2018-08-08T09:03:56Z</time>
      </trkpt>
      <trkpt lat="42.61711" lon="1.96129">
        <ele>2680.77</ele>
        <time>2018-08-08T09:04:02Z</time>
      </trkpt>
      <trkpt lat="42.61712" lon="1.96125">
        <ele>2678.85</ele>
        <time>2018-08-08T09:04:10Z</time>
      </trkpt>
      <trkpt lat="42.61712" lon="1.96124">
        <ele>2680.29</ele>
        <time>2018-08-08T09:04:12Z</time>
      </trkpt>
      <trkpt lat="42.61712" lon="1.96124">
        <ele>2681.73</ele>
        <time>2018-08-08T09:04:14Z</time>
      </trkpt>
      <trkpt lat="42.61712" lon="1.9612">
        <ele>2679.33</ele>
        <time>2018-08-08T09:04:24Z</time>
      </trkpt>
      <trkpt lat="42.61712" lon="1.96119">
        <ele>2680.77</ele>
        <time>2018-08-08T09:04:26Z</time>
      </trkpt>
      <trkpt lat="42.61712" lon="1.96117">
        <ele>2679.81</ele>
        <time>2018-08-08T09:04:34Z</time>
      </trkpt>
      <trkpt lat="42.61712" lon="1.96117">
        <ele>2682.22</ele>
        <time>2018-08-08T09:04:37Z</time>
      </trkpt>
      <trkpt lat="42.61711" lon="1.96116">
        <ele>2684.62</ele>
        <time>2018-08-08T09:04:41Z</time>
      </trkpt>
      <trkpt lat="42.61713" lon="1.96111">
        <ele>2686.54</ele>
        <time>2018-08-08T09:04:59Z</time>
      </trkpt>
      <trkpt lat="42.61714" lon="1.96106">
        <ele>2688.46</ele>
        <time>2018-08-08T09:05:15Z</time>
      </trkpt>
      <trkpt lat="42.61714" lon="1.96103">
        <ele>2689.43</ele>
        <time>2018-08-08T09:05:20Z</time>
      </trkpt>
      <trkpt lat="42.61714" lon="1.96103">
        <ele>2690.39</ele>
        <time>2018-08-08T09:05:22Z</time>
      </trkpt>
      <trkpt lat="42.61714" lon="1.96097">
        <ele>2687.98</ele>
        <time>2018-08-08T09:05:32Z</time>
      </trkpt>
      <trkpt lat="42.61714" lon="1.96097">
        <ele>2690.87</ele>
        <time>2018-08-08T09:05:35Z</time>
      </trkpt>
      <trkpt lat="42.61714" lon="1.96096">
        <ele>2687.5</ele>
        <time>2018-08-08T09:05:37Z</time>
      </trkpt>
      <trkpt lat="42.61714" lon="1.96095">
        <ele>2687.02</ele>
        <time>2018-08-08T09:05:39Z</time>
      </trkpt>
      <trkpt lat="42.61713" lon="1.96091">
        <ele>2689.43</ele>
        <time>2018-08-08T09:05:49Z</time>
      </trkpt>
      <trkpt lat="42.61713" lon="1.96083">
        <ele>2688.94</ele>
        <time>2018-08-08T09:06:05Z</time>
      </trkpt>
      <trkpt lat="42.61712" lon="1.9608">
        <ele>2688.46</ele>
        <time>2018-08-08T09:06:19Z</time>
      </trkpt>
      <trkpt lat="42.61713" lon="1.9608">
        <ele>2689.91</ele>
        <time>2018-08-08T09:06:33Z</time>
      </trkpt>
      <trkpt lat="42.61716" lon="1.96078">
        <ele>2688.46</ele>
        <time>2018-08-08T09:06:50Z</time>
      </trkpt>
      <trkpt lat="42.61716" lon="1.96078">
        <ele>2689.43</ele>
        <time>2018-08-08T09:06:55Z</time>
      </trkpt>
      <trkpt lat="42.61715" lon="1.96079">
        <ele>2692.31</ele>
        <time>2018-08-08T09:07:10Z</time>
      </trkpt>
      <trkpt lat="42.61714" lon="1.96081">
        <ele>2691.83</ele>
        <time>2018-08-08T09:07:16Z</time>
      </trkpt>
      <trkpt lat="42.61713" lon="1.96081">
        <ele>2691.35</ele>
        <time>2018-08-08T09:07:27Z</time>
      </trkpt>
      <trkpt lat="42.61713" lon="1.96079">
        <ele>2690.87</ele>
        <time>2018-08-08T09:07:34Z</time>
      </trkpt>
      <trkpt lat="42.61713" lon="1.96078">
        <ele>2689.43</ele>
        <time>2018-08-08T09:07:42Z</time>
      </trkpt>
      <trkpt lat="42.61713" lon="1.96075">
        <ele>2687.98</ele>
        <time>2018-08-08T09:07:50Z</time>
      </trkpt>
      <trkpt lat="42.6171" lon="1.96068">
        <ele>2689.43</ele>
        <time>2018-08-08T09:08:02Z</time>
      </trkpt>
      <trkpt lat="42.61707" lon="1.9606">
        <ele>2690.39</ele>
        <time>2018-08-08T09:08:15Z</time>
      </trkpt>
      <trkpt lat="42.61706" lon="1.96059">
        <ele>2687.98</ele>
        <time>2018-08-08T09:08:17Z</time>
      </trkpt>
      <trkpt lat="42.61706" lon="1.96059">
        <ele>2689.91</ele>
        <time>2018-08-08T09:08:19Z</time>
      </trkpt>
      <trkpt lat="42.61702" lon="1.96051">
        <ele>2689.91</ele>
        <time>2018-08-08T09:08:32Z</time>
      </trkpt>
      <trkpt lat="42.61701" lon="1.9605">
        <ele>2690.39</ele>
        <time>2018-08-08T09:08:33Z</time>
      </trkpt>
      <trkpt lat="42.61701" lon="1.96048">
        <ele>2693.27</ele>
        <time>2018-08-08T09:08:37Z</time>
      </trkpt>
      <trkpt lat="42.61698" lon="1.9604">
        <ele>2693.27</ele>
        <time>2018-08-08T09:08:53Z</time>
      </trkpt>
      <trkpt lat="42.61697" lon="1.96033">
        <ele>2695.67</ele>
        <time>2018-08-08T09:09:11Z</time>
      </trkpt>
      <trkpt lat="42.61698" lon="1.96027">
        <ele>2697.12</ele>
        <time>2018-08-08T09:09:26Z</time>
      </trkpt>
      <trkpt lat="42.61698" lon="1.96023">
        <ele>2698.08</ele>
        <time>2018-08-08T09:09:37Z</time>
      </trkpt>
      <trkpt lat="42.61699" lon="1.96019">
        <ele>2700.96</ele>
        <time>2018-08-08T09:09:50Z</time>
      </trkpt>
      <trkpt lat="42.61701" lon="1.96015">
        <ele>2701.92</ele>
        <time>2018-08-08T09:10:05Z</time>
      </trkpt>
      <trkpt lat="42.61701" lon="1.96011">
        <ele>2704.81</ele>
        <time>2018-08-08T09:10:18Z</time>
      </trkpt>
      <trkpt lat="42.61701" lon="1.96005">
        <ele>2705.77</ele>
        <time>2018-08-08T09:10:33Z</time>
      </trkpt>
      <trkpt lat="42.61702" lon="1.96">
        <ele>2707.21</ele>
        <time>2018-08-08T09:10:46Z</time>
      </trkpt>
      <trkpt lat="42.61703" lon="1.95995">
        <ele>2708.17</ele>
        <time>2018-08-08T09:11:06Z</time>
      </trkpt>
      <trkpt lat="42.61703" lon="1.9599">
        <ele>2711.06</ele>
        <time>2018-08-08T09:11:18Z</time>
      </trkpt>
      <trkpt lat="42.61705" lon="1.95989">
        <ele>2713.94</ele>
        <time>2018-08-08T09:11:31Z</time>
      </trkpt>
      <trkpt lat="42.61705" lon="1.95989">
        <ele>2713.94</ele>
        <time>2018-08-08T09:11:32Z</time>
      </trkpt>
      <trkpt lat="42.61707" lon="1.95986">
        <ele>2714.9</ele>
        <time>2018-08-08T09:11:50Z</time>
      </trkpt>
      <trkpt lat="42.61706" lon="1.9598">
        <ele>2716.82</ele>
        <time>2018-08-08T09:12:09Z</time>
      </trkpt>
      <trkpt lat="42.61707" lon="1.95975">
        <ele>2720.19</ele>
        <time>2018-08-08T09:12:25Z</time>
      </trkpt>
      <trkpt lat="42.61707" lon="1.9597">
        <ele>2722.11</ele>
        <time>2018-08-08T09:12:40Z</time>
      </trkpt>
      <trkpt lat="42.61707" lon="1.95965">
        <ele>2720.67</ele>
        <time>2018-08-08T09:12:58Z</time>
      </trkpt>
      <trkpt lat="42.61706" lon="1.95962">
        <ele>2723.55</ele>
        <time>2018-08-08T09:13:10Z</time>
      </trkpt>
      <trkpt lat="42.61706" lon="1.95962">
        <ele>2724.51</ele>
        <time>2018-08-08T09:13:12Z</time>
      </trkpt>
      <trkpt lat="42.61707" lon="1.95961">
        <ele>2723.55</ele>
        <time>2018-08-08T09:13:22Z</time>
      </trkpt>
      <trkpt lat="42.61706" lon="1.9596">
        <ele>2724.51</ele>
        <time>2018-08-08T09:13:31Z</time>
      </trkpt>
      <trkpt lat="42.61705" lon="1.95958">
        <ele>2725.96</ele>
        <time>2018-08-08T09:13:36Z</time>
      </trkpt>
      <trkpt lat="42.61705" lon="1.95957">
        <ele>2724.51</ele>
        <time>2018-08-08T09:13:40Z</time>
      </trkpt>
      <trkpt lat="42.61707" lon="1.95955">
        <ele>2724.03</ele>
        <time>2018-08-08T09:14:00Z</time>
      </trkpt>
      <trkpt lat="42.61709" lon="1.95954">
        <ele>2725.48</ele>
        <time>2018-08-08T09:14:04Z</time>
      </trkpt>
      <trkpt lat="42.61711" lon="1.95951">
        <ele>2726.92</ele>
        <time>2018-08-08T09:14:20Z</time>
      </trkpt>
      <trkpt lat="42.61713" lon="1.95949">
        <ele>2727.4</ele>
        <time>2018-08-08T09:14:36Z</time>
      </trkpt>
      <trkpt lat="42.61713" lon="1.95945">
        <ele>2730.76</ele>
        <time>2018-08-08T09:14:47Z</time>
      </trkpt>
      <trkpt lat="42.61711" lon="1.95941">
        <ele>2732.68</ele>
        <time>2018-08-08T09:15:01Z</time>
      </trkpt>
      <trkpt lat="42.61709" lon="1.95938">
        <ele>2735.09</ele>
        <time>2018-08-08T09:15:16Z</time>
      </trkpt>
      <trkpt lat="42.6171" lon="1.95934">
        <ele>2737.49</ele>
        <time>2018-08-08T09:15:33Z</time>
      </trkpt>
      <trkpt lat="42.61707" lon="1.9593">
        <ele>2739.41</ele>
        <time>2018-08-08T09:15:50Z</time>
      </trkpt>
      <trkpt lat="42.61708" lon="1.95928">
        <ele>2739.89</ele>
        <time>2018-08-08T09:16:04Z</time>
      </trkpt>
      <trkpt lat="42.61708" lon="1.95926">
        <ele>2742.3</ele>
        <time>2018-08-08T09:16:10Z</time>
      </trkpt>
      <trkpt lat="42.61708" lon="1.95924">
        <ele>2742.3</ele>
        <time>2018-08-08T09:16:18Z</time>
      </trkpt>
      <trkpt lat="42.61707" lon="1.95922">
        <ele>2740.38</ele>
        <time>2018-08-08T09:16:46Z</time>
      </trkpt>
      <trkpt lat="42.61707" lon="1.95922">
        <ele>2741.82</ele>
        <time>2018-08-08T09:16:48Z</time>
      </trkpt>
      <trkpt lat="42.61709" lon="1.95917">
        <ele>2743.26</ele>
        <time>2018-08-08T09:17:05Z</time>
      </trkpt>
      <trkpt lat="42.61712" lon="1.95912">
        <ele>2744.7</ele>
        <time>2018-08-08T09:17:20Z</time>
      </trkpt>
      <trkpt lat="42.61713" lon="1.95909">
        <ele>2746.14</ele>
        <time>2018-08-08T09:17:35Z</time>
      </trkpt>
      <trkpt lat="42.61715" lon="1.95906">
        <ele>2747.59</ele>
        <time>2018-08-08T09:17:49Z</time>
      </trkpt>
      <trkpt lat="42.61715" lon="1.95906">
        <ele>2748.07</ele>
        <time>2018-08-08T09:18:18Z</time>
      </trkpt>
      <trkpt lat="42.61716" lon="1.95906">
        <ele>2747.59</ele>
        <time>2018-08-08T09:18:47Z</time>
      </trkpt>
      <trkpt lat="42.61716" lon="1.95907">
        <ele>2748.55</ele>
        <time>2018-08-08T09:18:55Z</time>
      </trkpt>
      <trkpt lat="42.61717" lon="1.95906">
        <ele>2747.59</ele>
        <time>2018-08-08T09:19:06Z</time>
      </trkpt>
      <trkpt lat="42.61717" lon="1.95905">
        <ele>2749.03</ele>
        <time>2018-08-08T09:19:14Z</time>
      </trkpt>
      <trkpt lat="42.61717" lon="1.95905">
        <ele>2747.59</ele>
        <time>2018-08-08T09:19:16Z</time>
      </trkpt>
      <trkpt lat="42.61716" lon="1.95905">
        <ele>2748.07</ele>
        <time>2018-08-08T09:19:25Z</time>
      </trkpt>
      <trkpt lat="42.61717" lon="1.95906">
        <ele>2748.55</ele>
        <time>2018-08-08T09:19:50Z</time>
      </trkpt>
      <trkpt lat="42.61718" lon="1.95906">
        <ele>2747.59</ele>
        <time>2018-08-08T09:20:18Z</time>
      </trkpt>
      <trkpt lat="42.61717" lon="1.95906">
        <ele>2747.59</ele>
        <time>2018-08-08T09:20:51Z</time>
      </trkpt>
      <trkpt lat="42.61717" lon="1.95907">
        <ele>2749.03</ele>
        <time>2018-08-08T09:21:22Z</time>
      </trkpt>
      <trkpt lat="42.61717" lon="1.95907">
        <ele>2749.99</ele>
        <time>2018-08-08T09:21:27Z</time>
      </trkpt>
      <trkpt lat="42.61717" lon="1.95908">
        <ele>2748.55</ele>
        <time>2018-08-08T09:21:36Z</time>
      </trkpt>
      <trkpt lat="42.61718" lon="1.95908">
        <ele>2748.55</ele>
        <time>2018-08-08T09:21:48Z</time>
      </trkpt>
      <trkpt lat="42.61718" lon="1.95907">
        <ele>2747.59</ele>
        <time>2018-08-08T09:22:21Z</time>
      </trkpt>
      <trkpt lat="42.61718" lon="1.95908">
        <ele>2749.51</ele>
        <time>2018-08-08T09:22:43Z</time>
      </trkpt>
      <trkpt lat="42.61718" lon="1.95908">
        <ele>2747.59</ele>
        <time>2018-08-08T09:22:47Z</time>
      </trkpt>
      <trkpt lat="42.61719" lon="1.95907">
        <ele>2748.07</ele>
        <time>2018-08-08T09:23:00Z</time>
      </trkpt>
      <trkpt lat="42.61717" lon="1.95907">
        <ele>2749.51</ele>
        <time>2018-08-08T09:23:09Z</time>
      </trkpt>
      <trkpt lat="42.61716" lon="1.95906">
        <ele>2748.55</ele>
        <time>2018-08-08T09:23:14Z</time>
      </trkpt>
      <trkpt lat="42.61715" lon="1.95907">
        <ele>2750.47</ele>
        <time>2018-08-08T09:23:50Z</time>
      </trkpt>
      <trkpt lat="42.61715" lon="1.95907">
        <ele>2749.99</ele>
        <time>2018-08-08T09:23:56Z</time>
      </trkpt>
      <trkpt lat="42.61715" lon="1.95907">
        <ele>2748.55</ele>
        <time>2018-08-08T09:24:12Z</time>
      </trkpt>
      <trkpt lat="42.61714" lon="1.95907">
        <ele>2749.99</ele>
        <time>2018-08-08T09:24:16Z</time>
      </trkpt>
      <trkpt lat="42.61715" lon="1.95907">
        <ele>2749.03</ele>
        <time>2018-08-08T09:24:25Z</time>
      </trkpt>
      <trkpt lat="42.61715" lon="1.95907">
        <ele>2749.03</ele>
        <time>2018-08-08T09:24:42Z</time>
      </trkpt>
      <trkpt lat="42.61715" lon="1.95906">
        <ele>2749.99</ele>
        <time>2018-08-08T09:25:18Z</time>
      </trkpt>
      <trkpt lat="42.61715" lon="1.95907">
        <ele>2750.95</ele>
        <time>2018-08-08T09:25:50Z</time>
      </trkpt>
      <trkpt lat="42.61714" lon="1.95907">
        <ele>2749.51</ele>
        <time>2018-08-08T09:25:59Z</time>
      </trkpt>
      <trkpt lat="42.61715" lon="1.95907">
        <ele>2750.47</ele>
        <time>2018-08-08T09:26:13Z</time>
      </trkpt>
      <trkpt lat="42.61715" lon="1.95907">
        <ele>2749.51</ele>
        <time>2018-08-08T09:26:45Z</time>
      </trkpt>
      <trkpt lat="42.61714" lon="1.95906">
        <ele>2749.99</ele>
        <time>2018-08-08T09:27:13Z</time>
      </trkpt>
      <trkpt lat="42.61715" lon="1.95905">
        <ele>2749.99</ele>
        <time>2018-08-08T09:27:34Z</time>
      </trkpt>
      <trkpt lat="42.61714" lon="1.95906">
        <ele>2749.99</ele>
        <time>2018-08-08T09:28:04Z</time>
      </trkpt>
      <trkpt lat="42.61715" lon="1.95907">
        <ele>2750.47</ele>
        <time>2018-08-08T09:28:29Z</time>
      </trkpt>
      <trkpt lat="42.61715" lon="1.95906">
        <ele>2750.95</ele>
        <time>2018-08-08T09:28:44Z</time>
      </trkpt>
      <trkpt lat="42.61716" lon="1.95905">
        <ele>2749.51</ele>
        <time>2018-08-08T09:29:05Z</time>
      </trkpt>
      <trkpt lat="42.61715" lon="1.95906">
        <ele>2750.47</ele>
        <time>2018-08-08T09:29:30Z</time>
      </trkpt>
      <trkpt lat="42.61715" lon="1.95906">
        <ele>2749.03</ele>
        <time>2018-08-08T09:29:34Z</time>
      </trkpt>
      <trkpt lat="42.61715" lon="1.95905">
        <ele>2750.47</ele>
        <time>2018-08-08T09:30:05Z</time>
      </trkpt>
      <trkpt lat="42.61714" lon="1.95907">
        <ele>2750.95</ele>
        <time>2018-08-08T09:30:32Z</time>
      </trkpt>
      <trkpt lat="42.61711" lon="1.95912">
        <ele>2749.99</ele>
        <time>2018-08-08T09:30:47Z</time>
      </trkpt>
      <trkpt lat="42.61711" lon="1.95917">
        <ele>2748.55</ele>
        <time>2018-08-08T09:31:02Z</time>
      </trkpt>
      <trkpt lat="42.61709" lon="1.95922">
        <ele>2746.14</ele>
        <time>2018-08-08T09:31:21Z</time>
      </trkpt>
      <trkpt lat="42.6171" lon="1.9593">
        <ele>2744.22</ele>
        <time>2018-08-08T09:31:37Z</time>
      </trkpt>
      <trkpt lat="42.6171" lon="1.95933">
        <ele>2740.86</ele>
        <time>2018-08-08T09:31:51Z</time>
      </trkpt>
      <trkpt lat="42.61713" lon="1.95939">
        <ele>2738.93</ele>
        <time>2018-08-08T09:32:06Z</time>
      </trkpt>
      <trkpt lat="42.61716" lon="1.95945">
        <ele>2735.57</ele>
        <time>2018-08-08T09:32:18Z</time>
      </trkpt>
      <trkpt lat="42.61719" lon="1.95952">
        <ele>2734.61</ele>
        <time>2018-08-08T09:32:34Z</time>
      </trkpt>
      <trkpt lat="42.61717" lon="1.95958">
        <ele>2731.72</ele>
        <time>2018-08-08T09:32:44Z</time>
      </trkpt>
      <trkpt lat="42.61719" lon="1.95964">
        <ele>2728.84</ele>
        <time>2018-08-08T09:32:59Z</time>
      </trkpt>
      <trkpt lat="42.6172" lon="1.95971">
        <ele>2727.88</ele>
        <time>2018-08-08T09:33:15Z</time>
      </trkpt>
      <trkpt lat="42.61721" lon="1.95974">
        <ele>2725.48</ele>
        <time>2018-08-08T09:33:29Z</time>
      </trkpt>
      <trkpt lat="42.61717" lon="1.9598">
        <ele>2722.11</ele>
        <time>2018-08-08T09:33:43Z</time>
      </trkpt>
      <trkpt lat="42.61714" lon="1.95985">
        <ele>2721.15</ele>
        <time>2018-08-08T09:33:58Z</time>
      </trkpt>
      <trkpt lat="42.61708" lon="1.95986">
        <ele>2718.75</ele>
        <time>2018-08-08T09:34:14Z</time>
      </trkpt>
      <trkpt lat="42.61704" lon="1.95989">
        <ele>2717.3</ele>
        <time>2018-08-08T09:34:29Z</time>
      </trkpt>
      <trkpt lat="42.61704" lon="1.95995">
        <ele>2715.86</ele>
        <time>2018-08-08T09:34:43Z</time>
      </trkpt>
      <trkpt lat="42.61704" lon="1.95999">
        <ele>2712.98</ele>
        <time>2018-08-08T09:34:53Z</time>
      </trkpt>
      <trkpt lat="42.61704" lon="1.96">
        <ele>2712.02</ele>
        <time>2018-08-08T09:34:55Z</time>
      </trkpt>
      <trkpt lat="42.61704" lon="1.96009">
        <ele>2709.61</ele>
        <time>2018-08-08T09:35:11Z</time>
      </trkpt>
      <trkpt lat="42.61704" lon="1.96014">
        <ele>2706.25</ele>
        <time>2018-08-08T09:35:25Z</time>
      </trkpt>
      <trkpt lat="42.61702" lon="1.9602">
        <ele>2703.36</ele>
        <time>2018-08-08T09:35:42Z</time>
      </trkpt>
      <trkpt lat="42.61701" lon="1.96028">
        <ele>2700</ele>
        <time>2018-08-08T09:35:55Z</time>
      </trkpt>
      <trkpt lat="42.61703" lon="1.96036">
        <ele>2698.08</ele>
        <time>2018-08-08T09:36:11Z</time>
      </trkpt>
      <trkpt lat="42.61705" lon="1.96036">
        <ele>2701.44</ele>
        <time>2018-08-08T09:36:13Z</time>
      </trkpt>
      <trkpt lat="42.61705" lon="1.96037">
        <ele>2702.4</ele>
        <time>2018-08-08T09:36:15Z</time>
      </trkpt>
      <trkpt lat="42.61706" lon="1.9604">
        <ele>2699.52</ele>
        <time>2018-08-08T09:36:19Z</time>
      </trkpt>
      <trkpt lat="42.61707" lon="1.96041">
        <ele>2699.52</ele>
        <time>2018-08-08T09:36:20Z</time>
      </trkpt>
      <trkpt lat="42.61706" lon="1.96043">
        <ele>2698.08</ele>
        <time>2018-08-08T09:36:23Z</time>
      </trkpt>
      <trkpt lat="42.6171" lon="1.96053">
        <ele>2700.48</ele>
        <time>2018-08-08T09:36:37Z</time>
      </trkpt>
      <trkpt lat="42.6171" lon="1.96053">
        <ele>2700.48</ele>
        <time>2018-08-08T09:36:38Z</time>
      </trkpt>
      <trkpt lat="42.61711" lon="1.96056">
        <ele>2699.04</ele>
        <time>2018-08-08T09:36:43Z</time>
      </trkpt>
      <trkpt lat="42.61713" lon="1.9606">
        <ele>2700.48</ele>
        <time>2018-08-08T09:36:55Z</time>
      </trkpt>
      <trkpt lat="42.61713" lon="1.9606">
        <ele>2699.04</ele>
        <time>2018-08-08T09:36:57Z</time>
      </trkpt>
      <trkpt lat="42.61714" lon="1.96066">
        <ele>2697.6</ele>
        <time>2018-08-08T09:37:23Z</time>
      </trkpt>
      <trkpt lat="42.61717" lon="1.96076">
        <ele>2695.19</ele>
        <time>2018-08-08T09:37:39Z</time>
      </trkpt>
      <trkpt lat="42.61717" lon="1.96086">
        <ele>2693.27</ele>
        <time>2018-08-08T09:37:57Z</time>
      </trkpt>
      <trkpt lat="42.61718" lon="1.96093">
        <ele>2690.87</ele>
        <time>2018-08-08T09:38:08Z</time>
      </trkpt>
      <trkpt lat="42.61716" lon="1.96103">
        <ele>2687.98</ele>
        <time>2018-08-08T09:38:22Z</time>
      </trkpt>
      <trkpt lat="42.61715" lon="1.96111">
        <ele>2686.06</ele>
        <time>2018-08-08T09:38:36Z</time>
      </trkpt>
      <trkpt lat="42.61714" lon="1.96118">
        <ele>2684.14</ele>
        <time>2018-08-08T09:38:49Z</time>
      </trkpt>
      <trkpt lat="42.61714" lon="1.96126">
        <ele>2680.77</ele>
        <time>2018-08-08T09:39:04Z</time>
      </trkpt>
      <trkpt lat="42.61715" lon="1.96135">
        <ele>2678.37</ele>
        <time>2018-08-08T09:39:19Z</time>
      </trkpt>
      <trkpt lat="42.61715" lon="1.9614">
        <ele>2676.93</ele>
        <time>2018-08-08T09:39:33Z</time>
      </trkpt>
      <trkpt lat="42.61716" lon="1.96142">
        <ele>2676.45</ele>
        <time>2018-08-08T09:39:35Z</time>
      </trkpt>
      <trkpt lat="42.61721" lon="1.96157">
        <ele>2675.49</ele>
        <time>2018-08-08T09:39:52Z</time>
      </trkpt>
      <trkpt lat="42.61722" lon="1.9617">
        <ele>2674.04</ele>
        <time>2018-08-08T09:40:06Z</time>
      </trkpt>
      <trkpt lat="42.61723" lon="1.96173">
        <ele>2673.08</ele>
        <time>2018-08-08T09:40:12Z</time>
      </trkpt>
      <trkpt lat="42.61724" lon="1.96186">
        <ele>2669.72</ele>
        <time>2018-08-08T09:40:26Z</time>
      </trkpt>
      <trkpt lat="42.61724" lon="1.96195">
        <ele>2667.8</ele>
        <time>2018-08-08T09:40:43Z</time>
      </trkpt>
      <trkpt lat="42.61724" lon="1.96202">
        <ele>2666.35</ele>
        <time>2018-08-08T09:40:56Z</time>
      </trkpt>
      <trkpt lat="42.61724" lon="1.9621">
        <ele>2665.87</ele>
        <time>2018-08-08T09:41:03Z</time>
      </trkpt>
      <trkpt lat="42.61723" lon="1.96218">
        <ele>2667.31</ele>
        <time>2018-08-08T09:41:09Z</time>
      </trkpt>
      <trkpt lat="42.61723" lon="1.9622">
        <ele>2665.39</ele>
        <time>2018-08-08T09:41:11Z</time>
      </trkpt>
      <trkpt lat="42.61724" lon="1.9623">
        <ele>2668.76</ele>
        <time>2018-08-08T09:41:19Z</time>
      </trkpt>
      <trkpt lat="42.61725" lon="1.96231">
        <ele>2668.76</ele>
        <time>2018-08-08T09:41:20Z</time>
      </trkpt>
      <trkpt lat="42.61725" lon="1.96243">
        <ele>2667.31</ele>
        <time>2018-08-08T09:41:31Z</time>
      </trkpt>
      <trkpt lat="42.61728" lon="1.96254">
        <ele>2665.87</ele>
        <time>2018-08-08T09:41:46Z</time>
      </trkpt>
      <trkpt lat="42.61731" lon="1.96252">
        <ele>2662.99</ele>
        <time>2018-08-08T09:42:00Z</time>
      </trkpt>
      <trkpt lat="42.61734" lon="1.96252">
        <ele>2666.35</ele>
        <time>2018-08-08T09:42:13Z</time>
      </trkpt>
      <trkpt lat="42.61734" lon="1.9626">
        <ele>2668.28</ele>
        <time>2018-08-08T09:42:23Z</time>
      </trkpt>
      <trkpt lat="42.61734" lon="1.96262">
        <ele>2666.35</ele>
        <time>2018-08-08T09:42:26Z</time>
      </trkpt>
      <trkpt lat="42.61735" lon="1.96262">
        <ele>2662.03</ele>
        <time>2018-08-08T09:42:28Z</time>
      </trkpt>
      <trkpt lat="42.61735" lon="1.96261">
        <ele>2666.35</ele>
        <time>2018-08-08T09:42:29Z</time>
      </trkpt>
      <trkpt lat="42.61734" lon="1.96269">
        <ele>2667.31</ele>
        <time>2018-08-08T09:42:47Z</time>
      </trkpt>
      <trkpt lat="42.61733" lon="1.96282">
        <ele>2664.43</ele>
        <time>2018-08-08T09:43:00Z</time>
      </trkpt>
      <trkpt lat="42.61734" lon="1.96298">
        <ele>2663.47</ele>
        <time>2018-08-08T09:43:16Z</time>
      </trkpt>
      <trkpt lat="42.61734" lon="1.96308">
        <ele>2660.11</ele>
        <time>2018-08-08T09:43:26Z</time>
      </trkpt>
      <trkpt lat="42.61734" lon="1.96309">
        <ele>2659.14</ele>
        <time>2018-08-08T09:43:28Z</time>
      </trkpt>
      <trkpt lat="42.61732" lon="1.96321">
        <ele>2656.74</ele>
        <time>2018-08-08T09:43:46Z</time>
      </trkpt>
      <trkpt lat="42.61727" lon="1.96332">
        <ele>2656.74</ele>
        <time>2018-08-08T09:44:02Z</time>
      </trkpt>
      <trkpt lat="42.61725" lon="1.96335">
        <ele>2654.82</ele>
        <time>2018-08-08T09:44:08Z</time>
      </trkpt>
      <trkpt lat="42.61722" lon="1.9634">
        <ele>2653.38</ele>
        <time>2018-08-08T09:44:17Z</time>
      </trkpt>
      <trkpt lat="42.61721" lon="1.96341">
        <ele>2650.97</ele>
        <time>2018-08-08T09:44:21Z</time>
      </trkpt>
      <trkpt lat="42.61719" lon="1.96342">
        <ele>2647.61</ele>
        <time>2018-08-08T09:44:25Z</time>
      </trkpt>
      <trkpt lat="42.61718" lon="1.96343">
        <ele>2652.42</ele>
        <time>2018-08-08T09:44:28Z</time>
      </trkpt>
      <trkpt lat="42.61718" lon="1.96344">
        <ele>2652.42</ele>
        <time>2018-08-08T09:44:29Z</time>
      </trkpt>
      <trkpt lat="42.61717" lon="1.96345">
        <ele>2649.05</ele>
        <time>2018-08-08T09:44:31Z</time>
      </trkpt>
      <trkpt lat="42.61717" lon="1.96345">
        <ele>2649.05</ele>
        <time>2018-08-08T09:44:32Z</time>
      </trkpt>
      <trkpt lat="42.61716" lon="1.96346">
        <ele>2645.21</ele>
        <time>2018-08-08T09:44:34Z</time>
      </trkpt>
      <trkpt lat="42.61714" lon="1.96349">
        <ele>2650.01</ele>
        <time>2018-08-08T09:44:38Z</time>
      </trkpt>
      <trkpt lat="42.61713" lon="1.9635">
        <ele>2646.65</ele>
        <time>2018-08-08T09:44:40Z</time>
      </trkpt>
      <trkpt lat="42.61713" lon="1.96351">
        <ele>2645.69</ele>
        <time>2018-08-08T09:44:42Z</time>
      </trkpt>
      <trkpt lat="42.61712" lon="1.96351">
        <ele>2651.45</ele>
        <time>2018-08-08T09:44:43Z</time>
      </trkpt>
      <trkpt lat="42.61711" lon="1.96353">
        <ele>2647.61</ele>
        <time>2018-08-08T09:44:46Z</time>
      </trkpt>
      <trkpt lat="42.61711" lon="1.96353">
        <ele>2647.61</ele>
        <time>2018-08-08T09:44:47Z</time>
      </trkpt>
      <trkpt lat="42.6171" lon="1.96354">
        <ele>2641.84</ele>
        <time>2018-08-08T09:44:50Z</time>
      </trkpt>
      <trkpt lat="42.61709" lon="1.96355">
        <ele>2644.72</ele>
        <time>2018-08-08T09:44:52Z</time>
      </trkpt>
      <trkpt lat="42.61709" lon="1.96355">
        <ele>2644.72</ele>
        <time>2018-08-08T09:44:53Z</time>
      </trkpt>
      <trkpt lat="42.61707" lon="1.96356">
        <ele>2641.84</ele>
        <time>2018-08-08T09:44:57Z</time>
      </trkpt>
      <trkpt lat="42.61706" lon="1.96357">
        <ele>2639.92</ele>
        <time>2018-08-08T09:45:00Z</time>
      </trkpt>
      <trkpt lat="42.61704" lon="1.96357">
        <ele>2642.8</ele>
        <time>2018-08-08T09:45:04Z</time>
      </trkpt>
      <trkpt lat="42.61703" lon="1.96358">
        <ele>2645.21</ele>
        <time>2018-08-08T09:45:06Z</time>
      </trkpt>
      <trkpt lat="42.61703" lon="1.96359">
        <ele>2641.36</ele>
        <time>2018-08-08T09:45:08Z</time>
      </trkpt>
      <trkpt lat="42.61702" lon="1.96359">
        <ele>2642.8</ele>
        <time>2018-08-08T09:45:09Z</time>
      </trkpt>
      <trkpt lat="42.61702" lon="1.96359">
        <ele>2637.03</ele>
        <time>2018-08-08T09:45:11Z</time>
      </trkpt>
      <trkpt lat="42.61702" lon="1.96359">
        <ele>2638.48</ele>
        <time>2018-08-08T09:45:12Z</time>
      </trkpt>
      <trkpt lat="42.61696" lon="1.96361">
        <ele>2647.13</ele>
        <time>2018-08-08T09:45:21Z</time>
      </trkpt>
      <trkpt lat="42.61695" lon="1.96362">
        <ele>2637.03</ele>
        <time>2018-08-08T09:45:24Z</time>
      </trkpt>
      <trkpt lat="42.61695" lon="1.96362">
        <ele>2637.03</ele>
        <time>2018-08-08T09:45:25Z</time>
      </trkpt>
      <trkpt lat="42.61693" lon="1.96361">
        <ele>2639.92</ele>
        <time>2018-08-08T09:45:31Z</time>
      </trkpt>
      <trkpt lat="42.61691" lon="1.96359">
        <ele>2636.55</ele>
        <time>2018-08-08T09:45:34Z</time>
      </trkpt>
      <trkpt lat="42.61691" lon="1.96359">
        <ele>2636.55</ele>
        <time>2018-08-08T09:45:35Z</time>
      </trkpt>
      <trkpt lat="42.6169" lon="1.96359">
        <ele>2640.88</ele>
        <time>2018-08-08T09:45:36Z</time>
      </trkpt>
      <trkpt lat="42.61689" lon="1.9636">
        <ele>2643.28</ele>
        <time>2018-08-08T09:45:38Z</time>
      </trkpt>
      <trkpt lat="42.61688" lon="1.96365">
        <ele>2641.84</ele>
        <time>2018-08-08T09:45:45Z</time>
      </trkpt>
      <trkpt lat="42.61688" lon="1.96367">
        <ele>2643.76</ele>
        <time>2018-08-08T09:45:47Z</time>
      </trkpt>
      <trkpt lat="42.61687" lon="1.9637">
        <ele>2641.84</ele>
        <time>2018-08-08T09:45:52Z</time>
      </trkpt>
      <trkpt lat="42.61685" lon="1.96375">
        <ele>2640.4</ele>
        <time>2018-08-08T09:45:58Z</time>
      </trkpt>
      <trkpt lat="42.61683" lon="1.96379">
        <ele>2630.79</ele>
        <time>2018-08-08T09:46:04Z</time>
      </trkpt>
      <trkpt lat="42.61682" lon="1.9638">
        <ele>2637.99</ele>
        <time>2018-08-08T09:46:07Z</time>
      </trkpt>
      <trkpt lat="42.61681" lon="1.96382">
        <ele>2639.44</ele>
        <time>2018-08-08T09:46:09Z</time>
      </trkpt>
      <trkpt lat="42.6168" lon="1.96384">
        <ele>2637.99</ele>
        <time>2018-08-08T09:46:11Z</time>
      </trkpt>
      <trkpt lat="42.61677" lon="1.96394">
        <ele>2634.15</ele>
        <time>2018-08-08T09:46:22Z</time>
      </trkpt>
      <trkpt lat="42.61672" lon="1.96402">
        <ele>2630.3</ele>
        <time>2018-08-08T09:46:31Z</time>
      </trkpt>
      <trkpt lat="42.6167" lon="1.96404">
        <ele>2629.34</ele>
        <time>2018-08-08T09:46:36Z</time>
      </trkpt>
      <trkpt lat="42.61667" lon="1.96408">
        <ele>2632.23</ele>
        <time>2018-08-08T09:46:42Z</time>
      </trkpt>
      <trkpt lat="42.61666" lon="1.9641">
        <ele>2628.86</ele>
        <time>2018-08-08T09:46:44Z</time>
      </trkpt>
      <trkpt lat="42.61666" lon="1.96411">
        <ele>2628.86</ele>
        <time>2018-08-08T09:46:45Z</time>
      </trkpt>
      <trkpt lat="42.61663" lon="1.96414">
        <ele>2626.46</ele>
        <time>2018-08-08T09:46:50Z</time>
      </trkpt>
      <trkpt lat="42.61662" lon="1.96416">
        <ele>2628.38</ele>
        <time>2018-08-08T09:46:52Z</time>
      </trkpt>
      <trkpt lat="42.6166" lon="1.96423">
        <ele>2624.54</ele>
        <time>2018-08-08T09:47:04Z</time>
      </trkpt>
      <trkpt lat="42.61658" lon="1.96427">
        <ele>2625.98</ele>
        <time>2018-08-08T09:47:09Z</time>
      </trkpt>
      <trkpt lat="42.61656" lon="1.96431">
        <ele>2625.5</ele>
        <time>2018-08-08T09:47:19Z</time>
      </trkpt>
      <trkpt lat="42.61656" lon="1.96433">
        <ele>2623.09</ele>
        <time>2018-08-08T09:47:24Z</time>
      </trkpt>
      <trkpt lat="42.61652" lon="1.96441">
        <ele>2621.65</ele>
        <time>2018-08-08T09:47:33Z</time>
      </trkpt>
      <trkpt lat="42.61651" lon="1.96443">
        <ele>2620.21</ele>
        <time>2018-08-08T09:47:36Z</time>
      </trkpt>
      <trkpt lat="42.6165" lon="1.96445">
        <ele>2623.09</ele>
        <time>2018-08-08T09:47:39Z</time>
      </trkpt>
      <trkpt lat="42.61649" lon="1.96446">
        <ele>2620.69</ele>
        <time>2018-08-08T09:47:41Z</time>
      </trkpt>
      <trkpt lat="42.61647" lon="1.96451">
        <ele>2621.65</ele>
        <time>2018-08-08T09:47:49Z</time>
      </trkpt>
      <trkpt lat="42.61647" lon="1.96452">
        <ele>2618.29</ele>
        <time>2018-08-08T09:47:51Z</time>
      </trkpt>
      <trkpt lat="42.61647" lon="1.96452">
        <ele>2618.77</ele>
        <time>2018-08-08T09:47:52Z</time>
      </trkpt>
      <trkpt lat="42.61646" lon="1.96452">
        <ele>2615.4</ele>
        <time>2018-08-08T09:47:54Z</time>
      </trkpt>
      <trkpt lat="42.61645" lon="1.96454">
        <ele>2618.29</ele>
        <time>2018-08-08T09:47:59Z</time>
      </trkpt>
      <trkpt lat="42.61644" lon="1.96457">
        <ele>2615.4</ele>
        <time>2018-08-08T09:48:05Z</time>
      </trkpt>
      <trkpt lat="42.61644" lon="1.96458">
        <ele>2615.4</ele>
        <time>2018-08-08T09:48:06Z</time>
      </trkpt>
      <trkpt lat="42.61641" lon="1.96464">
        <ele>2612.04</ele>
        <time>2018-08-08T09:48:20Z</time>
      </trkpt>
      <trkpt lat="42.6164" lon="1.96465">
        <ele>2612.52</ele>
        <time>2018-08-08T09:48:21Z</time>
      </trkpt>
      <trkpt lat="42.61638" lon="1.96467">
        <ele>2610.6</ele>
        <time>2018-08-08T09:48:28Z</time>
      </trkpt>
      <trkpt lat="42.61638" lon="1.96468">
        <ele>2612.52</ele>
        <time>2018-08-08T09:48:30Z</time>
      </trkpt>
      <trkpt lat="42.61636" lon="1.96475">
        <ele>2608.19</ele>
        <time>2018-08-08T09:48:45Z</time>
      </trkpt>
      <trkpt lat="42.61635" lon="1.96477">
        <ele>2604.83</ele>
        <time>2018-08-08T09:48:51Z</time>
      </trkpt>
      <trkpt lat="42.61634" lon="1.96478">
        <ele>2604.83</ele>
        <time>2018-08-08T09:48:55Z</time>
      </trkpt>
      <trkpt lat="42.61634" lon="1.96478">
        <ele>2603.87</ele>
        <time>2018-08-08T09:48:57Z</time>
      </trkpt>
      <trkpt lat="42.61634" lon="1.96479">
        <ele>2605.31</ele>
        <time>2018-08-08T09:49:02Z</time>
      </trkpt>
      <trkpt lat="42.61634" lon="1.9648">
        <ele>2607.23</ele>
        <time>2018-08-08T09:49:04Z</time>
      </trkpt>
      <trkpt lat="42.61633" lon="1.96481">
        <ele>2605.79</ele>
        <time>2018-08-08T09:49:07Z</time>
      </trkpt>
      <trkpt lat="42.61631" lon="1.96489">
        <ele>2601.95</ele>
        <time>2018-08-08T09:49:21Z</time>
      </trkpt>
      <trkpt lat="42.61631" lon="1.9649">
        <ele>2600.98</ele>
        <time>2018-08-08T09:49:23Z</time>
      </trkpt>
      <trkpt lat="42.61627" lon="1.96495">
        <ele>2598.1</ele>
        <time>2018-08-08T09:49:39Z</time>
      </trkpt>
      <trkpt lat="42.61626" lon="1.96494">
        <ele>2600.02</ele>
        <time>2018-08-08T09:49:41Z</time>
      </trkpt>
      <trkpt lat="42.61628" lon="1.96491">
        <ele>2598.58</ele>
        <time>2018-08-08T09:49:47Z</time>
      </trkpt>
      <trkpt lat="42.61624" lon="1.96489">
        <ele>2598.1</ele>
        <time>2018-08-08T09:50:01Z</time>
      </trkpt>
      <trkpt lat="42.61623" lon="1.96489">
        <ele>2596.66</ele>
        <time>2018-08-08T09:50:07Z</time>
      </trkpt>
      <trkpt lat="42.61622" lon="1.96491">
        <ele>2595.22</ele>
        <time>2018-08-08T09:50:11Z</time>
      </trkpt>
      <trkpt lat="42.61621" lon="1.96492">
        <ele>2596.66</ele>
        <time>2018-08-08T09:50:16Z</time>
      </trkpt>
      <trkpt lat="42.61622" lon="1.96492">
        <ele>2592.81</ele>
        <time>2018-08-08T09:50:17Z</time>
      </trkpt>
      <trkpt lat="42.61622" lon="1.96492">
        <ele>2596.18</ele>
        <time>2018-08-08T09:50:20Z</time>
      </trkpt>
      <trkpt lat="42.61622" lon="1.96492">
        <ele>2594.25</ele>
        <time>2018-08-08T09:50:21Z</time>
      </trkpt>
      <trkpt lat="42.61619" lon="1.96493">
        <ele>2596.18</ele>
        <time>2018-08-08T09:50:37Z</time>
      </trkpt>
      <trkpt lat="42.61619" lon="1.96493">
        <ele>2593.77</ele>
        <time>2018-08-08T09:50:48Z</time>
      </trkpt>
      <trkpt lat="42.61619" lon="1.96494">
        <ele>2595.22</ele>
        <time>2018-08-08T09:50:50Z</time>
      </trkpt>
      <trkpt lat="42.61619" lon="1.96495">
        <ele>2592.33</ele>
        <time>2018-08-08T09:50:59Z</time>
      </trkpt>
      <trkpt lat="42.61617" lon="1.96496">
        <ele>2591.85</ele>
        <time>2018-08-08T09:51:11Z</time>
      </trkpt>
      <trkpt lat="42.61619" lon="1.96495">
        <ele>2590.89</ele>
        <time>2018-08-08T09:51:18Z</time>
      </trkpt>
      <trkpt lat="42.61619" lon="1.96497">
        <ele>2588.97</ele>
        <time>2018-08-08T09:51:34Z</time>
      </trkpt>
      <trkpt lat="42.61617" lon="1.965">
        <ele>2588.97</ele>
        <time>2018-08-08T09:51:43Z</time>
      </trkpt>
      <trkpt lat="42.61615" lon="1.96508">
        <ele>2586.56</ele>
        <time>2018-08-08T09:51:59Z</time>
      </trkpt>
      <trkpt lat="42.6161" lon="1.96514">
        <ele>2582.72</ele>
        <time>2018-08-08T09:52:13Z</time>
      </trkpt>
      <trkpt lat="42.61605" lon="1.9651">
        <ele>2580.8</ele>
        <time>2018-08-08T09:52:23Z</time>
      </trkpt>
      <trkpt lat="42.61601" lon="1.96517">
        <ele>2578.87</ele>
        <time>2018-08-08T09:52:38Z</time>
      </trkpt>
      <trkpt lat="42.61596" lon="1.96525">
        <ele>2575.51</ele>
        <time>2018-08-08T09:52:54Z</time>
      </trkpt>
      <trkpt lat="42.61594" lon="1.96536">
        <ele>2574.07</ele>
        <time>2018-08-08T09:53:07Z</time>
      </trkpt>
      <trkpt lat="42.61595" lon="1.96547">
        <ele>2572.14</ele>
        <time>2018-08-08T09:53:21Z</time>
      </trkpt>
      <trkpt lat="42.61591" lon="1.96561">
        <ele>2570.22</ele>
        <time>2018-08-08T09:53:36Z</time>
      </trkpt>
      <trkpt lat="42.61589" lon="1.96571">
        <ele>2568.3</ele>
        <time>2018-08-08T09:53:50Z</time>
      </trkpt>
      <trkpt lat="42.61589" lon="1.96571">
        <ele>2568.3</ele>
        <time>2018-08-08T09:53:51Z</time>
      </trkpt>
      <trkpt lat="42.61585" lon="1.9658">
        <ele>2565.9</ele>
        <time>2018-08-08T09:54:06Z</time>
      </trkpt>
      <trkpt lat="42.61584" lon="1.9658">
        <ele>2564.93</ele>
        <time>2018-08-08T09:54:08Z</time>
      </trkpt>
      <trkpt lat="42.61579" lon="1.96583">
        <ele>2562.53</ele>
        <time>2018-08-08T09:54:24Z</time>
      </trkpt>
      <trkpt lat="42.61578" lon="1.96592">
        <ele>2560.13</ele>
        <time>2018-08-08T09:54:41Z</time>
      </trkpt>
      <trkpt lat="42.61572" lon="1.96599">
        <ele>2557.73</ele>
        <time>2018-08-08T09:54:58Z</time>
      </trkpt>
      <trkpt lat="42.61568" lon="1.9661">
        <ele>2554.36</ele>
        <time>2018-08-08T09:55:14Z</time>
      </trkpt>
      <trkpt lat="42.61562" lon="1.96619">
        <ele>2551.48</ele>
        <time>2018-08-08T09:55:30Z</time>
      </trkpt>
      <trkpt lat="42.61557" lon="1.9663">
        <ele>2548.59</ele>
        <time>2018-08-08T09:55:47Z</time>
      </trkpt>
      <trkpt lat="42.61555" lon="1.96632">
        <ele>2545.23</ele>
        <time>2018-08-08T09:55:55Z</time>
      </trkpt>
      <trkpt lat="42.61554" lon="1.96632">
        <ele>2543.79</ele>
        <time>2018-08-08T09:55:57Z</time>
      </trkpt>
      <trkpt lat="42.61545" lon="1.96646">
        <ele>2543.31</ele>
        <time>2018-08-08T09:56:16Z</time>
      </trkpt>
      <trkpt lat="42.61544" lon="1.96647">
        <ele>2541.86</ele>
        <time>2018-08-08T09:56:19Z</time>
      </trkpt>
      <trkpt lat="42.61534" lon="1.96652">
        <ele>2539.46</ele>
        <time>2018-08-08T09:56:37Z</time>
      </trkpt>
      <trkpt lat="42.61525" lon="1.96662">
        <ele>2537.06</ele>
        <time>2018-08-08T09:56:54Z</time>
      </trkpt>
      <trkpt lat="42.61523" lon="1.96666">
        <ele>2538.02</ele>
        <time>2018-08-08T09:56:59Z</time>
      </trkpt>
      <trkpt lat="42.61519" lon="1.96675">
        <ele>2534.65</ele>
        <time>2018-08-08T09:57:10Z</time>
      </trkpt>
      <trkpt lat="42.61514" lon="1.96688">
        <ele>2532.25</ele>
        <time>2018-08-08T09:57:25Z</time>
      </trkpt>
      <trkpt lat="42.61509" lon="1.96691">
        <ele>2529.37</ele>
        <time>2018-08-08T09:57:35Z</time>
      </trkpt>
      <trkpt lat="42.61509" lon="1.96691">
        <ele>2529.37</ele>
        <time>2018-08-08T09:57:36Z</time>
      </trkpt>
      <trkpt lat="42.61508" lon="1.96692">
        <ele>2532.25</ele>
        <time>2018-08-08T09:57:42Z</time>
      </trkpt>
      <trkpt lat="42.61505" lon="1.96702">
        <ele>2530.33</ele>
        <time>2018-08-08T09:57:59Z</time>
      </trkpt>
      <trkpt lat="42.61504" lon="1.96705">
        <ele>2529.85</ele>
        <time>2018-08-08T09:58:02Z</time>
      </trkpt>
      <trkpt lat="42.61499" lon="1.96713">
        <ele>2531.77</ele>
        <time>2018-08-08T09:58:10Z</time>
      </trkpt>
      <trkpt lat="42.61495" lon="1.96716">
        <ele>2530.33</ele>
        <time>2018-08-08T09:58:16Z</time>
      </trkpt>
      <trkpt lat="42.61487" lon="1.96721">
        <ele>2528.89</ele>
        <time>2018-08-08T09:58:30Z</time>
      </trkpt>
      <trkpt lat="42.61482" lon="1.96733">
        <ele>2529.37</ele>
        <time>2018-08-08T09:58:43Z</time>
      </trkpt>
      <trkpt lat="42.6148" lon="1.96743">
        <ele>2527.92</ele>
        <time>2018-08-08T09:58:53Z</time>
      </trkpt>
      <trkpt lat="42.61474" lon="1.96754">
        <ele>2527.92</ele>
        <time>2018-08-08T09:59:04Z</time>
      </trkpt>
      <trkpt lat="42.61471" lon="1.96759">
        <ele>2530.33</ele>
        <time>2018-08-08T09:59:08Z</time>
      </trkpt>
      <trkpt lat="42.61471" lon="1.96761">
        <ele>2527.92</ele>
        <time>2018-08-08T09:59:11Z</time>
      </trkpt>
      <trkpt lat="42.6147" lon="1.96769">
        <ele>2525.04</ele>
        <time>2018-08-08T09:59:20Z</time>
      </trkpt>
      <trkpt lat="42.61467" lon="1.96779">
        <ele>2523.12</ele>
        <time>2018-08-08T09:59:34Z</time>
      </trkpt>
      <trkpt lat="42.6146" lon="1.96791">
        <ele>2523.12</ele>
        <time>2018-08-08T09:59:48Z</time>
      </trkpt>
      <trkpt lat="42.61454" lon="1.96796">
        <ele>2525.52</ele>
        <time>2018-08-08T09:59:56Z</time>
      </trkpt>
      <trkpt lat="42.61445" lon="1.968">
        <ele>2525.52</ele>
        <time>2018-08-08T10:00:11Z</time>
      </trkpt>
      <trkpt lat="42.61444" lon="1.96802">
        <ele>2529.37</ele>
        <time>2018-08-08T10:00:23Z</time>
      </trkpt>
      <trkpt lat="42.61444" lon="1.96802">
        <ele>2529.37</ele>
        <time>2018-08-08T10:00:24Z</time>
      </trkpt>
      <trkpt lat="42.61444" lon="1.96801">
        <ele>2526</ele>
        <time>2018-08-08T10:00:28Z</time>
      </trkpt>
      <trkpt lat="42.61444" lon="1.96801">
        <ele>2526</ele>
        <time>2018-08-08T10:00:29Z</time>
      </trkpt>
      <trkpt lat="42.6144" lon="1.96802">
        <ele>2527.44</ele>
        <time>2018-08-08T10:00:48Z</time>
      </trkpt>
      <trkpt lat="42.61435" lon="1.96804">
        <ele>2529.37</ele>
        <time>2018-08-08T10:00:57Z</time>
      </trkpt>
      <trkpt lat="42.61431" lon="1.96799">
        <ele>2527.92</ele>
        <time>2018-08-08T10:01:07Z</time>
      </trkpt>
      <trkpt lat="42.6143" lon="1.96798">
        <ele>2526</ele>
        <time>2018-08-08T10:01:09Z</time>
      </trkpt>
      <trkpt lat="42.61428" lon="1.96794">
        <ele>2522.16</ele>
        <time>2018-08-08T10:01:16Z</time>
      </trkpt>
      <trkpt lat="42.61428" lon="1.96793">
        <ele>2522.16</ele>
        <time>2018-08-08T10:01:17Z</time>
      </trkpt>
      <trkpt lat="42.61424" lon="1.96788">
        <ele>2523.6</ele>
        <time>2018-08-08T10:01:26Z</time>
      </trkpt>
      <trkpt lat="42.61424" lon="1.96787">
        <ele>2524.08</ele>
        <time>2018-08-08T10:01:43Z</time>
      </trkpt>
      <trkpt lat="42.61421" lon="1.96783">
        <ele>2524.56</ele>
        <time>2018-08-08T10:01:59Z</time>
      </trkpt>
      <trkpt lat="42.61421" lon="1.96783">
        <ele>2523.12</ele>
        <time>2018-08-08T10:02:01Z</time>
      </trkpt>
      <trkpt lat="42.6142" lon="1.96782">
        <ele>2524.56</ele>
        <time>2018-08-08T10:02:04Z</time>
      </trkpt>
      <trkpt lat="42.61414" lon="1.96774">
        <ele>2525.52</ele>
        <time>2018-08-08T10:02:17Z</time>
      </trkpt>
      <trkpt lat="42.61413" lon="1.96772">
        <ele>2524.08</ele>
        <time>2018-08-08T10:02:21Z</time>
      </trkpt>
      <trkpt lat="42.61412" lon="1.9677">
        <ele>2525.52</ele>
        <time>2018-08-08T10:02:25Z</time>
      </trkpt>
      <trkpt lat="42.61409" lon="1.9676">
        <ele>2527.92</ele>
        <time>2018-08-08T10:02:41Z</time>
      </trkpt>
      <trkpt lat="42.61406" lon="1.96755">
        <ele>2528.4</ele>
        <time>2018-08-08T10:02:49Z</time>
      </trkpt>
      <trkpt lat="42.61405" lon="1.96754">
        <ele>2526.96</ele>
        <time>2018-08-08T10:03:05Z</time>
      </trkpt>
      <trkpt lat="42.61402" lon="1.96752">
        <ele>2526</ele>
        <time>2018-08-08T10:03:32Z</time>
      </trkpt>
      <trkpt lat="42.61398" lon="1.96745">
        <ele>2525.04</ele>
        <time>2018-08-08T10:03:46Z</time>
      </trkpt>
      <trkpt lat="42.61391" lon="1.96738">
        <ele>2526</ele>
        <time>2018-08-08T10:03:56Z</time>
      </trkpt>
      <trkpt lat="42.61386" lon="1.96734">
        <ele>2522.64</ele>
        <time>2018-08-08T10:04:03Z</time>
      </trkpt>
      <trkpt lat="42.61386" lon="1.96732">
        <ele>2522.64</ele>
        <time>2018-08-08T10:04:04Z</time>
      </trkpt>
      <trkpt lat="42.61384" lon="1.96729">
        <ele>2526</ele>
        <time>2018-08-08T10:04:08Z</time>
      </trkpt>
      <trkpt lat="42.61383" lon="1.96729">
        <ele>2526</ele>
        <time>2018-08-08T10:04:09Z</time>
      </trkpt>
      <trkpt lat="42.6138" lon="1.96727">
        <ele>2523.6</ele>
        <time>2018-08-08T10:04:15Z</time>
      </trkpt>
      <trkpt lat="42.61378" lon="1.96725">
        <ele>2522.16</ele>
        <time>2018-08-08T10:04:18Z</time>
      </trkpt>
      <trkpt lat="42.61377" lon="1.96721">
        <ele>2523.12</ele>
        <time>2018-08-08T10:04:22Z</time>
      </trkpt>
      <trkpt lat="42.61368" lon="1.96711">
        <ele>2523.6</ele>
        <time>2018-08-08T10:04:38Z</time>
      </trkpt>
      <trkpt lat="42.61359" lon="1.96703">
        <ele>2524.56</ele>
        <time>2018-08-08T10:04:55Z</time>
      </trkpt>
      <trkpt lat="42.61351" lon="1.96694">
        <ele>2524.08</ele>
        <time>2018-08-08T10:05:10Z</time>
      </trkpt>
      <trkpt lat="42.61353" lon="1.96698">
        <ele>2523.6</ele>
        <time>2018-08-08T10:05:25Z</time>
      </trkpt>
      <trkpt lat="42.61352" lon="1.967">
        <ele>2523.6</ele>
        <time>2018-08-08T10:05:44Z</time>
      </trkpt>
      <trkpt lat="42.6135" lon="1.96701">
        <ele>2524.56</ele>
        <time>2018-08-08T10:06:01Z</time>
      </trkpt>
      <trkpt lat="42.61351" lon="1.96701">
        <ele>2524.56</ele>
        <time>2018-08-08T10:06:20Z</time>
      </trkpt>
      <trkpt lat="42.61352" lon="1.96698">
        <ele>2523.12</ele>
        <time>2018-08-08T10:06:29Z</time>
      </trkpt>
      <trkpt lat="42.61352" lon="1.96699">
        <ele>2523.12</ele>
        <time>2018-08-08T10:06:39Z</time>
      </trkpt>
      <trkpt lat="42.61352" lon="1.967">
        <ele>2523.12</ele>
        <time>2018-08-08T10:06:50Z</time>
      </trkpt>
      <trkpt lat="42.61352" lon="1.967">
        <ele>2524.56</ele>
        <time>2018-08-08T10:07:07Z</time>
      </trkpt>
      <trkpt lat="42.61352" lon="1.96699">
        <ele>2524.56</ele>
        <time>2018-08-08T10:07:40Z</time>
      </trkpt>
      <trkpt lat="42.61351" lon="1.967">
        <ele>2524.08</ele>
        <time>2018-08-08T10:08:11Z</time>
      </trkpt>
      <trkpt lat="42.61351" lon="1.96699">
        <ele>2524.08</ele>
        <time>2018-08-08T10:08:39Z</time>
      </trkpt>
      <trkpt lat="42.6135" lon="1.96699">
        <ele>2524.08</ele>
        <time>2018-08-08T10:09:11Z</time>
      </trkpt>
      <trkpt lat="42.61351" lon="1.96698">
        <ele>2524.08</ele>
        <time>2018-08-08T10:09:33Z</time>
      </trkpt>
      <trkpt lat="42.61351" lon="1.96699">
        <ele>2524.08</ele>
        <time>2018-08-08T10:10:03Z</time>
      </trkpt>
      <trkpt lat="42.6135" lon="1.96698">
        <ele>2525.52</ele>
        <time>2018-08-08T10:10:20Z</time>
      </trkpt>
      <trkpt lat="42.61351" lon="1.96698">
        <ele>2525.52</ele>
        <time>2018-08-08T10:10:49Z</time>
      </trkpt>
      <trkpt lat="42.61351" lon="1.96698">
        <ele>2524.56</ele>
        <time>2018-08-08T10:11:16Z</time>
      </trkpt>
      <trkpt lat="42.61351" lon="1.96698">
        <ele>2524.56</ele>
        <time>2018-08-08T10:11:17Z</time>
      </trkpt>
      <trkpt lat="42.6135" lon="1.96698">
        <ele>2524.56</ele>
        <time>2018-08-08T10:11:40Z</time>
      </trkpt>
      <trkpt lat="42.6135" lon="1.96697">
        <ele>2524.56</ele>
        <time>2018-08-08T10:12:06Z</time>
      </trkpt>
      <trkpt lat="42.6135" lon="1.96699">
        <ele>2524.08</ele>
        <time>2018-08-08T10:12:26Z</time>
      </trkpt>
      <trkpt lat="42.61349" lon="1.967">
        <ele>2524.08</ele>
        <time>2018-08-08T10:12:44Z</time>
      </trkpt>
      <trkpt lat="42.61349" lon="1.96697">
        <ele>2524.08</ele>
        <time>2018-08-08T10:13:10Z</time>
      </trkpt>
      <trkpt lat="42.61351" lon="1.96697">
        <ele>2524.08</ele>
        <time>2018-08-08T10:13:30Z</time>
      </trkpt>
      <trkpt lat="42.61349" lon="1.967">
        <ele>2525.52</ele>
        <time>2018-08-08T10:13:41Z</time>
      </trkpt>
      <trkpt lat="42.6135" lon="1.96699">
        <ele>2524.56</ele>
        <time>2018-08-08T10:13:59Z</time>
      </trkpt>
      <trkpt lat="42.61351" lon="1.96699">
        <ele>2526</ele>
        <time>2018-08-08T10:14:15Z</time>
      </trkpt>
      <trkpt lat="42.61351" lon="1.96699">
        <ele>2526</ele>
        <time>2018-08-08T10:14:33Z</time>
      </trkpt>
      <trkpt lat="42.61353" lon="1.96697">
        <ele>2526</ele>
        <time>2018-08-08T10:14:57Z</time>
      </trkpt>
      <trkpt lat="42.61351" lon="1.96698">
        <ele>2526</ele>
        <time>2018-08-08T10:15:29Z</time>
      </trkpt>
      <trkpt lat="42.61353" lon="1.96698">
        <ele>2526</ele>
        <time>2018-08-08T10:15:53Z</time>
      </trkpt>
      <trkpt lat="42.61352" lon="1.96697">
        <ele>2525.04</ele>
        <time>2018-08-08T10:16:12Z</time>
      </trkpt>
      <trkpt lat="42.61351" lon="1.96698">
        <ele>2525.52</ele>
        <time>2018-08-08T10:16:30Z</time>
      </trkpt>
      <trkpt lat="42.61351" lon="1.96698">
        <ele>2525.52</ele>
        <time>2018-08-08T10:16:31Z</time>
      </trkpt>
      <trkpt lat="42.61349" lon="1.96699">
        <ele>2526.48</ele>
        <time>2018-08-08T10:17:01Z</time>
      </trkpt>
      <trkpt lat="42.61351" lon="1.96699">
        <ele>2526.96</ele>
        <time>2018-08-08T10:17:28Z</time>
      </trkpt>
      <trkpt lat="42.6135" lon="1.967">
        <ele>2526</ele>
        <time>2018-08-08T10:17:51Z</time>
      </trkpt>
      <trkpt lat="42.61354" lon="1.967">
        <ele>2526.96</ele>
        <time>2018-08-08T10:18:19Z</time>
      </trkpt>
      <trkpt lat="42.61351" lon="1.96698">
        <ele>2526.96</ele>
        <time>2018-08-08T10:18:45Z</time>
      </trkpt>
      <trkpt lat="42.61351" lon="1.96699">
        <ele>2527.44</ele>
        <time>2018-08-08T10:19:11Z</time>
      </trkpt>
      <trkpt lat="42.6135" lon="1.967">
        <ele>2526.48</ele>
        <time>2018-08-08T10:19:21Z</time>
      </trkpt>
      <trkpt lat="42.6135" lon="1.96698">
        <ele>2527.92</ele>
        <time>2018-08-08T10:19:27Z</time>
      </trkpt>
      <trkpt lat="42.61352" lon="1.96698">
        <ele>2526.48</ele>
        <time>2018-08-08T10:19:37Z</time>
      </trkpt>
      <trkpt lat="42.61351" lon="1.96699">
        <ele>2526</ele>
        <time>2018-08-08T10:20:07Z</time>
      </trkpt>
      <trkpt lat="42.61351" lon="1.967">
        <ele>2525.52</ele>
        <time>2018-08-08T10:20:40Z</time>
      </trkpt>
      <trkpt lat="42.61352" lon="1.96697">
        <ele>2527.44</ele>
        <time>2018-08-08T10:21:06Z</time>
      </trkpt>
      <trkpt lat="42.61351" lon="1.96697">
        <ele>2527.44</ele>
        <time>2018-08-08T10:21:30Z</time>
      </trkpt>
      <trkpt lat="42.61351" lon="1.96698">
        <ele>2527.44</ele>
        <time>2018-08-08T10:21:59Z</time>
      </trkpt>
      <trkpt lat="42.61349" lon="1.96698">
        <ele>2528.4</ele>
        <time>2018-08-08T10:22:21Z</time>
      </trkpt>
      <trkpt lat="42.61351" lon="1.96698">
        <ele>2526.48</ele>
        <time>2018-08-08T10:22:45Z</time>
      </trkpt>
      <trkpt lat="42.61351" lon="1.96698">
        <ele>2526.48</ele>
        <time>2018-08-08T10:23:09Z</time>
      </trkpt>
      <trkpt lat="42.6135" lon="1.96699">
        <ele>2526.96</ele>
        <time>2018-08-08T10:23:39Z</time>
      </trkpt>
      <trkpt lat="42.61351" lon="1.96699">
        <ele>2526.96</ele>
        <time>2018-08-08T10:24:02Z</time>
      </trkpt>
      <trkpt lat="42.6135" lon="1.96697">
        <ele>2527.92</ele>
        <time>2018-08-08T10:24:24Z</time>
      </trkpt>
      <trkpt lat="42.6135" lon="1.96699">
        <ele>2528.4</ele>
        <time>2018-08-08T10:24:55Z</time>
      </trkpt>
      <trkpt lat="42.61351" lon="1.96699">
        <ele>2526.96</ele>
        <time>2018-08-08T10:25:10Z</time>
      </trkpt>
      <trkpt lat="42.61349" lon="1.96698">
        <ele>2526.96</ele>
        <time>2018-08-08T10:25:32Z</time>
      </trkpt>
      <trkpt lat="42.61351" lon="1.96698">
        <ele>2527.44</ele>
        <time>2018-08-08T10:26:10Z</time>
      </trkpt>
      <trkpt lat="42.6135" lon="1.96699">
        <ele>2527.44</ele>
        <time>2018-08-08T10:26:39Z</time>
      </trkpt>
      <trkpt lat="42.6135" lon="1.96698">
        <ele>2527.44</ele>
        <time>2018-08-08T10:27:03Z</time>
      </trkpt>
      <trkpt lat="42.61352" lon="1.96697">
        <ele>2527.44</ele>
        <time>2018-08-08T10:27:37Z</time>
      </trkpt>
      <trkpt lat="42.61351" lon="1.967">
        <ele>2526.48</ele>
        <time>2018-08-08T10:28:00Z</time>
      </trkpt>
      <trkpt lat="42.61352" lon="1.96697">
        <ele>2526.96</ele>
        <time>2018-08-08T10:28:24Z</time>
      </trkpt>
      <trkpt lat="42.61352" lon="1.96698">
        <ele>2526.96</ele>
        <time>2018-08-08T10:28:47Z</time>
      </trkpt>
      <trkpt lat="42.61351" lon="1.96698">
        <ele>2526.96</ele>
        <time>2018-08-08T10:29:14Z</time>
      </trkpt>
      <trkpt lat="42.61352" lon="1.96697">
        <ele>2528.4</ele>
        <time>2018-08-08T10:29:31Z</time>
      </trkpt>
      <trkpt lat="42.61351" lon="1.96699">
        <ele>2528.4</ele>
        <time>2018-08-08T10:29:56Z</time>
      </trkpt>
      <trkpt lat="42.61353" lon="1.96698">
        <ele>2527.44</ele>
        <time>2018-08-08T10:30:28Z</time>
      </trkpt>
      <trkpt lat="42.61352" lon="1.96698">
        <ele>2527.92</ele>
        <time>2018-08-08T10:30:55Z</time>
      </trkpt>
      <trkpt lat="42.61352" lon="1.96699">
        <ele>2528.89</ele>
        <time>2018-08-08T10:31:23Z</time>
      </trkpt>
      <trkpt lat="42.61353" lon="1.96697">
        <ele>2527.44</ele>
        <time>2018-08-08T10:31:42Z</time>
      </trkpt>
      <trkpt lat="42.61352" lon="1.96698">
        <ele>2527.44</ele>
        <time>2018-08-08T10:32:15Z</time>
      </trkpt>
      <trkpt lat="42.61352" lon="1.96699">
        <ele>2527.92</ele>
        <time>2018-08-08T10:32:44Z</time>
      </trkpt>
      <trkpt lat="42.61352" lon="1.96698">
        <ele>2526.48</ele>
        <time>2018-08-08T10:33:22Z</time>
      </trkpt>
      <trkpt lat="42.61352" lon="1.96698">
        <ele>2528.4</ele>
        <time>2018-08-08T10:33:57Z</time>
      </trkpt>
      <trkpt lat="42.61352" lon="1.96698">
        <ele>2529.37</ele>
        <time>2018-08-08T10:34:33Z</time>
      </trkpt>
      <trkpt lat="42.61352" lon="1.96699">
        <ele>2527.44</ele>
        <time>2018-08-08T10:35:10Z</time>
      </trkpt>
      <trkpt lat="42.61353" lon="1.967">
        <ele>2527.44</ele>
        <time>2018-08-08T10:35:44Z</time>
      </trkpt>
      <trkpt lat="42.61352" lon="1.96699">
        <ele>2527.92</ele>
        <time>2018-08-08T10:36:17Z</time>
      </trkpt>
      <trkpt lat="42.61352" lon="1.96698">
        <ele>2528.4</ele>
        <time>2018-08-08T10:37:00Z</time>
      </trkpt>
      <trkpt lat="42.61351" lon="1.96698">
        <ele>2529.37</ele>
        <time>2018-08-08T10:37:37Z</time>
      </trkpt>
      <trkpt lat="42.61352" lon="1.967">
        <ele>2529.37</ele>
        <time>2018-08-08T10:38:14Z</time>
      </trkpt>
      <trkpt lat="42.61352" lon="1.96699">
        <ele>2527.92</ele>
        <time>2018-08-08T10:38:47Z</time>
      </trkpt>
      <trkpt lat="42.61352" lon="1.96698">
        <ele>2527.92</ele>
        <time>2018-08-08T10:39:23Z</time>
      </trkpt>
      <trkpt lat="42.61353" lon="1.967">
        <ele>2527.92</ele>
        <time>2018-08-08T10:40:00Z</time>
      </trkpt>
      <trkpt lat="42.61353" lon="1.96698">
        <ele>2528.4</ele>
        <time>2018-08-08T10:40:35Z</time>
      </trkpt>
      <trkpt lat="42.61352" lon="1.96697">
        <ele>2528.4</ele>
        <time>2018-08-08T10:41:02Z</time>
      </trkpt>
      <trkpt lat="42.61352" lon="1.96699">
        <ele>2528.4</ele>
        <time>2018-08-08T10:41:37Z</time>
      </trkpt>
      <trkpt lat="42.61352" lon="1.967">
        <ele>2529.85</ele>
        <time>2018-08-08T10:42:04Z</time>
      </trkpt>
      <trkpt lat="42.61352" lon="1.96699">
        <ele>2528.4</ele>
        <time>2018-08-08T10:42:30Z</time>
      </trkpt>
      <trkpt lat="42.61352" lon="1.96699">
        <ele>2529.85</ele>
        <time>2018-08-08T10:42:50Z</time>
      </trkpt>
      <trkpt lat="42.61351" lon="1.96698">
        <ele>2529.85</ele>
        <time>2018-08-08T10:43:21Z</time>
      </trkpt>
      <trkpt lat="42.61351" lon="1.96698">
        <ele>2529.85</ele>
        <time>2018-08-08T10:43:48Z</time>
      </trkpt>
      <trkpt lat="42.61352" lon="1.96699">
        <ele>2528.89</ele>
        <time>2018-08-08T10:44:19Z</time>
      </trkpt>
      <trkpt lat="42.61351" lon="1.96699">
        <ele>2528.89</ele>
        <time>2018-08-08T10:44:48Z</time>
      </trkpt>
      <trkpt lat="42.61353" lon="1.96699">
        <ele>2528.89</ele>
        <time>2018-08-08T10:45:16Z</time>
      </trkpt>
      <trkpt lat="42.61352" lon="1.96699">
        <ele>2528.89</ele>
        <time>2018-08-08T10:45:34Z</time>
      </trkpt>
      <trkpt lat="42.61352" lon="1.96699">
        <ele>2530.33</ele>
        <time>2018-08-08T10:46:05Z</time>
      </trkpt>
      <trkpt lat="42.61351" lon="1.96699">
        <ele>2529.37</ele>
        <time>2018-08-08T10:46:33Z</time>
      </trkpt>
      <trkpt lat="42.6135" lon="1.96698">
        <ele>2529.85</ele>
        <time>2018-08-08T10:47:01Z</time>
      </trkpt>
      <trkpt lat="42.61351" lon="1.96698">
        <ele>2530.81</ele>
        <time>2018-08-08T10:47:30Z</time>
      </trkpt>
      <trkpt lat="42.61352" lon="1.967">
        <ele>2530.33</ele>
        <time>2018-08-08T10:48:03Z</time>
      </trkpt>
      <trkpt lat="42.61351" lon="1.96699">
        <ele>2529.37</ele>
        <time>2018-08-08T10:48:38Z</time>
      </trkpt>
      <trkpt lat="42.61349" lon="1.96699">
        <ele>2529.37</ele>
        <time>2018-08-08T10:49:07Z</time>
      </trkpt>
      <trkpt lat="42.6135" lon="1.96699">
        <ele>2529.85</ele>
        <time>2018-08-08T10:49:29Z</time>
      </trkpt>
      <trkpt lat="42.61351" lon="1.96698">
        <ele>2529.85</ele>
        <time>2018-08-08T10:50:07Z</time>
      </trkpt>
      <trkpt lat="42.61352" lon="1.96699">
        <ele>2530.81</ele>
        <time>2018-08-08T10:50:49Z</time>
      </trkpt>
      <trkpt lat="42.61351" lon="1.96698">
        <ele>2529.37</ele>
        <time>2018-08-08T10:51:09Z</time>
      </trkpt>
      <trkpt lat="42.61353" lon="1.96698">
        <ele>2530.33</ele>
        <time>2018-08-08T10:51:41Z</time>
      </trkpt>
      <trkpt lat="42.61351" lon="1.967">
        <ele>2530.33</ele>
        <time>2018-08-08T10:52:18Z</time>
      </trkpt>
      <trkpt lat="42.61351" lon="1.96699">
        <ele>2530.81</ele>
        <time>2018-08-08T10:52:55Z</time>
      </trkpt>
      <trkpt lat="42.61351" lon="1.96699">
        <ele>2529.85</ele>
        <time>2018-08-08T10:53:30Z</time>
      </trkpt>
      <trkpt lat="42.61349" lon="1.96696">
        <ele>2529.85</ele>
        <time>2018-08-08T10:53:59Z</time>
      </trkpt>
      <trkpt lat="42.6135" lon="1.96698">
        <ele>2530.33</ele>
        <time>2018-08-08T10:54:23Z</time>
      </trkpt>
      <trkpt lat="42.61351" lon="1.96699">
        <ele>2530.33</ele>
        <time>2018-08-08T10:54:49Z</time>
      </trkpt>
      <trkpt lat="42.61351" lon="1.96699">
        <ele>2530.33</ele>
        <time>2018-08-08T10:55:09Z</time>
      </trkpt>
      <trkpt lat="42.61352" lon="1.96699">
        <ele>2530.81</ele>
        <time>2018-08-08T10:55:32Z</time>
      </trkpt>
      <trkpt lat="42.61352" lon="1.96699">
        <ele>2530.81</ele>
        <time>2018-08-08T10:55:51Z</time>
      </trkpt>
      <trkpt lat="42.61351" lon="1.96698">
        <ele>2529.85</ele>
        <time>2018-08-08T10:56:13Z</time>
      </trkpt>
      <trkpt lat="42.61344" lon="1.96695">
        <ele>2530.81</ele>
        <time>2018-08-08T10:56:34Z</time>
      </trkpt>
      <trkpt lat="42.61347" lon="1.96697">
        <ele>2530.81</ele>
        <time>2018-08-08T10:57:05Z</time>
      </trkpt>
      <trkpt lat="42.61347" lon="1.96696">
        <ele>2529.37</ele>
        <time>2018-08-08T10:57:20Z</time>
      </trkpt>
      <trkpt lat="42.61348" lon="1.96696">
        <ele>2529.37</ele>
        <time>2018-08-08T10:57:43Z</time>
      </trkpt>
      <trkpt lat="42.61348" lon="1.96698">
        <ele>2529.37</ele>
        <time>2018-08-08T10:58:09Z</time>
      </trkpt>
      <trkpt lat="42.61348" lon="1.96696">
        <ele>2529.37</ele>
        <time>2018-08-08T10:58:35Z</time>
      </trkpt>
      <trkpt lat="42.61349" lon="1.96695">
        <ele>2528.4</ele>
        <time>2018-08-08T10:58:56Z</time>
      </trkpt>
      <trkpt lat="42.61349" lon="1.96696">
        <ele>2529.85</ele>
        <time>2018-08-08T10:58:58Z</time>
      </trkpt>
      <trkpt lat="42.61344" lon="1.96707">
        <ele>2529.85</ele>
        <time>2018-08-08T10:59:15Z</time>
      </trkpt>
      <trkpt lat="42.61339" lon="1.96714">
        <ele>2530.81</ele>
        <time>2018-08-08T10:59:30Z</time>
      </trkpt>
      <trkpt lat="42.61335" lon="1.96722">
        <ele>2533.69</ele>
        <time>2018-08-08T10:59:47Z</time>
      </trkpt>
      <trkpt lat="42.61337" lon="1.96731">
        <ele>2534.65</ele>
        <time>2018-08-08T11:00:02Z</time>
      </trkpt>
      <trkpt lat="42.61337" lon="1.96739">
        <ele>2536.58</ele>
        <time>2018-08-08T11:00:18Z</time>
      </trkpt>
      <trkpt lat="42.61341" lon="1.9675">
        <ele>2538.02</ele>
        <time>2018-08-08T11:00:31Z</time>
      </trkpt>
      <trkpt lat="42.61342" lon="1.96763">
        <ele>2538.02</ele>
        <time>2018-08-08T11:00:44Z</time>
      </trkpt>
      <trkpt lat="42.61344" lon="1.96769">
        <ele>2536.58</ele>
        <time>2018-08-08T11:00:54Z</time>
      </trkpt>
      <trkpt lat="42.61349" lon="1.96784">
        <ele>2535.13</ele>
        <time>2018-08-08T11:01:11Z</time>
      </trkpt>
      <trkpt lat="42.6135" lon="1.96797">
        <ele>2533.69</ele>
        <time>2018-08-08T11:01:25Z</time>
      </trkpt>
      <trkpt lat="42.61351" lon="1.96803">
        <ele>2535.13</ele>
        <time>2018-08-08T11:01:33Z</time>
      </trkpt>
      <trkpt lat="42.61355" lon="1.96815">
        <ele>2536.1</ele>
        <time>2018-08-08T11:01:47Z</time>
      </trkpt>
      <trkpt lat="42.61351" lon="1.96831">
        <ele>2538.02</ele>
        <time>2018-08-08T11:02:04Z</time>
      </trkpt>
      <trkpt lat="42.61348" lon="1.96839">
        <ele>2535.13</ele>
        <time>2018-08-08T11:02:17Z</time>
      </trkpt>
      <trkpt lat="42.61346" lon="1.96845">
        <ele>2532.25</ele>
        <time>2018-08-08T11:02:29Z</time>
      </trkpt>
      <trkpt lat="42.61341" lon="1.96862">
        <ele>2533.21</ele>
        <time>2018-08-08T11:02:46Z</time>
      </trkpt>
      <trkpt lat="42.61341" lon="1.96863">
        <ele>2533.21</ele>
        <time>2018-08-08T11:02:47Z</time>
      </trkpt>
      <trkpt lat="42.6134" lon="1.96867">
        <ele>2533.69</ele>
        <time>2018-08-08T11:03:01Z</time>
      </trkpt>
      <trkpt lat="42.61338" lon="1.96879">
        <ele>2535.13</ele>
        <time>2018-08-08T11:03:16Z</time>
      </trkpt>
      <trkpt lat="42.61334" lon="1.96887">
        <ele>2535.13</ele>
        <time>2018-08-08T11:03:29Z</time>
      </trkpt>
      <trkpt lat="42.61334" lon="1.96887">
        <ele>2535.13</ele>
        <time>2018-08-08T11:03:30Z</time>
      </trkpt>
      <trkpt lat="42.61329" lon="1.96891">
        <ele>2533.69</ele>
        <time>2018-08-08T11:03:42Z</time>
      </trkpt>
      <trkpt lat="42.61324" lon="1.96895">
        <ele>2533.69</ele>
        <time>2018-08-08T11:03:53Z</time>
      </trkpt>
      <trkpt lat="42.61318" lon="1.96903">
        <ele>2532.73</ele>
        <time>2018-08-08T11:04:05Z</time>
      </trkpt>
      <trkpt lat="42.6131" lon="1.9692">
        <ele>2530.81</ele>
        <time>2018-08-08T11:04:23Z</time>
      </trkpt>
      <trkpt lat="42.61308" lon="1.96923">
        <ele>2530.33</ele>
        <time>2018-08-08T11:04:27Z</time>
      </trkpt>
      <trkpt lat="42.61295" lon="1.96934">
        <ele>2528.89</ele>
        <time>2018-08-08T11:04:44Z</time>
      </trkpt>
      <trkpt lat="42.61291" lon="1.9694">
        <ele>2527.92</ele>
        <time>2018-08-08T11:04:59Z</time>
      </trkpt>
      <trkpt lat="42.61286" lon="1.96943">
        <ele>2526.96</ele>
        <time>2018-08-08T11:05:05Z</time>
      </trkpt>
      <trkpt lat="42.61278" lon="1.96951">
        <ele>2523.6</ele>
        <time>2018-08-08T11:05:19Z</time>
      </trkpt>
      <trkpt lat="42.61276" lon="1.96953">
        <ele>2523.12</ele>
        <time>2018-08-08T11:05:22Z</time>
      </trkpt>
      <trkpt lat="42.61267" lon="1.96968">
        <ele>2521.19</ele>
        <time>2018-08-08T11:05:41Z</time>
      </trkpt>
      <trkpt lat="42.61265" lon="1.96976">
        <ele>2520.23</ele>
        <time>2018-08-08T11:05:56Z</time>
      </trkpt>
      <trkpt lat="42.61258" lon="1.96977">
        <ele>2517.35</ele>
        <time>2018-08-08T11:06:12Z</time>
      </trkpt>
      <trkpt lat="42.6125" lon="1.9698">
        <ele>2513.5</ele>
        <time>2018-08-08T11:06:27Z</time>
      </trkpt>
      <trkpt lat="42.61241" lon="1.96987">
        <ele>2511.1</ele>
        <time>2018-08-08T11:06:44Z</time>
      </trkpt>
      <trkpt lat="42.61234" lon="1.9699">
        <ele>2509.18</ele>
        <time>2018-08-08T11:06:59Z</time>
      </trkpt>
      <trkpt lat="42.61228" lon="1.96985">
        <ele>2507.74</ele>
        <time>2018-08-08T11:07:13Z</time>
      </trkpt>
      <trkpt lat="42.61223" lon="1.96986">
        <ele>2505.81</ele>
        <time>2018-08-08T11:07:27Z</time>
      </trkpt>
      <trkpt lat="42.61217" lon="1.96982">
        <ele>2503.89</ele>
        <time>2018-08-08T11:07:41Z</time>
      </trkpt>
      <trkpt lat="42.61214" lon="1.96994">
        <ele>2500.53</ele>
        <time>2018-08-08T11:07:57Z</time>
      </trkpt>
      <trkpt lat="42.61214" lon="1.97005">
        <ele>2499.08</ele>
        <time>2018-08-08T11:08:14Z</time>
      </trkpt>
      <trkpt lat="42.61202" lon="1.97011">
        <ele>2496.68</ele>
        <time>2018-08-08T11:08:31Z</time>
      </trkpt>
      <trkpt lat="42.61197" lon="1.97012">
        <ele>2494.76</ele>
        <time>2018-08-08T11:08:45Z</time>
      </trkpt>
      <trkpt lat="42.61196" lon="1.97018">
        <ele>2491.39</ele>
        <time>2018-08-08T11:08:59Z</time>
      </trkpt>
      <trkpt lat="42.61191" lon="1.97032">
        <ele>2490.43</ele>
        <time>2018-08-08T11:09:14Z</time>
      </trkpt>
      <trkpt lat="42.61184" lon="1.97039">
        <ele>2487.55</ele>
        <time>2018-08-08T11:09:29Z</time>
      </trkpt>
      <trkpt lat="42.61183" lon="1.97041">
        <ele>2487.55</ele>
        <time>2018-08-08T11:09:31Z</time>
      </trkpt>
      <trkpt lat="42.61177" lon="1.9705">
        <ele>2487.07</ele>
        <time>2018-08-08T11:09:46Z</time>
      </trkpt>
      <trkpt lat="42.61168" lon="1.9706">
        <ele>2486.11</ele>
        <time>2018-08-08T11:10:02Z</time>
      </trkpt>
      <trkpt lat="42.6116" lon="1.97066">
        <ele>2483.22</ele>
        <time>2018-08-08T11:10:19Z</time>
      </trkpt>
      <trkpt lat="42.61155" lon="1.97073">
        <ele>2482.26</ele>
        <time>2018-08-08T11:10:31Z</time>
      </trkpt>
      <trkpt lat="42.6115" lon="1.9709">
        <ele>2480.34</ele>
        <time>2018-08-08T11:10:47Z</time>
      </trkpt>
      <trkpt lat="42.61146" lon="1.97097">
        <ele>2480.34</ele>
        <time>2018-08-08T11:11:00Z</time>
      </trkpt>
      <trkpt lat="42.61144" lon="1.97099">
        <ele>2477.45</ele>
        <time>2018-08-08T11:11:03Z</time>
      </trkpt>
      <trkpt lat="42.61136" lon="1.97114">
        <ele>2475.05</ele>
        <time>2018-08-08T11:11:20Z</time>
      </trkpt>
      <trkpt lat="42.61129" lon="1.97124">
        <ele>2474.09</ele>
        <time>2018-08-08T11:11:36Z</time>
      </trkpt>
      <trkpt lat="42.61117" lon="1.97136">
        <ele>2476.49</ele>
        <time>2018-08-08T11:11:53Z</time>
      </trkpt>
      <trkpt lat="42.61115" lon="1.97142">
        <ele>2474.57</ele>
        <time>2018-08-08T11:12:02Z</time>
      </trkpt>
      <trkpt lat="42.61114" lon="1.97147">
        <ele>2475.53</ele>
        <time>2018-08-08T11:12:11Z</time>
      </trkpt>
      <trkpt lat="42.61114" lon="1.9715">
        <ele>2472.17</ele>
        <time>2018-08-08T11:12:14Z</time>
      </trkpt>
      <trkpt lat="42.61114" lon="1.9715">
        <ele>2472.17</ele>
        <time>2018-08-08T11:12:15Z</time>
      </trkpt>
      <trkpt lat="42.61112" lon="1.9716">
        <ele>2470.24</ele>
        <time>2018-08-08T11:12:28Z</time>
      </trkpt>
      <trkpt lat="42.611" lon="1.97171">
        <ele>2468.8</ele>
        <time>2018-08-08T11:12:44Z</time>
      </trkpt>
      <trkpt lat="42.61099" lon="1.97172">
        <ele>2468.8</ele>
        <time>2018-08-08T11:12:46Z</time>
      </trkpt>
      <trkpt lat="42.61092" lon="1.97182">
        <ele>2467.84</ele>
        <time>2018-08-08T11:13:01Z</time>
      </trkpt>
      <trkpt lat="42.61095" lon="1.97199">
        <ele>2464.96</ele>
        <time>2018-08-08T11:13:18Z</time>
      </trkpt>
      <trkpt lat="42.61098" lon="1.97212">
        <ele>2462.55</ele>
        <time>2018-08-08T11:13:33Z</time>
      </trkpt>
      <trkpt lat="42.61099" lon="1.97215">
        <ele>2461.59</ele>
        <time>2018-08-08T11:13:36Z</time>
      </trkpt>
      <trkpt lat="42.61102" lon="1.97233">
        <ele>2457.75</ele>
        <time>2018-08-08T11:13:54Z</time>
      </trkpt>
      <trkpt lat="42.61093" lon="1.97245">
        <ele>2458.23</ele>
        <time>2018-08-08T11:14:10Z</time>
      </trkpt>
      <trkpt lat="42.61084" lon="1.97252">
        <ele>2454.86</ele>
        <time>2018-08-08T11:14:21Z</time>
      </trkpt>
      <trkpt lat="42.61084" lon="1.97253">
        <ele>2453.9</ele>
        <time>2018-08-08T11:14:23Z</time>
      </trkpt>
      <trkpt lat="42.61072" lon="1.97262">
        <ele>2453.9</ele>
        <time>2018-08-08T11:14:38Z</time>
      </trkpt>
      <trkpt lat="42.61067" lon="1.97269">
        <ele>2450.06</ele>
        <time>2018-08-08T11:14:48Z</time>
      </trkpt>
      <trkpt lat="42.61067" lon="1.9727">
        <ele>2450.06</ele>
        <time>2018-08-08T11:14:49Z</time>
      </trkpt>
      <trkpt lat="42.61064" lon="1.97283">
        <ele>2448.13</ele>
        <time>2018-08-08T11:15:06Z</time>
      </trkpt>
      <trkpt lat="42.61057" lon="1.97294">
        <ele>2447.17</ele>
        <time>2018-08-08T11:15:19Z</time>
      </trkpt>
      <trkpt lat="42.61056" lon="1.97298">
        <ele>2448.62</ele>
        <time>2018-08-08T11:15:24Z</time>
      </trkpt>
      <trkpt lat="42.61057" lon="1.97301">
        <ele>2445.25</ele>
        <time>2018-08-08T11:15:27Z</time>
      </trkpt>
      <trkpt lat="42.61057" lon="1.97302">
        <ele>2445.25</ele>
        <time>2018-08-08T11:15:28Z</time>
      </trkpt>
      <trkpt lat="42.61057" lon="1.97304">
        <ele>2446.69</ele>
        <time>2018-08-08T11:15:30Z</time>
      </trkpt>
      <trkpt lat="42.61055" lon="1.97317">
        <ele>2444.29</ele>
        <time>2018-08-08T11:15:46Z</time>
      </trkpt>
      <trkpt lat="42.61045" lon="1.97325">
        <ele>2442.85</ele>
        <time>2018-08-08T11:15:58Z</time>
      </trkpt>
      <trkpt lat="42.61037" lon="1.97335">
        <ele>2442.85</ele>
        <time>2018-08-08T11:16:13Z</time>
      </trkpt>
      <trkpt lat="42.6103" lon="1.97339">
        <ele>2442.85</ele>
        <time>2018-08-08T11:16:26Z</time>
      </trkpt>
      <trkpt lat="42.61021" lon="1.97345">
        <ele>2441.41</ele>
        <time>2018-08-08T11:16:41Z</time>
      </trkpt>
      <trkpt lat="42.61007" lon="1.97353">
        <ele>2440.44</ele>
        <time>2018-08-08T11:16:57Z</time>
      </trkpt>
      <trkpt lat="42.60999" lon="1.97355">
        <ele>2439.96</ele>
        <time>2018-08-08T11:17:06Z</time>
      </trkpt>
      <trkpt lat="42.60996" lon="1.97358">
        <ele>2439.96</ele>
        <time>2018-08-08T11:17:17Z</time>
      </trkpt>
      <trkpt lat="42.60988" lon="1.97363">
        <ele>2439</ele>
        <time>2018-08-08T11:17:29Z</time>
      </trkpt>
      <trkpt lat="42.60989" lon="1.97377">
        <ele>2437.08</ele>
        <time>2018-08-08T11:17:44Z</time>
      </trkpt>
      <trkpt lat="42.60986" lon="1.97392">
        <ele>2435.16</ele>
        <time>2018-08-08T11:17:59Z</time>
      </trkpt>
      <trkpt lat="42.60985" lon="1.97407">
        <ele>2432.27</ele>
        <time>2018-08-08T11:18:15Z</time>
      </trkpt>
      <trkpt lat="42.60987" lon="1.97412">
        <ele>2430.35</ele>
        <time>2018-08-08T11:18:24Z</time>
      </trkpt>
      <trkpt lat="42.60987" lon="1.97423">
        <ele>2428.91</ele>
        <time>2018-08-08T11:18:38Z</time>
      </trkpt>
      <trkpt lat="42.60983" lon="1.97436">
        <ele>2425.54</ele>
        <time>2018-08-08T11:18:52Z</time>
      </trkpt>
      <trkpt lat="42.60982" lon="1.97439">
        <ele>2424.1</ele>
        <time>2018-08-08T11:18:55Z</time>
      </trkpt>
      <trkpt lat="42.60978" lon="1.97446">
        <ele>2426.02</ele>
        <time>2018-08-08T11:19:01Z</time>
      </trkpt>
      <trkpt lat="42.60969" lon="1.97458">
        <ele>2425.54</ele>
        <time>2018-08-08T11:19:17Z</time>
      </trkpt>
      <trkpt lat="42.6097" lon="1.97463">
        <ele>2424.1</ele>
        <time>2018-08-08T11:19:32Z</time>
      </trkpt>
      <trkpt lat="42.60973" lon="1.97465">
        <ele>2422.66</ele>
        <time>2018-08-08T11:19:44Z</time>
      </trkpt>
      <trkpt lat="42.60976" lon="1.97471">
        <ele>2420.26</ele>
        <time>2018-08-08T11:19:59Z</time>
      </trkpt>
      <trkpt lat="42.60979" lon="1.97477">
        <ele>2419.3</ele>
        <time>2018-08-08T11:20:09Z</time>
      </trkpt>
      <trkpt lat="42.60981" lon="1.97487">
        <ele>2418.81</ele>
        <time>2018-08-08T11:20:23Z</time>
      </trkpt>
      <trkpt lat="42.6097" lon="1.975">
        <ele>2417.37</ele>
        <time>2018-08-08T11:20:37Z</time>
      </trkpt>
      <trkpt lat="42.60965" lon="1.97509">
        <ele>2418.33</ele>
        <time>2018-08-08T11:20:47Z</time>
      </trkpt>
      <trkpt lat="42.60964" lon="1.97509">
        <ele>2416.89</ele>
        <time>2018-08-08T11:20:54Z</time>
      </trkpt>
      <trkpt lat="42.60963" lon="1.97506">
        <ele>2415.93</ele>
        <time>2018-08-08T11:21:11Z</time>
      </trkpt>
      <trkpt lat="42.60957" lon="1.97519">
        <ele>2416.41</ele>
        <time>2018-08-08T11:21:27Z</time>
      </trkpt>
      <trkpt lat="42.60956" lon="1.97521">
        <ele>2417.85</ele>
        <time>2018-08-08T11:21:29Z</time>
      </trkpt>
      <trkpt lat="42.60951" lon="1.97531">
        <ele>2417.85</ele>
        <time>2018-08-08T11:21:40Z</time>
      </trkpt>
      <trkpt lat="42.60938" lon="1.9755">
        <ele>2414.97</ele>
        <time>2018-08-08T11:21:59Z</time>
      </trkpt>
      <trkpt lat="42.60937" lon="1.97552">
        <ele>2414.97</ele>
        <time>2018-08-08T11:22:02Z</time>
      </trkpt>
      <trkpt lat="42.60929" lon="1.97561">
        <ele>2415.93</ele>
        <time>2018-08-08T11:22:13Z</time>
      </trkpt>
      <trkpt lat="42.60918" lon="1.97577">
        <ele>2414.01</ele>
        <time>2018-08-08T11:22:30Z</time>
      </trkpt>
      <trkpt lat="42.60918" lon="1.97584">
        <ele>2412.57</ele>
        <time>2018-08-08T11:22:40Z</time>
      </trkpt>
      <trkpt lat="42.60914" lon="1.97588">
        <ele>2413.53</ele>
        <time>2018-08-08T11:22:46Z</time>
      </trkpt>
      <trkpt lat="42.60902" lon="1.97599">
        <ele>2415.45</ele>
        <time>2018-08-08T11:23:02Z</time>
      </trkpt>
      <trkpt lat="42.60898" lon="1.97611">
        <ele>2414.49</ele>
        <time>2018-08-08T11:23:16Z</time>
      </trkpt>
      <trkpt lat="42.60897" lon="1.97616">
        <ele>2414.49</ele>
        <time>2018-08-08T11:23:24Z</time>
      </trkpt>
      <trkpt lat="42.609" lon="1.97623">
        <ele>2412.57</ele>
        <time>2018-08-08T11:23:42Z</time>
      </trkpt>
      <trkpt lat="42.60894" lon="1.97626">
        <ele>2410.64</ele>
        <time>2018-08-08T11:23:56Z</time>
      </trkpt>
      <trkpt lat="42.6089" lon="1.97634">
        <ele>2411.6</ele>
        <time>2018-08-08T11:24:08Z</time>
      </trkpt>
      <trkpt lat="42.6089" lon="1.97634">
        <ele>2411.6</ele>
        <time>2018-08-08T11:24:09Z</time>
      </trkpt>
      <trkpt lat="42.60894" lon="1.97647">
        <ele>2412.09</ele>
        <time>2018-08-08T11:24:24Z</time>
      </trkpt>
      <trkpt lat="42.60891" lon="1.97656">
        <ele>2413.53</ele>
        <time>2018-08-08T11:24:37Z</time>
      </trkpt>
      <trkpt lat="42.60882" lon="1.97667">
        <ele>2414.01</ele>
        <time>2018-08-08T11:24:52Z</time>
      </trkpt>
      <trkpt lat="42.60873" lon="1.97679">
        <ele>2414.01</ele>
        <time>2018-08-08T11:25:07Z</time>
      </trkpt>
      <trkpt lat="42.60871" lon="1.97685">
        <ele>2412.57</ele>
        <time>2018-08-08T11:25:14Z</time>
      </trkpt>
      <trkpt lat="42.60864" lon="1.97701">
        <ele>2412.09</ele>
        <time>2018-08-08T11:25:29Z</time>
      </trkpt>
      <trkpt lat="42.60857" lon="1.97717">
        <ele>2411.6</ele>
        <time>2018-08-08T11:25:45Z</time>
      </trkpt>
      <trkpt lat="42.60857" lon="1.97718">
        <ele>2411.6</ele>
        <time>2018-08-08T11:25:46Z</time>
      </trkpt>
      <trkpt lat="42.60855" lon="1.97739">
        <ele>2410.64</ele>
        <time>2018-08-08T11:26:05Z</time>
      </trkpt>
      <trkpt lat="42.6085" lon="1.97761">
        <ele>2411.6</ele>
        <time>2018-08-08T11:26:24Z</time>
      </trkpt>
      <trkpt lat="42.6085" lon="1.97777">
        <ele>2411.6</ele>
        <time>2018-08-08T11:26:38Z</time>
      </trkpt>
      <trkpt lat="42.60848" lon="1.97793">
        <ele>2413.53</ele>
        <time>2018-08-08T11:26:54Z</time>
      </trkpt>
      <trkpt lat="42.60848" lon="1.97807">
        <ele>2415.45</ele>
        <time>2018-08-08T11:27:10Z</time>
      </trkpt>
      <trkpt lat="42.60846" lon="1.97824">
        <ele>2416.89</ele>
        <time>2018-08-08T11:27:27Z</time>
      </trkpt>
      <trkpt lat="42.60846" lon="1.9783">
        <ele>2415.45</ele>
        <time>2018-08-08T11:27:33Z</time>
      </trkpt>
      <trkpt lat="42.60845" lon="1.97851">
        <ele>2414.01</ele>
        <time>2018-08-08T11:27:48Z</time>
      </trkpt>
      <trkpt lat="42.60844" lon="1.97864">
        <ele>2413.53</ele>
        <time>2018-08-08T11:28:01Z</time>
      </trkpt>
      <trkpt lat="42.60837" lon="1.97879">
        <ele>2413.05</ele>
        <time>2018-08-08T11:28:16Z</time>
      </trkpt>
      <trkpt lat="42.60836" lon="1.97896">
        <ele>2411.6</ele>
        <time>2018-08-08T11:28:32Z</time>
      </trkpt>
      <trkpt lat="42.60836" lon="1.97912">
        <ele>2411.12</ele>
        <time>2018-08-08T11:28:46Z</time>
      </trkpt>
      <trkpt lat="42.60838" lon="1.9793">
        <ele>2410.64</ele>
        <time>2018-08-08T11:29:02Z</time>
      </trkpt>
      <trkpt lat="42.60838" lon="1.97942">
        <ele>2410.16</ele>
        <time>2018-08-08T11:29:15Z</time>
      </trkpt>
      <trkpt lat="42.60832" lon="1.97959">
        <ele>2412.09</ele>
        <time>2018-08-08T11:29:31Z</time>
      </trkpt>
      <trkpt lat="42.60829" lon="1.97974">
        <ele>2412.57</ele>
        <time>2018-08-08T11:29:46Z</time>
      </trkpt>
      <trkpt lat="42.60826" lon="1.97994">
        <ele>2412.57</ele>
        <time>2018-08-08T11:30:02Z</time>
      </trkpt>
      <trkpt lat="42.60824" lon="1.98002">
        <ele>2409.2</ele>
        <time>2018-08-08T11:30:12Z</time>
      </trkpt>
      <trkpt lat="42.60823" lon="1.98004">
        <ele>2412.09</ele>
        <time>2018-08-08T11:30:16Z</time>
      </trkpt>
      <trkpt lat="42.6082" lon="1.98011">
        <ele>2412.09</ele>
        <time>2018-08-08T11:30:23Z</time>
      </trkpt>
      <trkpt lat="42.60813" lon="1.98024">
        <ele>2410.16</ele>
        <time>2018-08-08T11:30:39Z</time>
      </trkpt>
      <trkpt lat="42.60805" lon="1.98036">
        <ele>2407.76</ele>
        <time>2018-08-08T11:30:56Z</time>
      </trkpt>
      <trkpt lat="42.60797" lon="1.98039">
        <ele>2406.8</ele>
        <time>2018-08-08T11:31:12Z</time>
      </trkpt>
      <trkpt lat="42.60801" lon="1.98042">
        <ele>2406.32</ele>
        <time>2018-08-08T11:31:28Z</time>
      </trkpt>
      <trkpt lat="42.60801" lon="1.98041">
        <ele>2407.76</ele>
        <time>2018-08-08T11:31:45Z</time>
      </trkpt>
      <trkpt lat="42.60801" lon="1.98041">
        <ele>2406.32</ele>
        <time>2018-08-08T11:31:46Z</time>
      </trkpt>
      <trkpt lat="42.60797" lon="1.98044">
        <ele>2406.32</ele>
        <time>2018-08-08T11:33:56Z</time>
      </trkpt>
      <trkpt lat="42.60798" lon="1.98038">
        <ele>2407.28</ele>
        <time>2018-08-08T11:34:12Z</time>
      </trkpt>
      <trkpt lat="42.60798" lon="1.98039">
        <ele>2407.76</ele>
        <time>2018-08-08T11:34:35Z</time>
      </trkpt>
      <trkpt lat="42.608" lon="1.98035">
        <ele>2406.8</ele>
        <time>2018-08-08T11:34:54Z</time>
      </trkpt>
      <trkpt lat="42.60799" lon="1.98037">
        <ele>2407.76</ele>
        <time>2018-08-08T11:35:11Z</time>
      </trkpt>
      <trkpt lat="42.60799" lon="1.98039">
        <ele>2407.76</ele>
        <time>2018-08-08T11:35:29Z</time>
      </trkpt>
      <trkpt lat="42.60797" lon="1.98042">
        <ele>2407.76</ele>
        <time>2018-08-08T11:35:43Z</time>
      </trkpt>
      <trkpt lat="42.60796" lon="1.98044">
        <ele>2406.32</ele>
        <time>2018-08-08T11:35:46Z</time>
      </trkpt>
      <trkpt lat="42.60797" lon="1.98043">
        <ele>2405.84</ele>
        <time>2018-08-08T11:36:05Z</time>
      </trkpt>
      <trkpt lat="42.60797" lon="1.98042">
        <ele>2405.84</ele>
        <time>2018-08-08T11:36:34Z</time>
      </trkpt>
      <trkpt lat="42.6079" lon="1.98054">
        <ele>2403.91</ele>
        <time>2018-08-08T11:36:49Z</time>
      </trkpt>
      <trkpt lat="42.60789" lon="1.98055">
        <ele>2403.91</ele>
        <time>2018-08-08T11:36:50Z</time>
      </trkpt>
      <trkpt lat="42.60775" lon="1.98067">
        <ele>2402.47</ele>
        <time>2018-08-08T11:37:08Z</time>
      </trkpt>
      <trkpt lat="42.60761" lon="1.98076">
        <ele>2400.55</ele>
        <time>2018-08-08T11:37:24Z</time>
      </trkpt>
      <trkpt lat="42.60749" lon="1.98081">
        <ele>2398.63</ele>
        <time>2018-08-08T11:37:39Z</time>
      </trkpt>
      <trkpt lat="42.60738" lon="1.98083">
        <ele>2395.26</ele>
        <time>2018-08-08T11:37:53Z</time>
      </trkpt>
      <trkpt lat="42.60725" lon="1.9809">
        <ele>2394.3</ele>
        <time>2018-08-08T11:38:09Z</time>
      </trkpt>
      <trkpt lat="42.60713" lon="1.98104">
        <ele>2391.42</ele>
        <time>2018-08-08T11:38:28Z</time>
      </trkpt>
      <trkpt lat="42.607" lon="1.98105">
        <ele>2389.97</ele>
        <time>2018-08-08T11:38:43Z</time>
      </trkpt>
      <trkpt lat="42.60695" lon="1.98111">
        <ele>2387.09</ele>
        <time>2018-08-08T11:38:57Z</time>
      </trkpt>
      <trkpt lat="42.60691" lon="1.98118">
        <ele>2386.61</ele>
        <time>2018-08-08T11:39:04Z</time>
      </trkpt>
      <trkpt lat="42.60689" lon="1.98119">
        <ele>2386.61</ele>
        <time>2018-08-08T11:39:06Z</time>
      </trkpt>
      <trkpt lat="42.60677" lon="1.98128">
        <ele>2384.69</ele>
        <time>2018-08-08T11:39:22Z</time>
      </trkpt>
      <trkpt lat="42.60673" lon="1.98132">
        <ele>2384.69</ele>
        <time>2018-08-08T11:39:27Z</time>
      </trkpt>
      <trkpt lat="42.60663" lon="1.98145">
        <ele>2384.21</ele>
        <time>2018-08-08T11:39:44Z</time>
      </trkpt>
      <trkpt lat="42.60661" lon="1.98161">
        <ele>2381.8</ele>
        <time>2018-08-08T11:40:00Z</time>
      </trkpt>
      <trkpt lat="42.60651" lon="1.98176">
        <ele>2379.4</ele>
        <time>2018-08-08T11:40:16Z</time>
      </trkpt>
      <trkpt lat="42.60643" lon="1.98185">
        <ele>2377.96</ele>
        <time>2018-08-08T11:40:30Z</time>
      </trkpt>
      <trkpt lat="42.60626" lon="1.9819">
        <ele>2377.96</ele>
        <time>2018-08-08T11:40:48Z</time>
      </trkpt>
      <trkpt lat="42.6061" lon="1.98195">
        <ele>2377.96</ele>
        <time>2018-08-08T11:41:05Z</time>
      </trkpt>
      <trkpt lat="42.60598" lon="1.98204">
        <ele>2377</ele>
        <time>2018-08-08T11:41:21Z</time>
      </trkpt>
      <trkpt lat="42.60587" lon="1.98212">
        <ele>2376.04</ele>
        <time>2018-08-08T11:41:37Z</time>
      </trkpt>
      <trkpt lat="42.60584" lon="1.98214">
        <ele>2375.55</ele>
        <time>2018-08-08T11:41:41Z</time>
      </trkpt>
      <trkpt lat="42.60582" lon="1.98239">
        <ele>2372.19</ele>
        <time>2018-08-08T11:42:01Z</time>
      </trkpt>
      <trkpt lat="42.60582" lon="1.98245">
        <ele>2372.19</ele>
        <time>2018-08-08T11:42:07Z</time>
      </trkpt>
      <trkpt lat="42.60586" lon="1.98266">
        <ele>2370.75</ele>
        <time>2018-08-08T11:42:24Z</time>
      </trkpt>
      <trkpt lat="42.60589" lon="1.98284">
        <ele>2368.35</ele>
        <time>2018-08-08T11:42:41Z</time>
      </trkpt>
      <trkpt lat="42.60583" lon="1.98298">
        <ele>2365.46</ele>
        <time>2018-08-08T11:42:58Z</time>
      </trkpt>
      <trkpt lat="42.60578" lon="1.98314">
        <ele>2364.02</ele>
        <time>2018-08-08T11:43:11Z</time>
      </trkpt>
      <trkpt lat="42.60566" lon="1.98326">
        <ele>2363.06</ele>
        <time>2018-08-08T11:43:28Z</time>
      </trkpt>
      <trkpt lat="42.60562" lon="1.98331">
        <ele>2362.58</ele>
        <time>2018-08-08T11:43:35Z</time>
      </trkpt>
      <trkpt lat="42.60558" lon="1.98341">
        <ele>2360.65</ele>
        <time>2018-08-08T11:43:48Z</time>
      </trkpt>
      <trkpt lat="42.60548" lon="1.9835">
        <ele>2359.21</ele>
        <time>2018-08-08T11:44:03Z</time>
      </trkpt>
      <trkpt lat="42.60548" lon="1.98359">
        <ele>2357.29</ele>
        <time>2018-08-08T11:44:11Z</time>
      </trkpt>
      <trkpt lat="42.60553" lon="1.98378">
        <ele>2355.37</ele>
        <time>2018-08-08T11:44:28Z</time>
      </trkpt>
      <trkpt lat="42.60546" lon="1.98393">
        <ele>2352.48</ele>
        <time>2018-08-08T11:44:44Z</time>
      </trkpt>
      <trkpt lat="42.60538" lon="1.98406">
        <ele>2349.6</ele>
        <time>2018-08-08T11:45:01Z</time>
      </trkpt>
      <trkpt lat="42.60536" lon="1.98411">
        <ele>2349.12</ele>
        <time>2018-08-08T11:45:07Z</time>
      </trkpt>
      <trkpt lat="42.60523" lon="1.98429">
        <ele>2346.23</ele>
        <time>2018-08-08T11:45:26Z</time>
      </trkpt>
      <trkpt lat="42.60514" lon="1.98444">
        <ele>2343.35</ele>
        <time>2018-08-08T11:45:43Z</time>
      </trkpt>
      <trkpt lat="42.60505" lon="1.98461">
        <ele>2341.91</ele>
        <time>2018-08-08T11:45:59Z</time>
      </trkpt>
      <trkpt lat="42.605" lon="1.98477">
        <ele>2339.02</ele>
        <time>2018-08-08T11:46:15Z</time>
      </trkpt>
      <trkpt lat="42.60491" lon="1.98492">
        <ele>2337.1</ele>
        <time>2018-08-08T11:46:33Z</time>
      </trkpt>
      <trkpt lat="42.60477" lon="1.98502">
        <ele>2334.7</ele>
        <time>2018-08-08T11:46:53Z</time>
      </trkpt>
      <trkpt lat="42.60464" lon="1.98513">
        <ele>2332.78</ele>
        <time>2018-08-08T11:47:10Z</time>
      </trkpt>
      <trkpt lat="42.60455" lon="1.98522">
        <ele>2329.89</ele>
        <time>2018-08-08T11:47:27Z</time>
      </trkpt>
      <trkpt lat="42.60447" lon="1.98529">
        <ele>2327.97</ele>
        <time>2018-08-08T11:47:42Z</time>
      </trkpt>
      <trkpt lat="42.60442" lon="1.98534">
        <ele>2327.01</ele>
        <time>2018-08-08T11:47:51Z</time>
      </trkpt>
      <trkpt lat="42.6043" lon="1.98546">
        <ele>2323.16</ele>
        <time>2018-08-08T11:48:09Z</time>
      </trkpt>
      <trkpt lat="42.60419" lon="1.98556">
        <ele>2320.28</ele>
        <time>2018-08-08T11:48:27Z</time>
      </trkpt>
      <trkpt lat="42.60412" lon="1.98568">
        <ele>2316.91</ele>
        <time>2018-08-08T11:48:43Z</time>
      </trkpt>
      <trkpt lat="42.60413" lon="1.98579">
        <ele>2315.47</ele>
        <time>2018-08-08T11:48:57Z</time>
      </trkpt>
      <trkpt lat="42.60408" lon="1.98586">
        <ele>2314.03</ele>
        <time>2018-08-08T11:49:13Z</time>
      </trkpt>
      <trkpt lat="42.6041" lon="1.98586">
        <ele>2312.59</ele>
        <time>2018-08-08T11:49:35Z</time>
      </trkpt>
      <trkpt lat="42.6041" lon="1.98584">
        <ele>2313.07</ele>
        <time>2018-08-08T11:50:11Z</time>
      </trkpt>
      <trkpt lat="42.60408" lon="1.98586">
        <ele>2312.59</ele>
        <time>2018-08-08T11:50:24Z</time>
      </trkpt>
      <trkpt lat="42.60407" lon="1.98584">
        <ele>2312.59</ele>
        <time>2018-08-08T11:50:42Z</time>
      </trkpt>
      <trkpt lat="42.60408" lon="1.98593">
        <ele>2311.63</ele>
        <time>2018-08-08T11:51:08Z</time>
      </trkpt>
      <trkpt lat="42.60399" lon="1.98602">
        <ele>2310.19</ele>
        <time>2018-08-08T11:51:23Z</time>
      </trkpt>
      <trkpt lat="42.60387" lon="1.9861">
        <ele>2308.26</ele>
        <time>2018-08-08T11:51:40Z</time>
      </trkpt>
      <trkpt lat="42.60382" lon="1.98617">
        <ele>2306.82</ele>
        <time>2018-08-08T11:51:54Z</time>
      </trkpt>
      <trkpt lat="42.60372" lon="1.98621">
        <ele>2303.46</ele>
        <time>2018-08-08T11:52:10Z</time>
      </trkpt>
      <trkpt lat="42.60367" lon="1.98628">
        <ele>2301.53</ele>
        <time>2018-08-08T11:52:23Z</time>
      </trkpt>
      <trkpt lat="42.60363" lon="1.98636">
        <ele>2299.61</ele>
        <time>2018-08-08T11:52:33Z</time>
      </trkpt>
      <trkpt lat="42.60355" lon="1.9865">
        <ele>2297.69</ele>
        <time>2018-08-08T11:52:48Z</time>
      </trkpt>
      <trkpt lat="42.60354" lon="1.98653">
        <ele>2297.69</ele>
        <time>2018-08-08T11:52:51Z</time>
      </trkpt>
      <trkpt lat="42.60344" lon="1.98665">
        <ele>2296.25</ele>
        <time>2018-08-08T11:53:07Z</time>
      </trkpt>
      <trkpt lat="42.60338" lon="1.98671">
        <ele>2294.32</ele>
        <time>2018-08-08T11:53:20Z</time>
      </trkpt>
      <trkpt lat="42.60327" lon="1.98676">
        <ele>2293.84</ele>
        <time>2018-08-08T11:53:35Z</time>
      </trkpt>
      <trkpt lat="42.60317" lon="1.98679">
        <ele>2292.4</ele>
        <time>2018-08-08T11:53:49Z</time>
      </trkpt>
      <trkpt lat="42.60313" lon="1.98681">
        <ele>2291.92</ele>
        <time>2018-08-08T11:54:03Z</time>
      </trkpt>
      <trkpt lat="42.60317" lon="1.98682">
        <ele>2291.92</ele>
        <time>2018-08-08T11:54:20Z</time>
      </trkpt>
      <trkpt lat="42.60318" lon="1.98685">
        <ele>2291.92</ele>
        <time>2018-08-08T11:54:34Z</time>
      </trkpt>
      <trkpt lat="42.60316" lon="1.98688">
        <ele>2291.92</ele>
        <time>2018-08-08T11:54:48Z</time>
      </trkpt>
      <trkpt lat="42.60316" lon="1.98691">
        <ele>2293.36</ele>
        <time>2018-08-08T11:54:53Z</time>
      </trkpt>
      <trkpt lat="42.60314" lon="1.98692">
        <ele>2293.84</ele>
        <time>2018-08-08T11:55:08Z</time>
      </trkpt>
      <trkpt lat="42.60312" lon="1.98692">
        <ele>2293.84</ele>
        <time>2018-08-08T11:55:36Z</time>
      </trkpt>
      <trkpt lat="42.60312" lon="1.98694">
        <ele>2294.32</ele>
        <time>2018-08-08T11:56:07Z</time>
      </trkpt>
      <trkpt lat="42.603" lon="1.98704">
        <ele>2294.8</ele>
        <time>2018-08-08T11:56:25Z</time>
      </trkpt>
      <trkpt lat="42.60298" lon="1.98705">
        <ele>2294.8</ele>
        <time>2018-08-08T11:56:27Z</time>
      </trkpt>
      <trkpt lat="42.60296" lon="1.98706">
        <ele>2293.36</ele>
        <time>2018-08-08T11:56:29Z</time>
      </trkpt>
      <trkpt lat="42.60287" lon="1.9871">
        <ele>2292.88</ele>
        <time>2018-08-08T11:56:39Z</time>
      </trkpt>
      <trkpt lat="42.60274" lon="1.98713">
        <ele>2291.92</ele>
        <time>2018-08-08T11:56:55Z</time>
      </trkpt>
      <trkpt lat="42.60269" lon="1.98716">
        <ele>2290.96</ele>
        <time>2018-08-08T11:57:01Z</time>
      </trkpt>
      <trkpt lat="42.60254" lon="1.98721">
        <ele>2290.96</ele>
        <time>2018-08-08T11:57:17Z</time>
      </trkpt>
      <trkpt lat="42.60251" lon="1.98722">
        <ele>2290.96</ele>
        <time>2018-08-08T11:57:20Z</time>
      </trkpt>
      <trkpt lat="42.60239" lon="1.98724">
        <ele>2290.48</ele>
        <time>2018-08-08T11:57:34Z</time>
      </trkpt>
      <trkpt lat="42.60221" lon="1.98732">
        <ele>2290</ele>
        <time>2018-08-08T11:57:51Z</time>
      </trkpt>
      <trkpt lat="42.60205" lon="1.98739">
        <ele>2289.04</ele>
        <time>2018-08-08T11:58:07Z</time>
      </trkpt>
      <trkpt lat="42.60201" lon="1.98741">
        <ele>2288.08</ele>
        <time>2018-08-08T11:58:12Z</time>
      </trkpt>
      <trkpt lat="42.60182" lon="1.98738">
        <ele>2288.08</ele>
        <time>2018-08-08T11:58:31Z</time>
      </trkpt>
      <trkpt lat="42.60169" lon="1.98738">
        <ele>2287.11</ele>
        <time>2018-08-08T11:58:46Z</time>
      </trkpt>
      <trkpt lat="42.60152" lon="1.98741">
        <ele>2286.15</ele>
        <time>2018-08-08T11:59:03Z</time>
      </trkpt>
      <trkpt lat="42.60135" lon="1.98747">
        <ele>2283.27</ele>
        <time>2018-08-08T11:59:22Z</time>
      </trkpt>
      <trkpt lat="42.60116" lon="1.98752">
        <ele>2282.79</ele>
        <time>2018-08-08T11:59:41Z</time>
      </trkpt>
      <trkpt lat="42.60103" lon="1.98757">
        <ele>2282.31</ele>
        <time>2018-08-08T11:59:54Z</time>
      </trkpt>
      <trkpt lat="42.60101" lon="1.98758">
        <ele>2280.87</ele>
        <time>2018-08-08T11:59:56Z</time>
      </trkpt>
      <trkpt lat="42.60084" lon="1.98765">
        <ele>2280.38</ele>
        <time>2018-08-08T12:00:13Z</time>
      </trkpt>
      <trkpt lat="42.60069" lon="1.98772">
        <ele>2280.87</ele>
        <time>2018-08-08T12:00:29Z</time>
      </trkpt>
      <trkpt lat="42.60054" lon="1.98776">
        <ele>2278.94</ele>
        <time>2018-08-08T12:00:44Z</time>
      </trkpt>
      <trkpt lat="42.60048" lon="1.98778">
        <ele>2278.94</ele>
        <time>2018-08-08T12:00:50Z</time>
      </trkpt>
      <trkpt lat="42.6003" lon="1.98777">
        <ele>2277.98</ele>
        <time>2018-08-08T12:01:08Z</time>
      </trkpt>
      <trkpt lat="42.60013" lon="1.98777">
        <ele>2278.94</ele>
        <time>2018-08-08T12:01:25Z</time>
      </trkpt>
      <trkpt lat="42.6" lon="1.98771">
        <ele>2277.98</ele>
        <time>2018-08-08T12:01:39Z</time>
      </trkpt>
      <trkpt lat="42.59981" lon="1.98767">
        <ele>2277.5</ele>
        <time>2018-08-08T12:01:59Z</time>
      </trkpt>
      <trkpt lat="42.5997" lon="1.98773">
        <ele>2277.02</ele>
        <time>2018-08-08T12:02:13Z</time>
      </trkpt>
      <trkpt lat="42.59966" lon="1.98777">
        <ele>2277.02</ele>
        <time>2018-08-08T12:02:20Z</time>
      </trkpt>
      <trkpt lat="42.59954" lon="1.98786">
        <ele>2277.02</ele>
        <time>2018-08-08T12:02:35Z</time>
      </trkpt>
      <trkpt lat="42.59946" lon="1.98793">
        <ele>2277.02</ele>
        <time>2018-08-08T12:02:45Z</time>
      </trkpt>
      <trkpt lat="42.59932" lon="1.98798">
        <ele>2276.54</ele>
        <time>2018-08-08T12:03:01Z</time>
      </trkpt>
      <trkpt lat="42.5992" lon="1.988">
        <ele>2276.54</ele>
        <time>2018-08-08T12:03:16Z</time>
      </trkpt>
      <trkpt lat="42.59918" lon="1.98801">
        <ele>2277.98</ele>
        <time>2018-08-08T12:03:18Z</time>
      </trkpt>
      <trkpt lat="42.59905" lon="1.98806">
        <ele>2277.98</ele>
        <time>2018-08-08T12:03:35Z</time>
      </trkpt>
      <trkpt lat="42.599" lon="1.98813">
        <ele>2274.62</ele>
        <time>2018-08-08T12:03:46Z</time>
      </trkpt>
      <trkpt lat="42.59899" lon="1.98813">
        <ele>2274.62</ele>
        <time>2018-08-08T12:03:47Z</time>
      </trkpt>
      <trkpt lat="42.59898" lon="1.98815">
        <ele>2276.06</ele>
        <time>2018-08-08T12:03:49Z</time>
      </trkpt>
      <trkpt lat="42.59896" lon="1.98816">
        <ele>2277.02</ele>
        <time>2018-08-08T12:03:51Z</time>
      </trkpt>
      <trkpt lat="42.5989" lon="1.98829">
        <ele>2277.5</ele>
        <time>2018-08-08T12:04:04Z</time>
      </trkpt>
      <trkpt lat="42.59878" lon="1.98844">
        <ele>2276.06</ele>
        <time>2018-08-08T12:04:21Z</time>
      </trkpt>
      <trkpt lat="42.59867" lon="1.98856">
        <ele>2277.02</ele>
        <time>2018-08-08T12:04:38Z</time>
      </trkpt>
      <trkpt lat="42.59865" lon="1.98859">
        <ele>2275.58</ele>
        <time>2018-08-08T12:04:41Z</time>
      </trkpt>
      <trkpt lat="42.59852" lon="1.9887">
        <ele>2274.62</ele>
        <time>2018-08-08T12:04:56Z</time>
      </trkpt>
      <trkpt lat="42.59834" lon="1.98875">
        <ele>2274.14</ele>
        <time>2018-08-08T12:05:13Z</time>
      </trkpt>
      <trkpt lat="42.59826" lon="1.98877">
        <ele>2272.69</ele>
        <time>2018-08-08T12:05:21Z</time>
      </trkpt>
      <trkpt lat="42.59811" lon="1.98881">
        <ele>2274.62</ele>
        <time>2018-08-08T12:05:38Z</time>
      </trkpt>
      <trkpt lat="42.598" lon="1.98885">
        <ele>2271.25</ele>
        <time>2018-08-08T12:05:50Z</time>
      </trkpt>
      <trkpt lat="42.59781" lon="1.98888">
        <ele>2267.89</ele>
        <time>2018-08-08T12:06:08Z</time>
      </trkpt>
      <trkpt lat="42.59764" lon="1.98887">
        <ele>2267.41</ele>
        <time>2018-08-08T12:06:26Z</time>
      </trkpt>
      <trkpt lat="42.59748" lon="1.98886">
        <ele>2266.93</ele>
        <time>2018-08-08T12:06:42Z</time>
      </trkpt>
      <trkpt lat="42.59742" lon="1.98885">
        <ele>2268.37</ele>
        <time>2018-08-08T12:06:49Z</time>
      </trkpt>
      <trkpt lat="42.59728" lon="1.98879">
        <ele>2269.33</ele>
        <time>2018-08-08T12:07:06Z</time>
      </trkpt>
      <trkpt lat="42.59716" lon="1.98876">
        <ele>2270.77</ele>
        <time>2018-08-08T12:07:23Z</time>
      </trkpt>
      <trkpt lat="42.59704" lon="1.98879">
        <ele>2272.21</ele>
        <time>2018-08-08T12:07:42Z</time>
      </trkpt>
      <trkpt lat="42.597" lon="1.9888">
        <ele>2270.29</ele>
        <time>2018-08-08T12:07:46Z</time>
      </trkpt>
      <trkpt lat="42.59684" lon="1.98891">
        <ele>2268.85</ele>
        <time>2018-08-08T12:08:06Z</time>
      </trkpt>
      <trkpt lat="42.59679" lon="1.98898">
        <ele>2270.29</ele>
        <time>2018-08-08T12:08:16Z</time>
      </trkpt>
      <trkpt lat="42.59675" lon="1.98901">
        <ele>2268.85</ele>
        <time>2018-08-08T12:08:24Z</time>
      </trkpt>
      <trkpt lat="42.59666" lon="1.989">
        <ele>2267.89</ele>
        <time>2018-08-08T12:08:35Z</time>
      </trkpt>
      <trkpt lat="42.59657" lon="1.98898">
        <ele>2265.96</ele>
        <time>2018-08-08T12:08:50Z</time>
      </trkpt>
      <trkpt lat="42.59647" lon="1.98896">
        <ele>2264.52</ele>
        <time>2018-08-08T12:09:01Z</time>
      </trkpt>
      <trkpt lat="42.59634" lon="1.98903">
        <ele>2263.56</ele>
        <time>2018-08-08T12:09:15Z</time>
      </trkpt>
      <trkpt lat="42.59628" lon="1.98906">
        <ele>2262.12</ele>
        <time>2018-08-08T12:09:21Z</time>
      </trkpt>
      <trkpt lat="42.59625" lon="1.98907">
        <ele>2261.16</ele>
        <time>2018-08-08T12:09:24Z</time>
      </trkpt>
      <trkpt lat="42.59618" lon="1.98915">
        <ele>2262.6</ele>
        <time>2018-08-08T12:09:34Z</time>
      </trkpt>
      <trkpt lat="42.59612" lon="1.98918">
        <ele>2259.24</ele>
        <time>2018-08-08T12:09:41Z</time>
      </trkpt>
      <trkpt lat="42.59611" lon="1.98918">
        <ele>2259.24</ele>
        <time>2018-08-08T12:09:42Z</time>
      </trkpt>
      <trkpt lat="42.59607" lon="1.9892">
        <ele>2258.27</ele>
        <time>2018-08-08T12:09:46Z</time>
      </trkpt>
      <trkpt lat="42.59593" lon="1.98927">
        <ele>2258.75</ele>
        <time>2018-08-08T12:10:00Z</time>
      </trkpt>
      <trkpt lat="42.59575" lon="1.98932">
        <ele>2260.2</ele>
        <time>2018-08-08T12:10:19Z</time>
      </trkpt>
      <trkpt lat="42.59567" lon="1.98942">
        <ele>2257.79</ele>
        <time>2018-08-08T12:10:32Z</time>
      </trkpt>
      <trkpt lat="42.59566" lon="1.98946">
        <ele>2259.24</ele>
        <time>2018-08-08T12:10:35Z</time>
      </trkpt>
      <trkpt lat="42.59565" lon="1.98949">
        <ele>2256.83</ele>
        <time>2018-08-08T12:10:38Z</time>
      </trkpt>
      <trkpt lat="42.59563" lon="1.98955">
        <ele>2255.39</ele>
        <time>2018-08-08T12:10:43Z</time>
      </trkpt>
      <trkpt lat="42.59555" lon="1.98973">
        <ele>2255.39</ele>
        <time>2018-08-08T12:10:59Z</time>
      </trkpt>
      <trkpt lat="42.59543" lon="1.98987">
        <ele>2255.39</ele>
        <time>2018-08-08T12:11:15Z</time>
      </trkpt>
      <trkpt lat="42.59539" lon="1.98991">
        <ele>2256.83</ele>
        <time>2018-08-08T12:11:21Z</time>
      </trkpt>
      <trkpt lat="42.59529" lon="1.98995">
        <ele>2257.31</ele>
        <time>2018-08-08T12:11:31Z</time>
      </trkpt>
      <trkpt lat="42.59516" lon="1.98998">
        <ele>2257.31</ele>
        <time>2018-08-08T12:11:45Z</time>
      </trkpt>
      <trkpt lat="42.595" lon="1.98999">
        <ele>2257.79</ele>
        <time>2018-08-08T12:12:02Z</time>
      </trkpt>
      <trkpt lat="42.59485" lon="1.99002">
        <ele>2257.79</ele>
        <time>2018-08-08T12:12:17Z</time>
      </trkpt>
      <trkpt lat="42.59469" lon="1.99009">
        <ele>2257.31</ele>
        <time>2018-08-08T12:12:34Z</time>
      </trkpt>
      <trkpt lat="42.59459" lon="1.99012">
        <ele>2257.31</ele>
        <time>2018-08-08T12:12:44Z</time>
      </trkpt>
      <trkpt lat="42.59444" lon="1.99019">
        <ele>2256.35</ele>
        <time>2018-08-08T12:13:01Z</time>
      </trkpt>
      <trkpt lat="42.59437" lon="1.99022">
        <ele>2257.79</ele>
        <time>2018-08-08T12:13:10Z</time>
      </trkpt>
      <trkpt lat="42.59435" lon="1.99023">
        <ele>2259.24</ele>
        <time>2018-08-08T12:13:13Z</time>
      </trkpt>
      <trkpt lat="42.59428" lon="1.99028">
        <ele>2258.27</ele>
        <time>2018-08-08T12:13:21Z</time>
      </trkpt>
      <trkpt lat="42.59413" lon="1.99039">
        <ele>2257.79</ele>
        <time>2018-08-08T12:13:38Z</time>
      </trkpt>
      <trkpt lat="42.59405" lon="1.99055">
        <ele>2255.87</ele>
        <time>2018-08-08T12:13:53Z</time>
      </trkpt>
      <trkpt lat="42.59402" lon="1.99061">
        <ele>2253.95</ele>
        <time>2018-08-08T12:13:59Z</time>
      </trkpt>
      <trkpt lat="42.594" lon="1.99064">
        <ele>2253.95</ele>
        <time>2018-08-08T12:14:02Z</time>
      </trkpt>
      <trkpt lat="42.59396" lon="1.99071">
        <ele>2254.91</ele>
        <time>2018-08-08T12:14:08Z</time>
      </trkpt>
      <trkpt lat="42.59379" lon="1.99083">
        <ele>2256.35</ele>
        <time>2018-08-08T12:14:27Z</time>
      </trkpt>
      <trkpt lat="42.59375" lon="1.99086">
        <ele>2254.43</ele>
        <time>2018-08-08T12:14:31Z</time>
      </trkpt>
      <trkpt lat="42.5937" lon="1.99088">
        <ele>2254.43</ele>
        <time>2018-08-08T12:14:36Z</time>
      </trkpt>
      <trkpt lat="42.59364" lon="1.99092">
        <ele>2256.35</ele>
        <time>2018-08-08T12:14:43Z</time>
      </trkpt>
      <trkpt lat="42.59352" lon="1.99103">
        <ele>2256.83</ele>
        <time>2018-08-08T12:14:58Z</time>
      </trkpt>
      <trkpt lat="42.59343" lon="1.99109">
        <ele>2254.43</ele>
        <time>2018-08-08T12:15:13Z</time>
      </trkpt>
      <trkpt lat="42.59336" lon="1.99111">
        <ele>2252.51</ele>
        <time>2018-08-08T12:15:21Z</time>
      </trkpt>
      <trkpt lat="42.59334" lon="1.99112">
        <ele>2253.95</ele>
        <time>2018-08-08T12:15:23Z</time>
      </trkpt>
      <trkpt lat="42.59327" lon="1.99114">
        <ele>2250.58</ele>
        <time>2018-08-08T12:15:35Z</time>
      </trkpt>
      <trkpt lat="42.59326" lon="1.99114">
        <ele>2249.14</ele>
        <time>2018-08-08T12:15:38Z</time>
      </trkpt>
      <trkpt lat="42.59327" lon="1.99118">
        <ele>2250.58</ele>
        <time>2018-08-08T12:15:54Z</time>
      </trkpt>
      <trkpt lat="42.59323" lon="1.9912">
        <ele>2251.06</ele>
        <time>2018-08-08T12:16:05Z</time>
      </trkpt>
      <trkpt lat="42.59322" lon="1.9912">
        <ele>2247.7</ele>
        <time>2018-08-08T12:16:07Z</time>
      </trkpt>
      <trkpt lat="42.59311" lon="1.99121">
        <ele>2247.22</ele>
        <time>2018-08-08T12:16:23Z</time>
      </trkpt>
      <trkpt lat="42.59309" lon="1.99125">
        <ele>2245.3</ele>
        <time>2018-08-08T12:16:29Z</time>
      </trkpt>
      <trkpt lat="42.59307" lon="1.99127">
        <ele>2247.7</ele>
        <time>2018-08-08T12:16:34Z</time>
      </trkpt>
      <trkpt lat="42.59305" lon="1.99127">
        <ele>2245.3</ele>
        <time>2018-08-08T12:16:37Z</time>
      </trkpt>
      <trkpt lat="42.59302" lon="1.99128">
        <ele>2243.85</ele>
        <time>2018-08-08T12:16:42Z</time>
      </trkpt>
      <trkpt lat="42.59295" lon="1.99129">
        <ele>2242.41</ele>
        <time>2018-08-08T12:16:53Z</time>
      </trkpt>
      <trkpt lat="42.59292" lon="1.99131">
        <ele>2240.49</ele>
        <time>2018-08-08T12:16:58Z</time>
      </trkpt>
      <trkpt lat="42.59285" lon="1.99143">
        <ele>2238.57</ele>
        <time>2018-08-08T12:17:12Z</time>
      </trkpt>
      <trkpt lat="42.5928" lon="1.99151">
        <ele>2238.57</ele>
        <time>2018-08-08T12:17:21Z</time>
      </trkpt>
      <trkpt lat="42.59267" lon="1.9916">
        <ele>2236.64</ele>
        <time>2018-08-08T12:17:40Z</time>
      </trkpt>
      <trkpt lat="42.59263" lon="1.99163">
        <ele>2234.72</ele>
        <time>2018-08-08T12:17:55Z</time>
      </trkpt>
      <trkpt lat="42.59257" lon="1.9916">
        <ele>2232.8</ele>
        <time>2018-08-08T12:18:09Z</time>
      </trkpt>
      <trkpt lat="42.59253" lon="1.9916">
        <ele>2229.43</ele>
        <time>2018-08-08T12:18:15Z</time>
      </trkpt>
      <trkpt lat="42.59242" lon="1.99163">
        <ele>2228.47</ele>
        <time>2018-08-08T12:18:32Z</time>
      </trkpt>
      <trkpt lat="42.59234" lon="1.99163">
        <ele>2226.55</ele>
        <time>2018-08-08T12:18:47Z</time>
      </trkpt>
      <trkpt lat="42.59232" lon="1.99164">
        <ele>2226.55</ele>
        <time>2018-08-08T12:19:05Z</time>
      </trkpt>
      <trkpt lat="42.59231" lon="1.99165">
        <ele>2226.07</ele>
        <time>2018-08-08T12:19:29Z</time>
      </trkpt>
      <trkpt lat="42.5923" lon="1.99163">
        <ele>2225.59</ele>
        <time>2018-08-08T12:19:46Z</time>
      </trkpt>
      <trkpt lat="42.5923" lon="1.99162">
        <ele>2225.11</ele>
        <time>2018-08-08T12:20:05Z</time>
      </trkpt>
      <trkpt lat="42.5923" lon="1.99164">
        <ele>2226.07</ele>
        <time>2018-08-08T12:20:43Z</time>
      </trkpt>
      <trkpt lat="42.59228" lon="1.99165">
        <ele>2226.07</ele>
        <time>2018-08-08T12:21:24Z</time>
      </trkpt>
      <trkpt lat="42.59228" lon="1.99162">
        <ele>2225.59</ele>
        <time>2018-08-08T12:22:03Z</time>
      </trkpt>
      <trkpt lat="42.59227" lon="1.99162">
        <ele>2224.63</ele>
        <time>2018-08-08T12:22:20Z</time>
      </trkpt>
      <trkpt lat="42.59227" lon="1.9916">
        <ele>2224.15</ele>
        <time>2018-08-08T12:22:52Z</time>
      </trkpt>
      <trkpt lat="42.59228" lon="1.99161">
        <ele>2225.59</ele>
        <time>2018-08-08T12:22:54Z</time>
      </trkpt>
      <trkpt lat="42.59228" lon="1.99162">
        <ele>2225.59</ele>
        <time>2018-08-08T12:23:04Z</time>
      </trkpt>
      <trkpt lat="42.59229" lon="1.99162">
        <ele>2226.07</ele>
        <time>2018-08-08T12:23:14Z</time>
      </trkpt>
      <trkpt lat="42.59223" lon="1.9916">
        <ele>2223.67</ele>
        <time>2018-08-08T12:23:32Z</time>
      </trkpt>
      <trkpt lat="42.59214" lon="1.99158">
        <ele>2222.22</ele>
        <time>2018-08-08T12:23:48Z</time>
      </trkpt>
      <trkpt lat="42.59204" lon="1.99156">
        <ele>2219.82</ele>
        <time>2018-08-08T12:24:02Z</time>
      </trkpt>
      <trkpt lat="42.59192" lon="1.99159">
        <ele>2216.94</ele>
        <time>2018-08-08T12:24:17Z</time>
      </trkpt>
      <trkpt lat="42.59191" lon="1.99159">
        <ele>2218.86</ele>
        <time>2018-08-08T12:24:19Z</time>
      </trkpt>
      <trkpt lat="42.59179" lon="1.9916">
        <ele>2216.94</ele>
        <time>2018-08-08T12:24:32Z</time>
      </trkpt>
      <trkpt lat="42.59168" lon="1.99163">
        <ele>2215.98</ele>
        <time>2018-08-08T12:24:49Z</time>
      </trkpt>
      <trkpt lat="42.59156" lon="1.99161">
        <ele>2214.53</ele>
        <time>2018-08-08T12:25:05Z</time>
      </trkpt>
      <trkpt lat="42.59145" lon="1.99161">
        <ele>2213.57</ele>
        <time>2018-08-08T12:25:20Z</time>
      </trkpt>
      <trkpt lat="42.59131" lon="1.99159">
        <ele>2213.09</ele>
        <time>2018-08-08T12:25:36Z</time>
      </trkpt>
      <trkpt lat="42.59121" lon="1.99161">
        <ele>2212.61</ele>
        <time>2018-08-08T12:25:51Z</time>
      </trkpt>
      <trkpt lat="42.59112" lon="1.99164">
        <ele>2214.05</ele>
        <time>2018-08-08T12:26:06Z</time>
      </trkpt>
      <trkpt lat="42.59103" lon="1.99168">
        <ele>2213.09</ele>
        <time>2018-08-08T12:26:18Z</time>
      </trkpt>
      <trkpt lat="42.59095" lon="1.9917">
        <ele>2213.57</ele>
        <time>2018-08-08T12:26:26Z</time>
      </trkpt>
      <trkpt lat="42.59076" lon="1.99173">
        <ele>2212.13</ele>
        <time>2018-08-08T12:26:44Z</time>
      </trkpt>
      <trkpt lat="42.59065" lon="1.99173">
        <ele>2210.69</ele>
        <time>2018-08-08T12:26:54Z</time>
      </trkpt>
      <trkpt lat="42.59053" lon="1.99178">
        <ele>2207.81</ele>
        <time>2018-08-08T12:27:09Z</time>
      </trkpt>
      <trkpt lat="42.59043" lon="1.99186">
        <ele>2206.36</ele>
        <time>2018-08-08T12:27:24Z</time>
      </trkpt>
      <trkpt lat="42.59041" lon="1.99188">
        <ele>2205.4</ele>
        <time>2018-08-08T12:27:26Z</time>
      </trkpt>
      <trkpt lat="42.5903" lon="1.99192">
        <ele>2203.96</ele>
        <time>2018-08-08T12:27:41Z</time>
      </trkpt>
      <trkpt lat="42.59029" lon="1.99192">
        <ele>2203.96</ele>
        <time>2018-08-08T12:27:42Z</time>
      </trkpt>
      <trkpt lat="42.59023" lon="1.99193">
        <ele>2201.08</ele>
        <time>2018-08-08T12:27:48Z</time>
      </trkpt>
      <trkpt lat="42.5901" lon="1.992">
        <ele>2197.71</ele>
        <time>2018-08-08T12:28:04Z</time>
      </trkpt>
      <trkpt lat="42.58999" lon="1.99206">
        <ele>2195.79</ele>
        <time>2018-08-08T12:28:19Z</time>
      </trkpt>
      <trkpt lat="42.58987" lon="1.99219">
        <ele>2193.39</ele>
        <time>2018-08-08T12:28:36Z</time>
      </trkpt>
      <trkpt lat="42.58977" lon="1.9923">
        <ele>2192.42</ele>
        <time>2018-08-08T12:28:52Z</time>
      </trkpt>
      <trkpt lat="42.58966" lon="1.99244">
        <ele>2191.94</ele>
        <time>2018-08-08T12:29:08Z</time>
      </trkpt>
      <trkpt lat="42.58957" lon="1.99257">
        <ele>2192.9</ele>
        <time>2018-08-08T12:29:23Z</time>
      </trkpt>
      <trkpt lat="42.58952" lon="1.99272">
        <ele>2192.9</ele>
        <time>2018-08-08T12:29:39Z</time>
      </trkpt>
      <trkpt lat="42.58946" lon="1.99285">
        <ele>2192.9</ele>
        <time>2018-08-08T12:29:54Z</time>
      </trkpt>
      <trkpt lat="42.58943" lon="1.99296">
        <ele>2192.9</ele>
        <time>2018-08-08T12:30:02Z</time>
      </trkpt>
      <trkpt lat="42.58941" lon="1.99304">
        <ele>2193.39</ele>
        <time>2018-08-08T12:30:08Z</time>
      </trkpt>
      <trkpt lat="42.58936" lon="1.99325">
        <ele>2193.87</ele>
        <time>2018-08-08T12:30:24Z</time>
      </trkpt>
      <trkpt lat="42.58932" lon="1.99345">
        <ele>2194.35</ele>
        <time>2018-08-08T12:30:40Z</time>
      </trkpt>
      <trkpt lat="42.58926" lon="1.99367">
        <ele>2193.87</ele>
        <time>2018-08-08T12:30:58Z</time>
      </trkpt>
      <trkpt lat="42.58924" lon="1.99387">
        <ele>2192.9</ele>
        <time>2018-08-08T12:31:16Z</time>
      </trkpt>
      <trkpt lat="42.58922" lon="1.99399">
        <ele>2190.98</ele>
        <time>2018-08-08T12:31:31Z</time>
      </trkpt>
      <trkpt lat="42.58914" lon="1.99414">
        <ele>2188.58</ele>
        <time>2018-08-08T12:31:49Z</time>
      </trkpt>
      <trkpt lat="42.58913" lon="1.99417">
        <ele>2187.14</ele>
        <time>2018-08-08T12:32:03Z</time>
      </trkpt>
      <trkpt lat="42.58911" lon="1.99415">
        <ele>2187.14</ele>
        <time>2018-08-08T12:32:31Z</time>
      </trkpt>
      <trkpt lat="42.58905" lon="1.99427">
        <ele>2185.21</ele>
        <time>2018-08-08T12:32:48Z</time>
      </trkpt>
      <trkpt lat="42.58893" lon="1.99438">
        <ele>2182.33</ele>
        <time>2018-08-08T12:33:08Z</time>
      </trkpt>
      <trkpt lat="42.58887" lon="1.99444">
        <ele>2181.85</ele>
        <time>2018-08-08T12:33:17Z</time>
      </trkpt>
      <trkpt lat="42.58871" lon="1.99452">
        <ele>2180.41</ele>
        <time>2018-08-08T12:33:36Z</time>
      </trkpt>
      <trkpt lat="42.58855" lon="1.99458">
        <ele>2178.97</ele>
        <time>2018-08-08T12:33:56Z</time>
      </trkpt>
      <trkpt lat="42.58843" lon="1.99467">
        <ele>2175.6</ele>
        <time>2018-08-08T12:34:11Z</time>
      </trkpt>
      <trkpt lat="42.5883" lon="1.99477">
        <ele>2176.56</ele>
        <time>2018-08-08T12:34:27Z</time>
      </trkpt>
      <trkpt lat="42.58826" lon="1.99478">
        <ele>2175.12</ele>
        <time>2018-08-08T12:34:33Z</time>
      </trkpt>
      <trkpt lat="42.58816" lon="1.99478">
        <ele>2171.76</ele>
        <time>2018-08-08T12:34:44Z</time>
      </trkpt>
      <trkpt lat="42.58815" lon="1.99478">
        <ele>2171.76</ele>
        <time>2018-08-08T12:34:45Z</time>
      </trkpt>
      <trkpt lat="42.58802" lon="1.99475">
        <ele>2171.27</ele>
        <time>2018-08-08T12:35:02Z</time>
      </trkpt>
      <trkpt lat="42.58797" lon="1.99474">
        <ele>2170.31</ele>
        <time>2018-08-08T12:35:08Z</time>
      </trkpt>
      <trkpt lat="42.58785" lon="1.99468">
        <ele>2167.91</ele>
        <time>2018-08-08T12:35:26Z</time>
      </trkpt>
      <trkpt lat="42.58776" lon="1.99472">
        <ele>2165.51</ele>
        <time>2018-08-08T12:35:41Z</time>
      </trkpt>
      <trkpt lat="42.58767" lon="1.99479">
        <ele>2162.62</ele>
        <time>2018-08-08T12:35:59Z</time>
      </trkpt>
      <trkpt lat="42.58765" lon="1.9948">
        <ele>2161.18</ele>
        <time>2018-08-08T12:36:03Z</time>
      </trkpt>
      <trkpt lat="42.58761" lon="1.99483">
        <ele>2162.62</ele>
        <time>2018-08-08T12:36:09Z</time>
      </trkpt>
      <trkpt lat="42.58758" lon="1.99486">
        <ele>2160.7</ele>
        <time>2018-08-08T12:36:14Z</time>
      </trkpt>
      <trkpt lat="42.58751" lon="1.9949">
        <ele>2160.7</ele>
        <time>2018-08-08T12:36:28Z</time>
      </trkpt>
      <trkpt lat="42.5875" lon="1.99492">
        <ele>2157.82</ele>
        <time>2018-08-08T12:36:31Z</time>
      </trkpt>
      <trkpt lat="42.58742" lon="1.995">
        <ele>2156.37</ele>
        <time>2018-08-08T12:36:48Z</time>
      </trkpt>
      <trkpt lat="42.58737" lon="1.99507">
        <ele>2154.93</ele>
        <time>2018-08-08T12:37:04Z</time>
      </trkpt>
      <trkpt lat="42.5873" lon="1.9951">
        <ele>2153.01</ele>
        <time>2018-08-08T12:37:20Z</time>
      </trkpt>
      <trkpt lat="42.58722" lon="1.99513">
        <ele>2150.13</ele>
        <time>2018-08-08T12:37:32Z</time>
      </trkpt>
      <trkpt lat="42.58714" lon="1.9952">
        <ele>2148.68</ele>
        <time>2018-08-08T12:37:46Z</time>
      </trkpt>
      <trkpt lat="42.58712" lon="1.99522">
        <ele>2146.76</ele>
        <time>2018-08-08T12:37:49Z</time>
      </trkpt>
      <trkpt lat="42.58705" lon="1.9952">
        <ele>2143.88</ele>
        <time>2018-08-08T12:38:00Z</time>
      </trkpt>
      <trkpt lat="42.58692" lon="1.9953">
        <ele>2141.47</ele>
        <time>2018-08-08T12:38:19Z</time>
      </trkpt>
      <trkpt lat="42.58679" lon="1.99541">
        <ele>2138.59</ele>
        <time>2018-08-08T12:38:37Z</time>
      </trkpt>
      <trkpt lat="42.58668" lon="1.99556">
        <ele>2138.11</ele>
        <time>2018-08-08T12:38:54Z</time>
      </trkpt>
      <trkpt lat="42.58658" lon="1.99569">
        <ele>2136.67</ele>
        <time>2018-08-08T12:39:11Z</time>
      </trkpt>
      <trkpt lat="42.58647" lon="1.9958">
        <ele>2135.23</ele>
        <time>2018-08-08T12:39:28Z</time>
      </trkpt>
      <trkpt lat="42.58639" lon="1.99593">
        <ele>2133.78</ele>
        <time>2018-08-08T12:39:44Z</time>
      </trkpt>
      <trkpt lat="42.58631" lon="1.99606">
        <ele>2130.9</ele>
        <time>2018-08-08T12:39:59Z</time>
      </trkpt>
      <trkpt lat="42.58626" lon="1.99614">
        <ele>2129.94</ele>
        <time>2018-08-08T12:40:08Z</time>
      </trkpt>
      <trkpt lat="42.58617" lon="1.99633">
        <ele>2128.02</ele>
        <time>2018-08-08T12:40:27Z</time>
      </trkpt>
      <trkpt lat="42.58614" lon="1.99636">
        <ele>2127.53</ele>
        <time>2018-08-08T12:40:31Z</time>
      </trkpt>
      <trkpt lat="42.58608" lon="1.99654">
        <ele>2127.53</ele>
        <time>2018-08-08T12:40:49Z</time>
      </trkpt>
      <trkpt lat="42.58606" lon="1.99671">
        <ele>2126.57</ele>
        <time>2018-08-08T12:41:06Z</time>
      </trkpt>
      <trkpt lat="42.58601" lon="1.99688">
        <ele>2124.65</ele>
        <time>2018-08-08T12:41:23Z</time>
      </trkpt>
      <trkpt lat="42.58594" lon="1.99696">
        <ele>2123.21</ele>
        <time>2018-08-08T12:41:38Z</time>
      </trkpt>
      <trkpt lat="42.58589" lon="1.99704">
        <ele>2121.29</ele>
        <time>2018-08-08T12:41:53Z</time>
      </trkpt>
      <trkpt lat="42.58584" lon="1.99711">
        <ele>2119.36</ele>
        <time>2018-08-08T12:42:12Z</time>
      </trkpt>
      <trkpt lat="42.58577" lon="1.9972">
        <ele>2117.92</ele>
        <time>2018-08-08T12:42:28Z</time>
      </trkpt>
      <trkpt lat="42.58575" lon="1.99721">
        <ele>2116</ele>
        <time>2018-08-08T12:42:31Z</time>
      </trkpt>
      <trkpt lat="42.58572" lon="1.99726">
        <ele>2113.6</ele>
        <time>2018-08-08T12:42:38Z</time>
      </trkpt>
      <trkpt lat="42.58571" lon="1.99729">
        <ele>2115.04</ele>
        <time>2018-08-08T12:42:41Z</time>
      </trkpt>
      <trkpt lat="42.5857" lon="1.9973">
        <ele>2114.08</ele>
        <time>2018-08-08T12:42:43Z</time>
      </trkpt>
      <trkpt lat="42.58562" lon="1.99737">
        <ele>2110.71</ele>
        <time>2018-08-08T12:42:57Z</time>
      </trkpt>
      <trkpt lat="42.58552" lon="1.99747">
        <ele>2108.31</ele>
        <time>2018-08-08T12:43:16Z</time>
      </trkpt>
      <trkpt lat="42.5854" lon="1.99761">
        <ele>2105.91</ele>
        <time>2018-08-08T12:43:36Z</time>
      </trkpt>
      <trkpt lat="42.58531" lon="1.99778">
        <ele>2103.02</ele>
        <time>2018-08-08T12:43:55Z</time>
      </trkpt>
      <trkpt lat="42.58523" lon="1.99791">
        <ele>2100.14</ele>
        <time>2018-08-08T12:44:12Z</time>
      </trkpt>
      <trkpt lat="42.58519" lon="1.99799">
        <ele>2098.21</ele>
        <time>2018-08-08T12:44:26Z</time>
      </trkpt>
      <trkpt lat="42.58514" lon="1.9981">
        <ele>2095.81</ele>
        <time>2018-08-08T12:44:44Z</time>
      </trkpt>
      <trkpt lat="42.58507" lon="1.99817">
        <ele>2092.93</ele>
        <time>2018-08-08T12:45:01Z</time>
      </trkpt>
      <trkpt lat="42.58499" lon="1.99823">
        <ele>2089.56</ele>
        <time>2018-08-08T12:45:17Z</time>
      </trkpt>
      <trkpt lat="42.58498" lon="1.99823">
        <ele>2089.08</ele>
        <time>2018-08-08T12:45:19Z</time>
      </trkpt>
      <trkpt lat="42.58486" lon="1.99828">
        <ele>2085.24</ele>
        <time>2018-08-08T12:45:38Z</time>
      </trkpt>
      <trkpt lat="42.58486" lon="1.99828">
        <ele>2085.24</ele>
        <time>2018-08-08T12:45:39Z</time>
      </trkpt>
      <trkpt lat="42.58472" lon="1.99837">
        <ele>2082.83</ele>
        <time>2018-08-08T12:45:58Z</time>
      </trkpt>
      <trkpt lat="42.58459" lon="1.99841">
        <ele>2081.87</ele>
        <time>2018-08-08T12:46:17Z</time>
      </trkpt>
      <trkpt lat="42.58457" lon="1.99842">
        <ele>2080.43</ele>
        <time>2018-08-08T12:46:20Z</time>
      </trkpt>
      <trkpt lat="42.58451" lon="1.99842">
        <ele>2078.03</ele>
        <time>2018-08-08T12:46:28Z</time>
      </trkpt>
      <trkpt lat="42.58449" lon="1.9984">
        <ele>2076.59</ele>
        <time>2018-08-08T12:46:31Z</time>
      </trkpt>
      <trkpt lat="42.58446" lon="1.99841">
        <ele>2074.18</ele>
        <time>2018-08-08T12:46:35Z</time>
      </trkpt>
      <trkpt lat="42.58434" lon="1.99848">
        <ele>2072.74</ele>
        <time>2018-08-08T12:46:53Z</time>
      </trkpt>
      <trkpt lat="42.58425" lon="1.99857">
        <ele>2070.82</ele>
        <time>2018-08-08T12:47:10Z</time>
      </trkpt>
      <trkpt lat="42.58417" lon="1.9986">
        <ele>2069.38</ele>
        <time>2018-08-08T12:47:27Z</time>
      </trkpt>
      <trkpt lat="42.58413" lon="1.99863">
        <ele>2068.41</ele>
        <time>2018-08-08T12:47:35Z</time>
      </trkpt>
      <trkpt lat="42.58401" lon="1.99866">
        <ele>2067.45</ele>
        <time>2018-08-08T12:47:52Z</time>
      </trkpt>
      <trkpt lat="42.58393" lon="1.99867">
        <ele>2065.05</ele>
        <time>2018-08-08T12:48:08Z</time>
      </trkpt>
      <trkpt lat="42.58386" lon="1.99872">
        <ele>2062.17</ele>
        <time>2018-08-08T12:48:22Z</time>
      </trkpt>
      <trkpt lat="42.58373" lon="1.99876">
        <ele>2058.8</ele>
        <time>2018-08-08T12:48:38Z</time>
      </trkpt>
      <trkpt lat="42.5836" lon="1.99879">
        <ele>2058.32</ele>
        <time>2018-08-08T12:48:55Z</time>
      </trkpt>
      <trkpt lat="42.5835" lon="1.99881">
        <ele>2056.4</ele>
        <time>2018-08-08T12:49:11Z</time>
      </trkpt>
      <trkpt lat="42.58337" lon="1.99884">
        <ele>2053.03</ele>
        <time>2018-08-08T12:49:29Z</time>
      </trkpt>
      <trkpt lat="42.58332" lon="1.99884">
        <ele>2053.03</ele>
        <time>2018-08-08T12:49:35Z</time>
      </trkpt>
      <trkpt lat="42.58319" lon="1.99887">
        <ele>2051.11</ele>
        <time>2018-08-08T12:49:54Z</time>
      </trkpt>
      <trkpt lat="42.58305" lon="1.99897">
        <ele>2048.71</ele>
        <time>2018-08-08T12:50:13Z</time>
      </trkpt>
      <trkpt lat="42.58289" lon="1.99904">
        <ele>2046.3</ele>
        <time>2018-08-08T12:50:34Z</time>
      </trkpt>
      <trkpt lat="42.58275" lon="1.99907">
        <ele>2044.38</ele>
        <time>2018-08-08T12:50:52Z</time>
      </trkpt>
      <trkpt lat="42.58261" lon="1.99914">
        <ele>2041.5</ele>
        <time>2018-08-08T12:51:10Z</time>
      </trkpt>
      <trkpt lat="42.58245" lon="1.9992">
        <ele>2041.02</ele>
        <time>2018-08-08T12:51:29Z</time>
      </trkpt>
      <trkpt lat="42.58232" lon="1.99922">
        <ele>2038.13</ele>
        <time>2018-08-08T12:51:47Z</time>
      </trkpt>
      <trkpt lat="42.58219" lon="1.99926">
        <ele>2036.69</ele>
        <time>2018-08-08T12:52:05Z</time>
      </trkpt>
      <trkpt lat="42.58205" lon="1.99923">
        <ele>2034.77</ele>
        <time>2018-08-08T12:52:23Z</time>
      </trkpt>
      <trkpt lat="42.58197" lon="1.99921">
        <ele>2033.81</ele>
        <time>2018-08-08T12:52:40Z</time>
      </trkpt>
      <trkpt lat="42.5819" lon="1.99911">
        <ele>2033.33</ele>
        <time>2018-08-08T12:52:56Z</time>
      </trkpt>
      <trkpt lat="42.58189" lon="1.99901">
        <ele>2034.29</ele>
        <time>2018-08-08T12:53:08Z</time>
      </trkpt>
      <trkpt lat="42.58195" lon="1.99894">
        <ele>2035.25</ele>
        <time>2018-08-08T12:53:29Z</time>
      </trkpt>
      <trkpt lat="42.582" lon="1.99882">
        <ele>2036.21</ele>
        <time>2018-08-08T12:53:43Z</time>
      </trkpt>
      <trkpt lat="42.58201" lon="1.99878">
        <ele>2036.21</ele>
        <time>2018-08-08T12:53:47Z</time>
      </trkpt>
      <trkpt lat="42.5821" lon="1.99858">
        <ele>2037.17</ele>
        <time>2018-08-08T12:54:03Z</time>
      </trkpt>
      <trkpt lat="42.58213" lon="1.99846">
        <ele>2038.13</ele>
        <time>2018-08-08T12:54:20Z</time>
      </trkpt>
      <trkpt lat="42.58215" lon="1.99838">
        <ele>2039.09</ele>
        <time>2018-08-08T12:54:33Z</time>
      </trkpt>
      <trkpt lat="42.58219" lon="1.99826">
        <ele>2039.09</ele>
        <time>2018-08-08T12:54:50Z</time>
      </trkpt>
      <trkpt lat="42.58219" lon="1.99817">
        <ele>2039.57</ele>
        <time>2018-08-08T12:55:03Z</time>
      </trkpt>
      <trkpt lat="42.58215" lon="1.99809">
        <ele>2039.57</ele>
        <time>2018-08-08T12:55:19Z</time>
      </trkpt>
      <trkpt lat="42.58213" lon="1.99801">
        <ele>2041.98</ele>
        <time>2018-08-08T12:55:33Z</time>
      </trkpt>
      <trkpt lat="42.58209" lon="1.99796">
        <ele>2042.94</ele>
        <time>2018-08-08T12:55:46Z</time>
      </trkpt>
      <trkpt lat="42.58209" lon="1.99783">
        <ele>2044.38</ele>
        <time>2018-08-08T12:56:00Z</time>
      </trkpt>
      <trkpt lat="42.58208" lon="1.99763">
        <ele>2044.38</ele>
        <time>2018-08-08T12:56:16Z</time>
      </trkpt>
      <trkpt lat="42.58211" lon="1.99747">
        <ele>2044.38</ele>
        <time>2018-08-08T12:56:31Z</time>
      </trkpt>
      <trkpt lat="42.58217" lon="1.99736">
        <ele>2044.38</ele>
        <time>2018-08-08T12:56:44Z</time>
      </trkpt>
      <trkpt lat="42.5822" lon="1.99723">
        <ele>2044.38</ele>
        <time>2018-08-08T12:56:59Z</time>
      </trkpt>
      <trkpt lat="42.58217" lon="1.99708">
        <ele>2045.82</ele>
        <time>2018-08-08T12:57:13Z</time>
      </trkpt>
      <trkpt lat="42.58218" lon="1.99691">
        <ele>2045.82</ele>
        <time>2018-08-08T12:57:29Z</time>
      </trkpt>
      <trkpt lat="42.58214" lon="1.99679">
        <ele>2045.82</ele>
        <time>2018-08-08T12:57:44Z</time>
      </trkpt>
      <trkpt lat="42.58212" lon="1.99672">
        <ele>2046.78</ele>
        <time>2018-08-08T12:57:58Z</time>
      </trkpt>
      <trkpt lat="42.58204" lon="1.99658">
        <ele>2046.78</ele>
        <time>2018-08-08T12:58:12Z</time>
      </trkpt>
      <trkpt lat="42.58195" lon="1.99645">
        <ele>2046.78</ele>
        <time>2018-08-08T12:58:27Z</time>
      </trkpt>
      <trkpt lat="42.5819" lon="1.99622">
        <ele>2045.34</ele>
        <time>2018-08-08T12:58:44Z</time>
      </trkpt>
      <trkpt lat="42.58187" lon="1.99613">
        <ele>2045.34</ele>
        <time>2018-08-08T12:58:51Z</time>
      </trkpt>
      <trkpt lat="42.58179" lon="1.99596">
        <ele>2044.86</ele>
        <time>2018-08-08T12:59:09Z</time>
      </trkpt>
      <trkpt lat="42.58175" lon="1.99578">
        <ele>2046.3</ele>
        <time>2018-08-08T12:59:23Z</time>
      </trkpt>
      <trkpt lat="42.58171" lon="1.99571">
        <ele>2046.3</ele>
        <time>2018-08-08T12:59:30Z</time>
      </trkpt>
      <trkpt lat="42.58164" lon="1.99558">
        <ele>2046.78</ele>
        <time>2018-08-08T12:59:46Z</time>
      </trkpt>
      <trkpt lat="42.58164" lon="1.99543">
        <ele>2047.75</ele>
        <time>2018-08-08T13:00:00Z</time>
      </trkpt>
      <trkpt lat="42.58158" lon="1.99541">
        <ele>2048.71</ele>
        <time>2018-08-08T13:00:15Z</time>
      </trkpt>
      <trkpt lat="42.58148" lon="1.99533">
        <ele>2047.26</ele>
        <time>2018-08-08T13:00:30Z</time>
      </trkpt>
      <trkpt lat="42.58136" lon="1.99525">
        <ele>2046.78</ele>
        <time>2018-08-08T13:00:46Z</time>
      </trkpt>
      <trkpt lat="42.58122" lon="1.99523">
        <ele>2047.75</ele>
        <time>2018-08-08T13:01:02Z</time>
      </trkpt>
      <trkpt lat="42.58109" lon="1.99526">
        <ele>2046.3</ele>
        <time>2018-08-08T13:01:19Z</time>
      </trkpt>
      <trkpt lat="42.58108" lon="1.99526">
        <ele>2046.3</ele>
        <time>2018-08-08T13:01:20Z</time>
      </trkpt>
      <trkpt lat="42.581" lon="1.99529">
        <ele>2045.82</ele>
        <time>2018-08-08T13:01:35Z</time>
      </trkpt>
      <trkpt lat="42.58097" lon="1.99541">
        <ele>2043.9</ele>
        <time>2018-08-08T13:01:50Z</time>
      </trkpt>
      <trkpt lat="42.58096" lon="1.99542">
        <ele>2045.34</ele>
        <time>2018-08-08T13:01:54Z</time>
      </trkpt>
      <trkpt lat="42.5809" lon="1.99546">
        <ele>2043.9</ele>
        <time>2018-08-08T13:02:12Z</time>
      </trkpt>
      <trkpt lat="42.58085" lon="1.99551">
        <ele>2041.98</ele>
        <time>2018-08-08T13:02:29Z</time>
      </trkpt>
      <trkpt lat="42.58074" lon="1.99557">
        <ele>2040.54</ele>
        <time>2018-08-08T13:02:48Z</time>
      </trkpt>
      <trkpt lat="42.5807" lon="1.99557">
        <ele>2041.98</ele>
        <time>2018-08-08T13:02:58Z</time>
      </trkpt>
      <trkpt lat="42.58061" lon="1.99554">
        <ele>2043.42</ele>
        <time>2018-08-08T13:03:15Z</time>
      </trkpt>
      <trkpt lat="42.58052" lon="1.99556">
        <ele>2044.86</ele>
        <time>2018-08-08T13:03:32Z</time>
      </trkpt>
      <trkpt lat="42.58043" lon="1.99557">
        <ele>2046.78</ele>
        <time>2018-08-08T13:03:47Z</time>
      </trkpt>
      <trkpt lat="42.58029" lon="1.99561">
        <ele>2046.78</ele>
        <time>2018-08-08T13:04:03Z</time>
      </trkpt>
      <trkpt lat="42.58021" lon="1.99556">
        <ele>2047.75</ele>
        <time>2018-08-08T13:04:18Z</time>
      </trkpt>
      <trkpt lat="42.58014" lon="1.99552">
        <ele>2045.34</ele>
        <time>2018-08-08T13:04:33Z</time>
      </trkpt>
      <trkpt lat="42.58004" lon="1.99548">
        <ele>2045.82</ele>
        <time>2018-08-08T13:04:46Z</time>
      </trkpt>
      <trkpt lat="42.58001" lon="1.99547">
        <ele>2043.42</ele>
        <time>2018-08-08T13:04:49Z</time>
      </trkpt>
      <trkpt lat="42.57992" lon="1.99541">
        <ele>2041.5</ele>
        <time>2018-08-08T13:05:00Z</time>
      </trkpt>
      <trkpt lat="42.57983" lon="1.99536">
        <ele>2042.46</ele>
        <time>2018-08-08T13:05:09Z</time>
      </trkpt>
      <trkpt lat="42.57979" lon="1.99535">
        <ele>2041.5</ele>
        <time>2018-08-08T13:05:13Z</time>
      </trkpt>
      <trkpt lat="42.57963" lon="1.99523">
        <ele>2041.5</ele>
        <time>2018-08-08T13:05:31Z</time>
      </trkpt>
      <trkpt lat="42.57958" lon="1.99518">
        <ele>2041.5</ele>
        <time>2018-08-08T13:05:39Z</time>
      </trkpt>
      <trkpt lat="42.57948" lon="1.99512">
        <ele>2043.42</ele>
        <time>2018-08-08T13:05:51Z</time>
      </trkpt>
      <trkpt lat="42.57936" lon="1.99511">
        <ele>2041.98</ele>
        <time>2018-08-08T13:06:08Z</time>
      </trkpt>
      <trkpt lat="42.5793" lon="1.99507">
        <ele>2041.5</ele>
        <time>2018-08-08T13:06:22Z</time>
      </trkpt>
      <trkpt lat="42.57926" lon="1.99497">
        <ele>2038.61</ele>
        <time>2018-08-08T13:06:38Z</time>
      </trkpt>
      <trkpt lat="42.57923" lon="1.99487">
        <ele>2036.21</ele>
        <time>2018-08-08T13:06:55Z</time>
      </trkpt>
      <trkpt lat="42.57914" lon="1.99472">
        <ele>2033.81</ele>
        <time>2018-08-08T13:07:12Z</time>
      </trkpt>
      <trkpt lat="42.57896" lon="1.99458">
        <ele>2031.88</ele>
        <time>2018-08-08T13:07:32Z</time>
      </trkpt>
      <trkpt lat="42.57882" lon="1.9945">
        <ele>2031.88</ele>
        <time>2018-08-08T13:07:50Z</time>
      </trkpt>
      <trkpt lat="42.57883" lon="1.99453">
        <ele>2031.88</ele>
        <time>2018-08-08T13:08:11Z</time>
      </trkpt>
      <trkpt lat="42.57884" lon="1.99453">
        <ele>2031.88</ele>
        <time>2018-08-08T13:08:46Z</time>
      </trkpt>
      <trkpt lat="42.57882" lon="1.99448">
        <ele>2031.4</ele>
        <time>2018-08-08T13:09:21Z</time>
      </trkpt>
      <trkpt lat="42.57882" lon="1.99452">
        <ele>2031.88</ele>
        <time>2018-08-08T13:09:45Z</time>
      </trkpt>
      <trkpt lat="42.57881" lon="1.99451">
        <ele>2031.4</ele>
        <time>2018-08-08T13:09:52Z</time>
      </trkpt>
      <trkpt lat="42.5787" lon="1.99438">
        <ele>2031.4</ele>
        <time>2018-08-08T13:10:08Z</time>
      </trkpt>
      <trkpt lat="42.5786" lon="1.99425">
        <ele>2030.44</ele>
        <time>2018-08-08T13:10:25Z</time>
      </trkpt>
      <trkpt lat="42.57853" lon="1.9941">
        <ele>2030.44</ele>
        <time>2018-08-08T13:10:42Z</time>
      </trkpt>
      <trkpt lat="42.57852" lon="1.99406">
        <ele>2030.44</ele>
        <time>2018-08-08T13:11:02Z</time>
      </trkpt>
      <trkpt lat="42.57852" lon="1.99404">
        <ele>2030.44</ele>
        <time>2018-08-08T13:11:40Z</time>
      </trkpt>
      <trkpt lat="42.57841" lon="1.99404">
        <ele>2029</ele>
        <time>2018-08-08T13:11:58Z</time>
      </trkpt>
      <trkpt lat="42.57831" lon="1.99403">
        <ele>2025.64</ele>
        <time>2018-08-08T13:12:15Z</time>
      </trkpt>
      <trkpt lat="42.57816" lon="1.99399">
        <ele>2025.64</ele>
        <time>2018-08-08T13:12:30Z</time>
      </trkpt>
      <trkpt lat="42.57799" lon="1.99393">
        <ele>2025.64</ele>
        <time>2018-08-08T13:12:46Z</time>
      </trkpt>
      <trkpt lat="42.57782" lon="1.99387">
        <ele>2025.15</ele>
        <time>2018-08-08T13:13:04Z</time>
      </trkpt>
      <trkpt lat="42.57771" lon="1.99384">
        <ele>2024.19</ele>
        <time>2018-08-08T13:13:16Z</time>
      </trkpt>
      <trkpt lat="42.57755" lon="1.99384">
        <ele>2023.23</ele>
        <time>2018-08-08T13:13:33Z</time>
      </trkpt>
      <trkpt lat="42.57746" lon="1.99385">
        <ele>2021.79</ele>
        <time>2018-08-08T13:13:42Z</time>
      </trkpt>
      <trkpt lat="42.57732" lon="1.99386">
        <ele>2022.27</ele>
        <time>2018-08-08T13:13:55Z</time>
      </trkpt>
      <trkpt lat="42.57716" lon="1.99389">
        <ele>2022.27</ele>
        <time>2018-08-08T13:14:10Z</time>
      </trkpt>
      <trkpt lat="42.57697" lon="1.99393">
        <ele>2022.27</ele>
        <time>2018-08-08T13:14:29Z</time>
      </trkpt>
      <trkpt lat="42.57692" lon="1.99393">
        <ele>2022.27</ele>
        <time>2018-08-08T13:14:33Z</time>
      </trkpt>
      <trkpt lat="42.57687" lon="1.9939">
        <ele>2022.27</ele>
        <time>2018-08-08T13:14:38Z</time>
      </trkpt>
      <trkpt lat="42.57681" lon="1.99393">
        <ele>2022.27</ele>
        <time>2018-08-08T13:14:44Z</time>
      </trkpt>
      <trkpt lat="42.57669" lon="1.99408">
        <ele>2023.23</ele>
        <time>2018-08-08T13:15:03Z</time>
      </trkpt>
      <trkpt lat="42.57657" lon="1.99414">
        <ele>2024.19</ele>
        <time>2018-08-08T13:15:20Z</time>
      </trkpt>
      <trkpt lat="42.57654" lon="1.99415">
        <ele>2022.27</ele>
        <time>2018-08-08T13:15:25Z</time>
      </trkpt>
      <trkpt lat="42.57652" lon="1.99415">
        <ele>2023.71</ele>
        <time>2018-08-08T13:15:27Z</time>
      </trkpt>
      <trkpt lat="42.57639" lon="1.9941">
        <ele>2020.83</ele>
        <time>2018-08-08T13:15:43Z</time>
      </trkpt>
      <trkpt lat="42.57638" lon="1.99409">
        <ele>2020.35</ele>
        <time>2018-08-08T13:15:44Z</time>
      </trkpt>
      <trkpt lat="42.5763" lon="1.99404">
        <ele>2020.35</ele>
        <time>2018-08-08T13:15:54Z</time>
      </trkpt>
      <trkpt lat="42.57616" lon="1.99408">
        <ele>2020.83</ele>
        <time>2018-08-08T13:16:12Z</time>
      </trkpt>
      <trkpt lat="42.57607" lon="1.99409">
        <ele>2021.31</ele>
        <time>2018-08-08T13:16:25Z</time>
      </trkpt>
      <trkpt lat="42.57591" lon="1.99406">
        <ele>2021.31</ele>
        <time>2018-08-08T13:16:41Z</time>
      </trkpt>
      <trkpt lat="42.57582" lon="1.994">
        <ele>2022.27</ele>
        <time>2018-08-08T13:16:55Z</time>
      </trkpt>
      <trkpt lat="42.57571" lon="1.99399">
        <ele>2022.27</ele>
        <time>2018-08-08T13:17:10Z</time>
      </trkpt>
      <trkpt lat="42.5756" lon="1.99393">
        <ele>2022.75</ele>
        <time>2018-08-08T13:17:24Z</time>
      </trkpt>
      <trkpt lat="42.5754" lon="1.99382">
        <ele>2022.75</ele>
        <time>2018-08-08T13:17:43Z</time>
      </trkpt>
      <trkpt lat="42.57529" lon="1.99373">
        <ele>2022.75</ele>
        <time>2018-08-08T13:18:00Z</time>
      </trkpt>
      <trkpt lat="42.57516" lon="1.99371">
        <ele>2021.31</ele>
        <time>2018-08-08T13:18:16Z</time>
      </trkpt>
      <trkpt lat="42.57504" lon="1.99363">
        <ele>2021.31</ele>
        <time>2018-08-08T13:18:33Z</time>
      </trkpt>
      <trkpt lat="42.57489" lon="1.9936">
        <ele>2021.31</ele>
        <time>2018-08-08T13:18:50Z</time>
      </trkpt>
      <trkpt lat="42.5748" lon="1.99355">
        <ele>2022.75</ele>
        <time>2018-08-08T13:19:01Z</time>
      </trkpt>
      <trkpt lat="42.5747" lon="1.99349">
        <ele>2021.31</ele>
        <time>2018-08-08T13:19:13Z</time>
      </trkpt>
      <trkpt lat="42.57468" lon="1.99348">
        <ele>2022.27</ele>
        <time>2018-08-08T13:19:17Z</time>
      </trkpt>
      <trkpt lat="42.57454" lon="1.99333">
        <ele>2023.71</ele>
        <time>2018-08-08T13:19:37Z</time>
      </trkpt>
      <trkpt lat="42.57445" lon="1.99321">
        <ele>2025.15</ele>
        <time>2018-08-08T13:19:55Z</time>
      </trkpt>
      <trkpt lat="42.57444" lon="1.99321">
        <ele>2023.71</ele>
        <time>2018-08-08T13:19:58Z</time>
      </trkpt>
      <trkpt lat="42.57435" lon="1.99318">
        <ele>2023.71</ele>
        <time>2018-08-08T13:20:14Z</time>
      </trkpt>
      <trkpt lat="42.57428" lon="1.99313">
        <ele>2025.64</ele>
        <time>2018-08-08T13:20:33Z</time>
      </trkpt>
      <trkpt lat="42.57421" lon="1.99302">
        <ele>2026.6</ele>
        <time>2018-08-08T13:20:53Z</time>
      </trkpt>
      <trkpt lat="42.57406" lon="1.99295">
        <ele>2028.52</ele>
        <time>2018-08-08T13:21:15Z</time>
      </trkpt>
      <trkpt lat="42.57391" lon="1.99289">
        <ele>2028.52</ele>
        <time>2018-08-08T13:21:33Z</time>
      </trkpt>
      <trkpt lat="42.57373" lon="1.99286">
        <ele>2028.04</ele>
        <time>2018-08-08T13:21:53Z</time>
      </trkpt>
      <trkpt lat="42.57356" lon="1.99284">
        <ele>2029.48</ele>
        <time>2018-08-08T13:22:10Z</time>
      </trkpt>
      <trkpt lat="42.57346" lon="1.99278">
        <ele>2031.4</ele>
        <time>2018-08-08T13:22:31Z</time>
      </trkpt>
      <trkpt lat="42.57336" lon="1.99271">
        <ele>2032.36</ele>
        <time>2018-08-08T13:22:50Z</time>
      </trkpt>
      <trkpt lat="42.57325" lon="1.99268">
        <ele>2030.92</ele>
        <time>2018-08-08T13:23:06Z</time>
      </trkpt>
      <trkpt lat="42.57311" lon="1.99267">
        <ele>2030.92</ele>
        <time>2018-08-08T13:23:23Z</time>
      </trkpt>
      <trkpt lat="42.57296" lon="1.9927">
        <ele>2030.92</ele>
        <time>2018-08-08T13:23:40Z</time>
      </trkpt>
      <trkpt lat="42.5729" lon="1.99271">
        <ele>2032.36</ele>
        <time>2018-08-08T13:23:48Z</time>
      </trkpt>
      <trkpt lat="42.57281" lon="1.99273">
        <ele>2032.84</ele>
        <time>2018-08-08T13:24:05Z</time>
      </trkpt>
      <trkpt lat="42.57273" lon="1.99276">
        <ele>2032.84</ele>
        <time>2018-08-08T13:24:22Z</time>
      </trkpt>
      <trkpt lat="42.57272" lon="1.9928">
        <ele>2032.36</ele>
        <time>2018-08-08T13:24:45Z</time>
      </trkpt>
      <trkpt lat="42.57272" lon="1.99279">
        <ele>2031.4</ele>
        <time>2018-08-08T13:25:05Z</time>
      </trkpt>
      <trkpt lat="42.57267" lon="1.99279">
        <ele>2032.84</ele>
        <time>2018-08-08T13:25:29Z</time>
      </trkpt>
      <trkpt lat="42.57262" lon="1.99279">
        <ele>2033.81</ele>
        <time>2018-08-08T13:25:53Z</time>
      </trkpt>
      <trkpt lat="42.57251" lon="1.99287">
        <ele>2033.81</ele>
        <time>2018-08-08T13:26:15Z</time>
      </trkpt>
      <trkpt lat="42.57242" lon="1.99299">
        <ele>2033.81</ele>
        <time>2018-08-08T13:26:31Z</time>
      </trkpt>
      <trkpt lat="42.57236" lon="1.99312">
        <ele>2032.36</ele>
        <time>2018-08-08T13:26:46Z</time>
      </trkpt>
      <trkpt lat="42.57228" lon="1.9932">
        <ele>2031.4</ele>
        <time>2018-08-08T13:27:06Z</time>
      </trkpt>
      <trkpt lat="42.57224" lon="1.9933">
        <ele>2029.48</ele>
        <time>2018-08-08T13:27:21Z</time>
      </trkpt>
      <trkpt lat="42.57212" lon="1.99329">
        <ele>2027.56</ele>
        <time>2018-08-08T13:27:37Z</time>
      </trkpt>
      <trkpt lat="42.57205" lon="1.99327">
        <ele>2028.52</ele>
        <time>2018-08-08T13:27:47Z</time>
      </trkpt>
      <trkpt lat="42.57195" lon="1.99318">
        <ele>2029.96</ele>
        <time>2018-08-08T13:28:04Z</time>
      </trkpt>
      <trkpt lat="42.5719" lon="1.99305">
        <ele>2030.92</ele>
        <time>2018-08-08T13:28:21Z</time>
      </trkpt>
      <trkpt lat="42.57181" lon="1.99293">
        <ele>2029.96</ele>
        <time>2018-08-08T13:28:40Z</time>
      </trkpt>
      <trkpt lat="42.5717" lon="1.99282">
        <ele>2029</ele>
        <time>2018-08-08T13:28:59Z</time>
      </trkpt>
      <trkpt lat="42.5716" lon="1.99273">
        <ele>2027.08</ele>
        <time>2018-08-08T13:29:15Z</time>
      </trkpt>
      <trkpt lat="42.57145" lon="1.99264">
        <ele>2025.64</ele>
        <time>2018-08-08T13:29:31Z</time>
      </trkpt>
      <trkpt lat="42.57133" lon="1.99258">
        <ele>2023.71</ele>
        <time>2018-08-08T13:29:49Z</time>
      </trkpt>
      <trkpt lat="42.57123" lon="1.99248">
        <ele>2022.27</ele>
        <time>2018-08-08T13:30:07Z</time>
      </trkpt>
      <trkpt lat="42.57108" lon="1.9925">
        <ele>2019.87</ele>
        <time>2018-08-08T13:30:23Z</time>
      </trkpt>
      <trkpt lat="42.57097" lon="1.99256">
        <ele>2018.91</ele>
        <time>2018-08-08T13:30:42Z</time>
      </trkpt>
      <trkpt lat="42.57091" lon="1.9926">
        <ele>2018.91</ele>
        <time>2018-08-08T13:30:51Z</time>
      </trkpt>
      <trkpt lat="42.57078" lon="1.99268">
        <ele>2017.46</ele>
        <time>2018-08-08T13:31:07Z</time>
      </trkpt>
      <trkpt lat="42.57064" lon="1.99278">
        <ele>2017.46</ele>
        <time>2018-08-08T13:31:22Z</time>
      </trkpt>
      <trkpt lat="42.57053" lon="1.99289">
        <ele>2017.46</ele>
        <time>2018-08-08T13:31:37Z</time>
      </trkpt>
      <trkpt lat="42.5704" lon="1.99298">
        <ele>2018.43</ele>
        <time>2018-08-08T13:31:52Z</time>
      </trkpt>
      <trkpt lat="42.57029" lon="1.99316">
        <ele>2018.43</ele>
        <time>2018-08-08T13:32:08Z</time>
      </trkpt>
      <trkpt lat="42.57018" lon="1.9933">
        <ele>2018.43</ele>
        <time>2018-08-08T13:32:24Z</time>
      </trkpt>
      <trkpt lat="42.57004" lon="1.99341">
        <ele>2019.39</ele>
        <time>2018-08-08T13:32:42Z</time>
      </trkpt>
      <trkpt lat="42.56989" lon="1.99351">
        <ele>2020.35</ele>
        <time>2018-08-08T13:32:58Z</time>
      </trkpt>
      <trkpt lat="42.56977" lon="1.99361">
        <ele>2021.31</ele>
        <time>2018-08-08T13:33:14Z</time>
      </trkpt>
      <trkpt lat="42.5697" lon="1.99375">
        <ele>2023.23</ele>
        <time>2018-08-08T13:33:32Z</time>
      </trkpt>
      <trkpt lat="42.56964" lon="1.99382">
        <ele>2023.23</ele>
        <time>2018-08-08T13:33:47Z</time>
      </trkpt>
      <trkpt lat="42.56954" lon="1.99394">
        <ele>2020.35</ele>
        <time>2018-08-08T13:34:05Z</time>
      </trkpt>
      <trkpt lat="42.56938" lon="1.99401">
        <ele>2017.94</ele>
        <time>2018-08-08T13:34:25Z</time>
      </trkpt>
      <trkpt lat="42.56925" lon="1.99403">
        <ele>2017.46</ele>
        <time>2018-08-08T13:34:43Z</time>
      </trkpt>
      <trkpt lat="42.56914" lon="1.99411">
        <ele>2018.91</ele>
        <time>2018-08-08T13:34:58Z</time>
      </trkpt>
      <trkpt lat="42.56903" lon="1.9942">
        <ele>2021.79</ele>
        <time>2018-08-08T13:35:16Z</time>
      </trkpt>
      <trkpt lat="42.56894" lon="1.99427">
        <ele>2023.71</ele>
        <time>2018-08-08T13:35:33Z</time>
      </trkpt>
      <trkpt lat="42.56884" lon="1.99435">
        <ele>2023.71</ele>
        <time>2018-08-08T13:35:48Z</time>
      </trkpt>
      <trkpt lat="42.56882" lon="1.99439">
        <ele>2023.71</ele>
        <time>2018-08-08T13:36:09Z</time>
      </trkpt>
      <trkpt lat="42.56881" lon="1.9944">
        <ele>2023.71</ele>
        <time>2018-08-08T13:36:37Z</time>
      </trkpt>
      <trkpt lat="42.56877" lon="1.99442">
        <ele>2023.71</ele>
        <time>2018-08-08T13:37:05Z</time>
      </trkpt>
      <trkpt lat="42.56873" lon="1.99446">
        <ele>2023.71</ele>
        <time>2018-08-08T13:37:27Z</time>
      </trkpt>
      <trkpt lat="42.56871" lon="1.99449">
        <ele>2022.75</ele>
        <time>2018-08-08T13:38:00Z</time>
      </trkpt>
      <trkpt lat="42.56871" lon="1.99449">
        <ele>2022.75</ele>
        <time>2018-08-08T13:38:34Z</time>
      </trkpt>
      <trkpt lat="42.56876" lon="1.99453">
        <ele>2022.75</ele>
        <time>2018-08-08T13:39:01Z</time>
      </trkpt>
      <trkpt lat="42.56877" lon="1.99452">
        <ele>2022.75</ele>
        <time>2018-08-08T13:39:28Z</time>
      </trkpt>
      <trkpt lat="42.56865" lon="1.99447">
        <ele>2024.19</ele>
        <time>2018-08-08T13:39:46Z</time>
      </trkpt>
      <trkpt lat="42.56853" lon="1.99453">
        <ele>2022.27</ele>
        <time>2018-08-08T13:40:05Z</time>
      </trkpt>
      <trkpt lat="42.5684" lon="1.99447">
        <ele>2021.31</ele>
        <time>2018-08-08T13:40:20Z</time>
      </trkpt>
      <trkpt lat="42.56826" lon="1.99441">
        <ele>2019.87</ele>
        <time>2018-08-08T13:40:38Z</time>
      </trkpt>
      <trkpt lat="42.56818" lon="1.99435">
        <ele>2016.98</ele>
        <time>2018-08-08T13:40:57Z</time>
      </trkpt>
      <trkpt lat="42.56808" lon="1.99432">
        <ele>2016.98</ele>
        <time>2018-08-08T13:41:13Z</time>
      </trkpt>
      <trkpt lat="42.56789" lon="1.99429">
        <ele>2016.98</ele>
        <time>2018-08-08T13:41:33Z</time>
      </trkpt>
      <trkpt lat="42.56766" lon="1.99426">
        <ele>2016.5</ele>
        <time>2018-08-08T13:41:50Z</time>
      </trkpt>
      <trkpt lat="42.5675" lon="1.9944">
        <ele>2016.02</ele>
        <time>2018-08-08T13:42:09Z</time>
      </trkpt>
      <trkpt lat="42.56742" lon="1.99456">
        <ele>2016.02</ele>
        <time>2018-08-08T13:42:27Z</time>
      </trkpt>
      <trkpt lat="42.5673" lon="1.9947">
        <ele>2016.98</ele>
        <time>2018-08-08T13:42:47Z</time>
      </trkpt>
      <trkpt lat="42.56729" lon="1.9947">
        <ele>2016.98</ele>
        <time>2018-08-08T13:42:48Z</time>
      </trkpt>
      <trkpt lat="42.56717" lon="1.99475">
        <ele>2016.5</ele>
        <time>2018-08-08T13:43:05Z</time>
      </trkpt>
      <trkpt lat="42.56708" lon="1.9947">
        <ele>2015.54</ele>
        <time>2018-08-08T13:43:20Z</time>
      </trkpt>
      <trkpt lat="42.567" lon="1.99462">
        <ele>2016.98</ele>
        <time>2018-08-08T13:43:40Z</time>
      </trkpt>
      <trkpt lat="42.56687" lon="1.99466">
        <ele>2016.98</ele>
        <time>2018-08-08T13:43:56Z</time>
      </trkpt>
      <trkpt lat="42.56674" lon="1.99477">
        <ele>2018.43</ele>
        <time>2018-08-08T13:44:15Z</time>
      </trkpt>
      <trkpt lat="42.56666" lon="1.99488">
        <ele>2018.43</ele>
        <time>2018-08-08T13:44:30Z</time>
      </trkpt>
      <trkpt lat="42.56662" lon="1.99497">
        <ele>2016.98</ele>
        <time>2018-08-08T13:44:38Z</time>
      </trkpt>
      <trkpt lat="42.56658" lon="1.99513">
        <ele>2016.02</ele>
        <time>2018-08-08T13:44:54Z</time>
      </trkpt>
      <trkpt lat="42.56656" lon="1.99523">
        <ele>2014.58</ele>
        <time>2018-08-08T13:45:05Z</time>
      </trkpt>
      <trkpt lat="42.56645" lon="1.99539">
        <ele>2014.58</ele>
        <time>2018-08-08T13:45:24Z</time>
      </trkpt>
      <trkpt lat="42.56642" lon="1.99543">
        <ele>2016.02</ele>
        <time>2018-08-08T13:45:29Z</time>
      </trkpt>
      <trkpt lat="42.56631" lon="1.99547">
        <ele>2017.46</ele>
        <time>2018-08-08T13:45:48Z</time>
      </trkpt>
      <trkpt lat="42.56613" lon="1.99553">
        <ele>2017.46</ele>
        <time>2018-08-08T13:46:07Z</time>
      </trkpt>
      <trkpt lat="42.56599" lon="1.99554">
        <ele>2017.94</ele>
        <time>2018-08-08T13:46:21Z</time>
      </trkpt>
      <trkpt lat="42.5658" lon="1.99556">
        <ele>2017.94</ele>
        <time>2018-08-08T13:46:40Z</time>
      </trkpt>
      <trkpt lat="42.56565" lon="1.99561">
        <ele>2015.54</ele>
        <time>2018-08-08T13:46:57Z</time>
      </trkpt>
      <trkpt lat="42.56555" lon="1.99565">
        <ele>2014.1</ele>
        <time>2018-08-08T13:47:14Z</time>
      </trkpt>
      <trkpt lat="42.56553" lon="1.99566">
        <ele>2012.66</ele>
        <time>2018-08-08T13:47:17Z</time>
      </trkpt>
      <trkpt lat="42.56551" lon="1.99566">
        <ele>2014.1</ele>
        <time>2018-08-08T13:47:21Z</time>
      </trkpt>
      <trkpt lat="42.56536" lon="1.99559">
        <ele>2013.14</ele>
        <time>2018-08-08T13:47:37Z</time>
      </trkpt>
      <trkpt lat="42.56523" lon="1.99554">
        <ele>2013.14</ele>
        <time>2018-08-08T13:47:51Z</time>
      </trkpt>
      <trkpt lat="42.56515" lon="1.99558">
        <ele>2014.1</ele>
        <time>2018-08-08T13:48:02Z</time>
      </trkpt>
      <trkpt lat="42.56503" lon="1.9956">
        <ele>2016.98</ele>
        <time>2018-08-08T13:48:22Z</time>
      </trkpt>
      <trkpt lat="42.56489" lon="1.99559">
        <ele>2017.94</ele>
        <time>2018-08-08T13:48:37Z</time>
      </trkpt>
      <trkpt lat="42.56478" lon="1.99558">
        <ele>2017.94</ele>
        <time>2018-08-08T13:48:54Z</time>
      </trkpt>
      <trkpt lat="42.56467" lon="1.99554">
        <ele>2016.02</ele>
        <time>2018-08-08T13:49:09Z</time>
      </trkpt>
      <trkpt lat="42.56454" lon="1.99542">
        <ele>2015.54</ele>
        <time>2018-08-08T13:49:25Z</time>
      </trkpt>
      <trkpt lat="42.5645" lon="1.99539">
        <ele>2016.98</ele>
        <time>2018-08-08T13:49:31Z</time>
      </trkpt>
      <trkpt lat="42.5644" lon="1.99531">
        <ele>2019.39</ele>
        <time>2018-08-08T13:49:50Z</time>
      </trkpt>
      <trkpt lat="42.56429" lon="1.9953">
        <ele>2021.79</ele>
        <time>2018-08-08T13:50:07Z</time>
      </trkpt>
      <trkpt lat="42.56421" lon="1.99537">
        <ele>2024.19</ele>
        <time>2018-08-08T13:50:26Z</time>
      </trkpt>
      <trkpt lat="42.56415" lon="1.99548">
        <ele>2027.08</ele>
        <time>2018-08-08T13:50:48Z</time>
      </trkpt>
      <trkpt lat="42.56409" lon="1.99558">
        <ele>2028.04</ele>
        <time>2018-08-08T13:51:04Z</time>
      </trkpt>
      <trkpt lat="42.56403" lon="1.9957">
        <ele>2027.08</ele>
        <time>2018-08-08T13:51:22Z</time>
      </trkpt>
      <trkpt lat="42.56399" lon="1.99577">
        <ele>2027.08</ele>
        <time>2018-08-08T13:51:50Z</time>
      </trkpt>
      <trkpt lat="42.56398" lon="1.99573">
        <ele>2027.08</ele>
        <time>2018-08-08T13:52:28Z</time>
      </trkpt>
      <trkpt lat="42.56405" lon="1.99573">
        <ele>2027.08</ele>
        <time>2018-08-08T13:53:02Z</time>
      </trkpt>
      <trkpt lat="42.56405" lon="1.99577">
        <ele>2027.08</ele>
        <time>2018-08-08T13:53:37Z</time>
      </trkpt>
      <trkpt lat="42.56405" lon="1.99582">
        <ele>2028.52</ele>
        <time>2018-08-08T13:53:45Z</time>
      </trkpt>
      <trkpt lat="42.564" lon="1.99582">
        <ele>2029</ele>
        <time>2018-08-08T13:54:13Z</time>
      </trkpt>
      <trkpt lat="42.56399" lon="1.99586">
        <ele>2027.56</ele>
        <time>2018-08-08T13:54:19Z</time>
      </trkpt>
      <trkpt lat="42.5639" lon="1.99598">
        <ele>2026.6</ele>
        <time>2018-08-08T13:54:37Z</time>
      </trkpt>
      <trkpt lat="42.56382" lon="1.99607">
        <ele>2024.67</ele>
        <time>2018-08-08T13:54:52Z</time>
      </trkpt>
      <trkpt lat="42.56375" lon="1.99615">
        <ele>2023.23</ele>
        <time>2018-08-08T13:55:06Z</time>
      </trkpt>
      <trkpt lat="42.56367" lon="1.99627">
        <ele>2020.83</ele>
        <time>2018-08-08T13:55:25Z</time>
      </trkpt>
      <trkpt lat="42.56353" lon="1.99634">
        <ele>2019.87</ele>
        <time>2018-08-08T13:55:41Z</time>
      </trkpt>
      <trkpt lat="42.56339" lon="1.99639">
        <ele>2019.39</ele>
        <time>2018-08-08T13:55:55Z</time>
      </trkpt>
      <trkpt lat="42.56328" lon="1.99645">
        <ele>2019.39</ele>
        <time>2018-08-08T13:56:13Z</time>
      </trkpt>
      <trkpt lat="42.56315" lon="1.99655">
        <ele>2019.39</ele>
        <time>2018-08-08T13:56:31Z</time>
      </trkpt>
      <trkpt lat="42.56295" lon="1.99655">
        <ele>2019.39</ele>
        <time>2018-08-08T13:56:48Z</time>
      </trkpt>
      <trkpt lat="42.56281" lon="1.99659">
        <ele>2018.91</ele>
        <time>2018-08-08T13:57:04Z</time>
      </trkpt>
      <trkpt lat="42.56273" lon="1.99669">
        <ele>2017.46</ele>
        <time>2018-08-08T13:57:17Z</time>
      </trkpt>
      <trkpt lat="42.56265" lon="1.99677">
        <ele>2015.54</ele>
        <time>2018-08-08T13:57:35Z</time>
      </trkpt>
      <trkpt lat="42.56257" lon="1.99678">
        <ele>2015.54</ele>
        <time>2018-08-08T13:57:53Z</time>
      </trkpt>
      <trkpt lat="42.56249" lon="1.99684">
        <ele>2015.54</ele>
        <time>2018-08-08T13:58:05Z</time>
      </trkpt>
      <trkpt lat="42.56241" lon="1.99691">
        <ele>2016.02</ele>
        <time>2018-08-08T13:58:19Z</time>
      </trkpt>
      <trkpt lat="42.5623" lon="1.99689">
        <ele>2018.43</ele>
        <time>2018-08-08T13:58:36Z</time>
      </trkpt>
      <trkpt lat="42.56224" lon="1.99689">
        <ele>2018.91</ele>
        <time>2018-08-08T13:58:54Z</time>
      </trkpt>
      <trkpt lat="42.56218" lon="1.99693">
        <ele>2017.94</ele>
        <time>2018-08-08T13:59:09Z</time>
      </trkpt>
      <trkpt lat="42.56209" lon="1.99699">
        <ele>2018.91</ele>
        <time>2018-08-08T13:59:24Z</time>
      </trkpt>
      <trkpt lat="42.562" lon="1.99703">
        <ele>2020.35</ele>
        <time>2018-08-08T13:59:43Z</time>
      </trkpt>
      <trkpt lat="42.56193" lon="1.99704">
        <ele>2021.31</ele>
        <time>2018-08-08T14:00:00Z</time>
      </trkpt>
      <trkpt lat="42.56189" lon="1.99706">
        <ele>2019.87</ele>
        <time>2018-08-08T14:00:06Z</time>
      </trkpt>
      <trkpt lat="42.56183" lon="1.99713">
        <ele>2019.39</ele>
        <time>2018-08-08T14:00:22Z</time>
      </trkpt>
      <trkpt lat="42.56177" lon="1.99721">
        <ele>2017.94</ele>
        <time>2018-08-08T14:00:35Z</time>
      </trkpt>
      <trkpt lat="42.56167" lon="1.99729">
        <ele>2017.46</ele>
        <time>2018-08-08T14:00:52Z</time>
      </trkpt>
      <trkpt lat="42.56161" lon="1.99731">
        <ele>2018.91</ele>
        <time>2018-08-08T14:01:01Z</time>
      </trkpt>
      <trkpt lat="42.5615" lon="1.99737">
        <ele>2018.91</ele>
        <time>2018-08-08T14:01:16Z</time>
      </trkpt>
      <trkpt lat="42.56136" lon="1.99746">
        <ele>2017.94</ele>
        <time>2018-08-08T14:01:32Z</time>
      </trkpt>
      <trkpt lat="42.56124" lon="1.99757">
        <ele>2019.39</ele>
        <time>2018-08-08T14:01:43Z</time>
      </trkpt>
      <trkpt lat="42.56118" lon="1.9976">
        <ele>2019.39</ele>
        <time>2018-08-08T14:01:58Z</time>
      </trkpt>
      <trkpt lat="42.56105" lon="1.99758">
        <ele>2021.31</ele>
        <time>2018-08-08T14:02:15Z</time>
      </trkpt>
      <trkpt lat="42.56093" lon="1.99765">
        <ele>2021.31</ele>
        <time>2018-08-08T14:02:33Z</time>
      </trkpt>
      <trkpt lat="42.56087" lon="1.99761">
        <ele>2021.31</ele>
        <time>2018-08-08T14:02:49Z</time>
      </trkpt>
      <trkpt lat="42.56084" lon="1.99766">
        <ele>2019.39</ele>
        <time>2018-08-08T14:03:02Z</time>
      </trkpt>
      <trkpt lat="42.56071" lon="1.99777">
        <ele>2018.43</ele>
        <time>2018-08-08T14:03:19Z</time>
      </trkpt>
      <trkpt lat="42.56061" lon="1.99781">
        <ele>2018.43</ele>
        <time>2018-08-08T14:03:34Z</time>
      </trkpt>
      <trkpt lat="42.56051" lon="1.99776">
        <ele>2019.87</ele>
        <time>2018-08-08T14:03:49Z</time>
      </trkpt>
      <trkpt lat="42.56041" lon="1.99761">
        <ele>2020.83</ele>
        <time>2018-08-08T14:04:05Z</time>
      </trkpt>
      <trkpt lat="42.56037" lon="1.99753">
        <ele>2022.27</ele>
        <time>2018-08-08T14:04:19Z</time>
      </trkpt>
      <trkpt lat="42.56041" lon="1.99744">
        <ele>2024.19</ele>
        <time>2018-08-08T14:04:34Z</time>
      </trkpt>
      <trkpt lat="42.56045" lon="1.99736">
        <ele>2026.6</ele>
        <time>2018-08-08T14:04:49Z</time>
      </trkpt>
      <trkpt lat="42.56046" lon="1.99728">
        <ele>2029.96</ele>
        <time>2018-08-08T14:05:06Z</time>
      </trkpt>
      <trkpt lat="42.56039" lon="1.99716">
        <ele>2029.96</ele>
        <time>2018-08-08T14:05:22Z</time>
      </trkpt>
      <trkpt lat="42.56035" lon="1.99708">
        <ele>2030.92</ele>
        <time>2018-08-08T14:05:37Z</time>
      </trkpt>
      <trkpt lat="42.56035" lon="1.99704">
        <ele>2031.88</ele>
        <time>2018-08-08T14:05:52Z</time>
      </trkpt>
      <trkpt lat="42.56038" lon="1.99691">
        <ele>2031.88</ele>
        <time>2018-08-08T14:06:15Z</time>
      </trkpt>
      <trkpt lat="42.5604" lon="1.99686">
        <ele>2031.88</ele>
        <time>2018-08-08T14:06:34Z</time>
      </trkpt>
      <trkpt lat="42.56038" lon="1.99687">
        <ele>2031.88</ele>
        <time>2018-08-08T14:06:59Z</time>
      </trkpt>
      <trkpt lat="42.56038" lon="1.99683">
        <ele>2032.36</ele>
        <time>2018-08-08T14:07:33Z</time>
      </trkpt>
      <trkpt lat="42.56044" lon="1.9968">
        <ele>2031.4</ele>
        <time>2018-08-08T14:08:04Z</time>
      </trkpt>
      <trkpt lat="42.56046" lon="1.99681">
        <ele>2031.4</ele>
        <time>2018-08-08T14:08:27Z</time>
      </trkpt>
      <trkpt lat="42.56045" lon="1.99683">
        <ele>2032.84</ele>
        <time>2018-08-08T14:08:43Z</time>
      </trkpt>
      <trkpt lat="42.56045" lon="1.99684">
        <ele>2031.4</ele>
        <time>2018-08-08T14:08:50Z</time>
      </trkpt>
      <trkpt lat="42.56049" lon="1.99681">
        <ele>2030.92</ele>
        <time>2018-08-08T14:09:15Z</time>
      </trkpt>
      <trkpt lat="42.56036" lon="1.99682">
        <ele>2030.92</ele>
        <time>2018-08-08T14:09:46Z</time>
      </trkpt>
      <trkpt lat="42.56041" lon="1.99681">
        <ele>2031.4</ele>
        <time>2018-08-08T14:10:12Z</time>
      </trkpt>
      <trkpt lat="42.56037" lon="1.99685">
        <ele>2031.88</ele>
        <time>2018-08-08T14:10:41Z</time>
      </trkpt>
      <trkpt lat="42.56036" lon="1.9969">
        <ele>2032.36</ele>
        <time>2018-08-08T14:11:07Z</time>
      </trkpt>
      <trkpt lat="42.56039" lon="1.99689">
        <ele>2032.84</ele>
        <time>2018-08-08T14:11:33Z</time>
      </trkpt>
      <trkpt lat="42.56045" lon="1.99685">
        <ele>2032.84</ele>
        <time>2018-08-08T14:12:05Z</time>
      </trkpt>
      <trkpt lat="42.56048" lon="1.99682">
        <ele>2033.33</ele>
        <time>2018-08-08T14:12:33Z</time>
      </trkpt>
      <trkpt lat="42.56049" lon="1.99682">
        <ele>2033.33</ele>
        <time>2018-08-08T14:13:08Z</time>
      </trkpt>
      <trkpt lat="42.56047" lon="1.99685">
        <ele>2033.81</ele>
        <time>2018-08-08T14:13:33Z</time>
      </trkpt>
      <trkpt lat="42.56045" lon="1.99689">
        <ele>2033.81</ele>
        <time>2018-08-08T14:14:06Z</time>
      </trkpt>
      <trkpt lat="42.56044" lon="1.99689">
        <ele>2033.81</ele>
        <time>2018-08-08T14:14:11Z</time>
      </trkpt>
      <trkpt lat="42.56041" lon="1.99686">
        <ele>2034.29</ele>
        <time>2018-08-08T14:14:20Z</time>
      </trkpt>
      <trkpt lat="42.56041" lon="1.99688">
        <ele>2034.29</ele>
        <time>2018-08-08T14:14:25Z</time>
      </trkpt>
      <trkpt lat="42.56045" lon="1.9969">
        <ele>2034.29</ele>
        <time>2018-08-08T14:14:37Z</time>
      </trkpt>
      <trkpt lat="42.5604" lon="1.99689">
        <ele>2034.29</ele>
        <time>2018-08-08T14:15:00Z</time>
      </trkpt>
      <trkpt lat="42.56029" lon="1.99684">
        <ele>2034.77</ele>
        <time>2018-08-08T14:15:26Z</time>
      </trkpt>
      <trkpt lat="42.56042" lon="1.99692">
        <ele>2034.77</ele>
        <time>2018-08-08T14:15:46Z</time>
      </trkpt>
      <trkpt lat="42.56077" lon="1.9966">
        <ele>2034.77</ele>
        <time>2018-08-08T14:16:08Z</time>
      </trkpt>
      <trkpt lat="42.56082" lon="1.99663">
        <ele>2034.77</ele>
        <time>2018-08-08T14:16:29Z</time>
      </trkpt>
      <trkpt lat="42.56108" lon="1.9965">
        <ele>2034.77</ele>
        <time>2018-08-08T14:16:52Z</time>
      </trkpt>
      <trkpt lat="42.56059" lon="1.997">
        <ele>2034.29</ele>
        <time>2018-08-08T14:27:57Z</time>
      </trkpt>
      <trkpt lat="42.56053" lon="1.99682">
        <ele>2034.29</ele>
        <time>2018-08-08T14:28:29Z</time>
      </trkpt>
      <trkpt lat="42.56036" lon="1.9969">
        <ele>2033.33</ele>
        <time>2018-08-08T14:28:52Z</time>
      </trkpt>
      <trkpt lat="42.56038" lon="1.99692">
        <ele>2033.33</ele>
        <time>2018-08-08T14:29:23Z</time>
      </trkpt>
      <trkpt lat="42.56039" lon="1.99688">
        <ele>2033.81</ele>
        <time>2018-08-08T14:29:52Z</time>
      </trkpt>
      <trkpt lat="42.56035" lon="1.9969">
        <ele>2034.77</ele>
        <time>2018-08-08T14:30:17Z</time>
      </trkpt>
      <trkpt lat="42.56035" lon="1.99692">
        <ele>2035.25</ele>
        <time>2018-08-08T14:30:43Z</time>
      </trkpt>
      <trkpt lat="42.56029" lon="1.99695">
        <ele>2035.25</ele>
        <time>2018-08-08T14:31:11Z</time>
      </trkpt>
      <trkpt lat="42.56036" lon="1.99692">
        <ele>2035.25</ele>
        <time>2018-08-08T14:31:33Z</time>
      </trkpt>
      <trkpt lat="42.56026" lon="1.99695">
        <ele>2035.73</ele>
        <time>2018-08-08T14:31:58Z</time>
      </trkpt>
      <trkpt lat="42.56034" lon="1.9969">
        <ele>2035.73</ele>
        <time>2018-08-08T14:32:24Z</time>
      </trkpt>
      <trkpt lat="42.56037" lon="1.99691">
        <ele>2035.73</ele>
        <time>2018-08-08T14:32:50Z</time>
      </trkpt>
      <trkpt lat="42.56028" lon="1.99686">
        <ele>2035.73</ele>
        <time>2018-08-08T14:33:16Z</time>
      </trkpt>
      <trkpt lat="42.56031" lon="1.99687">
        <ele>2035.73</ele>
        <time>2018-08-08T14:33:39Z</time>
      </trkpt>
      <trkpt lat="42.5604" lon="1.99694">
        <ele>2035.73</ele>
        <time>2018-08-08T14:34:06Z</time>
      </trkpt>
      <trkpt lat="42.56042" lon="1.99697">
        <ele>2035.73</ele>
        <time>2018-08-08T14:34:27Z</time>
      </trkpt>
      <trkpt lat="42.56036" lon="1.9969">
        <ele>2035.73</ele>
        <time>2018-08-08T14:34:46Z</time>
      </trkpt>
      <trkpt lat="42.56045" lon="1.99687">
        <ele>2035.73</ele>
        <time>2018-08-08T14:35:11Z</time>
      </trkpt>
      <trkpt lat="42.5604" lon="1.99691">
        <ele>2035.73</ele>
        <time>2018-08-08T14:35:39Z</time>
      </trkpt>
      <trkpt lat="42.56054" lon="1.99689">
        <ele>2035.73</ele>
        <time>2018-08-08T14:36:03Z</time>
      </trkpt>
      <trkpt lat="42.56049" lon="1.99689">
        <ele>2035.73</ele>
        <time>2018-08-08T14:36:29Z</time>
      </trkpt>
      <trkpt lat="42.56045" lon="1.9969">
        <ele>2036.21</ele>
        <time>2018-08-08T14:36:57Z</time>
      </trkpt>
      <trkpt lat="42.5604" lon="1.99694">
        <ele>2035.25</ele>
        <time>2018-08-08T14:37:23Z</time>
      </trkpt>
      <trkpt lat="42.56046" lon="1.99688">
        <ele>2035.25</ele>
        <time>2018-08-08T14:37:53Z</time>
      </trkpt>
      <trkpt lat="42.56041" lon="1.99691">
        <ele>2035.25</ele>
        <time>2018-08-08T14:38:17Z</time>
      </trkpt>
      <trkpt lat="42.5604" lon="1.99694">
        <ele>2036.69</ele>
        <time>2018-08-08T14:38:43Z</time>
      </trkpt>
      <trkpt lat="42.56041" lon="1.99694">
        <ele>2035.73</ele>
        <time>2018-08-08T14:39:09Z</time>
      </trkpt>
      <trkpt lat="42.56043" lon="1.99691">
        <ele>2035.73</ele>
        <time>2018-08-08T14:39:35Z</time>
      </trkpt>
      <trkpt lat="42.56038" lon="1.99693">
        <ele>2035.73</ele>
        <time>2018-08-08T14:40:06Z</time>
      </trkpt>
      <trkpt lat="42.56051" lon="1.99684">
        <ele>2035.25</ele>
        <time>2018-08-08T14:40:32Z</time>
      </trkpt>
      <trkpt lat="42.56041" lon="1.99692">
        <ele>2035.25</ele>
        <time>2018-08-08T14:41:02Z</time>
      </trkpt>
      <trkpt lat="42.56035" lon="1.99694">
        <ele>2035.25</ele>
        <time>2018-08-08T14:41:36Z</time>
      </trkpt>
      <trkpt lat="42.56057" lon="1.99687">
        <ele>2035.25</ele>
        <time>2018-08-08T14:42:06Z</time>
      </trkpt>
      <trkpt lat="42.56041" lon="1.99693">
        <ele>2035.73</ele>
        <time>2018-08-08T14:42:31Z</time>
      </trkpt>
      <trkpt lat="42.56036" lon="1.99693">
        <ele>2035.25</ele>
        <time>2018-08-08T14:42:59Z</time>
      </trkpt>
      <trkpt lat="42.56036" lon="1.99694">
        <ele>2035.25</ele>
        <time>2018-08-08T14:43:27Z</time>
      </trkpt>
      <trkpt lat="42.56041" lon="1.99693">
        <ele>2035.25</ele>
        <time>2018-08-08T14:43:56Z</time>
      </trkpt>
      <trkpt lat="42.56052" lon="1.99682">
        <ele>2035.25</ele>
        <time>2018-08-08T14:44:24Z</time>
      </trkpt>
      <trkpt lat="42.56046" lon="1.99688">
        <ele>2035.25</ele>
        <time>2018-08-08T14:44:48Z</time>
      </trkpt>
      <trkpt lat="42.5604" lon="1.99694">
        <ele>2035.25</ele>
        <time>2018-08-08T14:45:12Z</time>
      </trkpt>
      <trkpt lat="42.56031" lon="1.99698">
        <ele>2035.25</ele>
        <time>2018-08-08T14:45:36Z</time>
      </trkpt>
      <trkpt lat="42.56022" lon="1.99698">
        <ele>2035.25</ele>
        <time>2018-08-08T14:46:02Z</time>
      </trkpt>
      <trkpt lat="42.56024" lon="1.99702">
        <ele>2035.25</ele>
        <time>2018-08-08T14:46:26Z</time>
      </trkpt>
      <trkpt lat="42.56034" lon="1.99703">
        <ele>2035.25</ele>
        <time>2018-08-08T14:46:49Z</time>
      </trkpt>
      <trkpt lat="42.56032" lon="1.99695">
        <ele>2035.25</ele>
        <time>2018-08-08T14:47:14Z</time>
      </trkpt>
      <trkpt lat="42.56033" lon="1.99696">
        <ele>2035.25</ele>
        <time>2018-08-08T14:47:42Z</time>
      </trkpt>
      <trkpt lat="42.56037" lon="1.99696">
        <ele>2035.25</ele>
        <time>2018-08-08T14:48:07Z</time>
      </trkpt>
      <trkpt lat="42.56025" lon="1.99704">
        <ele>2035.25</ele>
        <time>2018-08-08T14:48:32Z</time>
      </trkpt>
      <trkpt lat="42.56021" lon="1.99701">
        <ele>2034.77</ele>
        <time>2018-08-08T14:49:01Z</time>
      </trkpt>
      <trkpt lat="42.56028" lon="1.99694">
        <ele>2034.77</ele>
        <time>2018-08-08T14:49:33Z</time>
      </trkpt>
      <trkpt lat="42.5603" lon="1.99694">
        <ele>2034.77</ele>
        <time>2018-08-08T14:50:01Z</time>
      </trkpt>
      <trkpt lat="42.56039" lon="1.99692">
        <ele>2034.77</ele>
        <time>2018-08-08T14:50:24Z</time>
      </trkpt>
      <trkpt lat="42.56048" lon="1.99696">
        <ele>2034.77</ele>
        <time>2018-08-08T14:50:40Z</time>
      </trkpt>
      <trkpt lat="42.56075" lon="1.99697">
        <ele>2034.77</ele>
        <time>2018-08-08T14:51:02Z</time>
      </trkpt>
      <trkpt lat="42.56099" lon="1.99694">
        <ele>2034.77</ele>
        <time>2018-08-08T14:51:30Z</time>
      </trkpt>
      <trkpt lat="42.56096" lon="1.99698">
        <ele>2034.77</ele>
        <time>2018-08-08T14:51:55Z</time>
      </trkpt>
      <trkpt lat="42.56075" lon="1.99695">
        <ele>2034.29</ele>
        <time>2018-08-08T14:52:22Z</time>
      </trkpt>
      <trkpt lat="42.56066" lon="1.99691">
        <ele>2034.29</ele>
        <time>2018-08-08T14:52:45Z</time>
      </trkpt>
      <trkpt lat="42.56076" lon="1.99695">
        <ele>2034.29</ele>
        <time>2018-08-08T14:53:10Z</time>
      </trkpt>
      <trkpt lat="42.56071" lon="1.99702">
        <ele>2034.29</ele>
        <time>2018-08-08T14:53:33Z</time>
      </trkpt>
      <trkpt lat="42.56061" lon="1.99708">
        <ele>2034.29</ele>
        <time>2018-08-08T14:53:55Z</time>
      </trkpt>
      <trkpt lat="42.56061" lon="1.99709">
        <ele>2034.29</ele>
        <time>2018-08-08T14:53:56Z</time>
      </trkpt>
      <trkpt lat="42.56075" lon="1.99735">
        <ele>2034.29</ele>
        <time>2018-08-08T14:54:08Z</time>
      </trkpt>
      <trkpt lat="42.56101" lon="1.9973">
        <ele>2034.29</ele>
        <time>2018-08-08T14:54:27Z</time>
      </trkpt>
      <trkpt lat="42.56107" lon="1.99709">
        <ele>2034.29</ele>
        <time>2018-08-08T14:54:50Z</time>
      </trkpt>
      <trkpt lat="42.5609" lon="1.99706">
        <ele>2034.29</ele>
        <time>2018-08-08T14:55:13Z</time>
      </trkpt>
      <trkpt lat="42.56095" lon="1.99704">
        <ele>2034.29</ele>
        <time>2018-08-08T14:55:38Z</time>
      </trkpt>
      <trkpt lat="42.56105" lon="1.99699">
        <ele>2034.29</ele>
        <time>2018-08-08T14:56:05Z</time>
      </trkpt>
      <trkpt lat="42.56102" lon="1.99686">
        <ele>2034.29</ele>
        <time>2018-08-08T14:56:32Z</time>
      </trkpt>
      <trkpt lat="42.56109" lon="1.99685">
        <ele>2034.29</ele>
        <time>2018-08-08T14:56:55Z</time>
      </trkpt>
      <trkpt lat="42.561" lon="1.99697">
        <ele>2034.29</ele>
        <time>2018-08-08T14:57:14Z</time>
      </trkpt>
      <trkpt lat="42.56094" lon="1.99701">
        <ele>2035.73</ele>
        <time>2018-08-08T14:57:35Z</time>
      </trkpt>
      <trkpt lat="42.56079" lon="1.99695">
        <ele>2035.25</ele>
        <time>2018-08-08T14:57:48Z</time>
      </trkpt>
      <trkpt lat="42.56041" lon="1.99691">
        <ele>2035.25</ele>
        <time>2018-08-08T14:57:58Z</time>
      </trkpt>
      <trkpt lat="42.5604" lon="1.99692">
        <ele>2035.25</ele>
        <time>2018-08-08T14:58:08Z</time>
      </trkpt>
      <trkpt lat="42.56038" lon="1.99692">
        <ele>2035.25</ele>
        <time>2018-08-08T14:58:22Z</time>
      </trkpt>
      <trkpt lat="42.56037" lon="1.9969">
        <ele>2035.25</ele>
        <time>2018-08-08T14:58:38Z</time>
      </trkpt>
      <trkpt lat="42.56032" lon="1.99688">
        <ele>2035.25</ele>
        <time>2018-08-08T14:58:55Z</time>
      </trkpt>
      <trkpt lat="42.56032" lon="1.99698">
        <ele>2035.25</ele>
        <time>2018-08-08T14:59:11Z</time>
      </trkpt>
      <trkpt lat="42.56036" lon="1.99708">
        <ele>2035.25</ele>
        <time>2018-08-08T14:59:26Z</time>
      </trkpt>
      <trkpt lat="42.5604" lon="1.99718">
        <ele>2033.81</ele>
        <time>2018-08-08T14:59:40Z</time>
      </trkpt>
      <trkpt lat="42.56046" lon="1.9973">
        <ele>2033.33</ele>
        <time>2018-08-08T14:59:55Z</time>
      </trkpt>
      <trkpt lat="42.56042" lon="1.99737">
        <ele>2029.96</ele>
        <time>2018-08-08T15:00:09Z</time>
      </trkpt>
      <trkpt lat="42.56038" lon="1.99744">
        <ele>2028.04</ele>
        <time>2018-08-08T15:00:23Z</time>
      </trkpt>
      <trkpt lat="42.56037" lon="1.99755">
        <ele>2026.6</ele>
        <time>2018-08-08T15:00:37Z</time>
      </trkpt>
      <trkpt lat="42.56036" lon="1.99761">
        <ele>2025.64</ele>
        <time>2018-08-08T15:00:50Z</time>
      </trkpt>
      <trkpt lat="42.56036" lon="1.99769">
        <ele>2024.67</ele>
        <time>2018-08-08T15:01:06Z</time>
      </trkpt>
      <trkpt lat="42.56038" lon="1.99782">
        <ele>2023.71</ele>
        <time>2018-08-08T15:01:20Z</time>
      </trkpt>
      <trkpt lat="42.56037" lon="1.99788">
        <ele>2023.71</ele>
        <time>2018-08-08T15:01:27Z</time>
      </trkpt>
      <trkpt lat="42.5603" lon="1.99799">
        <ele>2022.27</ele>
        <time>2018-08-08T15:01:43Z</time>
      </trkpt>
      <trkpt lat="42.56023" lon="1.9981">
        <ele>2020.83</ele>
        <time>2018-08-08T15:01:58Z</time>
      </trkpt>
      <trkpt lat="42.56017" lon="1.99823">
        <ele>2020.83</ele>
        <time>2018-08-08T15:02:12Z</time>
      </trkpt>
      <trkpt lat="42.5601" lon="1.99836">
        <ele>2020.35</ele>
        <time>2018-08-08T15:02:26Z</time>
      </trkpt>
      <trkpt lat="42.56006" lon="1.99843">
        <ele>2020.35</ele>
        <time>2018-08-08T15:02:36Z</time>
      </trkpt>
      <trkpt lat="42.55997" lon="1.99849">
        <ele>2021.79</ele>
        <time>2018-08-08T15:02:49Z</time>
      </trkpt>
      <trkpt lat="42.55988" lon="1.99855">
        <ele>2021.79</ele>
        <time>2018-08-08T15:03:03Z</time>
      </trkpt>
      <trkpt lat="42.55979" lon="1.99861">
        <ele>2021.79</ele>
        <time>2018-08-08T15:03:19Z</time>
      </trkpt>
      <trkpt lat="42.55975" lon="1.99864">
        <ele>2021.79</ele>
        <time>2018-08-08T15:03:25Z</time>
      </trkpt>
      <trkpt lat="42.55973" lon="1.99865">
        <ele>2021.79</ele>
        <time>2018-08-08T15:03:27Z</time>
      </trkpt>
      <trkpt lat="42.5597" lon="1.99877">
        <ele>2021.79</ele>
        <time>2018-08-08T15:03:41Z</time>
      </trkpt>
      <trkpt lat="42.55969" lon="1.99884">
        <ele>2020.35</ele>
        <time>2018-08-08T15:03:50Z</time>
      </trkpt>
      <trkpt lat="42.55969" lon="1.99888">
        <ele>2019.87</ele>
        <time>2018-08-08T15:03:55Z</time>
      </trkpt>
      <trkpt lat="42.55968" lon="1.99903">
        <ele>2018.43</ele>
        <time>2018-08-08T15:04:09Z</time>
      </trkpt>
      <trkpt lat="42.55968" lon="1.99918">
        <ele>2016.98</ele>
        <time>2018-08-08T15:04:24Z</time>
      </trkpt>
      <trkpt lat="42.55969" lon="1.99921">
        <ele>2016.98</ele>
        <time>2018-08-08T15:04:28Z</time>
      </trkpt>
      <trkpt lat="42.55971" lon="1.99935">
        <ele>2015.06</ele>
        <time>2018-08-08T15:04:42Z</time>
      </trkpt>
      <trkpt lat="42.55974" lon="1.9995">
        <ele>2013.14</ele>
        <time>2018-08-08T15:04:58Z</time>
      </trkpt>
      <trkpt lat="42.55977" lon="1.99967">
        <ele>2011.7</ele>
        <time>2018-08-08T15:05:15Z</time>
      </trkpt>
      <trkpt lat="42.55977" lon="1.99982">
        <ele>2010.25</ele>
        <time>2018-08-08T15:05:30Z</time>
      </trkpt>
      <trkpt lat="42.55974" lon="1.99997">
        <ele>2008.33</ele>
        <time>2018-08-08T15:05:46Z</time>
      </trkpt>
      <trkpt lat="42.5597" lon="2.00015">
        <ele>2005.93</ele>
        <time>2018-08-08T15:06:03Z</time>
      </trkpt>
      <trkpt lat="42.55974" lon="2.00035">
        <ele>2005.45</ele>
        <time>2018-08-08T15:06:20Z</time>
      </trkpt>
      <trkpt lat="42.55976" lon="2.00052">
        <ele>2005.45</ele>
        <time>2018-08-08T15:06:34Z</time>
      </trkpt>
      <trkpt lat="42.55975" lon="2.00066">
        <ele>2004.97</ele>
        <time>2018-08-08T15:06:47Z</time>
      </trkpt>
      <trkpt lat="42.55973" lon="2.00083">
        <ele>2004.97</ele>
        <time>2018-08-08T15:07:01Z</time>
      </trkpt>
      <trkpt lat="42.5597" lon="2.00093">
        <ele>2004.49</ele>
        <time>2018-08-08T15:07:10Z</time>
      </trkpt>
      <trkpt lat="42.55967" lon="2.00108">
        <ele>2004.49</ele>
        <time>2018-08-08T15:07:23Z</time>
      </trkpt>
      <trkpt lat="42.55963" lon="2.00128">
        <ele>2004.01</ele>
        <time>2018-08-08T15:07:39Z</time>
      </trkpt>
      <trkpt lat="42.55959" lon="2.00144">
        <ele>2003.52</ele>
        <time>2018-08-08T15:07:54Z</time>
      </trkpt>
      <trkpt lat="42.55949" lon="2.00151">
        <ele>2003.52</ele>
        <time>2018-08-08T15:08:09Z</time>
      </trkpt>
      <trkpt lat="42.5594" lon="2.0016">
        <ele>2003.52</ele>
        <time>2018-08-08T15:08:25Z</time>
      </trkpt>
      <trkpt lat="42.5594" lon="2.00164">
        <ele>2003.52</ele>
        <time>2018-08-08T15:08:38Z</time>
      </trkpt>
      <trkpt lat="42.5594" lon="2.00164">
        <ele>2003.52</ele>
        <time>2018-08-08T15:09:01Z</time>
      </trkpt>
      <trkpt lat="42.55941" lon="2.00163">
        <ele>2002.56</ele>
        <time>2018-08-08T15:09:15Z</time>
      </trkpt>
      <trkpt lat="42.5594" lon="2.00166">
        <ele>2002.08</ele>
        <time>2018-08-08T15:09:26Z</time>
      </trkpt>
    </trkseg>
  </trk>
</gpx>